<?xml version="1.0" encoding="UTF-8" standalone="no" ?>
<gpx xmlns="http://www.topografix.com/GPX/1/1" xmlns:xsi="http://www.w3.org/2001/XMLSchema-instance" xsi:schemaLocation="http://www.topografix.com/GPX/1/1 http://www.topografix.com/GPX/1/1/gpx.xsd" version="1.1" creator="VisuGPX - https://www.visugpx.com">
  <metadata>
    <name>2015-11-05 Roche Blanche et défilé magique</name>
    <desc><![CDATA[Curiosités chartrousaines au départ des Varvat]]></desc>
  </metadata>
  <trk>
    <name><![CDATA[2015-11-05 Défilé magique]]></name>
    <trkseg>
      <trkpt lat="45.4126" lon="5.88653">
        <ele>1039</ele>
        <time>2015-11-05T07:42:32Z</time>
      </trkpt>
      <trkpt lat="45.41262" lon="5.88655">
        <ele>1039</ele>
        <time>2015-11-05T07:42:49Z</time>
      </trkpt>
      <trkpt lat="45.41259" lon="5.8866">
        <ele>1039</ele>
        <time>2015-11-05T07:42:53Z</time>
      </trkpt>
      <trkpt lat="45.41253" lon="5.88656">
        <ele>1034.339765181</ele>
        <time>2015-11-05T07:43:03Z</time>
      </trkpt>
      <trkpt lat="45.41253" lon="5.88657">
        <ele>1034.339765181</ele>
        <time>2015-11-05T07:43:08Z</time>
      </trkpt>
      <trkpt lat="45.41254" lon="5.88657">
        <ele>1034.339765181</ele>
        <time>2015-11-05T07:43:18Z</time>
      </trkpt>
      <trkpt lat="45.41252" lon="5.8866">
        <ele>1034.339765181</ele>
        <time>2015-11-05T07:43:23Z</time>
      </trkpt>
      <trkpt lat="45.41244" lon="5.88675">
        <ele>1042.959058629</ele>
        <time>2015-11-05T07:43:39Z</time>
      </trkpt>
      <trkpt lat="45.4124" lon="5.88681">
        <ele>1042.959058629</ele>
        <time>2015-11-05T07:43:48Z</time>
      </trkpt>
      <trkpt lat="45.41241" lon="5.88683">
        <ele>1042.959058629</ele>
        <time>2015-11-05T07:43:53Z</time>
      </trkpt>
      <trkpt lat="45.41236" lon="5.88689">
        <ele>1048.366832863</ele>
        <time>2015-11-05T07:44:08Z</time>
      </trkpt>
      <trkpt lat="45.41235" lon="5.88691">
        <ele>1048.366832863</ele>
        <time>2015-11-05T07:44:12Z</time>
      </trkpt>
      <trkpt lat="45.41233" lon="5.88696">
        <ele>1048.366832863</ele>
        <time>2015-11-05T07:44:23Z</time>
      </trkpt>
      <trkpt lat="45.41231" lon="5.88699">
        <ele>1054.892649079</ele>
        <time>2015-11-05T07:44:27Z</time>
      </trkpt>
      <trkpt lat="45.41222" lon="5.88707">
        <ele>1060.681775902</ele>
        <time>2015-11-05T07:44:38Z</time>
      </trkpt>
      <trkpt lat="45.41223" lon="5.8871">
        <ele>1060.681775902</ele>
        <time>2015-11-05T07:44:43Z</time>
      </trkpt>
      <trkpt lat="45.41216" lon="5.88719">
        <ele>1065.256184293</ele>
        <time>2015-11-05T07:44:53Z</time>
      </trkpt>
      <trkpt lat="45.41209" lon="5.88721">
        <ele>1065.256184293</ele>
        <time>2015-11-05T07:44:58Z</time>
      </trkpt>
      <trkpt lat="45.41202" lon="5.88725">
        <ele>1070.154241745</ele>
        <time>2015-11-05T07:45:11Z</time>
      </trkpt>
      <trkpt lat="45.41193" lon="5.88737">
        <ele>1074.73334386</ele>
        <time>2015-11-05T07:45:33Z</time>
      </trkpt>
      <trkpt lat="45.41186" lon="5.88751">
        <ele>1079.054462027</ele>
        <time>2015-11-05T07:45:51Z</time>
      </trkpt>
      <trkpt lat="45.41186" lon="5.88751">
        <ele>1079.054462027</ele>
        <time>2015-11-05T07:45:52Z</time>
      </trkpt>
      <trkpt lat="45.41187" lon="5.88752">
        <ele>1079.054462027</ele>
        <time>2015-11-05T07:45:58Z</time>
      </trkpt>
      <trkpt lat="45.41185" lon="5.88761">
        <ele>1079.054462027</ele>
        <time>2015-11-05T07:46:08Z</time>
      </trkpt>
      <trkpt lat="45.41183" lon="5.88764">
        <ele>1083.724879569</ele>
        <time>2015-11-05T07:46:13Z</time>
      </trkpt>
      <trkpt lat="45.41182" lon="5.88775">
        <ele>1083.724879569</ele>
        <time>2015-11-05T07:46:23Z</time>
      </trkpt>
      <trkpt lat="45.41181" lon="5.88777">
        <ele>1087.183706202</ele>
        <time>2015-11-05T07:46:28Z</time>
      </trkpt>
      <trkpt lat="45.41177" lon="5.88783">
        <ele>1087.183706202</ele>
        <time>2015-11-05T07:46:38Z</time>
      </trkpt>
      <trkpt lat="45.41178" lon="5.88783">
        <ele>1087.183706202</ele>
        <time>2015-11-05T07:46:43Z</time>
      </trkpt>
      <trkpt lat="45.41172" lon="5.88791">
        <ele>1090.209383669</ele>
        <time>2015-11-05T07:46:53Z</time>
      </trkpt>
      <trkpt lat="45.41172" lon="5.88793">
        <ele>1090.209383669</ele>
        <time>2015-11-05T07:46:58Z</time>
      </trkpt>
      <trkpt lat="45.41163" lon="5.88803">
        <ele>1092.706758047</ele>
        <time>2015-11-05T07:47:15Z</time>
      </trkpt>
      <trkpt lat="45.41162" lon="5.88803">
        <ele>1092.706758047</ele>
        <time>2015-11-05T07:47:15Z</time>
      </trkpt>
      <trkpt lat="45.41162" lon="5.88807">
        <ele>1092.706758047</ele>
        <time>2015-11-05T07:47:26Z</time>
      </trkpt>
      <trkpt lat="45.41161" lon="5.88807">
        <ele>1092.706758047</ele>
        <time>2015-11-05T07:47:26Z</time>
      </trkpt>
      <trkpt lat="45.41161" lon="5.88807">
        <ele>1092.706758047</ele>
        <time>2015-11-05T07:47:28Z</time>
      </trkpt>
      <trkpt lat="45.4116" lon="5.88821">
        <ele>1094.437481141</ele>
        <time>2015-11-05T07:47:40Z</time>
      </trkpt>
      <trkpt lat="45.41159" lon="5.88821">
        <ele>1094.437481141</ele>
        <time>2015-11-05T07:47:42Z</time>
      </trkpt>
      <trkpt lat="45.41156" lon="5.88829">
        <ele>1094.437481141</ele>
        <time>2015-11-05T07:48:00Z</time>
      </trkpt>
      <trkpt lat="45.41156" lon="5.88833">
        <ele>1097.520871375</ele>
        <time>2015-11-05T07:48:02Z</time>
      </trkpt>
      <trkpt lat="45.41153" lon="5.88838">
        <ele>1097.520871375</ele>
        <time>2015-11-05T07:48:13Z</time>
      </trkpt>
      <trkpt lat="45.41153" lon="5.88839">
        <ele>1097.520871375</ele>
        <time>2015-11-05T07:48:18Z</time>
      </trkpt>
      <trkpt lat="45.41152" lon="5.88841">
        <ele>1097.520871375</ele>
        <time>2015-11-05T07:48:28Z</time>
      </trkpt>
      <trkpt lat="45.41151" lon="5.88841">
        <ele>1097.520871375</ele>
        <time>2015-11-05T07:48:33Z</time>
      </trkpt>
      <trkpt lat="45.41147" lon="5.88842">
        <ele>1100.877886778</ele>
        <time>2015-11-05T07:48:43Z</time>
      </trkpt>
      <trkpt lat="45.41141" lon="5.88847">
        <ele>1100.877886778</ele>
        <time>2015-11-05T07:48:48Z</time>
      </trkpt>
      <trkpt lat="45.41137" lon="5.88853">
        <ele>1103.694393872</ele>
        <time>2015-11-05T07:48:58Z</time>
      </trkpt>
      <trkpt lat="45.41136" lon="5.8886">
        <ele>1103.694393872</ele>
        <time>2015-11-05T07:49:03Z</time>
      </trkpt>
      <trkpt lat="45.41132" lon="5.88865">
        <ele>1106.379713463</ele>
        <time>2015-11-05T07:49:16Z</time>
      </trkpt>
      <trkpt lat="45.41131" lon="5.88867">
        <ele>1106.379713463</ele>
        <time>2015-11-05T07:49:22Z</time>
      </trkpt>
      <trkpt lat="45.41104" lon="5.88896">
        <ele>1108.494559316</ele>
        <time>2015-11-05T07:50:08Z</time>
      </trkpt>
      <trkpt lat="45.41105" lon="5.88896">
        <ele>1108.494559316</ele>
        <time>2015-11-05T07:50:13Z</time>
      </trkpt>
      <trkpt lat="45.41106" lon="5.88899">
        <ele>1108.494559316</ele>
        <time>2015-11-05T07:50:23Z</time>
      </trkpt>
      <trkpt lat="45.41106" lon="5.88909">
        <ele>1110.282048246</ele>
        <time>2015-11-05T07:50:28Z</time>
      </trkpt>
      <trkpt lat="45.41098" lon="5.88912">
        <ele>1110.282048246</ele>
        <time>2015-11-05T07:50:37Z</time>
      </trkpt>
      <trkpt lat="45.41092" lon="5.88913">
        <ele>1112.106361628</ele>
        <time>2015-11-05T07:50:43Z</time>
      </trkpt>
      <trkpt lat="45.4109" lon="5.88916">
        <ele>1112.106361628</ele>
        <time>2015-11-05T07:50:53Z</time>
      </trkpt>
      <trkpt lat="45.41088" lon="5.88917">
        <ele>1112.106361628</ele>
        <time>2015-11-05T07:50:58Z</time>
      </trkpt>
      <trkpt lat="45.41082" lon="5.88924">
        <ele>1114.280104604</ele>
        <time>2015-11-05T07:51:08Z</time>
      </trkpt>
      <trkpt lat="45.41079" lon="5.88928">
        <ele>1114.280104604</ele>
        <time>2015-11-05T07:51:13Z</time>
      </trkpt>
      <trkpt lat="45.41068" lon="5.8893">
        <ele>1117.070790308</ele>
        <time>2015-11-05T07:51:26Z</time>
      </trkpt>
      <trkpt lat="45.41067" lon="5.88931">
        <ele>1117.070790308</ele>
        <time>2015-11-05T07:51:27Z</time>
      </trkpt>
      <trkpt lat="45.41067" lon="5.88934">
        <ele>1117.070790308</ele>
        <time>2015-11-05T07:51:42Z</time>
      </trkpt>
      <trkpt lat="45.41064" lon="5.88936">
        <ele>1117.070790308</ele>
        <time>2015-11-05T07:51:57Z</time>
      </trkpt>
      <trkpt lat="45.41066" lon="5.88936">
        <ele>1117.070790308</ele>
        <time>2015-11-05T07:51:57Z</time>
      </trkpt>
      <trkpt lat="45.41064" lon="5.88937">
        <ele>1117.070790308</ele>
        <time>2015-11-05T07:51:58Z</time>
      </trkpt>
      <trkpt lat="45.41062" lon="5.88949">
        <ele>1119.67434855</ele>
        <time>2015-11-05T07:52:10Z</time>
      </trkpt>
      <trkpt lat="45.41062" lon="5.88951">
        <ele>1119.67434855</ele>
        <time>2015-11-05T07:52:12Z</time>
      </trkpt>
      <trkpt lat="45.41061" lon="5.88952">
        <ele>1119.67434855</ele>
        <time>2015-11-05T07:52:18Z</time>
      </trkpt>
      <trkpt lat="45.41057" lon="5.88957">
        <ele>1119.67434855</ele>
        <time>2015-11-05T07:52:28Z</time>
      </trkpt>
      <trkpt lat="45.41058" lon="5.88957">
        <ele>1119.67434855</ele>
        <time>2015-11-05T07:52:33Z</time>
      </trkpt>
      <trkpt lat="45.41058" lon="5.88957">
        <ele>1119.67434855</ele>
        <time>2015-11-05T07:52:43Z</time>
      </trkpt>
      <trkpt lat="45.41058" lon="5.88957">
        <ele>1119.67434855</ele>
        <time>2015-11-05T07:52:48Z</time>
      </trkpt>
      <trkpt lat="45.41058" lon="5.88957">
        <ele>1119.67434855</ele>
        <time>2015-11-05T07:52:58Z</time>
      </trkpt>
      <trkpt lat="45.41058" lon="5.88957">
        <ele>1119.67434855</ele>
        <time>2015-11-05T07:53:03Z</time>
      </trkpt>
      <trkpt lat="45.41058" lon="5.88957">
        <ele>1119.67434855</ele>
        <time>2015-11-05T07:53:13Z</time>
      </trkpt>
      <trkpt lat="45.41057" lon="5.8896">
        <ele>1122.54983069</ele>
        <time>2015-11-05T07:53:18Z</time>
      </trkpt>
      <trkpt lat="45.41055" lon="5.88964">
        <ele>1122.54983069</ele>
        <time>2015-11-05T07:53:28Z</time>
      </trkpt>
      <trkpt lat="45.41054" lon="5.88968">
        <ele>1122.54983069</ele>
        <time>2015-11-05T07:53:33Z</time>
      </trkpt>
      <trkpt lat="45.41047" lon="5.88982">
        <ele>1125.956224189</ele>
        <time>2015-11-05T07:53:49Z</time>
      </trkpt>
      <trkpt lat="45.41047" lon="5.88989">
        <ele>1125.956224189</ele>
        <time>2015-11-05T07:53:53Z</time>
      </trkpt>
      <trkpt lat="45.41042" lon="5.89001">
        <ele>1128.698683415</ele>
        <time>2015-11-05T07:54:03Z</time>
      </trkpt>
      <trkpt lat="45.41044" lon="5.89008">
        <ele>1128.698683415</ele>
        <time>2015-11-05T07:54:08Z</time>
      </trkpt>
      <trkpt lat="45.41042" lon="5.89025">
        <ele>1130.415688656</ele>
        <time>2015-11-05T07:54:18Z</time>
      </trkpt>
      <trkpt lat="45.41035" lon="5.89046">
        <ele>1132.740500805</ele>
        <time>2015-11-05T07:54:36Z</time>
      </trkpt>
      <trkpt lat="45.41036" lon="5.8905">
        <ele>1132.740500805</ele>
        <time>2015-11-05T07:54:37Z</time>
      </trkpt>
      <trkpt lat="45.41035" lon="5.89064">
        <ele>1134.920082386</ele>
        <time>2015-11-05T07:54:47Z</time>
      </trkpt>
      <trkpt lat="45.41048" lon="5.89104">
        <ele>1135.99080111</ele>
        <time>2015-11-05T07:55:09Z</time>
      </trkpt>
      <trkpt lat="45.41034" lon="5.89137">
        <ele>1137.423809027</ele>
        <time>2015-11-05T07:55:38Z</time>
      </trkpt>
      <trkpt lat="45.41034" lon="5.89138">
        <ele>1137.423809027</ele>
        <time>2015-11-05T07:55:38Z</time>
      </trkpt>
      <trkpt lat="45.41032" lon="5.8914">
        <ele>1137.423809027</ele>
        <time>2015-11-05T07:55:39Z</time>
      </trkpt>
      <trkpt lat="45.4103" lon="5.89157">
        <ele>1137.525740951</ele>
        <time>2015-11-05T07:55:52Z</time>
      </trkpt>
      <trkpt lat="45.41027" lon="5.89156">
        <ele>1137.525740951</ele>
        <time>2015-11-05T07:55:52Z</time>
      </trkpt>
      <trkpt lat="45.41028" lon="5.89157">
        <ele>1137.525740951</ele>
        <time>2015-11-05T07:55:53Z</time>
      </trkpt>
      <trkpt lat="45.41022" lon="5.89171">
        <ele>1137.223202336</ele>
        <time>2015-11-05T07:56:11Z</time>
      </trkpt>
      <trkpt lat="45.41021" lon="5.89172">
        <ele>1137.223202336</ele>
        <time>2015-11-05T07:56:12Z</time>
      </trkpt>
      <trkpt lat="45.40991" lon="5.892">
        <ele>1135.847969868</ele>
        <time>2015-11-05T07:56:47Z</time>
      </trkpt>
      <trkpt lat="45.4099" lon="5.892">
        <ele>1135.847969868</ele>
        <time>2015-11-05T07:56:47Z</time>
      </trkpt>
      <trkpt lat="45.40991" lon="5.89202">
        <ele>1135.847969868</ele>
        <time>2015-11-05T07:56:48Z</time>
      </trkpt>
      <trkpt lat="45.4099" lon="5.89203">
        <ele>1135.847969868</ele>
        <time>2015-11-05T07:56:49Z</time>
      </trkpt>
      <trkpt lat="45.40989" lon="5.89202">
        <ele>1135.847969868</ele>
        <time>2015-11-05T07:56:50Z</time>
      </trkpt>
      <trkpt lat="45.40989" lon="5.89205">
        <ele>1135.847969868</ele>
        <time>2015-11-05T07:56:51Z</time>
      </trkpt>
      <trkpt lat="45.4096" lon="5.89247">
        <ele>1134.314402465</ele>
        <time>2015-11-05T07:57:29Z</time>
      </trkpt>
      <trkpt lat="45.40962" lon="5.89249">
        <ele>1134.314402465</ele>
        <time>2015-11-05T07:57:30Z</time>
      </trkpt>
      <trkpt lat="45.40945" lon="5.89257">
        <ele>1132.219128097</ele>
        <time>2015-11-05T07:57:46Z</time>
      </trkpt>
      <trkpt lat="45.40942" lon="5.89256">
        <ele>1132.219128097</ele>
        <time>2015-11-05T07:57:47Z</time>
      </trkpt>
      <trkpt lat="45.40929" lon="5.89264">
        <ele>1130.17570737</ele>
        <time>2015-11-05T07:58:05Z</time>
      </trkpt>
      <trkpt lat="45.40923" lon="5.89264">
        <ele>1130.17570737</ele>
        <time>2015-11-05T07:58:05Z</time>
      </trkpt>
      <trkpt lat="45.40921" lon="5.89267">
        <ele>1130.17570737</ele>
        <time>2015-11-05T07:58:07Z</time>
      </trkpt>
      <trkpt lat="45.40897" lon="5.89283">
        <ele>1127.483703131</ele>
        <time>2015-11-05T07:58:32Z</time>
      </trkpt>
      <trkpt lat="45.40897" lon="5.89283">
        <ele>1127.483703131</ele>
        <time>2015-11-05T07:58:32Z</time>
      </trkpt>
      <trkpt lat="45.40898" lon="5.89284">
        <ele>1127.483703131</ele>
        <time>2015-11-05T07:58:33Z</time>
      </trkpt>
      <trkpt lat="45.40897" lon="5.89285">
        <ele>1127.483703131</ele>
        <time>2015-11-05T07:58:34Z</time>
      </trkpt>
      <trkpt lat="45.40884" lon="5.8929">
        <ele>1124.630987531</ele>
        <time>2015-11-05T07:58:46Z</time>
      </trkpt>
      <trkpt lat="45.40883" lon="5.89291">
        <ele>1124.630987531</ele>
        <time>2015-11-05T07:58:47Z</time>
      </trkpt>
      <trkpt lat="45.40882" lon="5.89294">
        <ele>1124.630987531</ele>
        <time>2015-11-05T07:58:48Z</time>
      </trkpt>
      <trkpt lat="45.40872" lon="5.89313">
        <ele>1121.504290588</ele>
        <time>2015-11-05T07:59:04Z</time>
      </trkpt>
      <trkpt lat="45.40875" lon="5.8932">
        <ele>1121.504290588</ele>
        <time>2015-11-05T07:59:07Z</time>
      </trkpt>
      <trkpt lat="45.40869" lon="5.89335">
        <ele>1118.43510011</ele>
        <time>2015-11-05T07:59:18Z</time>
      </trkpt>
      <trkpt lat="45.40868" lon="5.89338">
        <ele>1118.43510011</ele>
        <time>2015-11-05T07:59:23Z</time>
      </trkpt>
      <trkpt lat="45.40866" lon="5.8936">
        <ele>1115.298152557</ele>
        <time>2015-11-05T07:59:38Z</time>
      </trkpt>
      <trkpt lat="45.40865" lon="5.89364">
        <ele>1115.298152557</ele>
        <time>2015-11-05T07:59:43Z</time>
      </trkpt>
      <trkpt lat="45.40867" lon="5.89383">
        <ele>1112.417383966</ele>
        <time>2015-11-05T07:59:53Z</time>
      </trkpt>
      <trkpt lat="45.40866" lon="5.89389">
        <ele>1112.417383966</ele>
        <time>2015-11-05T07:59:58Z</time>
      </trkpt>
      <trkpt lat="45.40869" lon="5.89408">
        <ele>1109.503771858</ele>
        <time>2015-11-05T08:00:08Z</time>
      </trkpt>
      <trkpt lat="45.4087" lon="5.89413">
        <ele>1109.503771858</ele>
        <time>2015-11-05T08:00:13Z</time>
      </trkpt>
      <trkpt lat="45.40868" lon="5.89417">
        <ele>1109.503771858</ele>
        <time>2015-11-05T08:00:23Z</time>
      </trkpt>
      <trkpt lat="45.40868" lon="5.89417">
        <ele>1109.503771858</ele>
        <time>2015-11-05T08:00:28Z</time>
      </trkpt>
      <trkpt lat="45.40866" lon="5.89433">
        <ele>1107.326805564</ele>
        <time>2015-11-05T08:00:38Z</time>
      </trkpt>
      <trkpt lat="45.40865" lon="5.89442">
        <ele>1107.326805564</ele>
        <time>2015-11-05T08:00:43Z</time>
      </trkpt>
      <trkpt lat="45.40861" lon="5.8946">
        <ele>1106.454914073</ele>
        <time>2015-11-05T08:00:58Z</time>
      </trkpt>
      <trkpt lat="45.40863" lon="5.89468">
        <ele>1106.454914073</ele>
        <time>2015-11-05T08:01:03Z</time>
      </trkpt>
      <trkpt lat="45.40859" lon="5.89488">
        <ele>1104.860664064</ele>
        <time>2015-11-05T08:01:13Z</time>
      </trkpt>
      <trkpt lat="45.40853" lon="5.8949">
        <ele>1104.860664064</ele>
        <time>2015-11-05T08:01:18Z</time>
      </trkpt>
      <trkpt lat="45.40851" lon="5.89499">
        <ele>1103.660239364</ele>
        <time>2015-11-05T08:01:28Z</time>
      </trkpt>
      <trkpt lat="45.40843" lon="5.89503">
        <ele>1103.660239364</ele>
        <time>2015-11-05T08:01:33Z</time>
      </trkpt>
      <trkpt lat="45.4084" lon="5.89513">
        <ele>1102.534779623</ele>
        <time>2015-11-05T08:01:43Z</time>
      </trkpt>
      <trkpt lat="45.40838" lon="5.89516">
        <ele>1102.534779623</ele>
        <time>2015-11-05T08:01:48Z</time>
      </trkpt>
      <trkpt lat="45.40837" lon="5.89517">
        <ele>1102.534779623</ele>
        <time>2015-11-05T08:01:58Z</time>
      </trkpt>
      <trkpt lat="45.40837" lon="5.89517">
        <ele>1102.534779623</ele>
        <time>2015-11-05T08:02:03Z</time>
      </trkpt>
      <trkpt lat="45.40816" lon="5.89521">
        <ele>1101.035527106</ele>
        <time>2015-11-05T08:02:13Z</time>
      </trkpt>
      <trkpt lat="45.4081" lon="5.89522">
        <ele>1101.035527106</ele>
        <time>2015-11-05T08:02:18Z</time>
      </trkpt>
      <trkpt lat="45.40801" lon="5.89529">
        <ele>1100.710234161</ele>
        <time>2015-11-05T08:02:28Z</time>
      </trkpt>
      <trkpt lat="45.408" lon="5.8953">
        <ele>1100.710234161</ele>
        <time>2015-11-05T08:02:33Z</time>
      </trkpt>
      <trkpt lat="45.40799" lon="5.8953">
        <ele>1100.710234161</ele>
        <time>2015-11-05T08:02:43Z</time>
      </trkpt>
      <trkpt lat="45.40799" lon="5.8953">
        <ele>1100.710234161</ele>
        <time>2015-11-05T08:02:48Z</time>
      </trkpt>
      <trkpt lat="45.40796" lon="5.89529">
        <ele>1100.710234161</ele>
        <time>2015-11-05T08:02:58Z</time>
      </trkpt>
      <trkpt lat="45.40778" lon="5.89526">
        <ele>1100.115626111</ele>
        <time>2015-11-05T08:03:03Z</time>
      </trkpt>
      <trkpt lat="45.40763" lon="5.8954">
        <ele>1099.730499696</ele>
        <time>2015-11-05T08:03:13Z</time>
      </trkpt>
      <trkpt lat="45.40753" lon="5.89542">
        <ele>1099.542516235</ele>
        <time>2015-11-05T08:03:17Z</time>
      </trkpt>
      <trkpt lat="45.4074" lon="5.89548">
        <ele>1099.689616308</ele>
        <time>2015-11-05T08:03:28Z</time>
      </trkpt>
      <trkpt lat="45.40737" lon="5.89552">
        <ele>1099.689616308</ele>
        <time>2015-11-05T08:03:33Z</time>
      </trkpt>
      <trkpt lat="45.40726" lon="5.89561">
        <ele>1100.597399475</ele>
        <time>2015-11-05T08:03:43Z</time>
      </trkpt>
      <trkpt lat="45.40723" lon="5.89558">
        <ele>1100.597399475</ele>
        <time>2015-11-05T08:03:48Z</time>
      </trkpt>
      <trkpt lat="45.40706" lon="5.89559">
        <ele>1102.503285632</ele>
        <time>2015-11-05T08:04:02Z</time>
      </trkpt>
      <trkpt lat="45.40699" lon="5.89558">
        <ele>1102.503285632</ele>
        <time>2015-11-05T08:04:08Z</time>
      </trkpt>
      <trkpt lat="45.40697" lon="5.89559">
        <ele>1102.503285632</ele>
        <time>2015-11-05T08:04:18Z</time>
      </trkpt>
      <trkpt lat="45.40697" lon="5.89559">
        <ele>1102.503285632</ele>
        <time>2015-11-05T08:04:23Z</time>
      </trkpt>
      <trkpt lat="45.40697" lon="5.89559">
        <ele>1104.723302983</ele>
        <time>2015-11-05T08:04:33Z</time>
      </trkpt>
      <trkpt lat="45.40677" lon="5.89556">
        <ele>1107.973360375</ele>
        <time>2015-11-05T08:04:38Z</time>
      </trkpt>
      <trkpt lat="45.40664" lon="5.8955">
        <ele>1110.820902709</ele>
        <time>2015-11-05T08:04:48Z</time>
      </trkpt>
      <trkpt lat="45.40665" lon="5.89549">
        <ele>1110.820902709</ele>
        <time>2015-11-05T08:04:53Z</time>
      </trkpt>
      <trkpt lat="45.40663" lon="5.89549">
        <ele>1110.820902709</ele>
        <time>2015-11-05T08:05:03Z</time>
      </trkpt>
      <trkpt lat="45.40663" lon="5.89549">
        <ele>1110.820902709</ele>
        <time>2015-11-05T08:05:08Z</time>
      </trkpt>
      <trkpt lat="45.40655" lon="5.89547">
        <ele>1112.995410399</ele>
        <time>2015-11-05T08:05:18Z</time>
      </trkpt>
      <trkpt lat="45.40649" lon="5.89545">
        <ele>1112.995410399</ele>
        <time>2015-11-05T08:05:23Z</time>
      </trkpt>
      <trkpt lat="45.40624" lon="5.89532">
        <ele>1114.251292536</ele>
        <time>2015-11-05T08:05:38Z</time>
      </trkpt>
      <trkpt lat="45.40619" lon="5.89531">
        <ele>1114.251292536</ele>
        <time>2015-11-05T08:05:43Z</time>
      </trkpt>
      <trkpt lat="45.40603" lon="5.89526">
        <ele>1115.696665622</ele>
        <time>2015-11-05T08:05:53Z</time>
      </trkpt>
      <trkpt lat="45.40611" lon="5.89526">
        <ele>1115.696665622</ele>
        <time>2015-11-05T08:05:58Z</time>
      </trkpt>
      <trkpt lat="45.40613" lon="5.89527">
        <ele>1116.576602736</ele>
        <time>2015-11-05T08:06:08Z</time>
      </trkpt>
      <trkpt lat="45.4061" lon="5.8953">
        <ele>1116.576602736</ele>
        <time>2015-11-05T08:06:13Z</time>
      </trkpt>
      <trkpt lat="45.40609" lon="5.89528">
        <ele>1116.576602736</ele>
        <time>2015-11-05T08:06:23Z</time>
      </trkpt>
      <trkpt lat="45.40608" lon="5.89527">
        <ele>1116.576602736</ele>
        <time>2015-11-05T08:06:28Z</time>
      </trkpt>
      <trkpt lat="45.40608" lon="5.89527">
        <ele>1116.576602736</ele>
        <time>2015-11-05T08:06:38Z</time>
      </trkpt>
      <trkpt lat="45.40608" lon="5.89527">
        <ele>1116.576602736</ele>
        <time>2015-11-05T08:06:43Z</time>
      </trkpt>
      <trkpt lat="45.40608" lon="5.89527">
        <ele>1116.576602736</ele>
        <time>2015-11-05T08:06:53Z</time>
      </trkpt>
      <trkpt lat="45.40608" lon="5.89527">
        <ele>1116.576602736</ele>
        <time>2015-11-05T08:06:57Z</time>
      </trkpt>
      <trkpt lat="45.40608" lon="5.89527">
        <ele>1116.576602736</ele>
        <time>2015-11-05T08:07:12Z</time>
      </trkpt>
      <trkpt lat="45.40608" lon="5.89527">
        <ele>1116.576602736</ele>
        <time>2015-11-05T08:07:17Z</time>
      </trkpt>
      <trkpt lat="45.40608" lon="5.89527">
        <ele>1116.576602736</ele>
        <time>2015-11-05T08:07:27Z</time>
      </trkpt>
      <trkpt lat="45.40608" lon="5.89527">
        <ele>1116.576602736</ele>
        <time>2015-11-05T08:07:32Z</time>
      </trkpt>
      <trkpt lat="45.40608" lon="5.89527">
        <ele>1116.576602736</ele>
        <time>2015-11-05T08:07:43Z</time>
      </trkpt>
      <trkpt lat="45.40608" lon="5.89527">
        <ele>1116.576602736</ele>
        <time>2015-11-05T08:07:48Z</time>
      </trkpt>
      <trkpt lat="45.40608" lon="5.89527">
        <ele>1116.576602736</ele>
        <time>2015-11-05T08:07:58Z</time>
      </trkpt>
      <trkpt lat="45.40608" lon="5.89527">
        <ele>1116.576602736</ele>
        <time>2015-11-05T08:08:02Z</time>
      </trkpt>
      <trkpt lat="45.40608" lon="5.89527">
        <ele>1116.576602736</ele>
        <time>2015-11-05T08:08:13Z</time>
      </trkpt>
      <trkpt lat="45.40608" lon="5.89527">
        <ele>1116.576602736</ele>
        <time>2015-11-05T08:08:18Z</time>
      </trkpt>
      <trkpt lat="45.40608" lon="5.89527">
        <ele>1116.576602736</ele>
        <time>2015-11-05T08:08:28Z</time>
      </trkpt>
      <trkpt lat="45.40608" lon="5.89527">
        <ele>1116.576602736</ele>
        <time>2015-11-05T08:08:33Z</time>
      </trkpt>
      <trkpt lat="45.40608" lon="5.89527">
        <ele>1116.576602736</ele>
        <time>2015-11-05T08:08:43Z</time>
      </trkpt>
      <trkpt lat="45.40608" lon="5.89527">
        <ele>1116.576602736</ele>
        <time>2015-11-05T08:08:48Z</time>
      </trkpt>
      <trkpt lat="45.40609" lon="5.89527">
        <ele>1116.576602736</ele>
        <time>2015-11-05T08:09:02Z</time>
      </trkpt>
      <trkpt lat="45.40608" lon="5.89527">
        <ele>1116.576602736</ele>
        <time>2015-11-05T08:09:18Z</time>
      </trkpt>
      <trkpt lat="45.40608" lon="5.89527">
        <ele>1116.576602736</ele>
        <time>2015-11-05T08:09:23Z</time>
      </trkpt>
      <trkpt lat="45.40608" lon="5.89527">
        <ele>1116.576602736</ele>
        <time>2015-11-05T08:09:32Z</time>
      </trkpt>
      <trkpt lat="45.40608" lon="5.89527">
        <ele>1116.576602736</ele>
        <time>2015-11-05T08:09:38Z</time>
      </trkpt>
      <trkpt lat="45.40577" lon="5.89526">
        <ele>1117.818951364</ele>
        <time>2015-11-05T08:09:48Z</time>
      </trkpt>
      <trkpt lat="45.40576" lon="5.89525">
        <ele>1117.818951364</ele>
        <time>2015-11-05T08:09:53Z</time>
      </trkpt>
      <trkpt lat="45.40572" lon="5.89526">
        <ele>1117.818951364</ele>
        <time>2015-11-05T08:10:03Z</time>
      </trkpt>
      <trkpt lat="45.40571" lon="5.89526">
        <ele>1117.818951364</ele>
        <time>2015-11-05T08:10:08Z</time>
      </trkpt>
      <trkpt lat="45.40571" lon="5.89526">
        <ele>1117.818951364</ele>
        <time>2015-11-05T08:10:18Z</time>
      </trkpt>
      <trkpt lat="45.40568" lon="5.89528">
        <ele>1119.246018435</ele>
        <time>2015-11-05T08:10:23Z</time>
      </trkpt>
      <trkpt lat="45.40552" lon="5.89525">
        <ele>1118.936694563</ele>
        <time>2015-11-05T08:10:32Z</time>
      </trkpt>
      <trkpt lat="45.40538" lon="5.89527">
        <ele>1117.762581823</ele>
        <time>2015-11-05T08:10:38Z</time>
      </trkpt>
      <trkpt lat="45.40527" lon="5.89532">
        <ele>1117.839150438</ele>
        <time>2015-11-05T08:10:48Z</time>
      </trkpt>
      <trkpt lat="45.40531" lon="5.89542">
        <ele>1117.839150438</ele>
        <time>2015-11-05T08:10:53Z</time>
      </trkpt>
      <trkpt lat="45.40529" lon="5.89547">
        <ele>1118.631907688</ele>
        <time>2015-11-05T08:11:03Z</time>
      </trkpt>
      <trkpt lat="45.40529" lon="5.8955">
        <ele>1118.631907688</ele>
        <time>2015-11-05T08:11:08Z</time>
      </trkpt>
      <trkpt lat="45.40524" lon="5.89557">
        <ele>1119.647708319</ele>
        <time>2015-11-05T08:11:18Z</time>
      </trkpt>
      <trkpt lat="45.40518" lon="5.89559">
        <ele>1119.647708319</ele>
        <time>2015-11-05T08:11:23Z</time>
      </trkpt>
      <trkpt lat="45.40509" lon="5.89566">
        <ele>1121.158241739</ele>
        <time>2015-11-05T08:11:33Z</time>
      </trkpt>
      <trkpt lat="45.40502" lon="5.89564">
        <ele>1121.158241739</ele>
        <time>2015-11-05T08:11:38Z</time>
      </trkpt>
      <trkpt lat="45.40501" lon="5.89575">
        <ele>1122.977509296</ele>
        <time>2015-11-05T08:11:48Z</time>
      </trkpt>
      <trkpt lat="45.405" lon="5.89576">
        <ele>1122.977509296</ele>
        <time>2015-11-05T08:11:53Z</time>
      </trkpt>
      <trkpt lat="45.40484" lon="5.89585">
        <ele>1123.339733428</ele>
        <time>2015-11-05T08:12:08Z</time>
      </trkpt>
      <trkpt lat="45.40479" lon="5.89586">
        <ele>1123.339733428</ele>
        <time>2015-11-05T08:12:13Z</time>
      </trkpt>
      <trkpt lat="45.40469" lon="5.89592">
        <ele>1124.237930945</ele>
        <time>2015-11-05T08:12:23Z</time>
      </trkpt>
      <trkpt lat="45.40463" lon="5.89595">
        <ele>1124.237930945</ele>
        <time>2015-11-05T08:12:28Z</time>
      </trkpt>
      <trkpt lat="45.4046" lon="5.89606">
        <ele>1125.051535498</ele>
        <time>2015-11-05T08:12:38Z</time>
      </trkpt>
      <trkpt lat="45.40451" lon="5.8961">
        <ele>1126.074799461</ele>
        <time>2015-11-05T08:12:43Z</time>
      </trkpt>
      <trkpt lat="45.40452" lon="5.89623">
        <ele>1126.856904297</ele>
        <time>2015-11-05T08:12:53Z</time>
      </trkpt>
      <trkpt lat="45.40451" lon="5.89629">
        <ele>1126.856904297</ele>
        <time>2015-11-05T08:12:58Z</time>
      </trkpt>
      <trkpt lat="45.40444" lon="5.89631">
        <ele>1127.703491599</ele>
        <time>2015-11-05T08:13:08Z</time>
      </trkpt>
      <trkpt lat="45.40443" lon="5.89633">
        <ele>1127.703491599</ele>
        <time>2015-11-05T08:13:13Z</time>
      </trkpt>
      <trkpt lat="45.40443" lon="5.89639">
        <ele>1127.703491599</ele>
        <time>2015-11-05T08:13:23Z</time>
      </trkpt>
      <trkpt lat="45.40444" lon="5.89648">
        <ele>1127.886888035</ele>
        <time>2015-11-05T08:13:28Z</time>
      </trkpt>
      <trkpt lat="45.40446" lon="5.89675">
        <ele>1127.745364322</ele>
        <time>2015-11-05T08:13:43Z</time>
      </trkpt>
      <trkpt lat="45.40445" lon="5.89681">
        <ele>1127.745364322</ele>
        <time>2015-11-05T08:13:48Z</time>
      </trkpt>
      <trkpt lat="45.40437" lon="5.897">
        <ele>1127.448512678</ele>
        <time>2015-11-05T08:13:58Z</time>
      </trkpt>
      <trkpt lat="45.40435" lon="5.89706">
        <ele>1127.448512678</ele>
        <time>2015-11-05T08:14:03Z</time>
      </trkpt>
      <trkpt lat="45.40431" lon="5.89717">
        <ele>1127.586319052</ele>
        <time>2015-11-05T08:14:13Z</time>
      </trkpt>
      <trkpt lat="45.40425" lon="5.89723">
        <ele>1127.586319052</ele>
        <time>2015-11-05T08:14:18Z</time>
      </trkpt>
      <trkpt lat="45.40417" lon="5.89737">
        <ele>1129.280687967</ele>
        <time>2015-11-05T08:14:28Z</time>
      </trkpt>
      <trkpt lat="45.40419" lon="5.89745">
        <ele>1129.280687967</ele>
        <time>2015-11-05T08:14:33Z</time>
      </trkpt>
      <trkpt lat="45.40417" lon="5.89763">
        <ele>1130.394617203</ele>
        <time>2015-11-05T08:14:43Z</time>
      </trkpt>
      <trkpt lat="45.40413" lon="5.89767">
        <ele>1130.394617203</ele>
        <time>2015-11-05T08:14:48Z</time>
      </trkpt>
      <trkpt lat="45.40406" lon="5.89771">
        <ele>1131.833715753</ele>
        <time>2015-11-05T08:14:58Z</time>
      </trkpt>
      <trkpt lat="45.40403" lon="5.89774">
        <ele>1131.833715753</ele>
        <time>2015-11-05T08:15:03Z</time>
      </trkpt>
      <trkpt lat="45.40405" lon="5.89782">
        <ele>1132.27340582</ele>
        <time>2015-11-05T08:15:12Z</time>
      </trkpt>
      <trkpt lat="45.40406" lon="5.89791">
        <ele>1132.27340582</ele>
        <time>2015-11-05T08:15:19Z</time>
      </trkpt>
      <trkpt lat="45.40407" lon="5.89812">
        <ele>1132.796061773</ele>
        <time>2015-11-05T08:15:33Z</time>
      </trkpt>
      <trkpt lat="45.40402" lon="5.89824">
        <ele>1133.250880969</ele>
        <time>2015-11-05T08:15:43Z</time>
      </trkpt>
      <trkpt lat="45.40402" lon="5.89831">
        <ele>1133.250880969</ele>
        <time>2015-11-05T08:15:48Z</time>
      </trkpt>
      <trkpt lat="45.40405" lon="5.89846">
        <ele>1134.363494999</ele>
        <time>2015-11-05T08:16:03Z</time>
      </trkpt>
      <trkpt lat="45.40402" lon="5.89849">
        <ele>1134.363494999</ele>
        <time>2015-11-05T08:16:08Z</time>
      </trkpt>
      <trkpt lat="45.40399" lon="5.89857">
        <ele>1136.083497001</ele>
        <time>2015-11-05T08:16:18Z</time>
      </trkpt>
      <trkpt lat="45.40399" lon="5.89858">
        <ele>1136.083497001</ele>
        <time>2015-11-05T08:16:23Z</time>
      </trkpt>
      <trkpt lat="45.40393" lon="5.89869">
        <ele>1138.650915477</ele>
        <time>2015-11-05T08:16:33Z</time>
      </trkpt>
      <trkpt lat="45.40391" lon="5.89869">
        <ele>1138.650915477</ele>
        <time>2015-11-05T08:16:38Z</time>
      </trkpt>
      <trkpt lat="45.40389" lon="5.89876">
        <ele>1138.650915477</ele>
        <time>2015-11-05T08:16:48Z</time>
      </trkpt>
      <trkpt lat="45.40389" lon="5.8988">
        <ele>1140.266757066</ele>
        <time>2015-11-05T08:16:53Z</time>
      </trkpt>
      <trkpt lat="45.4039" lon="5.89883">
        <ele>1140.266757066</ele>
        <time>2015-11-05T08:17:03Z</time>
      </trkpt>
      <trkpt lat="45.40391" lon="5.89883">
        <ele>1140.266757066</ele>
        <time>2015-11-05T08:17:08Z</time>
      </trkpt>
      <trkpt lat="45.4039" lon="5.89902">
        <ele>1142.006966476</ele>
        <time>2015-11-05T08:17:18Z</time>
      </trkpt>
      <trkpt lat="45.40389" lon="5.89903">
        <ele>1142.006966476</ele>
        <time>2015-11-05T08:17:23Z</time>
      </trkpt>
      <trkpt lat="45.40389" lon="5.89907">
        <ele>1142.006966476</ele>
        <time>2015-11-05T08:17:33Z</time>
      </trkpt>
      <trkpt lat="45.40382" lon="5.89914">
        <ele>1144.00288303</ele>
        <time>2015-11-05T08:17:38Z</time>
      </trkpt>
      <trkpt lat="45.40372" lon="5.89918">
        <ele>1146.087071071</ele>
        <time>2015-11-05T08:17:48Z</time>
      </trkpt>
      <trkpt lat="45.40373" lon="5.89928">
        <ele>1146.087071071</ele>
        <time>2015-11-05T08:17:53Z</time>
      </trkpt>
      <trkpt lat="45.40374" lon="5.89933">
        <ele>1147.815723149</ele>
        <time>2015-11-05T08:18:03Z</time>
      </trkpt>
      <trkpt lat="45.40375" lon="5.89936">
        <ele>1147.815723149</ele>
        <time>2015-11-05T08:18:08Z</time>
      </trkpt>
      <trkpt lat="45.40375" lon="5.89936">
        <ele>1147.815723149</ele>
        <time>2015-11-05T08:18:18Z</time>
      </trkpt>
      <trkpt lat="45.40375" lon="5.89936">
        <ele>1147.815723149</ele>
        <time>2015-11-05T08:18:23Z</time>
      </trkpt>
      <trkpt lat="45.40371" lon="5.89953">
        <ele>1148.634471048</ele>
        <time>2015-11-05T08:18:38Z</time>
      </trkpt>
      <trkpt lat="45.40369" lon="5.89956">
        <ele>1148.634471048</ele>
        <time>2015-11-05T08:18:43Z</time>
      </trkpt>
      <trkpt lat="45.40371" lon="5.89967">
        <ele>1148.897813824</ele>
        <time>2015-11-05T08:18:53Z</time>
      </trkpt>
      <trkpt lat="45.40376" lon="5.89977">
        <ele>1148.647368201</ele>
        <time>2015-11-05T08:18:58Z</time>
      </trkpt>
      <trkpt lat="45.40364" lon="5.89984">
        <ele>1149.077154819</ele>
        <time>2015-11-05T08:19:08Z</time>
      </trkpt>
      <trkpt lat="45.40364" lon="5.89985">
        <ele>1149.077154819</ele>
        <time>2015-11-05T08:19:12Z</time>
      </trkpt>
      <trkpt lat="45.40365" lon="5.89986">
        <ele>1149.077154819</ele>
        <time>2015-11-05T08:19:24Z</time>
      </trkpt>
      <trkpt lat="45.40365" lon="5.89987">
        <ele>1149.077154819</ele>
        <time>2015-11-05T08:19:27Z</time>
      </trkpt>
      <trkpt lat="45.40357" lon="5.89991">
        <ele>1151.291485578</ele>
        <time>2015-11-05T08:19:38Z</time>
      </trkpt>
      <trkpt lat="45.40357" lon="5.89993">
        <ele>1151.291485578</ele>
        <time>2015-11-05T08:19:43Z</time>
      </trkpt>
      <trkpt lat="45.40356" lon="5.89995">
        <ele>1151.291485578</ele>
        <time>2015-11-05T08:19:53Z</time>
      </trkpt>
      <trkpt lat="45.40356" lon="5.89995">
        <ele>1151.291485578</ele>
        <time>2015-11-05T08:19:58Z</time>
      </trkpt>
      <trkpt lat="45.40356" lon="5.89995">
        <ele>1151.291485578</ele>
        <time>2015-11-05T08:20:08Z</time>
      </trkpt>
      <trkpt lat="45.40356" lon="5.89995">
        <ele>1151.291485578</ele>
        <time>2015-11-05T08:20:13Z</time>
      </trkpt>
      <trkpt lat="45.40356" lon="5.89995">
        <ele>1151.291485578</ele>
        <time>2015-11-05T08:20:23Z</time>
      </trkpt>
      <trkpt lat="45.40356" lon="5.89995">
        <ele>1151.291485578</ele>
        <time>2015-11-05T08:20:28Z</time>
      </trkpt>
      <trkpt lat="45.40362" lon="5.89998">
        <ele>1151.291485578</ele>
        <time>2015-11-05T08:20:38Z</time>
      </trkpt>
      <trkpt lat="45.40366" lon="5.90001">
        <ele>1154.289118027</ele>
        <time>2015-11-05T08:20:43Z</time>
      </trkpt>
      <trkpt lat="45.40358" lon="5.90006">
        <ele>1154.289118027</ele>
        <time>2015-11-05T08:20:53Z</time>
      </trkpt>
      <trkpt lat="45.40358" lon="5.9001">
        <ele>1157.428824385</ele>
        <time>2015-11-05T08:20:58Z</time>
      </trkpt>
      <trkpt lat="45.40351" lon="5.90023">
        <ele>1160.404723002</ele>
        <time>2015-11-05T08:21:12Z</time>
      </trkpt>
      <trkpt lat="45.40352" lon="5.90026">
        <ele>1160.404723002</ele>
        <time>2015-11-05T08:21:17Z</time>
      </trkpt>
      <trkpt lat="45.40353" lon="5.90025">
        <ele>1160.404723002</ele>
        <time>2015-11-05T08:21:22Z</time>
      </trkpt>
      <trkpt lat="45.40353" lon="5.90025">
        <ele>1160.404723002</ele>
        <time>2015-11-05T08:21:27Z</time>
      </trkpt>
      <trkpt lat="45.40353" lon="5.90025">
        <ele>1160.404723002</ele>
        <time>2015-11-05T08:21:32Z</time>
      </trkpt>
      <trkpt lat="45.40353" lon="5.90025">
        <ele>1160.404723002</ele>
        <time>2015-11-05T08:21:37Z</time>
      </trkpt>
      <trkpt lat="45.40352" lon="5.90024">
        <ele>1160.404723002</ele>
        <time>2015-11-05T08:21:42Z</time>
      </trkpt>
      <trkpt lat="45.40351" lon="5.90024">
        <ele>1160.404723002</ele>
        <time>2015-11-05T08:21:48Z</time>
      </trkpt>
      <trkpt lat="45.40352" lon="5.90025">
        <ele>1160.404723002</ele>
        <time>2015-11-05T08:21:58Z</time>
      </trkpt>
      <trkpt lat="45.40352" lon="5.90025">
        <ele>1160.404723002</ele>
        <time>2015-11-05T08:22:03Z</time>
      </trkpt>
      <trkpt lat="45.40352" lon="5.90025">
        <ele>1160.404723002</ele>
        <time>2015-11-05T08:22:13Z</time>
      </trkpt>
      <trkpt lat="45.40354" lon="5.90032">
        <ele>1164.520411147</ele>
        <time>2015-11-05T08:22:18Z</time>
      </trkpt>
      <trkpt lat="45.40356" lon="5.90037">
        <ele>1164.520411147</ele>
        <time>2015-11-05T08:22:27Z</time>
      </trkpt>
      <trkpt lat="45.40355" lon="5.90041">
        <ele>1164.520411147</ele>
        <time>2015-11-05T08:22:32Z</time>
      </trkpt>
      <trkpt lat="45.40351" lon="5.9005">
        <ele>1168.961417788</ele>
        <time>2015-11-05T08:22:44Z</time>
      </trkpt>
      <trkpt lat="45.4035" lon="5.90052">
        <ele>1168.961417788</ele>
        <time>2015-11-05T08:22:47Z</time>
      </trkpt>
      <trkpt lat="45.40345" lon="5.90063">
        <ele>1173.69350885</ele>
        <time>2015-11-05T08:22:58Z</time>
      </trkpt>
      <trkpt lat="45.40345" lon="5.90066">
        <ele>1173.69350885</ele>
        <time>2015-11-05T08:23:03Z</time>
      </trkpt>
      <trkpt lat="45.40345" lon="5.90071">
        <ele>1173.69350885</ele>
        <time>2015-11-05T08:23:13Z</time>
      </trkpt>
      <trkpt lat="45.40345" lon="5.90071">
        <ele>1173.69350885</ele>
        <time>2015-11-05T08:23:18Z</time>
      </trkpt>
      <trkpt lat="45.40345" lon="5.90072">
        <ele>1173.69350885</ele>
        <time>2015-11-05T08:23:33Z</time>
      </trkpt>
      <trkpt lat="45.40345" lon="5.90072">
        <ele>1173.69350885</ele>
        <time>2015-11-05T08:23:38Z</time>
      </trkpt>
      <trkpt lat="45.40345" lon="5.90072">
        <ele>1173.69350885</ele>
        <time>2015-11-05T08:23:48Z</time>
      </trkpt>
      <trkpt lat="45.40345" lon="5.90072">
        <ele>1173.69350885</ele>
        <time>2015-11-05T08:23:53Z</time>
      </trkpt>
      <trkpt lat="45.40345" lon="5.90072">
        <ele>1173.69350885</ele>
        <time>2015-11-05T08:24:03Z</time>
      </trkpt>
      <trkpt lat="45.40345" lon="5.90072">
        <ele>1173.69350885</ele>
        <time>2015-11-05T08:24:08Z</time>
      </trkpt>
      <trkpt lat="45.40345" lon="5.90072">
        <ele>1173.69350885</ele>
        <time>2015-11-05T08:24:18Z</time>
      </trkpt>
      <trkpt lat="45.40344" lon="5.90072">
        <ele>1173.69350885</ele>
        <time>2015-11-05T08:24:23Z</time>
      </trkpt>
      <trkpt lat="45.40344" lon="5.90073">
        <ele>1173.69350885</ele>
        <time>2015-11-05T08:24:33Z</time>
      </trkpt>
      <trkpt lat="45.40344" lon="5.90073">
        <ele>1173.69350885</ele>
        <time>2015-11-05T08:24:38Z</time>
      </trkpt>
      <trkpt lat="45.40344" lon="5.90073">
        <ele>1173.69350885</ele>
        <time>2015-11-05T08:24:48Z</time>
      </trkpt>
      <trkpt lat="45.40344" lon="5.90073">
        <ele>1173.69350885</ele>
        <time>2015-11-05T08:24:53Z</time>
      </trkpt>
      <trkpt lat="45.40344" lon="5.90073">
        <ele>1173.69350885</ele>
        <time>2015-11-05T08:25:09Z</time>
      </trkpt>
      <trkpt lat="45.40344" lon="5.90073">
        <ele>1173.69350885</ele>
        <time>2015-11-05T08:25:13Z</time>
      </trkpt>
      <trkpt lat="45.40344" lon="5.90073">
        <ele>1173.69350885</ele>
        <time>2015-11-05T08:25:23Z</time>
      </trkpt>
      <trkpt lat="45.40344" lon="5.90073">
        <ele>1173.69350885</ele>
        <time>2015-11-05T08:25:28Z</time>
      </trkpt>
      <trkpt lat="45.40344" lon="5.90073">
        <ele>1173.69350885</ele>
        <time>2015-11-05T08:25:38Z</time>
      </trkpt>
      <trkpt lat="45.40344" lon="5.90073">
        <ele>1173.69350885</ele>
        <time>2015-11-05T08:25:43Z</time>
      </trkpt>
      <trkpt lat="45.40344" lon="5.90073">
        <ele>1173.69350885</ele>
        <time>2015-11-05T08:25:53Z</time>
      </trkpt>
      <trkpt lat="45.40344" lon="5.90073">
        <ele>1173.69350885</ele>
        <time>2015-11-05T08:25:57Z</time>
      </trkpt>
      <trkpt lat="45.40342" lon="5.9008">
        <ele>1178.828504897</ele>
        <time>2015-11-05T08:26:09Z</time>
      </trkpt>
      <trkpt lat="45.40344" lon="5.90086">
        <ele>1178.828504897</ele>
        <time>2015-11-05T08:26:12Z</time>
      </trkpt>
      <trkpt lat="45.40344" lon="5.90101">
        <ele>1184.036468608</ele>
        <time>2015-11-05T08:26:23Z</time>
      </trkpt>
      <trkpt lat="45.40346" lon="5.90105">
        <ele>1184.036468608</ele>
        <time>2015-11-05T08:26:28Z</time>
      </trkpt>
      <trkpt lat="45.40345" lon="5.90105">
        <ele>1184.036468608</ele>
        <time>2015-11-05T08:26:38Z</time>
      </trkpt>
      <trkpt lat="45.40337" lon="5.90108">
        <ele>1189.011762719</ele>
        <time>2015-11-05T08:26:43Z</time>
      </trkpt>
      <trkpt lat="45.40341" lon="5.90115">
        <ele>1189.011762719</ele>
        <time>2015-11-05T08:26:53Z</time>
      </trkpt>
      <trkpt lat="45.40342" lon="5.90115">
        <ele>1189.011762719</ele>
        <time>2015-11-05T08:26:58Z</time>
      </trkpt>
      <trkpt lat="45.40343" lon="5.90116">
        <ele>1189.011762719</ele>
        <time>2015-11-05T08:27:08Z</time>
      </trkpt>
      <trkpt lat="45.40344" lon="5.90117">
        <ele>1194.481348061</ele>
        <time>2015-11-05T08:27:13Z</time>
      </trkpt>
      <trkpt lat="45.40342" lon="5.90118">
        <ele>1194.481348061</ele>
        <time>2015-11-05T08:27:23Z</time>
      </trkpt>
      <trkpt lat="45.40342" lon="5.90118">
        <ele>1194.481348061</ele>
        <time>2015-11-05T08:27:27Z</time>
      </trkpt>
      <trkpt lat="45.40346" lon="5.90131">
        <ele>1199.387486325</ele>
        <time>2015-11-05T08:27:38Z</time>
      </trkpt>
      <trkpt lat="45.40346" lon="5.90133">
        <ele>1199.387486325</ele>
        <time>2015-11-05T08:27:43Z</time>
      </trkpt>
      <trkpt lat="45.40339" lon="5.90137">
        <ele>1199.387486325</ele>
        <time>2015-11-05T08:27:53Z</time>
      </trkpt>
      <trkpt lat="45.4034" lon="5.90142">
        <ele>1205.058729082</ele>
        <time>2015-11-05T08:27:58Z</time>
      </trkpt>
      <trkpt lat="45.4034" lon="5.90143">
        <ele>1205.058729082</ele>
        <time>2015-11-05T08:28:08Z</time>
      </trkpt>
      <trkpt lat="45.4034" lon="5.90143">
        <ele>1205.058729082</ele>
        <time>2015-11-05T08:28:13Z</time>
      </trkpt>
      <trkpt lat="45.40333" lon="5.90151">
        <ele>1209.840840725</ele>
        <time>2015-11-05T08:28:27Z</time>
      </trkpt>
      <trkpt lat="45.4033" lon="5.90173">
        <ele>1214.22221616</ele>
        <time>2015-11-05T08:28:43Z</time>
      </trkpt>
      <trkpt lat="45.40327" lon="5.90179">
        <ele>1214.22221616</ele>
        <time>2015-11-05T08:28:48Z</time>
      </trkpt>
      <trkpt lat="45.40327" lon="5.90178">
        <ele>1214.22221616</ele>
        <time>2015-11-05T08:28:58Z</time>
      </trkpt>
      <trkpt lat="45.40329" lon="5.9018">
        <ele>1214.22221616</ele>
        <time>2015-11-05T08:29:03Z</time>
      </trkpt>
      <trkpt lat="45.40328" lon="5.90182">
        <ele>1219.377408688</ele>
        <time>2015-11-05T08:29:13Z</time>
      </trkpt>
      <trkpt lat="45.40328" lon="5.90182">
        <ele>1219.377408688</ele>
        <time>2015-11-05T08:29:18Z</time>
      </trkpt>
      <trkpt lat="45.40329" lon="5.90189">
        <ele>1219.377408688</ele>
        <time>2015-11-05T08:29:28Z</time>
      </trkpt>
      <trkpt lat="45.40329" lon="5.90194">
        <ele>1219.377408688</ele>
        <time>2015-11-05T08:29:33Z</time>
      </trkpt>
      <trkpt lat="45.40324" lon="5.90203">
        <ele>1223.94230912</ele>
        <time>2015-11-05T08:29:42Z</time>
      </trkpt>
      <trkpt lat="45.40324" lon="5.90203">
        <ele>1223.94230912</ele>
        <time>2015-11-05T08:29:48Z</time>
      </trkpt>
      <trkpt lat="45.40324" lon="5.90205">
        <ele>1223.94230912</ele>
        <time>2015-11-05T08:29:58Z</time>
      </trkpt>
      <trkpt lat="45.40324" lon="5.90205">
        <ele>1223.94230912</ele>
        <time>2015-11-05T08:30:02Z</time>
      </trkpt>
      <trkpt lat="45.40325" lon="5.90205">
        <ele>1223.94230912</ele>
        <time>2015-11-05T08:30:13Z</time>
      </trkpt>
      <trkpt lat="45.40325" lon="5.90206">
        <ele>1223.94230912</ele>
        <time>2015-11-05T08:30:18Z</time>
      </trkpt>
      <trkpt lat="45.40332" lon="5.90214">
        <ele>1228.673001328</ele>
        <time>2015-11-05T08:30:28Z</time>
      </trkpt>
      <trkpt lat="45.40332" lon="5.90216">
        <ele>1228.673001328</ele>
        <time>2015-11-05T08:30:33Z</time>
      </trkpt>
      <trkpt lat="45.40331" lon="5.90216">
        <ele>1228.673001328</ele>
        <time>2015-11-05T08:30:43Z</time>
      </trkpt>
      <trkpt lat="45.40331" lon="5.90216">
        <ele>1228.673001328</ele>
        <time>2015-11-05T08:30:48Z</time>
      </trkpt>
      <trkpt lat="45.40331" lon="5.9022">
        <ele>1228.673001328</ele>
        <time>2015-11-05T08:30:53Z</time>
      </trkpt>
      <trkpt lat="45.4033" lon="5.90223">
        <ele>1228.673001328</ele>
        <time>2015-11-05T08:31:03Z</time>
      </trkpt>
      <trkpt lat="45.40329" lon="5.90224">
        <ele>1228.673001328</ele>
        <time>2015-11-05T08:31:08Z</time>
      </trkpt>
      <trkpt lat="45.40329" lon="5.90225">
        <ele>1234.558033252</ele>
        <time>2015-11-05T08:31:18Z</time>
      </trkpt>
      <trkpt lat="45.40329" lon="5.90225">
        <ele>1234.558033252</ele>
        <time>2015-11-05T08:31:23Z</time>
      </trkpt>
      <trkpt lat="45.40329" lon="5.90225">
        <ele>1234.558033252</ele>
        <time>2015-11-05T08:31:33Z</time>
      </trkpt>
      <trkpt lat="45.40329" lon="5.90225">
        <ele>1234.558033252</ele>
        <time>2015-11-05T08:31:38Z</time>
      </trkpt>
      <trkpt lat="45.40329" lon="5.90225">
        <ele>1234.558033252</ele>
        <time>2015-11-05T08:31:48Z</time>
      </trkpt>
      <trkpt lat="45.40329" lon="5.90225">
        <ele>1234.558033252</ele>
        <time>2015-11-05T08:31:53Z</time>
      </trkpt>
      <trkpt lat="45.4033" lon="5.90231">
        <ele>1234.558033252</ele>
        <time>2015-11-05T08:32:03Z</time>
      </trkpt>
      <trkpt lat="45.40337" lon="5.90245">
        <ele>1239.771920436</ele>
        <time>2015-11-05T08:32:08Z</time>
      </trkpt>
      <trkpt lat="45.40341" lon="5.90257">
        <ele>1239.771920436</ele>
        <time>2015-11-05T08:32:18Z</time>
      </trkpt>
      <trkpt lat="45.40341" lon="5.90258">
        <ele>1244.210976597</ele>
        <time>2015-11-05T08:32:23Z</time>
      </trkpt>
      <trkpt lat="45.40341" lon="5.90258">
        <ele>1244.210976597</ele>
        <time>2015-11-05T08:32:38Z</time>
      </trkpt>
      <trkpt lat="45.4034" lon="5.90278">
        <ele>1249.222817475</ele>
        <time>2015-11-05T08:32:53Z</time>
      </trkpt>
      <trkpt lat="45.40339" lon="5.90279">
        <ele>1249.222817475</ele>
        <time>2015-11-05T08:32:58Z</time>
      </trkpt>
      <trkpt lat="45.40338" lon="5.90279">
        <ele>1249.222817475</ele>
        <time>2015-11-05T08:33:08Z</time>
      </trkpt>
      <trkpt lat="45.40338" lon="5.90279">
        <ele>1249.222817475</ele>
        <time>2015-11-05T08:33:12Z</time>
      </trkpt>
      <trkpt lat="45.40338" lon="5.90279">
        <ele>1249.222817475</ele>
        <time>2015-11-05T08:33:22Z</time>
      </trkpt>
      <trkpt lat="45.40338" lon="5.90279">
        <ele>1249.222817475</ele>
        <time>2015-11-05T08:33:28Z</time>
      </trkpt>
      <trkpt lat="45.40338" lon="5.90279">
        <ele>1249.222817475</ele>
        <time>2015-11-05T08:33:38Z</time>
      </trkpt>
      <trkpt lat="45.40338" lon="5.90279">
        <ele>1249.222817475</ele>
        <time>2015-11-05T08:33:43Z</time>
      </trkpt>
      <trkpt lat="45.40346" lon="5.90274">
        <ele>1254.613500727</ele>
        <time>2015-11-05T08:33:53Z</time>
      </trkpt>
      <trkpt lat="45.40347" lon="5.90273">
        <ele>1254.613500727</ele>
        <time>2015-11-05T08:33:59Z</time>
      </trkpt>
      <trkpt lat="45.4035" lon="5.90277">
        <ele>1254.613500727</ele>
        <time>2015-11-05T08:34:08Z</time>
      </trkpt>
      <trkpt lat="45.40352" lon="5.90281">
        <ele>1254.613500727</ele>
        <time>2015-11-05T08:34:13Z</time>
      </trkpt>
      <trkpt lat="45.40358" lon="5.90293">
        <ele>1259.626126961</ele>
        <time>2015-11-05T08:34:23Z</time>
      </trkpt>
      <trkpt lat="45.4036" lon="5.90302">
        <ele>1259.626126961</ele>
        <time>2015-11-05T08:34:28Z</time>
      </trkpt>
      <trkpt lat="45.40364" lon="5.90316">
        <ele>1264.713721748</ele>
        <time>2015-11-05T08:34:43Z</time>
      </trkpt>
      <trkpt lat="45.40364" lon="5.90315">
        <ele>1264.713721748</ele>
        <time>2015-11-05T08:34:48Z</time>
      </trkpt>
      <trkpt lat="45.40364" lon="5.90315">
        <ele>1264.713721748</ele>
        <time>2015-11-05T08:34:58Z</time>
      </trkpt>
      <trkpt lat="45.40363" lon="5.90314">
        <ele>1264.713721748</ele>
        <time>2015-11-05T08:35:03Z</time>
      </trkpt>
      <trkpt lat="45.40365" lon="5.9032">
        <ele>1264.713721748</ele>
        <time>2015-11-05T08:35:13Z</time>
      </trkpt>
      <trkpt lat="45.40365" lon="5.90321">
        <ele>1264.713721748</ele>
        <time>2015-11-05T08:35:18Z</time>
      </trkpt>
      <trkpt lat="45.40368" lon="5.90329">
        <ele>1269.719656231</ele>
        <time>2015-11-05T08:35:28Z</time>
      </trkpt>
      <trkpt lat="45.40368" lon="5.90336">
        <ele>1269.719656231</ele>
        <time>2015-11-05T08:35:33Z</time>
      </trkpt>
      <trkpt lat="45.40365" lon="5.90346">
        <ele>1274.499345973</ele>
        <time>2015-11-05T08:35:43Z</time>
      </trkpt>
      <trkpt lat="45.40366" lon="5.90347">
        <ele>1274.499345973</ele>
        <time>2015-11-05T08:35:48Z</time>
      </trkpt>
      <trkpt lat="45.40366" lon="5.90347">
        <ele>1274.499345973</ele>
        <time>2015-11-05T08:35:58Z</time>
      </trkpt>
      <trkpt lat="45.40366" lon="5.90347">
        <ele>1274.499345973</ele>
        <time>2015-11-05T08:36:03Z</time>
      </trkpt>
      <trkpt lat="45.40368" lon="5.90359">
        <ele>1279.928557824</ele>
        <time>2015-11-05T08:36:13Z</time>
      </trkpt>
      <trkpt lat="45.40368" lon="5.90364">
        <ele>1279.928557824</ele>
        <time>2015-11-05T08:36:18Z</time>
      </trkpt>
      <trkpt lat="45.40364" lon="5.90365">
        <ele>1279.928557824</ele>
        <time>2015-11-05T08:36:28Z</time>
      </trkpt>
      <trkpt lat="45.40363" lon="5.90365">
        <ele>1279.928557824</ele>
        <time>2015-11-05T08:36:32Z</time>
      </trkpt>
      <trkpt lat="45.40363" lon="5.90366">
        <ele>1279.928557824</ele>
        <time>2015-11-05T08:36:44Z</time>
      </trkpt>
      <trkpt lat="45.40363" lon="5.90374">
        <ele>1285.808405132</ele>
        <time>2015-11-05T08:36:47Z</time>
      </trkpt>
      <trkpt lat="45.40358" lon="5.90377">
        <ele>1285.808405132</ele>
        <time>2015-11-05T08:36:57Z</time>
      </trkpt>
      <trkpt lat="45.40359" lon="5.90378">
        <ele>1285.808405132</ele>
        <time>2015-11-05T08:37:03Z</time>
      </trkpt>
      <trkpt lat="45.40358" lon="5.90378">
        <ele>1285.808405132</ele>
        <time>2015-11-05T08:37:13Z</time>
      </trkpt>
      <trkpt lat="45.40359" lon="5.90378">
        <ele>1285.808405132</ele>
        <time>2015-11-05T08:37:18Z</time>
      </trkpt>
      <trkpt lat="45.40359" lon="5.90378">
        <ele>1285.808405132</ele>
        <time>2015-11-05T08:37:28Z</time>
      </trkpt>
      <trkpt lat="45.40359" lon="5.90378">
        <ele>1285.808405132</ele>
        <time>2015-11-05T08:37:32Z</time>
      </trkpt>
      <trkpt lat="45.40359" lon="5.90378">
        <ele>1285.808405132</ele>
        <time>2015-11-05T08:37:43Z</time>
      </trkpt>
      <trkpt lat="45.40359" lon="5.90378">
        <ele>1285.808405132</ele>
        <time>2015-11-05T08:37:48Z</time>
      </trkpt>
      <trkpt lat="45.40359" lon="5.90378">
        <ele>1285.808405132</ele>
        <time>2015-11-05T08:37:59Z</time>
      </trkpt>
      <trkpt lat="45.40359" lon="5.90378">
        <ele>1285.808405132</ele>
        <time>2015-11-05T08:38:03Z</time>
      </trkpt>
      <trkpt lat="45.40359" lon="5.90379">
        <ele>1285.808405132</ele>
        <time>2015-11-05T08:38:20Z</time>
      </trkpt>
      <trkpt lat="45.40359" lon="5.90379">
        <ele>1285.808405132</ele>
        <time>2015-11-05T08:38:23Z</time>
      </trkpt>
      <trkpt lat="45.40358" lon="5.90385">
        <ele>1291.665424462</ele>
        <time>2015-11-05T08:38:33Z</time>
      </trkpt>
      <trkpt lat="45.40355" lon="5.90393">
        <ele>1291.665424462</ele>
        <time>2015-11-05T08:38:38Z</time>
      </trkpt>
      <trkpt lat="45.40357" lon="5.90399">
        <ele>1296.628957314</ele>
        <time>2015-11-05T08:38:48Z</time>
      </trkpt>
      <trkpt lat="45.40358" lon="5.90406">
        <ele>1296.628957314</ele>
        <time>2015-11-05T08:38:53Z</time>
      </trkpt>
      <trkpt lat="45.4036" lon="5.90409">
        <ele>1296.628957314</ele>
        <time>2015-11-05T08:39:03Z</time>
      </trkpt>
      <trkpt lat="45.40363" lon="5.90415">
        <ele>1301.336227268</ele>
        <time>2015-11-05T08:39:08Z</time>
      </trkpt>
      <trkpt lat="45.40368" lon="5.90419">
        <ele>1301.336227268</ele>
        <time>2015-11-05T08:39:18Z</time>
      </trkpt>
      <trkpt lat="45.4037" lon="5.90423">
        <ele>1305.946315433</ele>
        <time>2015-11-05T08:39:23Z</time>
      </trkpt>
      <trkpt lat="45.40372" lon="5.90423">
        <ele>1305.946315433</ele>
        <time>2015-11-05T08:39:33Z</time>
      </trkpt>
      <trkpt lat="45.40372" lon="5.90423">
        <ele>1305.946315433</ele>
        <time>2015-11-05T08:39:38Z</time>
      </trkpt>
      <trkpt lat="45.40376" lon="5.90422">
        <ele>1305.946315433</ele>
        <time>2015-11-05T08:39:48Z</time>
      </trkpt>
      <trkpt lat="45.40381" lon="5.90435">
        <ele>1311.039508492</ele>
        <time>2015-11-05T08:39:53Z</time>
      </trkpt>
      <trkpt lat="45.40378" lon="5.90436">
        <ele>1311.039508492</ele>
        <time>2015-11-05T08:39:57Z</time>
      </trkpt>
      <trkpt lat="45.4038" lon="5.9044">
        <ele>1311.039508492</ele>
        <time>2015-11-05T08:40:09Z</time>
      </trkpt>
      <trkpt lat="45.40376" lon="5.9044">
        <ele>1315.567137535</ele>
        <time>2015-11-05T08:40:12Z</time>
      </trkpt>
      <trkpt lat="45.40377" lon="5.9044">
        <ele>1315.567137535</ele>
        <time>2015-11-05T08:40:22Z</time>
      </trkpt>
      <trkpt lat="45.40377" lon="5.9044">
        <ele>1315.567137535</ele>
        <time>2015-11-05T08:40:29Z</time>
      </trkpt>
      <trkpt lat="45.40377" lon="5.9044">
        <ele>1315.567137535</ele>
        <time>2015-11-05T08:40:38Z</time>
      </trkpt>
      <trkpt lat="45.40377" lon="5.9044">
        <ele>1315.567137535</ele>
        <time>2015-11-05T08:40:43Z</time>
      </trkpt>
      <trkpt lat="45.40378" lon="5.90442">
        <ele>1315.567137535</ele>
        <time>2015-11-05T08:40:53Z</time>
      </trkpt>
      <trkpt lat="45.40375" lon="5.90444">
        <ele>1315.567137535</ele>
        <time>2015-11-05T08:40:58Z</time>
      </trkpt>
      <trkpt lat="45.40374" lon="5.90446">
        <ele>1315.567137535</ele>
        <time>2015-11-05T08:41:08Z</time>
      </trkpt>
      <trkpt lat="45.40374" lon="5.90446">
        <ele>1315.567137535</ele>
        <time>2015-11-05T08:41:13Z</time>
      </trkpt>
      <trkpt lat="45.40374" lon="5.90461">
        <ele>1320.144657194</ele>
        <time>2015-11-05T08:41:23Z</time>
      </trkpt>
      <trkpt lat="45.40374" lon="5.90464">
        <ele>1320.144657194</ele>
        <time>2015-11-05T08:41:28Z</time>
      </trkpt>
      <trkpt lat="45.40373" lon="5.90467">
        <ele>1320.144657194</ele>
        <time>2015-11-05T08:41:40Z</time>
      </trkpt>
      <trkpt lat="45.40373" lon="5.90467">
        <ele>1320.144657194</ele>
        <time>2015-11-05T08:41:43Z</time>
      </trkpt>
      <trkpt lat="45.40373" lon="5.90467">
        <ele>1320.144657194</ele>
        <time>2015-11-05T08:41:53Z</time>
      </trkpt>
      <trkpt lat="45.40373" lon="5.90467">
        <ele>1320.144657194</ele>
        <time>2015-11-05T08:41:59Z</time>
      </trkpt>
      <trkpt lat="45.40373" lon="5.90467">
        <ele>1320.144657194</ele>
        <time>2015-11-05T08:42:08Z</time>
      </trkpt>
      <trkpt lat="45.40373" lon="5.90467">
        <ele>1320.144657194</ele>
        <time>2015-11-05T08:42:13Z</time>
      </trkpt>
      <trkpt lat="45.40365" lon="5.90469">
        <ele>1324.333626139</ele>
        <time>2015-11-05T08:42:28Z</time>
      </trkpt>
      <trkpt lat="45.40361" lon="5.9047">
        <ele>1324.333626139</ele>
        <time>2015-11-05T08:42:43Z</time>
      </trkpt>
      <trkpt lat="45.40365" lon="5.90476">
        <ele>1327.873247412</ele>
        <time>2015-11-05T08:42:48Z</time>
      </trkpt>
      <trkpt lat="45.40369" lon="5.90482">
        <ele>1327.873247412</ele>
        <time>2015-11-05T08:42:58Z</time>
      </trkpt>
      <trkpt lat="45.4037" lon="5.90483">
        <ele>1327.873247412</ele>
        <time>2015-11-05T08:43:03Z</time>
      </trkpt>
      <trkpt lat="45.4037" lon="5.90483">
        <ele>1327.873247412</ele>
        <time>2015-11-05T08:43:13Z</time>
      </trkpt>
      <trkpt lat="45.40373" lon="5.90486">
        <ele>1330.668035324</ele>
        <time>2015-11-05T08:43:18Z</time>
      </trkpt>
      <trkpt lat="45.40374" lon="5.9049">
        <ele>1330.668035324</ele>
        <time>2015-11-05T08:43:27Z</time>
      </trkpt>
      <trkpt lat="45.40373" lon="5.90491">
        <ele>1330.668035324</ele>
        <time>2015-11-05T08:43:32Z</time>
      </trkpt>
      <trkpt lat="45.40373" lon="5.90491">
        <ele>1330.668035324</ele>
        <time>2015-11-05T08:43:37Z</time>
      </trkpt>
      <trkpt lat="45.40373" lon="5.90491">
        <ele>1330.668035324</ele>
        <time>2015-11-05T08:43:43Z</time>
      </trkpt>
      <trkpt lat="45.40371" lon="5.90497">
        <ele>1335.225869857</ele>
        <time>2015-11-05T08:43:48Z</time>
      </trkpt>
      <trkpt lat="45.40369" lon="5.90505">
        <ele>1335.225869857</ele>
        <time>2015-11-05T08:44:03Z</time>
      </trkpt>
      <trkpt lat="45.40369" lon="5.90505">
        <ele>1335.225869857</ele>
        <time>2015-11-05T08:44:08Z</time>
      </trkpt>
      <trkpt lat="45.40369" lon="5.90505">
        <ele>1335.225869857</ele>
        <time>2015-11-05T08:44:19Z</time>
      </trkpt>
      <trkpt lat="45.40369" lon="5.90505">
        <ele>1335.225869857</ele>
        <time>2015-11-05T08:44:23Z</time>
      </trkpt>
      <trkpt lat="45.40369" lon="5.90505">
        <ele>1335.225869857</ele>
        <time>2015-11-05T08:44:33Z</time>
      </trkpt>
      <trkpt lat="45.40369" lon="5.90505">
        <ele>1335.225869857</ele>
        <time>2015-11-05T08:44:38Z</time>
      </trkpt>
      <trkpt lat="45.40369" lon="5.90505">
        <ele>1335.225869857</ele>
        <time>2015-11-05T08:44:48Z</time>
      </trkpt>
      <trkpt lat="45.40369" lon="5.90505">
        <ele>1335.225869857</ele>
        <time>2015-11-05T08:44:53Z</time>
      </trkpt>
      <trkpt lat="45.40361" lon="5.9051">
        <ele>1338.245178479</ele>
        <time>2015-11-05T08:45:03Z</time>
      </trkpt>
      <trkpt lat="45.40354" lon="5.9051">
        <ele>1338.245178479</ele>
        <time>2015-11-05T08:45:08Z</time>
      </trkpt>
      <trkpt lat="45.40349" lon="5.90514">
        <ele>1341.283064892</ele>
        <time>2015-11-05T08:45:18Z</time>
      </trkpt>
      <trkpt lat="45.40349" lon="5.90514">
        <ele>1341.283064892</ele>
        <time>2015-11-05T08:45:23Z</time>
      </trkpt>
      <trkpt lat="45.40349" lon="5.90514">
        <ele>1341.283064892</ele>
        <time>2015-11-05T08:45:39Z</time>
      </trkpt>
      <trkpt lat="45.40349" lon="5.90514">
        <ele>1341.283064892</ele>
        <time>2015-11-05T08:45:42Z</time>
      </trkpt>
      <trkpt lat="45.40349" lon="5.90514">
        <ele>1341.283064892</ele>
        <time>2015-11-05T08:45:47Z</time>
      </trkpt>
      <trkpt lat="45.40349" lon="5.90514">
        <ele>1341.283064892</ele>
        <time>2015-11-05T08:45:53Z</time>
      </trkpt>
      <trkpt lat="45.40349" lon="5.90514">
        <ele>1341.283064892</ele>
        <time>2015-11-05T08:46:03Z</time>
      </trkpt>
      <trkpt lat="45.40346" lon="5.90517">
        <ele>1341.283064892</ele>
        <time>2015-11-05T08:46:08Z</time>
      </trkpt>
      <trkpt lat="45.40345" lon="5.90523">
        <ele>1341.283064892</ele>
        <time>2015-11-05T08:46:20Z</time>
      </trkpt>
      <trkpt lat="45.40343" lon="5.90523">
        <ele>1346.214692085</ele>
        <time>2015-11-05T08:46:23Z</time>
      </trkpt>
      <trkpt lat="45.40344" lon="5.90523">
        <ele>1346.214692085</ele>
        <time>2015-11-05T08:46:33Z</time>
      </trkpt>
      <trkpt lat="45.40344" lon="5.90523">
        <ele>1346.214692085</ele>
        <time>2015-11-05T08:46:38Z</time>
      </trkpt>
      <trkpt lat="45.40344" lon="5.90523">
        <ele>1346.214692085</ele>
        <time>2015-11-05T08:46:48Z</time>
      </trkpt>
      <trkpt lat="45.40344" lon="5.90523">
        <ele>1346.214692085</ele>
        <time>2015-11-05T08:46:52Z</time>
      </trkpt>
      <trkpt lat="45.40344" lon="5.90523">
        <ele>1346.214692085</ele>
        <time>2015-11-05T08:47:02Z</time>
      </trkpt>
      <trkpt lat="45.40344" lon="5.90523">
        <ele>1346.214692085</ele>
        <time>2015-11-05T08:47:09Z</time>
      </trkpt>
      <trkpt lat="45.40344" lon="5.90523">
        <ele>1346.214692085</ele>
        <time>2015-11-05T08:47:18Z</time>
      </trkpt>
      <trkpt lat="45.40344" lon="5.90523">
        <ele>1346.214692085</ele>
        <time>2015-11-05T08:47:24Z</time>
      </trkpt>
      <trkpt lat="45.40344" lon="5.90523">
        <ele>1346.214692085</ele>
        <time>2015-11-05T08:47:33Z</time>
      </trkpt>
      <trkpt lat="45.40344" lon="5.90523">
        <ele>1346.214692085</ele>
        <time>2015-11-05T08:47:38Z</time>
      </trkpt>
      <trkpt lat="45.40344" lon="5.90523">
        <ele>1346.214692085</ele>
        <time>2015-11-05T08:47:48Z</time>
      </trkpt>
      <trkpt lat="45.40344" lon="5.90523">
        <ele>1346.214692085</ele>
        <time>2015-11-05T08:47:53Z</time>
      </trkpt>
      <trkpt lat="45.40344" lon="5.90523">
        <ele>1346.214692085</ele>
        <time>2015-11-05T08:48:03Z</time>
      </trkpt>
      <trkpt lat="45.40344" lon="5.90523">
        <ele>1346.214692085</ele>
        <time>2015-11-05T08:48:08Z</time>
      </trkpt>
      <trkpt lat="45.40344" lon="5.90523">
        <ele>1346.214692085</ele>
        <time>2015-11-05T08:48:18Z</time>
      </trkpt>
      <trkpt lat="45.40344" lon="5.90523">
        <ele>1346.214692085</ele>
        <time>2015-11-05T08:48:23Z</time>
      </trkpt>
      <trkpt lat="45.40344" lon="5.90523">
        <ele>1346.214692085</ele>
        <time>2015-11-05T08:48:33Z</time>
      </trkpt>
      <trkpt lat="45.40344" lon="5.90523">
        <ele>1346.214692085</ele>
        <time>2015-11-05T08:48:40Z</time>
      </trkpt>
      <trkpt lat="45.40343" lon="5.90523">
        <ele>1346.214692085</ele>
        <time>2015-11-05T08:48:48Z</time>
      </trkpt>
      <trkpt lat="45.40343" lon="5.90523">
        <ele>1346.214692085</ele>
        <time>2015-11-05T08:48:53Z</time>
      </trkpt>
      <trkpt lat="45.40343" lon="5.90523">
        <ele>1346.214692085</ele>
        <time>2015-11-05T08:49:08Z</time>
      </trkpt>
      <trkpt lat="45.40343" lon="5.90523">
        <ele>1346.214692085</ele>
        <time>2015-11-05T08:49:13Z</time>
      </trkpt>
      <trkpt lat="45.40343" lon="5.90523">
        <ele>1346.214692085</ele>
        <time>2015-11-05T08:49:23Z</time>
      </trkpt>
      <trkpt lat="45.40343" lon="5.90523">
        <ele>1346.214692085</ele>
        <time>2015-11-05T08:49:28Z</time>
      </trkpt>
      <trkpt lat="45.40343" lon="5.90524">
        <ele>1346.214692085</ele>
        <time>2015-11-05T08:49:38Z</time>
      </trkpt>
      <trkpt lat="45.40343" lon="5.90524">
        <ele>1346.214692085</ele>
        <time>2015-11-05T08:49:43Z</time>
      </trkpt>
      <trkpt lat="45.40343" lon="5.90524">
        <ele>1346.214692085</ele>
        <time>2015-11-05T08:49:53Z</time>
      </trkpt>
      <trkpt lat="45.40342" lon="5.90524">
        <ele>1346.214692085</ele>
        <time>2015-11-05T08:49:58Z</time>
      </trkpt>
      <trkpt lat="45.40342" lon="5.90524">
        <ele>1346.214692085</ele>
        <time>2015-11-05T08:50:08Z</time>
      </trkpt>
      <trkpt lat="45.40342" lon="5.90524">
        <ele>1346.214692085</ele>
        <time>2015-11-05T08:50:13Z</time>
      </trkpt>
      <trkpt lat="45.40342" lon="5.90524">
        <ele>1346.214692085</ele>
        <time>2015-11-05T08:50:27Z</time>
      </trkpt>
      <trkpt lat="45.40342" lon="5.90524">
        <ele>1346.214692085</ele>
        <time>2015-11-05T08:50:32Z</time>
      </trkpt>
      <trkpt lat="45.40342" lon="5.90524">
        <ele>1346.214692085</ele>
        <time>2015-11-05T08:50:43Z</time>
      </trkpt>
      <trkpt lat="45.40342" lon="5.90524">
        <ele>1346.214692085</ele>
        <time>2015-11-05T08:50:48Z</time>
      </trkpt>
      <trkpt lat="45.40341" lon="5.90524">
        <ele>1346.214692085</ele>
        <time>2015-11-05T08:50:58Z</time>
      </trkpt>
      <trkpt lat="45.40341" lon="5.90524">
        <ele>1346.214692085</ele>
        <time>2015-11-05T08:51:03Z</time>
      </trkpt>
      <trkpt lat="45.40341" lon="5.90524">
        <ele>1346.214692085</ele>
        <time>2015-11-05T08:51:13Z</time>
      </trkpt>
      <trkpt lat="45.4034" lon="5.90525">
        <ele>1346.214692085</ele>
        <time>2015-11-05T08:51:44Z</time>
      </trkpt>
      <trkpt lat="45.4034" lon="5.90525">
        <ele>1346.214692085</ele>
        <time>2015-11-05T08:51:44Z</time>
      </trkpt>
      <trkpt lat="45.4034" lon="5.90525">
        <ele>1346.214692085</ele>
        <time>2015-11-05T08:51:45Z</time>
      </trkpt>
      <trkpt lat="45.40333" lon="5.9052">
        <ele>1350.592965293</ele>
        <time>2015-11-05T08:52:03Z</time>
      </trkpt>
      <trkpt lat="45.4033" lon="5.90518">
        <ele>1350.592965293</ele>
        <time>2015-11-05T08:52:08Z</time>
      </trkpt>
      <trkpt lat="45.40324" lon="5.90518">
        <ele>1354.746296224</ele>
        <time>2015-11-05T08:52:18Z</time>
      </trkpt>
      <trkpt lat="45.40323" lon="5.9052">
        <ele>1354.746296224</ele>
        <time>2015-11-05T08:52:23Z</time>
      </trkpt>
      <trkpt lat="45.40318" lon="5.90519">
        <ele>1354.746296224</ele>
        <time>2015-11-05T08:52:33Z</time>
      </trkpt>
      <trkpt lat="45.40317" lon="5.9052">
        <ele>1354.746296224</ele>
        <time>2015-11-05T08:52:38Z</time>
      </trkpt>
      <trkpt lat="45.40316" lon="5.90519">
        <ele>1354.746296224</ele>
        <time>2015-11-05T08:52:48Z</time>
      </trkpt>
      <trkpt lat="45.40316" lon="5.90519">
        <ele>1354.746296224</ele>
        <time>2015-11-05T08:52:53Z</time>
      </trkpt>
      <trkpt lat="45.40316" lon="5.90519">
        <ele>1359.123831145</ele>
        <time>2015-11-05T08:53:03Z</time>
      </trkpt>
      <trkpt lat="45.40316" lon="5.90519">
        <ele>1359.123831145</ele>
        <time>2015-11-05T08:53:08Z</time>
      </trkpt>
      <trkpt lat="45.40315" lon="5.90519">
        <ele>1359.123831145</ele>
        <time>2015-11-05T08:53:18Z</time>
      </trkpt>
      <trkpt lat="45.40315" lon="5.90519">
        <ele>1359.123831145</ele>
        <time>2015-11-05T08:53:23Z</time>
      </trkpt>
      <trkpt lat="45.40301" lon="5.90516">
        <ele>1363.708854647</ele>
        <time>2015-11-05T08:53:33Z</time>
      </trkpt>
      <trkpt lat="45.40298" lon="5.90516">
        <ele>1363.708854647</ele>
        <time>2015-11-05T08:53:39Z</time>
      </trkpt>
      <trkpt lat="45.40299" lon="5.90516">
        <ele>1363.708854647</ele>
        <time>2015-11-05T08:53:42Z</time>
      </trkpt>
      <trkpt lat="45.40298" lon="5.90515">
        <ele>1363.708854647</ele>
        <time>2015-11-05T08:53:53Z</time>
      </trkpt>
      <trkpt lat="45.40298" lon="5.90515">
        <ele>1363.708854647</ele>
        <time>2015-11-05T08:53:57Z</time>
      </trkpt>
      <trkpt lat="45.40298" lon="5.90515">
        <ele>1363.708854647</ele>
        <time>2015-11-05T08:54:08Z</time>
      </trkpt>
      <trkpt lat="45.40298" lon="5.90515">
        <ele>1363.708854647</ele>
        <time>2015-11-05T08:54:13Z</time>
      </trkpt>
      <trkpt lat="45.40298" lon="5.90515">
        <ele>1363.708854647</ele>
        <time>2015-11-05T08:54:23Z</time>
      </trkpt>
      <trkpt lat="45.40298" lon="5.90515">
        <ele>1363.708854647</ele>
        <time>2015-11-05T08:54:28Z</time>
      </trkpt>
      <trkpt lat="45.40298" lon="5.90515">
        <ele>1363.708854647</ele>
        <time>2015-11-05T08:54:38Z</time>
      </trkpt>
      <trkpt lat="45.40298" lon="5.90515">
        <ele>1363.708854647</ele>
        <time>2015-11-05T08:54:43Z</time>
      </trkpt>
      <trkpt lat="45.40298" lon="5.90515">
        <ele>1363.708854647</ele>
        <time>2015-11-05T08:54:53Z</time>
      </trkpt>
      <trkpt lat="45.40298" lon="5.90515">
        <ele>1363.708854647</ele>
        <time>2015-11-05T08:54:58Z</time>
      </trkpt>
      <trkpt lat="45.40297" lon="5.90515">
        <ele>1363.708854647</ele>
        <time>2015-11-05T08:55:08Z</time>
      </trkpt>
      <trkpt lat="45.40297" lon="5.90515">
        <ele>1363.708854647</ele>
        <time>2015-11-05T08:55:13Z</time>
      </trkpt>
      <trkpt lat="45.40297" lon="5.90516">
        <ele>1363.708854647</ele>
        <time>2015-11-05T08:55:23Z</time>
      </trkpt>
      <trkpt lat="45.40297" lon="5.90515">
        <ele>1363.708854647</ele>
        <time>2015-11-05T08:55:28Z</time>
      </trkpt>
      <trkpt lat="45.4029" lon="5.90528">
        <ele>1368.053052297</ele>
        <time>2015-11-05T08:55:43Z</time>
      </trkpt>
      <trkpt lat="45.4029" lon="5.90528">
        <ele>1368.053052297</ele>
        <time>2015-11-05T08:55:58Z</time>
      </trkpt>
      <trkpt lat="45.40287" lon="5.90533">
        <ele>1368.053052297</ele>
        <time>2015-11-05T08:56:13Z</time>
      </trkpt>
      <trkpt lat="45.40287" lon="5.90533">
        <ele>1368.053052297</ele>
        <time>2015-11-05T08:56:18Z</time>
      </trkpt>
      <trkpt lat="45.40289" lon="5.90535">
        <ele>1368.053052297</ele>
        <time>2015-11-05T08:56:28Z</time>
      </trkpt>
      <trkpt lat="45.40288" lon="5.90535">
        <ele>1368.053052297</ele>
        <time>2015-11-05T08:56:33Z</time>
      </trkpt>
      <trkpt lat="45.40289" lon="5.90535">
        <ele>1368.053052297</ele>
        <time>2015-11-05T08:56:43Z</time>
      </trkpt>
      <trkpt lat="45.40291" lon="5.90536">
        <ele>1373.615303103</ele>
        <time>2015-11-05T08:56:48Z</time>
      </trkpt>
      <trkpt lat="45.40293" lon="5.90537">
        <ele>1373.615303103</ele>
        <time>2015-11-05T08:56:57Z</time>
      </trkpt>
      <trkpt lat="45.40294" lon="5.90537">
        <ele>1373.615303103</ele>
        <time>2015-11-05T08:57:03Z</time>
      </trkpt>
      <trkpt lat="45.40297" lon="5.90536">
        <ele>1373.615303103</ele>
        <time>2015-11-05T08:57:13Z</time>
      </trkpt>
      <trkpt lat="45.40299" lon="5.90536">
        <ele>1373.615303103</ele>
        <time>2015-11-05T08:57:18Z</time>
      </trkpt>
      <trkpt lat="45.40298" lon="5.90536">
        <ele>1373.615303103</ele>
        <time>2015-11-05T08:57:23Z</time>
      </trkpt>
      <trkpt lat="45.40298" lon="5.90536">
        <ele>1379.14992566</ele>
        <time>2015-11-05T08:57:28Z</time>
      </trkpt>
      <trkpt lat="45.40299" lon="5.90537">
        <ele>1379.14992566</ele>
        <time>2015-11-05T08:57:33Z</time>
      </trkpt>
      <trkpt lat="45.403" lon="5.90536">
        <ele>1379.14992566</ele>
        <time>2015-11-05T08:57:49Z</time>
      </trkpt>
      <trkpt lat="45.403" lon="5.90536">
        <ele>1379.14992566</ele>
        <time>2015-11-05T08:57:53Z</time>
      </trkpt>
      <trkpt lat="45.403" lon="5.90536">
        <ele>1379.14992566</ele>
        <time>2015-11-05T08:58:03Z</time>
      </trkpt>
      <trkpt lat="45.403" lon="5.90536">
        <ele>1379.14992566</ele>
        <time>2015-11-05T08:58:08Z</time>
      </trkpt>
      <trkpt lat="45.403" lon="5.90536">
        <ele>1379.14992566</ele>
        <time>2015-11-05T08:58:18Z</time>
      </trkpt>
      <trkpt lat="45.403" lon="5.90537">
        <ele>1379.14992566</ele>
        <time>2015-11-05T08:58:23Z</time>
      </trkpt>
      <trkpt lat="45.40295" lon="5.9053">
        <ele>1384.367604421</ele>
        <time>2015-11-05T08:58:33Z</time>
      </trkpt>
      <trkpt lat="45.40296" lon="5.9053">
        <ele>1384.367604421</ele>
        <time>2015-11-05T08:58:38Z</time>
      </trkpt>
      <trkpt lat="45.40295" lon="5.90528">
        <ele>1384.367604421</ele>
        <time>2015-11-05T08:58:47Z</time>
      </trkpt>
      <trkpt lat="45.40295" lon="5.90528">
        <ele>1384.367604421</ele>
        <time>2015-11-05T08:58:53Z</time>
      </trkpt>
      <trkpt lat="45.40295" lon="5.90527">
        <ele>1384.367604421</ele>
        <time>2015-11-05T08:59:03Z</time>
      </trkpt>
      <trkpt lat="45.40295" lon="5.90527">
        <ele>1384.367604421</ele>
        <time>2015-11-05T08:59:08Z</time>
      </trkpt>
      <trkpt lat="45.40295" lon="5.90527">
        <ele>1384.367604421</ele>
        <time>2015-11-05T08:59:18Z</time>
      </trkpt>
      <trkpt lat="45.40295" lon="5.90527">
        <ele>1384.367604421</ele>
        <time>2015-11-05T08:59:23Z</time>
      </trkpt>
      <trkpt lat="45.40295" lon="5.90527">
        <ele>1384.367604421</ele>
        <time>2015-11-05T08:59:33Z</time>
      </trkpt>
      <trkpt lat="45.40295" lon="5.90527">
        <ele>1384.367604421</ele>
        <time>2015-11-05T08:59:38Z</time>
      </trkpt>
      <trkpt lat="45.40295" lon="5.90527">
        <ele>1384.367604421</ele>
        <time>2015-11-05T08:59:58Z</time>
      </trkpt>
      <trkpt lat="45.40295" lon="5.90527">
        <ele>1384.367604421</ele>
        <time>2015-11-05T09:00:07Z</time>
      </trkpt>
      <trkpt lat="45.40295" lon="5.90527">
        <ele>1384.367604421</ele>
        <time>2015-11-05T09:00:12Z</time>
      </trkpt>
      <trkpt lat="45.40295" lon="5.90527">
        <ele>1384.367604421</ele>
        <time>2015-11-05T09:00:22Z</time>
      </trkpt>
      <trkpt lat="45.40295" lon="5.90527">
        <ele>1384.367604421</ele>
        <time>2015-11-05T09:00:27Z</time>
      </trkpt>
      <trkpt lat="45.40295" lon="5.90527">
        <ele>1384.367604421</ele>
        <time>2015-11-05T09:00:43Z</time>
      </trkpt>
      <trkpt lat="45.40295" lon="5.90527">
        <ele>1384.367604421</ele>
        <time>2015-11-05T09:00:53Z</time>
      </trkpt>
      <trkpt lat="45.40295" lon="5.90527">
        <ele>1384.367604421</ele>
        <time>2015-11-05T09:00:58Z</time>
      </trkpt>
      <trkpt lat="45.40295" lon="5.90527">
        <ele>1384.367604421</ele>
        <time>2015-11-05T09:01:13Z</time>
      </trkpt>
      <trkpt lat="45.40295" lon="5.90527">
        <ele>1384.367604421</ele>
        <time>2015-11-05T09:01:28Z</time>
      </trkpt>
      <trkpt lat="45.40295" lon="5.90527">
        <ele>1384.367604421</ele>
        <time>2015-11-05T09:01:33Z</time>
      </trkpt>
      <trkpt lat="45.40295" lon="5.90527">
        <ele>1384.367604421</ele>
        <time>2015-11-05T09:01:43Z</time>
      </trkpt>
      <trkpt lat="45.40295" lon="5.90527">
        <ele>1384.367604421</ele>
        <time>2015-11-05T09:01:48Z</time>
      </trkpt>
      <trkpt lat="45.40295" lon="5.90527">
        <ele>1384.367604421</ele>
        <time>2015-11-05T09:01:58Z</time>
      </trkpt>
      <trkpt lat="45.40295" lon="5.90527">
        <ele>1384.367604421</ele>
        <time>2015-11-05T09:02:03Z</time>
      </trkpt>
      <trkpt lat="45.40295" lon="5.90527">
        <ele>1384.367604421</ele>
        <time>2015-11-05T09:02:13Z</time>
      </trkpt>
      <trkpt lat="45.40295" lon="5.90527">
        <ele>1384.367604421</ele>
        <time>2015-11-05T09:02:18Z</time>
      </trkpt>
      <trkpt lat="45.40295" lon="5.90528">
        <ele>1384.367604421</ele>
        <time>2015-11-05T09:02:28Z</time>
      </trkpt>
      <trkpt lat="45.40295" lon="5.90528">
        <ele>1384.367604421</ele>
        <time>2015-11-05T09:02:33Z</time>
      </trkpt>
      <trkpt lat="45.40295" lon="5.90528">
        <ele>1384.367604421</ele>
        <time>2015-11-05T09:02:43Z</time>
      </trkpt>
      <trkpt lat="45.40295" lon="5.90528">
        <ele>1384.367604421</ele>
        <time>2015-11-05T09:02:48Z</time>
      </trkpt>
      <trkpt lat="45.40295" lon="5.90528">
        <ele>1384.367604421</ele>
        <time>2015-11-05T09:02:58Z</time>
      </trkpt>
      <trkpt lat="45.40295" lon="5.90539">
        <ele>1388.857142252</ele>
        <time>2015-11-05T09:03:03Z</time>
      </trkpt>
      <trkpt lat="45.40293" lon="5.90537">
        <ele>1388.857142252</ele>
        <time>2015-11-05T09:03:13Z</time>
      </trkpt>
      <trkpt lat="45.40292" lon="5.90536">
        <ele>1388.857142252</ele>
        <time>2015-11-05T09:03:18Z</time>
      </trkpt>
      <trkpt lat="45.40294" lon="5.90538">
        <ele>1388.857142252</ele>
        <time>2015-11-05T09:03:32Z</time>
      </trkpt>
      <trkpt lat="45.40293" lon="5.9053">
        <ele>1392.527906969</ele>
        <time>2015-11-05T09:03:37Z</time>
      </trkpt>
      <trkpt lat="45.40296" lon="5.9053">
        <ele>1392.527906969</ele>
        <time>2015-11-05T09:03:47Z</time>
      </trkpt>
      <trkpt lat="45.40297" lon="5.90532">
        <ele>1392.527906969</ele>
        <time>2015-11-05T09:04:03Z</time>
      </trkpt>
      <trkpt lat="45.40297" lon="5.90532">
        <ele>1392.527906969</ele>
        <time>2015-11-05T09:04:13Z</time>
      </trkpt>
      <trkpt lat="45.40297" lon="5.90532">
        <ele>1392.527906969</ele>
        <time>2015-11-05T09:04:18Z</time>
      </trkpt>
      <trkpt lat="45.40297" lon="5.90532">
        <ele>1392.527906969</ele>
        <time>2015-11-05T09:04:23Z</time>
      </trkpt>
      <trkpt lat="45.40297" lon="5.90532">
        <ele>1392.527906969</ele>
        <time>2015-11-05T09:04:33Z</time>
      </trkpt>
      <trkpt lat="45.40297" lon="5.90532">
        <ele>1392.527906969</ele>
        <time>2015-11-05T09:04:38Z</time>
      </trkpt>
      <trkpt lat="45.40297" lon="5.90532">
        <ele>1392.527906969</ele>
        <time>2015-11-05T09:04:48Z</time>
      </trkpt>
      <trkpt lat="45.40297" lon="5.90532">
        <ele>1392.527906969</ele>
        <time>2015-11-05T09:04:53Z</time>
      </trkpt>
      <trkpt lat="45.40297" lon="5.90532">
        <ele>1392.527906969</ele>
        <time>2015-11-05T09:05:03Z</time>
      </trkpt>
      <trkpt lat="45.40297" lon="5.90532">
        <ele>1392.527906969</ele>
        <time>2015-11-05T09:05:08Z</time>
      </trkpt>
      <trkpt lat="45.40297" lon="5.90532">
        <ele>1392.527906969</ele>
        <time>2015-11-05T09:05:18Z</time>
      </trkpt>
      <trkpt lat="45.40297" lon="5.90532">
        <ele>1392.527906969</ele>
        <time>2015-11-05T09:05:23Z</time>
      </trkpt>
      <trkpt lat="45.40297" lon="5.90532">
        <ele>1392.527906969</ele>
        <time>2015-11-05T09:05:33Z</time>
      </trkpt>
      <trkpt lat="45.40297" lon="5.90532">
        <ele>1392.527906969</ele>
        <time>2015-11-05T09:05:38Z</time>
      </trkpt>
      <trkpt lat="45.40297" lon="5.90532">
        <ele>1392.527906969</ele>
        <time>2015-11-05T09:05:48Z</time>
      </trkpt>
      <trkpt lat="45.40297" lon="5.90532">
        <ele>1392.527906969</ele>
        <time>2015-11-05T09:05:53Z</time>
      </trkpt>
      <trkpt lat="45.40297" lon="5.90532">
        <ele>1392.527906969</ele>
        <time>2015-11-05T09:06:08Z</time>
      </trkpt>
      <trkpt lat="45.40297" lon="5.90532">
        <ele>1392.527906969</ele>
        <time>2015-11-05T09:06:13Z</time>
      </trkpt>
      <trkpt lat="45.40297" lon="5.90532">
        <ele>1392.527906969</ele>
        <time>2015-11-05T09:06:23Z</time>
      </trkpt>
      <trkpt lat="45.40297" lon="5.90532">
        <ele>1392.527906969</ele>
        <time>2015-11-05T09:06:28Z</time>
      </trkpt>
      <trkpt lat="45.40297" lon="5.90532">
        <ele>1392.527906969</ele>
        <time>2015-11-05T09:06:38Z</time>
      </trkpt>
      <trkpt lat="45.40297" lon="5.90532">
        <ele>1392.527906969</ele>
        <time>2015-11-05T09:06:42Z</time>
      </trkpt>
      <trkpt lat="45.40297" lon="5.90532">
        <ele>1392.527906969</ele>
        <time>2015-11-05T09:06:52Z</time>
      </trkpt>
      <trkpt lat="45.40297" lon="5.90532">
        <ele>1392.527906969</ele>
        <time>2015-11-05T09:06:58Z</time>
      </trkpt>
      <trkpt lat="45.40297" lon="5.90532">
        <ele>1392.527906969</ele>
        <time>2015-11-05T09:07:08Z</time>
      </trkpt>
      <trkpt lat="45.40297" lon="5.90532">
        <ele>1392.527906969</ele>
        <time>2015-11-05T09:07:13Z</time>
      </trkpt>
      <trkpt lat="45.40297" lon="5.90532">
        <ele>1392.527906969</ele>
        <time>2015-11-05T09:07:22Z</time>
      </trkpt>
      <trkpt lat="45.40297" lon="5.90532">
        <ele>1392.527906969</ele>
        <time>2015-11-05T09:07:28Z</time>
      </trkpt>
      <trkpt lat="45.40297" lon="5.90532">
        <ele>1392.527906969</ele>
        <time>2015-11-05T09:07:38Z</time>
      </trkpt>
      <trkpt lat="45.40297" lon="5.90532">
        <ele>1392.527906969</ele>
        <time>2015-11-05T09:07:42Z</time>
      </trkpt>
      <trkpt lat="45.40297" lon="5.90532">
        <ele>1392.527906969</ele>
        <time>2015-11-05T09:07:53Z</time>
      </trkpt>
      <trkpt lat="45.40297" lon="5.90532">
        <ele>1392.527906969</ele>
        <time>2015-11-05T09:07:58Z</time>
      </trkpt>
      <trkpt lat="45.40297" lon="5.90532">
        <ele>1392.527906969</ele>
        <time>2015-11-05T09:08:08Z</time>
      </trkpt>
      <trkpt lat="45.40297" lon="5.90532">
        <ele>1392.527906969</ele>
        <time>2015-11-05T09:08:13Z</time>
      </trkpt>
      <trkpt lat="45.40297" lon="5.90532">
        <ele>1392.527906969</ele>
        <time>2015-11-05T09:08:23Z</time>
      </trkpt>
      <trkpt lat="45.40297" lon="5.90532">
        <ele>1392.527906969</ele>
        <time>2015-11-05T09:08:28Z</time>
      </trkpt>
      <trkpt lat="45.40297" lon="5.90532">
        <ele>1392.527906969</ele>
        <time>2015-11-05T09:08:38Z</time>
      </trkpt>
      <trkpt lat="45.40297" lon="5.90532">
        <ele>1392.527906969</ele>
        <time>2015-11-05T09:09:29Z</time>
      </trkpt>
      <trkpt lat="45.40297" lon="5.90532">
        <ele>1392.527906969</ele>
        <time>2015-11-05T09:09:30Z</time>
      </trkpt>
      <trkpt lat="45.40297" lon="5.90532">
        <ele>1392.527906969</ele>
        <time>2015-11-05T09:09:31Z</time>
      </trkpt>
      <trkpt lat="45.40297" lon="5.90532">
        <ele>1392.527906969</ele>
        <time>2015-11-05T09:09:35Z</time>
      </trkpt>
      <trkpt lat="45.40297" lon="5.90532">
        <ele>1392.527906969</ele>
        <time>2015-11-05T09:10:05Z</time>
      </trkpt>
      <trkpt lat="45.40297" lon="5.90532">
        <ele>1392.527906969</ele>
        <time>2015-11-05T09:10:06Z</time>
      </trkpt>
      <trkpt lat="45.40297" lon="5.90532">
        <ele>1392.527906969</ele>
        <time>2015-11-05T09:10:08Z</time>
      </trkpt>
      <trkpt lat="45.40297" lon="5.90532">
        <ele>1392.527906969</ele>
        <time>2015-11-05T09:10:17Z</time>
      </trkpt>
      <trkpt lat="45.40297" lon="5.90532">
        <ele>1392.527906969</ele>
        <time>2015-11-05T09:10:18Z</time>
      </trkpt>
      <trkpt lat="45.40297" lon="5.90532">
        <ele>1392.527906969</ele>
        <time>2015-11-05T09:10:22Z</time>
      </trkpt>
      <trkpt lat="45.40297" lon="5.90532">
        <ele>1392.527906969</ele>
        <time>2015-11-05T09:10:32Z</time>
      </trkpt>
      <trkpt lat="45.40296" lon="5.90531">
        <ele>1392.527906969</ele>
        <time>2015-11-05T09:10:38Z</time>
      </trkpt>
      <trkpt lat="45.40297" lon="5.90533">
        <ele>1392.527906969</ele>
        <time>2015-11-05T09:10:53Z</time>
      </trkpt>
      <trkpt lat="45.40297" lon="5.90533">
        <ele>1392.527906969</ele>
        <time>2015-11-05T09:11:03Z</time>
      </trkpt>
      <trkpt lat="45.40297" lon="5.90533">
        <ele>1392.527906969</ele>
        <time>2015-11-05T09:11:08Z</time>
      </trkpt>
      <trkpt lat="45.40297" lon="5.90533">
        <ele>1392.527906969</ele>
        <time>2015-11-05T09:11:23Z</time>
      </trkpt>
      <trkpt lat="45.40297" lon="5.90533">
        <ele>1392.527906969</ele>
        <time>2015-11-05T09:11:29Z</time>
      </trkpt>
      <trkpt lat="45.40297" lon="5.90534">
        <ele>1392.527906969</ele>
        <time>2015-11-05T09:11:38Z</time>
      </trkpt>
      <trkpt lat="45.40297" lon="5.90534">
        <ele>1392.527906969</ele>
        <time>2015-11-05T09:11:43Z</time>
      </trkpt>
      <trkpt lat="45.40297" lon="5.90534">
        <ele>1395.442413632</ele>
        <time>2015-11-05T09:11:53Z</time>
      </trkpt>
      <trkpt lat="45.40297" lon="5.90535">
        <ele>1395.442413632</ele>
        <time>2015-11-05T09:11:58Z</time>
      </trkpt>
      <trkpt lat="45.40297" lon="5.90535">
        <ele>1395.442413632</ele>
        <time>2015-11-05T09:12:08Z</time>
      </trkpt>
      <trkpt lat="45.40297" lon="5.90535">
        <ele>1395.442413632</ele>
        <time>2015-11-05T09:12:13Z</time>
      </trkpt>
      <trkpt lat="45.40297" lon="5.90535">
        <ele>1395.442413632</ele>
        <time>2015-11-05T09:12:23Z</time>
      </trkpt>
      <trkpt lat="45.40297" lon="5.90535">
        <ele>1395.442413632</ele>
        <time>2015-11-05T09:12:27Z</time>
      </trkpt>
      <trkpt lat="45.40297" lon="5.90535">
        <ele>1395.442413632</ele>
        <time>2015-11-05T09:12:38Z</time>
      </trkpt>
      <trkpt lat="45.40297" lon="5.90535">
        <ele>1395.442413632</ele>
        <time>2015-11-05T09:12:43Z</time>
      </trkpt>
      <trkpt lat="45.40297" lon="5.90535">
        <ele>1395.442413632</ele>
        <time>2015-11-05T09:12:53Z</time>
      </trkpt>
      <trkpt lat="45.40297" lon="5.90535">
        <ele>1395.442413632</ele>
        <time>2015-11-05T09:12:58Z</time>
      </trkpt>
      <trkpt lat="45.40297" lon="5.90535">
        <ele>1395.442413632</ele>
        <time>2015-11-05T09:13:08Z</time>
      </trkpt>
      <trkpt lat="45.40297" lon="5.90535">
        <ele>1395.442413632</ele>
        <time>2015-11-05T09:13:13Z</time>
      </trkpt>
      <trkpt lat="45.40297" lon="5.90535">
        <ele>1395.442413632</ele>
        <time>2015-11-05T09:13:23Z</time>
      </trkpt>
      <trkpt lat="45.40297" lon="5.90535">
        <ele>1395.442413632</ele>
        <time>2015-11-05T09:13:28Z</time>
      </trkpt>
      <trkpt lat="45.40297" lon="5.90535">
        <ele>1395.442413632</ele>
        <time>2015-11-05T09:13:38Z</time>
      </trkpt>
      <trkpt lat="45.40297" lon="5.90535">
        <ele>1395.442413632</ele>
        <time>2015-11-05T09:13:43Z</time>
      </trkpt>
      <trkpt lat="45.40297" lon="5.90535">
        <ele>1395.442413632</ele>
        <time>2015-11-05T09:13:57Z</time>
      </trkpt>
      <trkpt lat="45.40297" lon="5.90535">
        <ele>1395.442413632</ele>
        <time>2015-11-05T09:14:03Z</time>
      </trkpt>
      <trkpt lat="45.40296" lon="5.90535">
        <ele>1395.442413632</ele>
        <time>2015-11-05T09:14:13Z</time>
      </trkpt>
      <trkpt lat="45.40296" lon="5.90535">
        <ele>1395.442413632</ele>
        <time>2015-11-05T09:14:17Z</time>
      </trkpt>
      <trkpt lat="45.40286" lon="5.9055">
        <ele>1397.228430474</ele>
        <time>2015-11-05T09:14:28Z</time>
      </trkpt>
      <trkpt lat="45.40284" lon="5.90554">
        <ele>1397.228430474</ele>
        <time>2015-11-05T09:14:33Z</time>
      </trkpt>
      <trkpt lat="45.40276" lon="5.90554">
        <ele>1398.553075211</ele>
        <time>2015-11-05T09:14:43Z</time>
      </trkpt>
      <trkpt lat="45.40276" lon="5.90555">
        <ele>1398.553075211</ele>
        <time>2015-11-05T09:14:48Z</time>
      </trkpt>
      <trkpt lat="45.40276" lon="5.90555">
        <ele>1398.553075211</ele>
        <time>2015-11-05T09:14:58Z</time>
      </trkpt>
      <trkpt lat="45.40276" lon="5.90556">
        <ele>1398.553075211</ele>
        <time>2015-11-05T09:15:03Z</time>
      </trkpt>
      <trkpt lat="45.40276" lon="5.90555">
        <ele>1398.553075211</ele>
        <time>2015-11-05T09:15:13Z</time>
      </trkpt>
      <trkpt lat="45.40276" lon="5.90555">
        <ele>1398.553075211</ele>
        <time>2015-11-05T09:15:18Z</time>
      </trkpt>
      <trkpt lat="45.40276" lon="5.90555">
        <ele>1398.553075211</ele>
        <time>2015-11-05T09:15:27Z</time>
      </trkpt>
      <trkpt lat="45.40276" lon="5.90555">
        <ele>1398.553075211</ele>
        <time>2015-11-05T09:15:33Z</time>
      </trkpt>
      <trkpt lat="45.40271" lon="5.90554">
        <ele>1398.553075211</ele>
        <time>2015-11-05T09:15:42Z</time>
      </trkpt>
      <trkpt lat="45.40267" lon="5.90552">
        <ele>1400.468111377</ele>
        <time>2015-11-05T09:15:48Z</time>
      </trkpt>
      <trkpt lat="45.4026" lon="5.90556">
        <ele>1400.468111377</ele>
        <time>2015-11-05T09:15:58Z</time>
      </trkpt>
      <trkpt lat="45.40259" lon="5.90555">
        <ele>1400.468111377</ele>
        <time>2015-11-05T09:16:03Z</time>
      </trkpt>
      <trkpt lat="45.40259" lon="5.90557">
        <ele>1401.640570486</ele>
        <time>2015-11-05T09:16:18Z</time>
      </trkpt>
      <trkpt lat="45.40259" lon="5.90557">
        <ele>1401.640570486</ele>
        <time>2015-11-05T09:16:33Z</time>
      </trkpt>
      <trkpt lat="45.40259" lon="5.90557">
        <ele>1401.640570486</ele>
        <time>2015-11-05T09:16:37Z</time>
      </trkpt>
      <trkpt lat="45.40259" lon="5.90557">
        <ele>1401.640570486</ele>
        <time>2015-11-05T09:16:48Z</time>
      </trkpt>
      <trkpt lat="45.40258" lon="5.9056">
        <ele>1401.640570486</ele>
        <time>2015-11-05T09:16:53Z</time>
      </trkpt>
      <trkpt lat="45.40257" lon="5.90559">
        <ele>1401.640570486</ele>
        <time>2015-11-05T09:17:03Z</time>
      </trkpt>
      <trkpt lat="45.40257" lon="5.90559">
        <ele>1401.640570486</ele>
        <time>2015-11-05T09:17:08Z</time>
      </trkpt>
      <trkpt lat="45.40256" lon="5.90559">
        <ele>1401.640570486</ele>
        <time>2015-11-05T09:17:18Z</time>
      </trkpt>
      <trkpt lat="45.40256" lon="5.90559">
        <ele>1401.640570486</ele>
        <time>2015-11-05T09:17:23Z</time>
      </trkpt>
      <trkpt lat="45.40257" lon="5.90563">
        <ele>1401.640570486</ele>
        <time>2015-11-05T09:17:33Z</time>
      </trkpt>
      <trkpt lat="45.40256" lon="5.90561">
        <ele>1401.640570486</ele>
        <time>2015-11-05T09:17:37Z</time>
      </trkpt>
      <trkpt lat="45.40256" lon="5.90562">
        <ele>1401.640570486</ele>
        <time>2015-11-05T09:17:47Z</time>
      </trkpt>
      <trkpt lat="45.40256" lon="5.90562">
        <ele>1401.640570486</ele>
        <time>2015-11-05T09:17:53Z</time>
      </trkpt>
      <trkpt lat="45.40256" lon="5.90562">
        <ele>1401.640570486</ele>
        <time>2015-11-05T09:18:03Z</time>
      </trkpt>
      <trkpt lat="45.40256" lon="5.90562">
        <ele>1401.640570486</ele>
        <time>2015-11-05T09:18:07Z</time>
      </trkpt>
      <trkpt lat="45.40255" lon="5.90562">
        <ele>1401.640570486</ele>
        <time>2015-11-05T09:18:18Z</time>
      </trkpt>
      <trkpt lat="45.40254" lon="5.90561">
        <ele>1403.287380026</ele>
        <time>2015-11-05T09:18:23Z</time>
      </trkpt>
      <trkpt lat="45.40252" lon="5.90567">
        <ele>1403.287380026</ele>
        <time>2015-11-05T09:18:33Z</time>
      </trkpt>
      <trkpt lat="45.40253" lon="5.90567">
        <ele>1403.287380026</ele>
        <time>2015-11-05T09:18:38Z</time>
      </trkpt>
      <trkpt lat="45.40252" lon="5.90566">
        <ele>1403.287380026</ele>
        <time>2015-11-05T09:18:48Z</time>
      </trkpt>
      <trkpt lat="45.40252" lon="5.90567">
        <ele>1403.287380026</ele>
        <time>2015-11-05T09:18:53Z</time>
      </trkpt>
      <trkpt lat="45.40248" lon="5.90573">
        <ele>1404.228884099</ele>
        <time>2015-11-05T09:19:03Z</time>
      </trkpt>
      <trkpt lat="45.40246" lon="5.90575">
        <ele>1404.228884099</ele>
        <time>2015-11-05T09:19:08Z</time>
      </trkpt>
      <trkpt lat="45.40248" lon="5.90577">
        <ele>1404.228884099</ele>
        <time>2015-11-05T09:19:23Z</time>
      </trkpt>
      <trkpt lat="45.40246" lon="5.90576">
        <ele>1404.228884099</ele>
        <time>2015-11-05T09:19:28Z</time>
      </trkpt>
      <trkpt lat="45.40246" lon="5.90574">
        <ele>1405.391564253</ele>
        <time>2015-11-05T09:19:38Z</time>
      </trkpt>
      <trkpt lat="45.40246" lon="5.90573">
        <ele>1405.391564253</ele>
        <time>2015-11-05T09:19:43Z</time>
      </trkpt>
      <trkpt lat="45.40247" lon="5.90571">
        <ele>1405.391564253</ele>
        <time>2015-11-05T09:19:53Z</time>
      </trkpt>
      <trkpt lat="45.40247" lon="5.90571">
        <ele>1405.391564253</ele>
        <time>2015-11-05T09:19:58Z</time>
      </trkpt>
      <trkpt lat="45.40247" lon="5.90571">
        <ele>1405.391564253</ele>
        <time>2015-11-05T09:20:08Z</time>
      </trkpt>
      <trkpt lat="45.40247" lon="5.90571">
        <ele>1405.391564253</ele>
        <time>2015-11-05T09:20:13Z</time>
      </trkpt>
      <trkpt lat="45.40247" lon="5.90571">
        <ele>1405.391564253</ele>
        <time>2015-11-05T09:20:23Z</time>
      </trkpt>
      <trkpt lat="45.40247" lon="5.90571">
        <ele>1405.391564253</ele>
        <time>2015-11-05T09:20:28Z</time>
      </trkpt>
      <trkpt lat="45.40239" lon="5.90598">
        <ele>1406.336111657</ele>
        <time>2015-11-05T09:20:38Z</time>
      </trkpt>
      <trkpt lat="45.40233" lon="5.906">
        <ele>1406.336111657</ele>
        <time>2015-11-05T09:20:43Z</time>
      </trkpt>
      <trkpt lat="45.40229" lon="5.90591">
        <ele>1406.655982556</ele>
        <time>2015-11-05T09:20:53Z</time>
      </trkpt>
      <trkpt lat="45.40229" lon="5.90592">
        <ele>1406.655982556</ele>
        <time>2015-11-05T09:20:58Z</time>
      </trkpt>
      <trkpt lat="45.4023" lon="5.9059">
        <ele>1406.655982556</ele>
        <time>2015-11-05T09:21:13Z</time>
      </trkpt>
      <trkpt lat="45.4023" lon="5.9059">
        <ele>1406.655982556</ele>
        <time>2015-11-05T09:21:17Z</time>
      </trkpt>
      <trkpt lat="45.4023" lon="5.9059">
        <ele>1406.655982556</ele>
        <time>2015-11-05T09:21:28Z</time>
      </trkpt>
      <trkpt lat="45.4023" lon="5.9059">
        <ele>1406.655982556</ele>
        <time>2015-11-05T09:21:33Z</time>
      </trkpt>
      <trkpt lat="45.4023" lon="5.90595">
        <ele>1406.655982556</ele>
        <time>2015-11-05T09:21:43Z</time>
      </trkpt>
      <trkpt lat="45.4023" lon="5.90595">
        <ele>1406.655982556</ele>
        <time>2015-11-05T09:21:48Z</time>
      </trkpt>
      <trkpt lat="45.40229" lon="5.90594">
        <ele>1406.655982556</ele>
        <time>2015-11-05T09:21:58Z</time>
      </trkpt>
      <trkpt lat="45.40229" lon="5.90594">
        <ele>1406.655982556</ele>
        <time>2015-11-05T09:22:03Z</time>
      </trkpt>
      <trkpt lat="45.40229" lon="5.90594">
        <ele>1406.655982556</ele>
        <time>2015-11-05T09:22:13Z</time>
      </trkpt>
      <trkpt lat="45.40229" lon="5.90594">
        <ele>1406.655982556</ele>
        <time>2015-11-05T09:22:18Z</time>
      </trkpt>
      <trkpt lat="45.40228" lon="5.90594">
        <ele>1406.655982556</ele>
        <time>2015-11-05T09:22:33Z</time>
      </trkpt>
      <trkpt lat="45.40228" lon="5.90594">
        <ele>1406.655982556</ele>
        <time>2015-11-05T09:22:48Z</time>
      </trkpt>
      <trkpt lat="45.40228" lon="5.90594">
        <ele>1406.655982556</ele>
        <time>2015-11-05T09:22:53Z</time>
      </trkpt>
      <trkpt lat="45.40228" lon="5.90594">
        <ele>1406.655982556</ele>
        <time>2015-11-05T09:23:03Z</time>
      </trkpt>
      <trkpt lat="45.40228" lon="5.90594">
        <ele>1406.655982556</ele>
        <time>2015-11-05T09:23:08Z</time>
      </trkpt>
      <trkpt lat="45.40227" lon="5.90595">
        <ele>1407.273116659</ele>
        <time>2015-11-05T09:23:18Z</time>
      </trkpt>
      <trkpt lat="45.40222" lon="5.90592">
        <ele>1407.273116659</ele>
        <time>2015-11-05T09:23:23Z</time>
      </trkpt>
      <trkpt lat="45.40218" lon="5.90593">
        <ele>1407.887835945</ele>
        <time>2015-11-05T09:23:33Z</time>
      </trkpt>
      <trkpt lat="45.40218" lon="5.90594">
        <ele>1407.887835945</ele>
        <time>2015-11-05T09:23:38Z</time>
      </trkpt>
      <trkpt lat="45.40216" lon="5.90592">
        <ele>1407.887835945</ele>
        <time>2015-11-05T09:23:48Z</time>
      </trkpt>
      <trkpt lat="45.40216" lon="5.90592">
        <ele>1407.887835945</ele>
        <time>2015-11-05T09:23:53Z</time>
      </trkpt>
      <trkpt lat="45.40212" lon="5.90588">
        <ele>1407.887835945</ele>
        <time>2015-11-05T09:24:03Z</time>
      </trkpt>
      <trkpt lat="45.40212" lon="5.90587">
        <ele>1407.887835945</ele>
        <time>2015-11-05T09:24:08Z</time>
      </trkpt>
      <trkpt lat="45.40211" lon="5.90587">
        <ele>1407.887835945</ele>
        <time>2015-11-05T09:24:12Z</time>
      </trkpt>
      <trkpt lat="45.40211" lon="5.90586">
        <ele>1407.887835945</ele>
        <time>2015-11-05T09:24:18Z</time>
      </trkpt>
      <trkpt lat="45.40211" lon="5.90587">
        <ele>1407.887835945</ele>
        <time>2015-11-05T09:24:22Z</time>
      </trkpt>
      <trkpt lat="45.40208" lon="5.906">
        <ele>1408.222302852</ele>
        <time>2015-11-05T09:24:37Z</time>
      </trkpt>
      <trkpt lat="45.40203" lon="5.90611">
        <ele>1407.731452178</ele>
        <time>2015-11-05T09:24:42Z</time>
      </trkpt>
      <trkpt lat="45.402" lon="5.90609">
        <ele>1407.731452178</ele>
        <time>2015-11-05T09:24:53Z</time>
      </trkpt>
      <trkpt lat="45.402" lon="5.90609">
        <ele>1407.731452178</ele>
        <time>2015-11-05T09:24:58Z</time>
      </trkpt>
      <trkpt lat="45.402" lon="5.90609">
        <ele>1407.731452178</ele>
        <time>2015-11-05T09:25:08Z</time>
      </trkpt>
      <trkpt lat="45.402" lon="5.90609">
        <ele>1407.731452178</ele>
        <time>2015-11-05T09:25:13Z</time>
      </trkpt>
      <trkpt lat="45.402" lon="5.90609">
        <ele>1407.731452178</ele>
        <time>2015-11-05T09:25:23Z</time>
      </trkpt>
      <trkpt lat="45.402" lon="5.90609">
        <ele>1407.731452178</ele>
        <time>2015-11-05T09:25:28Z</time>
      </trkpt>
      <trkpt lat="45.402" lon="5.90609">
        <ele>1407.731452178</ele>
        <time>2015-11-05T09:25:38Z</time>
      </trkpt>
      <trkpt lat="45.402" lon="5.90609">
        <ele>1407.731452178</ele>
        <time>2015-11-05T09:25:43Z</time>
      </trkpt>
      <trkpt lat="45.402" lon="5.9061">
        <ele>1407.731452178</ele>
        <time>2015-11-05T09:25:53Z</time>
      </trkpt>
      <trkpt lat="45.40196" lon="5.90612">
        <ele>1407.731452178</ele>
        <time>2015-11-05T09:25:58Z</time>
      </trkpt>
      <trkpt lat="45.40194" lon="5.90611">
        <ele>1409.2269223</ele>
        <time>2015-11-05T09:26:08Z</time>
      </trkpt>
      <trkpt lat="45.40195" lon="5.9061">
        <ele>1409.2269223</ele>
        <time>2015-11-05T09:26:13Z</time>
      </trkpt>
      <trkpt lat="45.40195" lon="5.90611">
        <ele>1409.2269223</ele>
        <time>2015-11-05T09:26:18Z</time>
      </trkpt>
      <trkpt lat="45.40195" lon="5.90611">
        <ele>1409.2269223</ele>
        <time>2015-11-05T09:26:28Z</time>
      </trkpt>
      <trkpt lat="45.40195" lon="5.90611">
        <ele>1409.2269223</ele>
        <time>2015-11-05T09:26:33Z</time>
      </trkpt>
      <trkpt lat="45.40195" lon="5.9061">
        <ele>1409.2269223</ele>
        <time>2015-11-05T09:26:43Z</time>
      </trkpt>
      <trkpt lat="45.40195" lon="5.90611">
        <ele>1409.2269223</ele>
        <time>2015-11-05T09:26:48Z</time>
      </trkpt>
      <trkpt lat="45.40195" lon="5.90611">
        <ele>1409.2269223</ele>
        <time>2015-11-05T09:26:58Z</time>
      </trkpt>
      <trkpt lat="45.40195" lon="5.90611">
        <ele>1409.2269223</ele>
        <time>2015-11-05T09:27:03Z</time>
      </trkpt>
      <trkpt lat="45.40195" lon="5.90612">
        <ele>1409.2269223</ele>
        <time>2015-11-05T09:27:13Z</time>
      </trkpt>
      <trkpt lat="45.40192" lon="5.90611">
        <ele>1409.2269223</ele>
        <time>2015-11-05T09:27:18Z</time>
      </trkpt>
      <trkpt lat="45.40192" lon="5.90621">
        <ele>1410.984661521</ele>
        <time>2015-11-05T09:27:28Z</time>
      </trkpt>
      <trkpt lat="45.40191" lon="5.90627">
        <ele>1410.984661521</ele>
        <time>2015-11-05T09:27:33Z</time>
      </trkpt>
      <trkpt lat="45.40189" lon="5.90632">
        <ele>1410.984661521</ele>
        <time>2015-11-05T09:27:43Z</time>
      </trkpt>
      <trkpt lat="45.40187" lon="5.90631">
        <ele>1412.559185687</ele>
        <time>2015-11-05T09:27:48Z</time>
      </trkpt>
      <trkpt lat="45.40187" lon="5.90631">
        <ele>1412.559185687</ele>
        <time>2015-11-05T09:27:57Z</time>
      </trkpt>
      <trkpt lat="45.40186" lon="5.90631">
        <ele>1412.559185687</ele>
        <time>2015-11-05T09:28:03Z</time>
      </trkpt>
      <trkpt lat="45.40186" lon="5.90634">
        <ele>1412.559185687</ele>
        <time>2015-11-05T09:28:12Z</time>
      </trkpt>
      <trkpt lat="45.40184" lon="5.90632">
        <ele>1412.559185687</ele>
        <time>2015-11-05T09:28:18Z</time>
      </trkpt>
      <trkpt lat="45.40181" lon="5.90633">
        <ele>1412.559185687</ele>
        <time>2015-11-05T09:28:28Z</time>
      </trkpt>
      <trkpt lat="45.40181" lon="5.90636">
        <ele>1414.546787172</ele>
        <time>2015-11-05T09:28:33Z</time>
      </trkpt>
      <trkpt lat="45.40175" lon="5.90642">
        <ele>1414.546787172</ele>
        <time>2015-11-05T09:28:43Z</time>
      </trkpt>
      <trkpt lat="45.40172" lon="5.90641">
        <ele>1416.345663628</ele>
        <time>2015-11-05T09:28:48Z</time>
      </trkpt>
      <trkpt lat="45.40169" lon="5.90639">
        <ele>1416.345663628</ele>
        <time>2015-11-05T09:29:03Z</time>
      </trkpt>
      <trkpt lat="45.40169" lon="5.90639">
        <ele>1416.345663628</ele>
        <time>2015-11-05T09:29:08Z</time>
      </trkpt>
      <trkpt lat="45.40169" lon="5.90639">
        <ele>1416.345663628</ele>
        <time>2015-11-05T09:29:18Z</time>
      </trkpt>
      <trkpt lat="45.40169" lon="5.90639">
        <ele>1416.345663628</ele>
        <time>2015-11-05T09:29:23Z</time>
      </trkpt>
      <trkpt lat="45.40163" lon="5.90645">
        <ele>1419.271958652</ele>
        <time>2015-11-05T09:29:33Z</time>
      </trkpt>
      <trkpt lat="45.40158" lon="5.90643">
        <ele>1419.271958652</ele>
        <time>2015-11-05T09:29:38Z</time>
      </trkpt>
      <trkpt lat="45.40158" lon="5.90649">
        <ele>1421.515399732</ele>
        <time>2015-11-05T09:29:48Z</time>
      </trkpt>
      <trkpt lat="45.40155" lon="5.90651">
        <ele>1421.515399732</ele>
        <time>2015-11-05T09:29:53Z</time>
      </trkpt>
      <trkpt lat="45.40153" lon="5.90654">
        <ele>1421.515399732</ele>
        <time>2015-11-05T09:30:03Z</time>
      </trkpt>
      <trkpt lat="45.40152" lon="5.9066">
        <ele>1423.273830083</ele>
        <time>2015-11-05T09:30:08Z</time>
      </trkpt>
      <trkpt lat="45.4015" lon="5.90662">
        <ele>1423.273830083</ele>
        <time>2015-11-05T09:30:18Z</time>
      </trkpt>
      <trkpt lat="45.4015" lon="5.90662">
        <ele>1423.273830083</ele>
        <time>2015-11-05T09:30:23Z</time>
      </trkpt>
      <trkpt lat="45.40149" lon="5.90661">
        <ele>1423.273830083</ele>
        <time>2015-11-05T09:30:33Z</time>
      </trkpt>
      <trkpt lat="45.40149" lon="5.90669">
        <ele>1424.443474255</ele>
        <time>2015-11-05T09:30:38Z</time>
      </trkpt>
      <trkpt lat="45.4015" lon="5.9067">
        <ele>1424.443474255</ele>
        <time>2015-11-05T09:30:48Z</time>
      </trkpt>
      <trkpt lat="45.4015" lon="5.90669">
        <ele>1424.443474255</ele>
        <time>2015-11-05T09:30:53Z</time>
      </trkpt>
      <trkpt lat="45.40149" lon="5.90669">
        <ele>1424.443474255</ele>
        <time>2015-11-05T09:31:03Z</time>
      </trkpt>
      <trkpt lat="45.40148" lon="5.90667">
        <ele>1424.443474255</ele>
        <time>2015-11-05T09:31:08Z</time>
      </trkpt>
      <trkpt lat="45.40148" lon="5.90667">
        <ele>1424.443474255</ele>
        <time>2015-11-05T09:31:18Z</time>
      </trkpt>
      <trkpt lat="45.40148" lon="5.90667">
        <ele>1424.443474255</ele>
        <time>2015-11-05T09:31:23Z</time>
      </trkpt>
      <trkpt lat="45.40148" lon="5.90667">
        <ele>1424.443474255</ele>
        <time>2015-11-05T09:31:32Z</time>
      </trkpt>
      <trkpt lat="45.40148" lon="5.90667">
        <ele>1424.443474255</ele>
        <time>2015-11-05T09:31:37Z</time>
      </trkpt>
      <trkpt lat="45.40148" lon="5.90667">
        <ele>1424.443474255</ele>
        <time>2015-11-05T09:31:48Z</time>
      </trkpt>
      <trkpt lat="45.40148" lon="5.90667">
        <ele>1424.443474255</ele>
        <time>2015-11-05T09:31:53Z</time>
      </trkpt>
      <trkpt lat="45.40148" lon="5.90667">
        <ele>1424.443474255</ele>
        <time>2015-11-05T09:32:08Z</time>
      </trkpt>
      <trkpt lat="45.40148" lon="5.90667">
        <ele>1424.443474255</ele>
        <time>2015-11-05T09:32:13Z</time>
      </trkpt>
      <trkpt lat="45.40148" lon="5.90667">
        <ele>1424.443474255</ele>
        <time>2015-11-05T09:32:23Z</time>
      </trkpt>
      <trkpt lat="45.40148" lon="5.90667">
        <ele>1424.443474255</ele>
        <time>2015-11-05T09:32:28Z</time>
      </trkpt>
      <trkpt lat="45.40148" lon="5.90667">
        <ele>1424.443474255</ele>
        <time>2015-11-05T09:32:38Z</time>
      </trkpt>
      <trkpt lat="45.40148" lon="5.90667">
        <ele>1424.443474255</ele>
        <time>2015-11-05T09:32:43Z</time>
      </trkpt>
      <trkpt lat="45.40148" lon="5.90667">
        <ele>1424.443474255</ele>
        <time>2015-11-05T09:32:53Z</time>
      </trkpt>
      <trkpt lat="45.40148" lon="5.90667">
        <ele>1424.443474255</ele>
        <time>2015-11-05T09:32:58Z</time>
      </trkpt>
      <trkpt lat="45.40148" lon="5.90667">
        <ele>1424.443474255</ele>
        <time>2015-11-05T09:33:08Z</time>
      </trkpt>
      <trkpt lat="45.40148" lon="5.90667">
        <ele>1424.443474255</ele>
        <time>2015-11-05T09:33:13Z</time>
      </trkpt>
      <trkpt lat="45.40148" lon="5.90667">
        <ele>1424.443474255</ele>
        <time>2015-11-05T09:33:23Z</time>
      </trkpt>
      <trkpt lat="45.40148" lon="5.90667">
        <ele>1424.443474255</ele>
        <time>2015-11-05T09:33:28Z</time>
      </trkpt>
      <trkpt lat="45.40147" lon="5.90667">
        <ele>1424.443474255</ele>
        <time>2015-11-05T09:33:38Z</time>
      </trkpt>
      <trkpt lat="45.40147" lon="5.90667">
        <ele>1424.443474255</ele>
        <time>2015-11-05T09:33:43Z</time>
      </trkpt>
      <trkpt lat="45.40147" lon="5.90667">
        <ele>1424.443474255</ele>
        <time>2015-11-05T09:33:53Z</time>
      </trkpt>
      <trkpt lat="45.40147" lon="5.90667">
        <ele>1424.443474255</ele>
        <time>2015-11-05T09:33:58Z</time>
      </trkpt>
      <trkpt lat="45.40147" lon="5.90667">
        <ele>1424.443474255</ele>
        <time>2015-11-05T09:34:08Z</time>
      </trkpt>
      <trkpt lat="45.40147" lon="5.90668">
        <ele>1424.443474255</ele>
        <time>2015-11-05T09:34:13Z</time>
      </trkpt>
      <trkpt lat="45.40147" lon="5.90668">
        <ele>1424.443474255</ele>
        <time>2015-11-05T09:34:28Z</time>
      </trkpt>
      <trkpt lat="45.40147" lon="5.90668">
        <ele>1424.443474255</ele>
        <time>2015-11-05T09:34:43Z</time>
      </trkpt>
      <trkpt lat="45.40147" lon="5.90668">
        <ele>1424.443474255</ele>
        <time>2015-11-05T09:34:47Z</time>
      </trkpt>
      <trkpt lat="45.40147" lon="5.90668">
        <ele>1424.443474255</ele>
        <time>2015-11-05T09:34:57Z</time>
      </trkpt>
      <trkpt lat="45.40147" lon="5.90668">
        <ele>1424.443474255</ele>
        <time>2015-11-05T09:35:02Z</time>
      </trkpt>
      <trkpt lat="45.40147" lon="5.90668">
        <ele>1424.443474255</ele>
        <time>2015-11-05T09:35:13Z</time>
      </trkpt>
      <trkpt lat="45.40142" lon="5.90668">
        <ele>1425.650168113</ele>
        <time>2015-11-05T09:35:18Z</time>
      </trkpt>
      <trkpt lat="45.40136" lon="5.90664">
        <ele>1425.650168113</ele>
        <time>2015-11-05T09:35:28Z</time>
      </trkpt>
      <trkpt lat="45.40136" lon="5.90664">
        <ele>1425.650168113</ele>
        <time>2015-11-05T09:35:33Z</time>
      </trkpt>
      <trkpt lat="45.40131" lon="5.90664">
        <ele>1428.049898127</ele>
        <time>2015-11-05T09:35:43Z</time>
      </trkpt>
      <trkpt lat="45.4013" lon="5.90665">
        <ele>1428.049898127</ele>
        <time>2015-11-05T09:35:48Z</time>
      </trkpt>
      <trkpt lat="45.40129" lon="5.90665">
        <ele>1428.049898127</ele>
        <time>2015-11-05T09:35:58Z</time>
      </trkpt>
      <trkpt lat="45.40129" lon="5.90666">
        <ele>1428.049898127</ele>
        <time>2015-11-05T09:36:03Z</time>
      </trkpt>
      <trkpt lat="45.40129" lon="5.90673">
        <ele>1428.049898127</ele>
        <time>2015-11-05T09:36:13Z</time>
      </trkpt>
      <trkpt lat="45.40128" lon="5.90673">
        <ele>1431.124950401</ele>
        <time>2015-11-05T09:36:18Z</time>
      </trkpt>
      <trkpt lat="45.40121" lon="5.90669">
        <ele>1431.124950401</ele>
        <time>2015-11-05T09:36:33Z</time>
      </trkpt>
      <trkpt lat="45.40121" lon="5.90671">
        <ele>1431.124950401</ele>
        <time>2015-11-05T09:36:43Z</time>
      </trkpt>
      <trkpt lat="45.40121" lon="5.90671">
        <ele>1431.124950401</ele>
        <time>2015-11-05T09:36:48Z</time>
      </trkpt>
      <trkpt lat="45.40118" lon="5.90668">
        <ele>1433.672985716</ele>
        <time>2015-11-05T09:37:03Z</time>
      </trkpt>
      <trkpt lat="45.40117" lon="5.90667">
        <ele>1433.672985716</ele>
        <time>2015-11-05T09:37:08Z</time>
      </trkpt>
      <trkpt lat="45.40112" lon="5.90666">
        <ele>1433.672985716</ele>
        <time>2015-11-05T09:37:18Z</time>
      </trkpt>
      <trkpt lat="45.40108" lon="5.90666">
        <ele>1436.022382064</ele>
        <time>2015-11-05T09:37:33Z</time>
      </trkpt>
      <trkpt lat="45.40108" lon="5.90664">
        <ele>1436.022382064</ele>
        <time>2015-11-05T09:37:38Z</time>
      </trkpt>
      <trkpt lat="45.40109" lon="5.90659">
        <ele>1436.022382064</ele>
        <time>2015-11-05T09:37:48Z</time>
      </trkpt>
      <trkpt lat="45.40108" lon="5.90659">
        <ele>1436.022382064</ele>
        <time>2015-11-05T09:37:53Z</time>
      </trkpt>
      <trkpt lat="45.40109" lon="5.90659">
        <ele>1436.022382064</ele>
        <time>2015-11-05T09:38:03Z</time>
      </trkpt>
      <trkpt lat="45.40109" lon="5.90659">
        <ele>1436.022382064</ele>
        <time>2015-11-05T09:38:08Z</time>
      </trkpt>
      <trkpt lat="45.40107" lon="5.90663">
        <ele>1436.022382064</ele>
        <time>2015-11-05T09:38:18Z</time>
      </trkpt>
      <trkpt lat="45.40108" lon="5.90664">
        <ele>1438.62187834</ele>
        <time>2015-11-05T09:38:22Z</time>
      </trkpt>
      <trkpt lat="45.40108" lon="5.90664">
        <ele>1438.62187834</ele>
        <time>2015-11-05T09:38:32Z</time>
      </trkpt>
      <trkpt lat="45.40108" lon="5.90664">
        <ele>1438.62187834</ele>
        <time>2015-11-05T09:38:38Z</time>
      </trkpt>
      <trkpt lat="45.40108" lon="5.90664">
        <ele>1438.62187834</ele>
        <time>2015-11-05T09:38:47Z</time>
      </trkpt>
      <trkpt lat="45.40107" lon="5.90664">
        <ele>1438.62187834</ele>
        <time>2015-11-05T09:38:52Z</time>
      </trkpt>
      <trkpt lat="45.40107" lon="5.90664">
        <ele>1438.62187834</ele>
        <time>2015-11-05T09:39:03Z</time>
      </trkpt>
      <trkpt lat="45.40107" lon="5.90664">
        <ele>1438.62187834</ele>
        <time>2015-11-05T09:39:08Z</time>
      </trkpt>
      <trkpt lat="45.40107" lon="5.90664">
        <ele>1438.62187834</ele>
        <time>2015-11-05T09:39:17Z</time>
      </trkpt>
      <trkpt lat="45.40107" lon="5.90664">
        <ele>1438.62187834</ele>
        <time>2015-11-05T09:39:23Z</time>
      </trkpt>
      <trkpt lat="45.40107" lon="5.90664">
        <ele>1438.62187834</ele>
        <time>2015-11-05T09:39:38Z</time>
      </trkpt>
      <trkpt lat="45.40107" lon="5.90664">
        <ele>1438.62187834</ele>
        <time>2015-11-05T09:39:53Z</time>
      </trkpt>
      <trkpt lat="45.40102" lon="5.90661">
        <ele>1438.62187834</ele>
        <time>2015-11-05T09:39:58Z</time>
      </trkpt>
      <trkpt lat="45.4011" lon="5.90659">
        <ele>1441.165817195</ele>
        <time>2015-11-05T09:40:09Z</time>
      </trkpt>
      <trkpt lat="45.40109" lon="5.90658">
        <ele>1441.165817195</ele>
        <time>2015-11-05T09:40:13Z</time>
      </trkpt>
      <trkpt lat="45.40109" lon="5.90657">
        <ele>1441.165817195</ele>
        <time>2015-11-05T09:40:23Z</time>
      </trkpt>
      <trkpt lat="45.40109" lon="5.90657">
        <ele>1441.165817195</ele>
        <time>2015-11-05T09:40:28Z</time>
      </trkpt>
      <trkpt lat="45.40109" lon="5.90657">
        <ele>1441.165817195</ele>
        <time>2015-11-05T09:40:38Z</time>
      </trkpt>
      <trkpt lat="45.40106" lon="5.90657">
        <ele>1441.165817195</ele>
        <time>2015-11-05T09:40:43Z</time>
      </trkpt>
      <trkpt lat="45.40104" lon="5.9066">
        <ele>1441.165817195</ele>
        <time>2015-11-05T09:40:53Z</time>
      </trkpt>
      <trkpt lat="45.40103" lon="5.90659">
        <ele>1443.803319659</ele>
        <time>2015-11-05T09:40:58Z</time>
      </trkpt>
      <trkpt lat="45.40103" lon="5.9066">
        <ele>1443.803319659</ele>
        <time>2015-11-05T09:41:08Z</time>
      </trkpt>
      <trkpt lat="45.40101" lon="5.90663">
        <ele>1443.803319659</ele>
        <time>2015-11-05T09:41:13Z</time>
      </trkpt>
      <trkpt lat="45.40102" lon="5.9067">
        <ele>1443.803319659</ele>
        <time>2015-11-05T09:41:23Z</time>
      </trkpt>
      <trkpt lat="45.401" lon="5.90675">
        <ele>1445.231020736</ele>
        <time>2015-11-05T09:41:28Z</time>
      </trkpt>
      <trkpt lat="45.40099" lon="5.9068">
        <ele>1445.231020736</ele>
        <time>2015-11-05T09:41:43Z</time>
      </trkpt>
      <trkpt lat="45.40099" lon="5.90679">
        <ele>1445.231020736</ele>
        <time>2015-11-05T09:41:48Z</time>
      </trkpt>
      <trkpt lat="45.40098" lon="5.90682">
        <ele>1445.231020736</ele>
        <time>2015-11-05T09:41:57Z</time>
      </trkpt>
      <trkpt lat="45.40098" lon="5.90687">
        <ele>1446.406211549</ele>
        <time>2015-11-05T09:42:02Z</time>
      </trkpt>
      <trkpt lat="45.40095" lon="5.90679">
        <ele>1446.406211549</ele>
        <time>2015-11-05T09:42:12Z</time>
      </trkpt>
      <trkpt lat="45.40094" lon="5.90677">
        <ele>1446.406211549</ele>
        <time>2015-11-05T09:42:18Z</time>
      </trkpt>
      <trkpt lat="45.40093" lon="5.90677">
        <ele>1446.406211549</ele>
        <time>2015-11-05T09:42:28Z</time>
      </trkpt>
      <trkpt lat="45.40093" lon="5.90677">
        <ele>1446.406211549</ele>
        <time>2015-11-05T09:42:33Z</time>
      </trkpt>
      <trkpt lat="45.40088" lon="5.90683">
        <ele>1447.928200256</ele>
        <time>2015-11-05T09:42:43Z</time>
      </trkpt>
      <trkpt lat="45.40082" lon="5.90685">
        <ele>1447.928200256</ele>
        <time>2015-11-05T09:42:48Z</time>
      </trkpt>
      <trkpt lat="45.40078" lon="5.90689">
        <ele>1448.910038653</ele>
        <time>2015-11-05T09:42:58Z</time>
      </trkpt>
      <trkpt lat="45.40078" lon="5.90691">
        <ele>1448.910038653</ele>
        <time>2015-11-05T09:43:03Z</time>
      </trkpt>
      <trkpt lat="45.4008" lon="5.90695">
        <ele>1448.910038653</ele>
        <time>2015-11-05T09:43:13Z</time>
      </trkpt>
      <trkpt lat="45.4008" lon="5.90694">
        <ele>1448.910038653</ele>
        <time>2015-11-05T09:43:18Z</time>
      </trkpt>
      <trkpt lat="45.4008" lon="5.90697">
        <ele>1448.910038653</ele>
        <time>2015-11-05T09:43:28Z</time>
      </trkpt>
      <trkpt lat="45.40079" lon="5.90703">
        <ele>1449.25185655</ele>
        <time>2015-11-05T09:43:33Z</time>
      </trkpt>
      <trkpt lat="45.40077" lon="5.907">
        <ele>1449.25185655</ele>
        <time>2015-11-05T09:43:43Z</time>
      </trkpt>
      <trkpt lat="45.40077" lon="5.90699">
        <ele>1449.25185655</ele>
        <time>2015-11-05T09:43:48Z</time>
      </trkpt>
      <trkpt lat="45.40077" lon="5.90699">
        <ele>1449.25185655</ele>
        <time>2015-11-05T09:44:03Z</time>
      </trkpt>
      <trkpt lat="45.40062" lon="5.90709">
        <ele>1449.43920904</ele>
        <time>2015-11-05T09:44:18Z</time>
      </trkpt>
      <trkpt lat="45.40059" lon="5.90705">
        <ele>1449.43920904</ele>
        <time>2015-11-05T09:44:23Z</time>
      </trkpt>
      <trkpt lat="45.4006" lon="5.90707">
        <ele>1449.43920904</ele>
        <time>2015-11-05T09:44:33Z</time>
      </trkpt>
      <trkpt lat="45.4006" lon="5.90707">
        <ele>1449.43920904</ele>
        <time>2015-11-05T09:44:38Z</time>
      </trkpt>
      <trkpt lat="45.4006" lon="5.90708">
        <ele>1449.43920904</ele>
        <time>2015-11-05T09:44:49Z</time>
      </trkpt>
      <trkpt lat="45.4006" lon="5.90709">
        <ele>1449.43920904</ele>
        <time>2015-11-05T09:44:53Z</time>
      </trkpt>
      <trkpt lat="45.4006" lon="5.90709">
        <ele>1449.43920904</ele>
        <time>2015-11-05T09:45:03Z</time>
      </trkpt>
      <trkpt lat="45.4006" lon="5.90709">
        <ele>1449.43920904</ele>
        <time>2015-11-05T09:45:08Z</time>
      </trkpt>
      <trkpt lat="45.4006" lon="5.90709">
        <ele>1449.43920904</ele>
        <time>2015-11-05T09:45:17Z</time>
      </trkpt>
      <trkpt lat="45.40057" lon="5.90715">
        <ele>1449.345813949</ele>
        <time>2015-11-05T09:45:23Z</time>
      </trkpt>
      <trkpt lat="45.40059" lon="5.90714">
        <ele>1449.345813949</ele>
        <time>2015-11-05T09:45:33Z</time>
      </trkpt>
      <trkpt lat="45.40059" lon="5.90713">
        <ele>1449.345813949</ele>
        <time>2015-11-05T09:45:37Z</time>
      </trkpt>
      <trkpt lat="45.40057" lon="5.90715">
        <ele>1449.345813949</ele>
        <time>2015-11-05T09:45:53Z</time>
      </trkpt>
      <trkpt lat="45.40058" lon="5.90714">
        <ele>1449.345813949</ele>
        <time>2015-11-05T09:45:58Z</time>
      </trkpt>
      <trkpt lat="45.40057" lon="5.90718">
        <ele>1449.345813949</ele>
        <time>2015-11-05T09:46:08Z</time>
      </trkpt>
      <trkpt lat="45.40057" lon="5.90717">
        <ele>1449.345813949</ele>
        <time>2015-11-05T09:46:13Z</time>
      </trkpt>
      <trkpt lat="45.40057" lon="5.90717">
        <ele>1449.431734607</ele>
        <time>2015-11-05T09:46:23Z</time>
      </trkpt>
      <trkpt lat="45.40057" lon="5.90717">
        <ele>1449.431734607</ele>
        <time>2015-11-05T09:46:28Z</time>
      </trkpt>
      <trkpt lat="45.40057" lon="5.90716">
        <ele>1449.431734607</ele>
        <time>2015-11-05T09:46:38Z</time>
      </trkpt>
      <trkpt lat="45.40057" lon="5.90716">
        <ele>1449.431734607</ele>
        <time>2015-11-05T09:46:43Z</time>
      </trkpt>
      <trkpt lat="45.40057" lon="5.90716">
        <ele>1449.431734607</ele>
        <time>2015-11-05T09:46:53Z</time>
      </trkpt>
      <trkpt lat="45.40057" lon="5.90716">
        <ele>1449.431734607</ele>
        <time>2015-11-05T09:46:58Z</time>
      </trkpt>
      <trkpt lat="45.40057" lon="5.90716">
        <ele>1449.431734607</ele>
        <time>2015-11-05T09:47:08Z</time>
      </trkpt>
      <trkpt lat="45.40057" lon="5.90716">
        <ele>1449.431734607</ele>
        <time>2015-11-05T09:47:13Z</time>
      </trkpt>
      <trkpt lat="45.40057" lon="5.90717">
        <ele>1449.431734607</ele>
        <time>2015-11-05T09:47:23Z</time>
      </trkpt>
      <trkpt lat="45.40057" lon="5.90717">
        <ele>1449.431734607</ele>
        <time>2015-11-05T09:47:28Z</time>
      </trkpt>
      <trkpt lat="45.40045" lon="5.90722">
        <ele>1449.402007709</ele>
        <time>2015-11-05T09:47:38Z</time>
      </trkpt>
      <trkpt lat="45.40037" lon="5.90719">
        <ele>1449.402007709</ele>
        <time>2015-11-05T09:47:43Z</time>
      </trkpt>
      <trkpt lat="45.40034" lon="5.90715">
        <ele>1449.704040859</ele>
        <time>2015-11-05T09:47:53Z</time>
      </trkpt>
      <trkpt lat="45.40035" lon="5.90714">
        <ele>1449.704040859</ele>
        <time>2015-11-05T09:47:58Z</time>
      </trkpt>
      <trkpt lat="45.40035" lon="5.90714">
        <ele>1449.704040859</ele>
        <time>2015-11-05T09:48:03Z</time>
      </trkpt>
      <trkpt lat="45.40035" lon="5.90714">
        <ele>1449.704040859</ele>
        <time>2015-11-05T09:48:13Z</time>
      </trkpt>
      <trkpt lat="45.40032" lon="5.90712">
        <ele>1449.704040859</ele>
        <time>2015-11-05T09:48:18Z</time>
      </trkpt>
      <trkpt lat="45.4003" lon="5.90709">
        <ele>1449.704040859</ele>
        <time>2015-11-05T09:48:28Z</time>
      </trkpt>
      <trkpt lat="45.4003" lon="5.90709">
        <ele>1449.704040859</ele>
        <time>2015-11-05T09:48:33Z</time>
      </trkpt>
      <trkpt lat="45.40021" lon="5.90718">
        <ele>1450.607151541</ele>
        <time>2015-11-05T09:48:42Z</time>
      </trkpt>
      <trkpt lat="45.40016" lon="5.9072">
        <ele>1450.607151541</ele>
        <time>2015-11-05T09:48:47Z</time>
      </trkpt>
      <trkpt lat="45.40014" lon="5.90718">
        <ele>1450.607151541</ele>
        <time>2015-11-05T09:48:57Z</time>
      </trkpt>
      <trkpt lat="45.40006" lon="5.90716">
        <ele>1451.638447442</ele>
        <time>2015-11-05T09:49:03Z</time>
      </trkpt>
      <trkpt lat="45.39999" lon="5.90728">
        <ele>1452.359232212</ele>
        <time>2015-11-05T09:49:13Z</time>
      </trkpt>
      <trkpt lat="45.4" lon="5.90727">
        <ele>1452.359232212</ele>
        <time>2015-11-05T09:49:18Z</time>
      </trkpt>
      <trkpt lat="45.39999" lon="5.90726">
        <ele>1452.359232212</ele>
        <time>2015-11-05T09:49:28Z</time>
      </trkpt>
      <trkpt lat="45.4" lon="5.90726">
        <ele>1452.359232212</ele>
        <time>2015-11-05T09:49:33Z</time>
      </trkpt>
      <trkpt lat="45.39999" lon="5.90726">
        <ele>1452.359232212</ele>
        <time>2015-11-05T09:49:48Z</time>
      </trkpt>
      <trkpt lat="45.39999" lon="5.90726">
        <ele>1452.359232212</ele>
        <time>2015-11-05T09:49:53Z</time>
      </trkpt>
      <trkpt lat="45.39999" lon="5.90726">
        <ele>1452.359232212</ele>
        <time>2015-11-05T09:50:03Z</time>
      </trkpt>
      <trkpt lat="45.39999" lon="5.90726">
        <ele>1452.359232212</ele>
        <time>2015-11-05T09:50:08Z</time>
      </trkpt>
      <trkpt lat="45.39999" lon="5.90726">
        <ele>1452.359232212</ele>
        <time>2015-11-05T09:50:18Z</time>
      </trkpt>
      <trkpt lat="45.39999" lon="5.90726">
        <ele>1452.359232212</ele>
        <time>2015-11-05T09:50:23Z</time>
      </trkpt>
      <trkpt lat="45.39999" lon="5.90726">
        <ele>1452.359232212</ele>
        <time>2015-11-05T09:50:33Z</time>
      </trkpt>
      <trkpt lat="45.39999" lon="5.90726">
        <ele>1452.359232212</ele>
        <time>2015-11-05T09:50:38Z</time>
      </trkpt>
      <trkpt lat="45.39993" lon="5.90736">
        <ele>1453.084282861</ele>
        <time>2015-11-05T09:50:48Z</time>
      </trkpt>
      <trkpt lat="45.39993" lon="5.90724">
        <ele>1453.084282861</ele>
        <time>2015-11-05T09:50:53Z</time>
      </trkpt>
      <trkpt lat="45.39993" lon="5.90723">
        <ele>1453.084282861</ele>
        <time>2015-11-05T09:51:03Z</time>
      </trkpt>
      <trkpt lat="45.39993" lon="5.90718">
        <ele>1453.960953001</ele>
        <time>2015-11-05T09:51:08Z</time>
      </trkpt>
      <trkpt lat="45.39993" lon="5.90715">
        <ele>1453.960953001</ele>
        <time>2015-11-05T09:51:18Z</time>
      </trkpt>
      <trkpt lat="45.39993" lon="5.90716">
        <ele>1453.960953001</ele>
        <time>2015-11-05T09:51:23Z</time>
      </trkpt>
      <trkpt lat="45.39987" lon="5.90722">
        <ele>1455.701619597</ele>
        <time>2015-11-05T09:51:33Z</time>
      </trkpt>
      <trkpt lat="45.39988" lon="5.90731">
        <ele>1455.701619597</ele>
        <time>2015-11-05T09:51:38Z</time>
      </trkpt>
      <trkpt lat="45.39982" lon="5.90723">
        <ele>1456.657958479</ele>
        <time>2015-11-05T09:51:48Z</time>
      </trkpt>
      <trkpt lat="45.39982" lon="5.90724">
        <ele>1456.657958479</ele>
        <time>2015-11-05T09:51:53Z</time>
      </trkpt>
      <trkpt lat="45.39982" lon="5.90724">
        <ele>1456.657958479</ele>
        <time>2015-11-05T09:52:07Z</time>
      </trkpt>
      <trkpt lat="45.39982" lon="5.90728">
        <ele>1456.657958479</ele>
        <time>2015-11-05T09:52:23Z</time>
      </trkpt>
      <trkpt lat="45.39981" lon="5.90727">
        <ele>1456.657958479</ele>
        <time>2015-11-05T09:52:28Z</time>
      </trkpt>
      <trkpt lat="45.39974" lon="5.90731">
        <ele>1456.457658017</ele>
        <time>2015-11-05T09:52:38Z</time>
      </trkpt>
      <trkpt lat="45.39965" lon="5.90723">
        <ele>1456.199953538</ele>
        <time>2015-11-05T09:52:43Z</time>
      </trkpt>
      <trkpt lat="45.3996" lon="5.90725">
        <ele>1456.199953538</ele>
        <time>2015-11-05T09:52:53Z</time>
      </trkpt>
      <trkpt lat="45.39957" lon="5.90721">
        <ele>1456.326888407</ele>
        <time>2015-11-05T09:52:58Z</time>
      </trkpt>
      <trkpt lat="45.39959" lon="5.90727">
        <ele>1456.326888407</ele>
        <time>2015-11-05T09:53:08Z</time>
      </trkpt>
      <trkpt lat="45.39958" lon="5.90731">
        <ele>1456.326888407</ele>
        <time>2015-11-05T09:53:13Z</time>
      </trkpt>
      <trkpt lat="45.39955" lon="5.9073">
        <ele>1455.805681087</ele>
        <time>2015-11-05T09:53:23Z</time>
      </trkpt>
      <trkpt lat="45.39951" lon="5.90731">
        <ele>1455.805681087</ele>
        <time>2015-11-05T09:53:28Z</time>
      </trkpt>
      <trkpt lat="45.39949" lon="5.90727">
        <ele>1455.805681087</ele>
        <time>2015-11-05T09:53:38Z</time>
      </trkpt>
      <trkpt lat="45.39948" lon="5.90725">
        <ele>1455.842739716</ele>
        <time>2015-11-05T09:53:43Z</time>
      </trkpt>
      <trkpt lat="45.39939" lon="5.90723">
        <ele>1455.842739716</ele>
        <time>2015-11-05T09:53:53Z</time>
      </trkpt>
      <trkpt lat="45.39936" lon="5.90725">
        <ele>1456.257117753</ele>
        <time>2015-11-05T09:53:58Z</time>
      </trkpt>
      <trkpt lat="45.39934" lon="5.90723">
        <ele>1456.257117753</ele>
        <time>2015-11-05T09:54:08Z</time>
      </trkpt>
      <trkpt lat="45.39934" lon="5.90723">
        <ele>1456.257117753</ele>
        <time>2015-11-05T09:54:13Z</time>
      </trkpt>
      <trkpt lat="45.39934" lon="5.9072">
        <ele>1456.257117753</ele>
        <time>2015-11-05T09:54:23Z</time>
      </trkpt>
      <trkpt lat="45.39933" lon="5.90711">
        <ele>1457.456383128</ele>
        <time>2015-11-05T09:54:28Z</time>
      </trkpt>
      <trkpt lat="45.39928" lon="5.9071">
        <ele>1457.456383128</ele>
        <time>2015-11-05T09:54:43Z</time>
      </trkpt>
      <trkpt lat="45.39922" lon="5.90713">
        <ele>1459.383469794</ele>
        <time>2015-11-05T09:54:53Z</time>
      </trkpt>
      <trkpt lat="45.3992" lon="5.90713">
        <ele>1459.383469794</ele>
        <time>2015-11-05T09:54:58Z</time>
      </trkpt>
      <trkpt lat="45.39916" lon="5.90712">
        <ele>1459.383469794</ele>
        <time>2015-11-05T09:55:13Z</time>
      </trkpt>
      <trkpt lat="45.39916" lon="5.90712">
        <ele>1459.383469794</ele>
        <time>2015-11-05T09:55:18Z</time>
      </trkpt>
      <trkpt lat="45.39912" lon="5.90712">
        <ele>1461.11864514</ele>
        <time>2015-11-05T09:55:28Z</time>
      </trkpt>
      <trkpt lat="45.39911" lon="5.90712">
        <ele>1461.11864514</ele>
        <time>2015-11-05T09:55:32Z</time>
      </trkpt>
      <trkpt lat="45.3991" lon="5.9071">
        <ele>1461.11864514</ele>
        <time>2015-11-05T09:55:42Z</time>
      </trkpt>
      <trkpt lat="45.39909" lon="5.90703">
        <ele>1461.11864514</ele>
        <time>2015-11-05T09:55:47Z</time>
      </trkpt>
      <trkpt lat="45.39897" lon="5.90701">
        <ele>1463.107141541</ele>
        <time>2015-11-05T09:55:58Z</time>
      </trkpt>
      <trkpt lat="45.39896" lon="5.90704">
        <ele>1463.107141541</ele>
        <time>2015-11-05T09:56:03Z</time>
      </trkpt>
      <trkpt lat="45.3989" lon="5.90705">
        <ele>1464.607761276</ele>
        <time>2015-11-05T09:56:13Z</time>
      </trkpt>
      <trkpt lat="45.39884" lon="5.907">
        <ele>1464.607761276</ele>
        <time>2015-11-05T09:56:18Z</time>
      </trkpt>
      <trkpt lat="45.3988" lon="5.90696">
        <ele>1466.664348377</ele>
        <time>2015-11-05T09:56:27Z</time>
      </trkpt>
      <trkpt lat="45.3988" lon="5.90696">
        <ele>1466.664348377</ele>
        <time>2015-11-05T09:56:33Z</time>
      </trkpt>
      <trkpt lat="45.3988" lon="5.90697">
        <ele>1466.664348377</ele>
        <time>2015-11-05T09:56:43Z</time>
      </trkpt>
      <trkpt lat="45.3988" lon="5.90697">
        <ele>1466.664348377</ele>
        <time>2015-11-05T09:56:49Z</time>
      </trkpt>
      <trkpt lat="45.39873" lon="5.90696">
        <ele>1466.664348377</ele>
        <time>2015-11-05T09:56:58Z</time>
      </trkpt>
      <trkpt lat="45.39873" lon="5.90697">
        <ele>1466.664348377</ele>
        <time>2015-11-05T09:57:03Z</time>
      </trkpt>
      <trkpt lat="45.39874" lon="5.90697">
        <ele>1468.368965724</ele>
        <time>2015-11-05T09:57:18Z</time>
      </trkpt>
      <trkpt lat="45.39874" lon="5.90697">
        <ele>1468.368965724</ele>
        <time>2015-11-05T09:57:23Z</time>
      </trkpt>
      <trkpt lat="45.39874" lon="5.90697">
        <ele>1468.368965724</ele>
        <time>2015-11-05T09:57:33Z</time>
      </trkpt>
      <trkpt lat="45.39874" lon="5.90697">
        <ele>1468.368965724</ele>
        <time>2015-11-05T09:57:38Z</time>
      </trkpt>
      <trkpt lat="45.39874" lon="5.90697">
        <ele>1468.368965724</ele>
        <time>2015-11-05T09:57:48Z</time>
      </trkpt>
      <trkpt lat="45.39874" lon="5.90697">
        <ele>1468.368965724</ele>
        <time>2015-11-05T09:57:53Z</time>
      </trkpt>
      <trkpt lat="45.39874" lon="5.90697">
        <ele>1468.368965724</ele>
        <time>2015-11-05T09:58:03Z</time>
      </trkpt>
      <trkpt lat="45.39874" lon="5.90697">
        <ele>1468.368965724</ele>
        <time>2015-11-05T09:58:08Z</time>
      </trkpt>
      <trkpt lat="45.39867" lon="5.90694">
        <ele>1468.368965724</ele>
        <time>2015-11-05T09:58:18Z</time>
      </trkpt>
      <trkpt lat="45.3986" lon="5.90691">
        <ele>1469.890054457</ele>
        <time>2015-11-05T09:58:23Z</time>
      </trkpt>
      <trkpt lat="45.39857" lon="5.90685">
        <ele>1469.890054457</ele>
        <time>2015-11-05T09:58:33Z</time>
      </trkpt>
      <trkpt lat="45.39855" lon="5.90682">
        <ele>1469.890054457</ele>
        <time>2015-11-05T09:58:38Z</time>
      </trkpt>
      <trkpt lat="45.39857" lon="5.9068">
        <ele>1471.09590104</ele>
        <time>2015-11-05T09:58:47Z</time>
      </trkpt>
      <trkpt lat="45.39855" lon="5.90678">
        <ele>1471.09590104</ele>
        <time>2015-11-05T09:58:53Z</time>
      </trkpt>
      <trkpt lat="45.39855" lon="5.90679">
        <ele>1471.09590104</ele>
        <time>2015-11-05T09:59:03Z</time>
      </trkpt>
      <trkpt lat="45.39853" lon="5.90679">
        <ele>1471.09590104</ele>
        <time>2015-11-05T09:59:08Z</time>
      </trkpt>
      <trkpt lat="45.39849" lon="5.90678">
        <ele>1472.153509397</ele>
        <time>2015-11-05T09:59:18Z</time>
      </trkpt>
      <trkpt lat="45.39848" lon="5.90677">
        <ele>1472.153509397</ele>
        <time>2015-11-05T09:59:23Z</time>
      </trkpt>
      <trkpt lat="45.39848" lon="5.90667">
        <ele>1472.153509397</ele>
        <time>2015-11-05T09:59:33Z</time>
      </trkpt>
      <trkpt lat="45.39847" lon="5.90666">
        <ele>1473.650307325</ele>
        <time>2015-11-05T09:59:38Z</time>
      </trkpt>
      <trkpt lat="45.39847" lon="5.90664">
        <ele>1473.650307325</ele>
        <time>2015-11-05T09:59:53Z</time>
      </trkpt>
      <trkpt lat="45.39847" lon="5.90661">
        <ele>1473.650307325</ele>
        <time>2015-11-05T09:59:58Z</time>
      </trkpt>
      <trkpt lat="45.39847" lon="5.90661">
        <ele>1473.650307325</ele>
        <time>2015-11-05T10:00:08Z</time>
      </trkpt>
      <trkpt lat="45.39847" lon="5.90656">
        <ele>1473.650307325</ele>
        <time>2015-11-05T10:00:13Z</time>
      </trkpt>
      <trkpt lat="45.39838" lon="5.90662">
        <ele>1473.967617768</ele>
        <time>2015-11-05T10:00:23Z</time>
      </trkpt>
      <trkpt lat="45.39838" lon="5.90663">
        <ele>1473.967617768</ele>
        <time>2015-11-05T10:00:28Z</time>
      </trkpt>
      <trkpt lat="45.39837" lon="5.90662">
        <ele>1473.967617768</ele>
        <time>2015-11-05T10:00:38Z</time>
      </trkpt>
      <trkpt lat="45.39837" lon="5.90661">
        <ele>1473.967617768</ele>
        <time>2015-11-05T10:00:43Z</time>
      </trkpt>
      <trkpt lat="45.39836" lon="5.90659">
        <ele>1473.967617768</ele>
        <time>2015-11-05T10:00:47Z</time>
      </trkpt>
      <trkpt lat="45.39836" lon="5.9066">
        <ele>1473.967617768</ele>
        <time>2015-11-05T10:00:52Z</time>
      </trkpt>
      <trkpt lat="45.39834" lon="5.90657">
        <ele>1473.967617768</ele>
        <time>2015-11-05T10:00:58Z</time>
      </trkpt>
      <trkpt lat="45.39833" lon="5.90654">
        <ele>1473.194150139</ele>
        <time>2015-11-05T10:01:08Z</time>
      </trkpt>
      <trkpt lat="45.39833" lon="5.90653">
        <ele>1473.194150139</ele>
        <time>2015-11-05T10:01:13Z</time>
      </trkpt>
      <trkpt lat="45.39833" lon="5.90653">
        <ele>1473.194150139</ele>
        <time>2015-11-05T10:01:23Z</time>
      </trkpt>
      <trkpt lat="45.39833" lon="5.90653">
        <ele>1473.194150139</ele>
        <time>2015-11-05T10:01:28Z</time>
      </trkpt>
      <trkpt lat="45.39834" lon="5.90655">
        <ele>1473.194150139</ele>
        <time>2015-11-05T10:01:43Z</time>
      </trkpt>
      <trkpt lat="45.39834" lon="5.90656">
        <ele>1473.194150139</ele>
        <time>2015-11-05T10:01:47Z</time>
      </trkpt>
      <trkpt lat="45.39834" lon="5.90656">
        <ele>1473.194150139</ele>
        <time>2015-11-05T10:01:57Z</time>
      </trkpt>
      <trkpt lat="45.39834" lon="5.90656">
        <ele>1473.194150139</ele>
        <time>2015-11-05T10:02:02Z</time>
      </trkpt>
      <trkpt lat="45.39834" lon="5.90656">
        <ele>1473.194150139</ele>
        <time>2015-11-05T10:02:12Z</time>
      </trkpt>
      <trkpt lat="45.39834" lon="5.90655">
        <ele>1473.194150139</ele>
        <time>2015-11-05T10:02:17Z</time>
      </trkpt>
      <trkpt lat="45.39827" lon="5.90646">
        <ele>1471.991546631</ele>
        <time>2015-11-05T10:02:28Z</time>
      </trkpt>
      <trkpt lat="45.39823" lon="5.90635">
        <ele>1471.991546631</ele>
        <time>2015-11-05T10:02:33Z</time>
      </trkpt>
      <trkpt lat="45.3983" lon="5.90615">
        <ele>1471.982767196</ele>
        <time>2015-11-05T10:02:43Z</time>
      </trkpt>
      <trkpt lat="45.39831" lon="5.90614">
        <ele>1471.982767196</ele>
        <time>2015-11-05T10:02:48Z</time>
      </trkpt>
      <trkpt lat="45.3983" lon="5.90616">
        <ele>1471.982767196</ele>
        <time>2015-11-05T10:02:58Z</time>
      </trkpt>
      <trkpt lat="45.3983" lon="5.90616">
        <ele>1471.982767196</ele>
        <time>2015-11-05T10:03:03Z</time>
      </trkpt>
      <trkpt lat="45.3983" lon="5.90616">
        <ele>1471.982767196</ele>
        <time>2015-11-05T10:03:13Z</time>
      </trkpt>
      <trkpt lat="45.3983" lon="5.90616">
        <ele>1471.982767196</ele>
        <time>2015-11-05T10:03:17Z</time>
      </trkpt>
      <trkpt lat="45.3983" lon="5.90616">
        <ele>1471.982767196</ele>
        <time>2015-11-05T10:03:22Z</time>
      </trkpt>
      <trkpt lat="45.3983" lon="5.90616">
        <ele>1471.982767196</ele>
        <time>2015-11-05T10:03:27Z</time>
      </trkpt>
      <trkpt lat="45.3983" lon="5.90616">
        <ele>1471.982767196</ele>
        <time>2015-11-05T10:03:37Z</time>
      </trkpt>
      <trkpt lat="45.3983" lon="5.90616">
        <ele>1471.982767196</ele>
        <time>2015-11-05T10:03:42Z</time>
      </trkpt>
      <trkpt lat="45.3983" lon="5.90616">
        <ele>1471.982767196</ele>
        <time>2015-11-05T10:03:47Z</time>
      </trkpt>
      <trkpt lat="45.3983" lon="5.90616">
        <ele>1471.982767196</ele>
        <time>2015-11-05T10:03:53Z</time>
      </trkpt>
      <trkpt lat="45.3983" lon="5.90616">
        <ele>1471.982767196</ele>
        <time>2015-11-05T10:03:57Z</time>
      </trkpt>
      <trkpt lat="45.39828" lon="5.90618">
        <ele>1471.982767196</ele>
        <time>2015-11-05T10:04:02Z</time>
      </trkpt>
      <trkpt lat="45.39828" lon="5.90619">
        <ele>1471.982767196</ele>
        <time>2015-11-05T10:04:17Z</time>
      </trkpt>
      <trkpt lat="45.39829" lon="5.90621">
        <ele>1471.982767196</ele>
        <time>2015-11-05T10:04:22Z</time>
      </trkpt>
      <trkpt lat="45.39827" lon="5.90622">
        <ele>1471.982767196</ele>
        <time>2015-11-05T10:04:34Z</time>
      </trkpt>
      <trkpt lat="45.39825" lon="5.90625">
        <ele>1470.488906614</ele>
        <time>2015-11-05T10:04:48Z</time>
      </trkpt>
      <trkpt lat="45.39824" lon="5.90624">
        <ele>1470.488906614</ele>
        <time>2015-11-05T10:04:53Z</time>
      </trkpt>
      <trkpt lat="45.39825" lon="5.90628">
        <ele>1470.488906614</ele>
        <time>2015-11-05T10:05:04Z</time>
      </trkpt>
      <trkpt lat="45.39827" lon="5.90626">
        <ele>1470.488906614</ele>
        <time>2015-11-05T10:05:08Z</time>
      </trkpt>
      <trkpt lat="45.39829" lon="5.90622">
        <ele>1468.634713475</ele>
        <time>2015-11-05T10:05:18Z</time>
      </trkpt>
      <trkpt lat="45.39828" lon="5.90622">
        <ele>1468.634713475</ele>
        <time>2015-11-05T10:05:23Z</time>
      </trkpt>
      <trkpt lat="45.39825" lon="5.90617">
        <ele>1468.634713475</ele>
        <time>2015-11-05T10:05:33Z</time>
      </trkpt>
      <trkpt lat="45.39824" lon="5.90617">
        <ele>1468.634713475</ele>
        <time>2015-11-05T10:05:38Z</time>
      </trkpt>
      <trkpt lat="45.39823" lon="5.90615">
        <ele>1468.634713475</ele>
        <time>2015-11-05T10:05:48Z</time>
      </trkpt>
      <trkpt lat="45.39822" lon="5.90613">
        <ele>1466.742673357</ele>
        <time>2015-11-05T10:05:53Z</time>
      </trkpt>
      <trkpt lat="45.39816" lon="5.90599">
        <ele>1464.535135294</ele>
        <time>2015-11-05T10:06:03Z</time>
      </trkpt>
      <trkpt lat="45.39816" lon="5.90599">
        <ele>1464.535135294</ele>
        <time>2015-11-05T10:06:08Z</time>
      </trkpt>
      <trkpt lat="45.39817" lon="5.90598">
        <ele>1464.535135294</ele>
        <time>2015-11-05T10:06:18Z</time>
      </trkpt>
      <trkpt lat="45.39817" lon="5.90598">
        <ele>1464.535135294</ele>
        <time>2015-11-05T10:06:23Z</time>
      </trkpt>
      <trkpt lat="45.39819" lon="5.90595">
        <ele>1464.535135294</ele>
        <time>2015-11-05T10:06:33Z</time>
      </trkpt>
      <trkpt lat="45.39819" lon="5.90596">
        <ele>1464.535135294</ele>
        <time>2015-11-05T10:06:38Z</time>
      </trkpt>
      <trkpt lat="45.39815" lon="5.90591">
        <ele>1462.620272867</ele>
        <time>2015-11-05T10:06:48Z</time>
      </trkpt>
      <trkpt lat="45.39815" lon="5.90591">
        <ele>1462.620272867</ele>
        <time>2015-11-05T10:06:53Z</time>
      </trkpt>
      <trkpt lat="45.39812" lon="5.90582">
        <ele>1462.620272867</ele>
        <time>2015-11-05T10:07:03Z</time>
      </trkpt>
      <trkpt lat="45.39812" lon="5.90579">
        <ele>1460.551846053</ele>
        <time>2015-11-05T10:07:08Z</time>
      </trkpt>
      <trkpt lat="45.39812" lon="5.90579">
        <ele>1460.551846053</ele>
        <time>2015-11-05T10:07:18Z</time>
      </trkpt>
      <trkpt lat="45.39813" lon="5.90578">
        <ele>1460.551846053</ele>
        <time>2015-11-05T10:07:23Z</time>
      </trkpt>
      <trkpt lat="45.39819" lon="5.90574">
        <ele>1460.551846053</ele>
        <time>2015-11-05T10:07:37Z</time>
      </trkpt>
      <trkpt lat="45.39819" lon="5.90574">
        <ele>1460.551846053</ele>
        <time>2015-11-05T10:07:43Z</time>
      </trkpt>
      <trkpt lat="45.3982" lon="5.90572">
        <ele>1458.925453325</ele>
        <time>2015-11-05T10:07:52Z</time>
      </trkpt>
      <trkpt lat="45.39818" lon="5.90568">
        <ele>1458.925453325</ele>
        <time>2015-11-05T10:07:57Z</time>
      </trkpt>
      <trkpt lat="45.39817" lon="5.9056">
        <ele>1456.706315093</ele>
        <time>2015-11-05T10:08:08Z</time>
      </trkpt>
      <trkpt lat="45.39816" lon="5.90559">
        <ele>1456.706315093</ele>
        <time>2015-11-05T10:08:13Z</time>
      </trkpt>
      <trkpt lat="45.39816" lon="5.90555">
        <ele>1456.706315093</ele>
        <time>2015-11-05T10:08:23Z</time>
      </trkpt>
      <trkpt lat="45.39816" lon="5.90555">
        <ele>1456.706315093</ele>
        <time>2015-11-05T10:08:28Z</time>
      </trkpt>
      <trkpt lat="45.39816" lon="5.90546">
        <ele>1454.666490096</ele>
        <time>2015-11-05T10:08:38Z</time>
      </trkpt>
      <trkpt lat="45.39815" lon="5.90544">
        <ele>1454.666490096</ele>
        <time>2015-11-05T10:08:43Z</time>
      </trkpt>
      <trkpt lat="45.39814" lon="5.90544">
        <ele>1454.666490096</ele>
        <time>2015-11-05T10:08:53Z</time>
      </trkpt>
      <trkpt lat="45.39812" lon="5.90541">
        <ele>1454.666490096</ele>
        <time>2015-11-05T10:08:58Z</time>
      </trkpt>
      <trkpt lat="45.39815" lon="5.90538">
        <ele>1451.935413228</ele>
        <time>2015-11-05T10:09:08Z</time>
      </trkpt>
      <trkpt lat="45.39811" lon="5.90537">
        <ele>1451.935413228</ele>
        <time>2015-11-05T10:09:13Z</time>
      </trkpt>
      <trkpt lat="45.39812" lon="5.90535">
        <ele>1451.935413228</ele>
        <time>2015-11-05T10:09:23Z</time>
      </trkpt>
      <trkpt lat="45.39819" lon="5.90531">
        <ele>1449.293439783</ele>
        <time>2015-11-05T10:09:28Z</time>
      </trkpt>
      <trkpt lat="45.39837" lon="5.90529">
        <ele>1447.463149004</ele>
        <time>2015-11-05T10:09:43Z</time>
      </trkpt>
      <trkpt lat="45.39835" lon="5.90527">
        <ele>1447.463149004</ele>
        <time>2015-11-05T10:09:48Z</time>
      </trkpt>
      <trkpt lat="45.39834" lon="5.90528">
        <ele>1447.463149004</ele>
        <time>2015-11-05T10:09:58Z</time>
      </trkpt>
      <trkpt lat="45.39834" lon="5.90528">
        <ele>1447.463149004</ele>
        <time>2015-11-05T10:10:03Z</time>
      </trkpt>
      <trkpt lat="45.39835" lon="5.90528">
        <ele>1447.463149004</ele>
        <time>2015-11-05T10:10:14Z</time>
      </trkpt>
      <trkpt lat="45.39832" lon="5.90527">
        <ele>1447.463149004</ele>
        <time>2015-11-05T10:10:14Z</time>
      </trkpt>
      <trkpt lat="45.3983" lon="5.90526">
        <ele>1446.102776444</ele>
        <time>2015-11-05T10:10:18Z</time>
      </trkpt>
      <trkpt lat="45.39831" lon="5.90525">
        <ele>1446.102776444</ele>
        <time>2015-11-05T10:10:30Z</time>
      </trkpt>
      <trkpt lat="45.39832" lon="5.90525">
        <ele>1446.102776444</ele>
        <time>2015-11-05T10:10:33Z</time>
      </trkpt>
      <trkpt lat="45.39833" lon="5.90527">
        <ele>1446.102776444</ele>
        <time>2015-11-05T10:10:38Z</time>
      </trkpt>
      <trkpt lat="45.39831" lon="5.90529">
        <ele>1446.102776444</ele>
        <time>2015-11-05T10:10:49Z</time>
      </trkpt>
      <trkpt lat="45.39832" lon="5.90529">
        <ele>1446.102776444</ele>
        <time>2015-11-05T10:10:52Z</time>
      </trkpt>
      <trkpt lat="45.39827" lon="5.90529">
        <ele>1444.461799044</ele>
        <time>2015-11-05T10:10:57Z</time>
      </trkpt>
      <trkpt lat="45.39826" lon="5.90529">
        <ele>1444.461799044</ele>
        <time>2015-11-05T10:11:02Z</time>
      </trkpt>
      <trkpt lat="45.39828" lon="5.90528">
        <ele>1444.461799044</ele>
        <time>2015-11-05T10:11:08Z</time>
      </trkpt>
      <trkpt lat="45.39826" lon="5.90528">
        <ele>1444.461799044</ele>
        <time>2015-11-05T10:11:23Z</time>
      </trkpt>
      <trkpt lat="45.39823" lon="5.90528">
        <ele>1444.461799044</ele>
        <time>2015-11-05T10:11:39Z</time>
      </trkpt>
      <trkpt lat="45.39823" lon="5.90529">
        <ele>1440.980729926</ele>
        <time>2015-11-05T10:11:43Z</time>
      </trkpt>
      <trkpt lat="45.39825" lon="5.90529">
        <ele>1440.980729926</ele>
        <time>2015-11-05T10:11:53Z</time>
      </trkpt>
      <trkpt lat="45.39825" lon="5.90529">
        <ele>1440.980729926</ele>
        <time>2015-11-05T10:11:58Z</time>
      </trkpt>
      <trkpt lat="45.39825" lon="5.90529">
        <ele>1440.980729926</ele>
        <time>2015-11-05T10:12:08Z</time>
      </trkpt>
      <trkpt lat="45.39823" lon="5.90527">
        <ele>1440.980729926</ele>
        <time>2015-11-05T10:12:13Z</time>
      </trkpt>
      <trkpt lat="45.39823" lon="5.90526">
        <ele>1440.980729926</ele>
        <time>2015-11-05T10:12:23Z</time>
      </trkpt>
      <trkpt lat="45.39825" lon="5.90525">
        <ele>1440.980729926</ele>
        <time>2015-11-05T10:12:28Z</time>
      </trkpt>
      <trkpt lat="45.39825" lon="5.90524">
        <ele>1440.980729926</ele>
        <time>2015-11-05T10:12:38Z</time>
      </trkpt>
      <trkpt lat="45.39825" lon="5.90524">
        <ele>1440.980729926</ele>
        <time>2015-11-05T10:12:43Z</time>
      </trkpt>
      <trkpt lat="45.39825" lon="5.90524">
        <ele>1440.980729926</ele>
        <time>2015-11-05T10:12:53Z</time>
      </trkpt>
      <trkpt lat="45.39825" lon="5.90523">
        <ele>1436.813581767</ele>
        <time>2015-11-05T10:12:58Z</time>
      </trkpt>
      <trkpt lat="45.39826" lon="5.90522">
        <ele>1436.813581767</ele>
        <time>2015-11-05T10:13:08Z</time>
      </trkpt>
      <trkpt lat="45.39826" lon="5.90519">
        <ele>1436.813581767</ele>
        <time>2015-11-05T10:13:13Z</time>
      </trkpt>
      <trkpt lat="45.39825" lon="5.90515">
        <ele>1436.813581767</ele>
        <time>2015-11-05T10:13:23Z</time>
      </trkpt>
      <trkpt lat="45.39825" lon="5.90515">
        <ele>1436.813581767</ele>
        <time>2015-11-05T10:13:28Z</time>
      </trkpt>
      <trkpt lat="45.39825" lon="5.90515">
        <ele>1436.813581767</ele>
        <time>2015-11-05T10:13:38Z</time>
      </trkpt>
      <trkpt lat="45.39825" lon="5.90515">
        <ele>1436.813581767</ele>
        <time>2015-11-05T10:13:43Z</time>
      </trkpt>
      <trkpt lat="45.39824" lon="5.90509">
        <ele>1433.60773362</ele>
        <time>2015-11-05T10:13:58Z</time>
      </trkpt>
      <trkpt lat="45.39823" lon="5.90504">
        <ele>1433.60773362</ele>
        <time>2015-11-05T10:14:03Z</time>
      </trkpt>
      <trkpt lat="45.39822" lon="5.90495">
        <ele>1431.157279439</ele>
        <time>2015-11-05T10:14:13Z</time>
      </trkpt>
      <trkpt lat="45.39819" lon="5.90494">
        <ele>1431.157279439</ele>
        <time>2015-11-05T10:14:17Z</time>
      </trkpt>
      <trkpt lat="45.39816" lon="5.90493">
        <ele>1431.157279439</ele>
        <time>2015-11-05T10:14:31Z</time>
      </trkpt>
      <trkpt lat="45.39816" lon="5.90493">
        <ele>1431.157279439</ele>
        <time>2015-11-05T10:14:32Z</time>
      </trkpt>
      <trkpt lat="45.39816" lon="5.90493">
        <ele>1431.157279439</ele>
        <time>2015-11-05T10:14:37Z</time>
      </trkpt>
      <trkpt lat="45.39816" lon="5.90492">
        <ele>1431.157279439</ele>
        <time>2015-11-05T10:14:42Z</time>
      </trkpt>
      <trkpt lat="45.39816" lon="5.90488">
        <ele>1428.692627828</ele>
        <time>2015-11-05T10:14:47Z</time>
      </trkpt>
      <trkpt lat="45.39814" lon="5.90488">
        <ele>1428.692627828</ele>
        <time>2015-11-05T10:14:53Z</time>
      </trkpt>
      <trkpt lat="45.39816" lon="5.90486">
        <ele>1428.692627828</ele>
        <time>2015-11-05T10:14:58Z</time>
      </trkpt>
      <trkpt lat="45.39816" lon="5.90482">
        <ele>1428.692627828</ele>
        <time>2015-11-05T10:15:08Z</time>
      </trkpt>
      <trkpt lat="45.39811" lon="5.90481">
        <ele>1425.788730656</ele>
        <time>2015-11-05T10:15:13Z</time>
      </trkpt>
      <trkpt lat="45.3981" lon="5.90477">
        <ele>1425.788730656</ele>
        <time>2015-11-05T10:15:23Z</time>
      </trkpt>
      <trkpt lat="45.39808" lon="5.90477">
        <ele>1425.788730656</ele>
        <time>2015-11-05T10:15:28Z</time>
      </trkpt>
      <trkpt lat="45.3981" lon="5.90474">
        <ele>1425.788730656</ele>
        <time>2015-11-05T10:15:38Z</time>
      </trkpt>
      <trkpt lat="45.39811" lon="5.90473">
        <ele>1423.782076789</ele>
        <time>2015-11-05T10:15:43Z</time>
      </trkpt>
      <trkpt lat="45.39811" lon="5.90472">
        <ele>1423.782076789</ele>
        <time>2015-11-05T10:15:53Z</time>
      </trkpt>
      <trkpt lat="45.39812" lon="5.90472">
        <ele>1423.782076789</ele>
        <time>2015-11-05T10:15:58Z</time>
      </trkpt>
      <trkpt lat="45.39801" lon="5.90461">
        <ele>1420.88187294</ele>
        <time>2015-11-05T10:16:08Z</time>
      </trkpt>
      <trkpt lat="45.39801" lon="5.90461">
        <ele>1420.88187294</ele>
        <time>2015-11-05T10:16:13Z</time>
      </trkpt>
      <trkpt lat="45.39801" lon="5.9046">
        <ele>1420.88187294</ele>
        <time>2015-11-05T10:16:23Z</time>
      </trkpt>
      <trkpt lat="45.39801" lon="5.9046">
        <ele>1420.88187294</ele>
        <time>2015-11-05T10:16:28Z</time>
      </trkpt>
      <trkpt lat="45.39801" lon="5.9046">
        <ele>1420.88187294</ele>
        <time>2015-11-05T10:16:38Z</time>
      </trkpt>
      <trkpt lat="45.39802" lon="5.90456">
        <ele>1420.88187294</ele>
        <time>2015-11-05T10:16:43Z</time>
      </trkpt>
      <trkpt lat="45.39801" lon="5.90454">
        <ele>1420.88187294</ele>
        <time>2015-11-05T10:16:53Z</time>
      </trkpt>
      <trkpt lat="45.39801" lon="5.90454">
        <ele>1420.88187294</ele>
        <time>2015-11-05T10:16:58Z</time>
      </trkpt>
      <trkpt lat="45.39801" lon="5.90454">
        <ele>1420.88187294</ele>
        <time>2015-11-05T10:17:02Z</time>
      </trkpt>
      <trkpt lat="45.39793" lon="5.90447">
        <ele>1417.736909152</ele>
        <time>2015-11-05T10:17:12Z</time>
      </trkpt>
      <trkpt lat="45.39794" lon="5.90445">
        <ele>1417.736909152</ele>
        <time>2015-11-05T10:17:18Z</time>
      </trkpt>
      <trkpt lat="45.39795" lon="5.90445">
        <ele>1417.736909152</ele>
        <time>2015-11-05T10:17:32Z</time>
      </trkpt>
      <trkpt lat="45.39795" lon="5.90445">
        <ele>1417.736909152</ele>
        <time>2015-11-05T10:17:38Z</time>
      </trkpt>
      <trkpt lat="45.39795" lon="5.90445">
        <ele>1417.736909152</ele>
        <time>2015-11-05T10:17:42Z</time>
      </trkpt>
      <trkpt lat="45.39795" lon="5.90445">
        <ele>1417.736909152</ele>
        <time>2015-11-05T10:17:47Z</time>
      </trkpt>
      <trkpt lat="45.39795" lon="5.90445">
        <ele>1417.736909152</ele>
        <time>2015-11-05T10:17:52Z</time>
      </trkpt>
      <trkpt lat="45.39795" lon="5.90445">
        <ele>1417.736909152</ele>
        <time>2015-11-05T10:17:57Z</time>
      </trkpt>
      <trkpt lat="45.39795" lon="5.90445">
        <ele>1417.736909152</ele>
        <time>2015-11-05T10:18:02Z</time>
      </trkpt>
      <trkpt lat="45.39795" lon="5.90445">
        <ele>1417.736909152</ele>
        <time>2015-11-05T10:18:07Z</time>
      </trkpt>
      <trkpt lat="45.39795" lon="5.90445">
        <ele>1417.736909152</ele>
        <time>2015-11-05T10:18:13Z</time>
      </trkpt>
      <trkpt lat="45.39795" lon="5.90445">
        <ele>1417.736909152</ele>
        <time>2015-11-05T10:18:23Z</time>
      </trkpt>
      <trkpt lat="45.39795" lon="5.90445">
        <ele>1417.736909152</ele>
        <time>2015-11-05T10:18:28Z</time>
      </trkpt>
      <trkpt lat="45.39792" lon="5.90441">
        <ele>1417.736909152</ele>
        <time>2015-11-05T10:18:33Z</time>
      </trkpt>
      <trkpt lat="45.39788" lon="5.90439">
        <ele>1414.516416052</ele>
        <time>2015-11-05T10:18:38Z</time>
      </trkpt>
      <trkpt lat="45.39788" lon="5.90431">
        <ele>1414.516416052</ele>
        <time>2015-11-05T10:18:43Z</time>
      </trkpt>
      <trkpt lat="45.39786" lon="5.90426">
        <ele>1411.953597054</ele>
        <time>2015-11-05T10:18:48Z</time>
      </trkpt>
      <trkpt lat="45.39786" lon="5.90424">
        <ele>1411.953597054</ele>
        <time>2015-11-05T10:18:58Z</time>
      </trkpt>
      <trkpt lat="45.39786" lon="5.90423">
        <ele>1411.953597054</ele>
        <time>2015-11-05T10:19:03Z</time>
      </trkpt>
      <trkpt lat="45.39786" lon="5.90423">
        <ele>1411.953597054</ele>
        <time>2015-11-05T10:19:13Z</time>
      </trkpt>
      <trkpt lat="45.39786" lon="5.90423">
        <ele>1411.953597054</ele>
        <time>2015-11-05T10:19:18Z</time>
      </trkpt>
      <trkpt lat="45.39786" lon="5.90423">
        <ele>1411.953597054</ele>
        <time>2015-11-05T10:19:28Z</time>
      </trkpt>
      <trkpt lat="45.39786" lon="5.90423">
        <ele>1411.953597054</ele>
        <time>2015-11-05T10:19:33Z</time>
      </trkpt>
      <trkpt lat="45.39786" lon="5.90423">
        <ele>1411.953597054</ele>
        <time>2015-11-05T10:19:43Z</time>
      </trkpt>
      <trkpt lat="45.39786" lon="5.90423">
        <ele>1411.953597054</ele>
        <time>2015-11-05T10:19:49Z</time>
      </trkpt>
      <trkpt lat="45.39782" lon="5.90418">
        <ele>1411.953597054</ele>
        <time>2015-11-05T10:19:57Z</time>
      </trkpt>
      <trkpt lat="45.39771" lon="5.90409">
        <ele>1409.572809054</ele>
        <time>2015-11-05T10:20:02Z</time>
      </trkpt>
      <trkpt lat="45.3976" lon="5.904">
        <ele>1407.364923553</ele>
        <time>2015-11-05T10:20:13Z</time>
      </trkpt>
      <trkpt lat="45.39761" lon="5.904">
        <ele>1407.364923553</ele>
        <time>2015-11-05T10:20:18Z</time>
      </trkpt>
      <trkpt lat="45.39762" lon="5.904">
        <ele>1407.364923553</ele>
        <time>2015-11-05T10:20:28Z</time>
      </trkpt>
      <trkpt lat="45.39762" lon="5.904">
        <ele>1407.364923553</ele>
        <time>2015-11-05T10:20:33Z</time>
      </trkpt>
      <trkpt lat="45.39762" lon="5.904">
        <ele>1407.364923553</ele>
        <time>2015-11-05T10:20:43Z</time>
      </trkpt>
      <trkpt lat="45.39762" lon="5.904">
        <ele>1407.364923553</ele>
        <time>2015-11-05T10:20:48Z</time>
      </trkpt>
      <trkpt lat="45.39762" lon="5.904">
        <ele>1407.364923553</ele>
        <time>2015-11-05T10:20:53Z</time>
      </trkpt>
      <trkpt lat="45.39766" lon="5.90391">
        <ele>1405.608977152</ele>
        <time>2015-11-05T10:21:03Z</time>
      </trkpt>
      <trkpt lat="45.39766" lon="5.90386">
        <ele>1405.608977152</ele>
        <time>2015-11-05T10:21:08Z</time>
      </trkpt>
      <trkpt lat="45.39767" lon="5.90384">
        <ele>1405.608977152</ele>
        <time>2015-11-05T10:21:19Z</time>
      </trkpt>
      <trkpt lat="45.39767" lon="5.90383">
        <ele>1405.608977152</ele>
        <time>2015-11-05T10:21:23Z</time>
      </trkpt>
      <trkpt lat="45.39767" lon="5.90383">
        <ele>1405.608977152</ele>
        <time>2015-11-05T10:21:33Z</time>
      </trkpt>
      <trkpt lat="45.39768" lon="5.90383">
        <ele>1405.608977152</ele>
        <time>2015-11-05T10:21:38Z</time>
      </trkpt>
      <trkpt lat="45.39762" lon="5.90368">
        <ele>1403.409116314</ele>
        <time>2015-11-05T10:21:48Z</time>
      </trkpt>
      <trkpt lat="45.39764" lon="5.90366">
        <ele>1403.409116314</ele>
        <time>2015-11-05T10:21:53Z</time>
      </trkpt>
      <trkpt lat="45.39766" lon="5.90352">
        <ele>1401.521538693</ele>
        <time>2015-11-05T10:22:03Z</time>
      </trkpt>
      <trkpt lat="45.39765" lon="5.9034">
        <ele>1401.521538693</ele>
        <time>2015-11-05T10:22:08Z</time>
      </trkpt>
      <trkpt lat="45.39766" lon="5.90337">
        <ele>1400.213467603</ele>
        <time>2015-11-05T10:22:18Z</time>
      </trkpt>
      <trkpt lat="45.39766" lon="5.90337">
        <ele>1400.213467603</ele>
        <time>2015-11-05T10:22:25Z</time>
      </trkpt>
      <trkpt lat="45.39766" lon="5.90336">
        <ele>1400.213467603</ele>
        <time>2015-11-05T10:22:37Z</time>
      </trkpt>
      <trkpt lat="45.39766" lon="5.90336">
        <ele>1400.213467603</ele>
        <time>2015-11-05T10:22:43Z</time>
      </trkpt>
      <trkpt lat="45.39766" lon="5.90336">
        <ele>1400.213467603</ele>
        <time>2015-11-05T10:22:53Z</time>
      </trkpt>
      <trkpt lat="45.39765" lon="5.90334">
        <ele>1400.213467603</ele>
        <time>2015-11-05T10:22:58Z</time>
      </trkpt>
      <trkpt lat="45.39768" lon="5.90334">
        <ele>1400.213467603</ele>
        <time>2015-11-05T10:23:08Z</time>
      </trkpt>
      <trkpt lat="45.39769" lon="5.90333">
        <ele>1400.213467603</ele>
        <time>2015-11-05T10:23:13Z</time>
      </trkpt>
      <trkpt lat="45.39769" lon="5.90333">
        <ele>1400.213467603</ele>
        <time>2015-11-05T10:23:23Z</time>
      </trkpt>
      <trkpt lat="45.3977" lon="5.90331">
        <ele>1400.213467603</ele>
        <time>2015-11-05T10:23:28Z</time>
      </trkpt>
      <trkpt lat="45.39778" lon="5.90328">
        <ele>1399.730668944</ele>
        <time>2015-11-05T10:23:38Z</time>
      </trkpt>
      <trkpt lat="45.39775" lon="5.90326">
        <ele>1399.730668944</ele>
        <time>2015-11-05T10:23:43Z</time>
      </trkpt>
      <trkpt lat="45.39774" lon="5.9032">
        <ele>1399.730668944</ele>
        <time>2015-11-05T10:23:53Z</time>
      </trkpt>
      <trkpt lat="45.39772" lon="5.90319">
        <ele>1400.010132203</ele>
        <time>2015-11-05T10:23:58Z</time>
      </trkpt>
      <trkpt lat="45.39773" lon="5.90319">
        <ele>1400.010132203</ele>
        <time>2015-11-05T10:24:08Z</time>
      </trkpt>
      <trkpt lat="45.39773" lon="5.90319">
        <ele>1400.010132203</ele>
        <time>2015-11-05T10:24:13Z</time>
      </trkpt>
      <trkpt lat="45.39774" lon="5.90316">
        <ele>1400.010132203</ele>
        <time>2015-11-05T10:24:23Z</time>
      </trkpt>
      <trkpt lat="45.39766" lon="5.9031">
        <ele>1399.982393516</ele>
        <time>2015-11-05T10:24:28Z</time>
      </trkpt>
      <trkpt lat="45.39765" lon="5.9031">
        <ele>1399.982393516</ele>
        <time>2015-11-05T10:24:38Z</time>
      </trkpt>
      <trkpt lat="45.39764" lon="5.90309">
        <ele>1399.982393516</ele>
        <time>2015-11-05T10:24:43Z</time>
      </trkpt>
      <trkpt lat="45.39762" lon="5.90308">
        <ele>1399.982393516</ele>
        <time>2015-11-05T10:24:53Z</time>
      </trkpt>
      <trkpt lat="45.39759" lon="5.90308">
        <ele>1399.982393516</ele>
        <time>2015-11-05T10:24:58Z</time>
      </trkpt>
      <trkpt lat="45.39755" lon="5.90305">
        <ele>1400.818938676</ele>
        <time>2015-11-05T10:25:12Z</time>
      </trkpt>
      <trkpt lat="45.39754" lon="5.90303">
        <ele>1400.818938676</ele>
        <time>2015-11-05T10:25:18Z</time>
      </trkpt>
      <trkpt lat="45.39751" lon="5.90296">
        <ele>1400.818938676</ele>
        <time>2015-11-05T10:25:27Z</time>
      </trkpt>
      <trkpt lat="45.39752" lon="5.90294">
        <ele>1401.873322276</ele>
        <time>2015-11-05T10:25:32Z</time>
      </trkpt>
      <trkpt lat="45.39751" lon="5.90294">
        <ele>1401.873322276</ele>
        <time>2015-11-05T10:25:37Z</time>
      </trkpt>
      <trkpt lat="45.39752" lon="5.90292">
        <ele>1401.873322276</ele>
        <time>2015-11-05T10:25:42Z</time>
      </trkpt>
      <trkpt lat="45.39751" lon="5.90291">
        <ele>1401.873322276</ele>
        <time>2015-11-05T10:25:47Z</time>
      </trkpt>
      <trkpt lat="45.3975" lon="5.90291">
        <ele>1401.873322276</ele>
        <time>2015-11-05T10:25:52Z</time>
      </trkpt>
      <trkpt lat="45.3975" lon="5.90291">
        <ele>1401.873322276</ele>
        <time>2015-11-05T10:25:57Z</time>
      </trkpt>
      <trkpt lat="45.39752" lon="5.90291">
        <ele>1401.873322276</ele>
        <time>2015-11-05T10:26:07Z</time>
      </trkpt>
      <trkpt lat="45.39751" lon="5.9029">
        <ele>1401.873322276</ele>
        <time>2015-11-05T10:26:13Z</time>
      </trkpt>
      <trkpt lat="45.39749" lon="5.90289">
        <ele>1401.873322276</ele>
        <time>2015-11-05T10:26:27Z</time>
      </trkpt>
      <trkpt lat="45.39749" lon="5.9029">
        <ele>1404.70755668</ele>
        <time>2015-11-05T10:26:27Z</time>
      </trkpt>
      <trkpt lat="45.39741" lon="5.90288">
        <ele>1404.70755668</ele>
        <time>2015-11-05T10:26:43Z</time>
      </trkpt>
      <trkpt lat="45.39743" lon="5.90285">
        <ele>1407.305194143</ele>
        <time>2015-11-05T10:27:00Z</time>
      </trkpt>
      <trkpt lat="45.39742" lon="5.90285">
        <ele>1407.305194143</ele>
        <time>2015-11-05T10:27:03Z</time>
      </trkpt>
      <trkpt lat="45.39739" lon="5.90277">
        <ele>1407.305194143</ele>
        <time>2015-11-05T10:27:13Z</time>
      </trkpt>
      <trkpt lat="45.39736" lon="5.90275">
        <ele>1409.672002157</ele>
        <time>2015-11-05T10:27:18Z</time>
      </trkpt>
      <trkpt lat="45.39726" lon="5.90271">
        <ele>1412.246319604</ele>
        <time>2015-11-05T10:27:28Z</time>
      </trkpt>
      <trkpt lat="45.3972" lon="5.9026">
        <ele>1414.71319493</ele>
        <time>2015-11-05T10:27:43Z</time>
      </trkpt>
      <trkpt lat="45.39718" lon="5.90258">
        <ele>1414.71319493</ele>
        <time>2015-11-05T10:27:48Z</time>
      </trkpt>
      <trkpt lat="45.39713" lon="5.90255">
        <ele>1414.71319493</ele>
        <time>2015-11-05T10:27:58Z</time>
      </trkpt>
      <trkpt lat="45.39712" lon="5.90255">
        <ele>1414.71319493</ele>
        <time>2015-11-05T10:28:03Z</time>
      </trkpt>
      <trkpt lat="45.3971" lon="5.90254">
        <ele>1417.357637174</ele>
        <time>2015-11-05T10:28:13Z</time>
      </trkpt>
      <trkpt lat="45.39709" lon="5.90253">
        <ele>1417.357637174</ele>
        <time>2015-11-05T10:28:18Z</time>
      </trkpt>
      <trkpt lat="45.39707" lon="5.9025">
        <ele>1417.357637174</ele>
        <time>2015-11-05T10:28:28Z</time>
      </trkpt>
      <trkpt lat="45.39706" lon="5.90248">
        <ele>1417.357637174</ele>
        <time>2015-11-05T10:28:33Z</time>
      </trkpt>
      <trkpt lat="45.39703" lon="5.90246">
        <ele>1417.357637174</ele>
        <time>2015-11-05T10:28:45Z</time>
      </trkpt>
      <trkpt lat="45.39703" lon="5.90246">
        <ele>1419.866882366</ele>
        <time>2015-11-05T10:28:48Z</time>
      </trkpt>
      <trkpt lat="45.39701" lon="5.90243">
        <ele>1419.866882366</ele>
        <time>2015-11-05T10:28:53Z</time>
      </trkpt>
      <trkpt lat="45.39695" lon="5.90228">
        <ele>1422.383986979</ele>
        <time>2015-11-05T10:29:03Z</time>
      </trkpt>
      <trkpt lat="45.39693" lon="5.90227">
        <ele>1422.383986979</ele>
        <time>2015-11-05T10:29:08Z</time>
      </trkpt>
      <trkpt lat="45.39681" lon="5.9022">
        <ele>1424.609298201</ele>
        <time>2015-11-05T10:29:17Z</time>
      </trkpt>
      <trkpt lat="45.39679" lon="5.90213">
        <ele>1424.609298201</ele>
        <time>2015-11-05T10:29:22Z</time>
      </trkpt>
      <trkpt lat="45.39673" lon="5.90206">
        <ele>1427.419059835</ele>
        <time>2015-11-05T10:29:33Z</time>
      </trkpt>
      <trkpt lat="45.39673" lon="5.90202">
        <ele>1427.419059835</ele>
        <time>2015-11-05T10:29:38Z</time>
      </trkpt>
      <trkpt lat="45.39671" lon="5.90194">
        <ele>1429.60614591</ele>
        <time>2015-11-05T10:29:48Z</time>
      </trkpt>
      <trkpt lat="45.3967" lon="5.90193">
        <ele>1429.60614591</ele>
        <time>2015-11-05T10:29:53Z</time>
      </trkpt>
      <trkpt lat="45.39664" lon="5.90186">
        <ele>1429.60614591</ele>
        <time>2015-11-05T10:30:03Z</time>
      </trkpt>
      <trkpt lat="45.39661" lon="5.90183">
        <ele>1432.215730599</ele>
        <time>2015-11-05T10:30:08Z</time>
      </trkpt>
      <trkpt lat="45.39658" lon="5.9018">
        <ele>1432.215730599</ele>
        <time>2015-11-05T10:30:13Z</time>
      </trkpt>
      <trkpt lat="45.39657" lon="5.9018">
        <ele>1432.215730599</ele>
        <time>2015-11-05T10:30:17Z</time>
      </trkpt>
      <trkpt lat="45.39656" lon="5.90179">
        <ele>1432.215730599</ele>
        <time>2015-11-05T10:30:22Z</time>
      </trkpt>
      <trkpt lat="45.39657" lon="5.90181">
        <ele>1432.215730599</ele>
        <time>2015-11-05T10:30:28Z</time>
      </trkpt>
      <trkpt lat="45.39657" lon="5.9018">
        <ele>1432.215730599</ele>
        <time>2015-11-05T10:30:32Z</time>
      </trkpt>
      <trkpt lat="45.39658" lon="5.90179">
        <ele>1435.06236192</ele>
        <time>2015-11-05T10:30:37Z</time>
      </trkpt>
      <trkpt lat="45.39659" lon="5.90179">
        <ele>1435.06236192</ele>
        <time>2015-11-05T10:30:43Z</time>
      </trkpt>
      <trkpt lat="45.39657" lon="5.90179">
        <ele>1435.06236192</ele>
        <time>2015-11-05T10:30:53Z</time>
      </trkpt>
      <trkpt lat="45.39653" lon="5.90178">
        <ele>1435.06236192</ele>
        <time>2015-11-05T10:30:58Z</time>
      </trkpt>
      <trkpt lat="45.39645" lon="5.90171">
        <ele>1437.397340913</ele>
        <time>2015-11-05T10:31:08Z</time>
      </trkpt>
      <trkpt lat="45.39643" lon="5.90172">
        <ele>1437.397340913</ele>
        <time>2015-11-05T10:31:13Z</time>
      </trkpt>
      <trkpt lat="45.39638" lon="5.90167">
        <ele>1437.397340913</ele>
        <time>2015-11-05T10:31:23Z</time>
      </trkpt>
      <trkpt lat="45.39634" lon="5.90166">
        <ele>1439.681542936</ele>
        <time>2015-11-05T10:31:28Z</time>
      </trkpt>
      <trkpt lat="45.39631" lon="5.90156">
        <ele>1439.681542936</ele>
        <time>2015-11-05T10:31:38Z</time>
      </trkpt>
      <trkpt lat="45.39628" lon="5.90151">
        <ele>1441.477722461</ele>
        <time>2015-11-05T10:31:43Z</time>
      </trkpt>
      <trkpt lat="45.39624" lon="5.90145">
        <ele>1441.477722461</ele>
        <time>2015-11-05T10:31:53Z</time>
      </trkpt>
      <trkpt lat="45.39624" lon="5.90144">
        <ele>1441.477722461</ele>
        <time>2015-11-05T10:31:58Z</time>
      </trkpt>
      <trkpt lat="45.3962" lon="5.90138">
        <ele>1443.247054804</ele>
        <time>2015-11-05T10:32:13Z</time>
      </trkpt>
      <trkpt lat="45.3962" lon="5.90136">
        <ele>1443.247054804</ele>
        <time>2015-11-05T10:32:18Z</time>
      </trkpt>
      <trkpt lat="45.39617" lon="5.9013">
        <ele>1443.247054804</ele>
        <time>2015-11-05T10:32:28Z</time>
      </trkpt>
      <trkpt lat="45.39615" lon="5.90124">
        <ele>1444.552512743</ele>
        <time>2015-11-05T10:32:33Z</time>
      </trkpt>
      <trkpt lat="45.39604" lon="5.90112">
        <ele>1445.999518501</ele>
        <time>2015-11-05T10:32:43Z</time>
      </trkpt>
      <trkpt lat="45.39604" lon="5.90106">
        <ele>1445.999518501</ele>
        <time>2015-11-05T10:32:48Z</time>
      </trkpt>
      <trkpt lat="45.39603" lon="5.90105">
        <ele>1445.999518501</ele>
        <time>2015-11-05T10:32:58Z</time>
      </trkpt>
      <trkpt lat="45.39602" lon="5.90104">
        <ele>1445.999518501</ele>
        <time>2015-11-05T10:33:03Z</time>
      </trkpt>
      <trkpt lat="45.396" lon="5.90099">
        <ele>1447.860665009</ele>
        <time>2015-11-05T10:33:13Z</time>
      </trkpt>
      <trkpt lat="45.39599" lon="5.90097">
        <ele>1447.860665009</ele>
        <time>2015-11-05T10:33:18Z</time>
      </trkpt>
      <trkpt lat="45.39596" lon="5.90093">
        <ele>1447.860665009</ele>
        <time>2015-11-05T10:33:28Z</time>
      </trkpt>
      <trkpt lat="45.39595" lon="5.90091">
        <ele>1447.860665009</ele>
        <time>2015-11-05T10:33:33Z</time>
      </trkpt>
      <trkpt lat="45.39593" lon="5.90088">
        <ele>1450.24350985</ele>
        <time>2015-11-05T10:33:44Z</time>
      </trkpt>
      <trkpt lat="45.39593" lon="5.90089">
        <ele>1450.24350985</ele>
        <time>2015-11-05T10:33:48Z</time>
      </trkpt>
      <trkpt lat="45.39591" lon="5.901">
        <ele>1453.102396345</ele>
        <time>2015-11-05T10:34:04Z</time>
      </trkpt>
      <trkpt lat="45.39591" lon="5.90101">
        <ele>1453.102396345</ele>
        <time>2015-11-05T10:34:08Z</time>
      </trkpt>
      <trkpt lat="45.39586" lon="5.90101">
        <ele>1453.102396345</ele>
        <time>2015-11-05T10:34:18Z</time>
      </trkpt>
      <trkpt lat="45.39582" lon="5.90102">
        <ele>1453.102396345</ele>
        <time>2015-11-05T10:34:33Z</time>
      </trkpt>
      <trkpt lat="45.39577" lon="5.90103">
        <ele>1456.393949986</ele>
        <time>2015-11-05T10:34:38Z</time>
      </trkpt>
      <trkpt lat="45.39575" lon="5.90101">
        <ele>1456.393949986</ele>
        <time>2015-11-05T10:34:48Z</time>
      </trkpt>
      <trkpt lat="45.39571" lon="5.90099">
        <ele>1456.393949986</ele>
        <time>2015-11-05T10:34:53Z</time>
      </trkpt>
      <trkpt lat="45.39568" lon="5.90096">
        <ele>1459.212368998</ele>
        <time>2015-11-05T10:35:05Z</time>
      </trkpt>
      <trkpt lat="45.39566" lon="5.90095">
        <ele>1459.212368998</ele>
        <time>2015-11-05T10:35:08Z</time>
      </trkpt>
      <trkpt lat="45.39562" lon="5.90083">
        <ele>1461.152322124</ele>
        <time>2015-11-05T10:35:18Z</time>
      </trkpt>
      <trkpt lat="45.3956" lon="5.90081">
        <ele>1461.152322124</ele>
        <time>2015-11-05T10:35:22Z</time>
      </trkpt>
      <trkpt lat="45.39549" lon="5.90065">
        <ele>1462.705655414</ele>
        <time>2015-11-05T10:35:33Z</time>
      </trkpt>
      <trkpt lat="45.3955" lon="5.90061">
        <ele>1462.705655414</ele>
        <time>2015-11-05T10:35:38Z</time>
      </trkpt>
      <trkpt lat="45.39552" lon="5.90052">
        <ele>1464.329436417</ele>
        <time>2015-11-05T10:35:43Z</time>
      </trkpt>
      <trkpt lat="45.39552" lon="5.90047">
        <ele>1464.329436417</ele>
        <time>2015-11-05T10:35:53Z</time>
      </trkpt>
      <trkpt lat="45.39553" lon="5.90047">
        <ele>1464.329436417</ele>
        <time>2015-11-05T10:35:58Z</time>
      </trkpt>
      <trkpt lat="45.39553" lon="5.90044">
        <ele>1464.329436417</ele>
        <time>2015-11-05T10:36:08Z</time>
      </trkpt>
      <trkpt lat="45.39553" lon="5.90044">
        <ele>1464.329436417</ele>
        <time>2015-11-05T10:36:13Z</time>
      </trkpt>
      <trkpt lat="45.39552" lon="5.90047">
        <ele>1464.329436417</ele>
        <time>2015-11-05T10:36:27Z</time>
      </trkpt>
      <trkpt lat="45.3955" lon="5.9005">
        <ele>1466.158998195</ele>
        <time>2015-11-05T10:36:43Z</time>
      </trkpt>
      <trkpt lat="45.39546" lon="5.90051">
        <ele>1466.158998195</ele>
        <time>2015-11-05T10:36:48Z</time>
      </trkpt>
      <trkpt lat="45.39544" lon="5.90048">
        <ele>1466.158998195</ele>
        <time>2015-11-05T10:36:58Z</time>
      </trkpt>
      <trkpt lat="45.39543" lon="5.90047">
        <ele>1466.158998195</ele>
        <time>2015-11-05T10:37:03Z</time>
      </trkpt>
      <trkpt lat="45.3954" lon="5.90043">
        <ele>1467.742963234</ele>
        <time>2015-11-05T10:37:13Z</time>
      </trkpt>
      <trkpt lat="45.39539" lon="5.90036">
        <ele>1467.742963234</ele>
        <time>2015-11-05T10:37:18Z</time>
      </trkpt>
      <trkpt lat="45.39537" lon="5.90033">
        <ele>1467.742963234</ele>
        <time>2015-11-05T10:37:28Z</time>
      </trkpt>
      <trkpt lat="45.39536" lon="5.9003">
        <ele>1468.952266518</ele>
        <time>2015-11-05T10:37:33Z</time>
      </trkpt>
      <trkpt lat="45.39534" lon="5.90022">
        <ele>1468.952266518</ele>
        <time>2015-11-05T10:37:43Z</time>
      </trkpt>
      <trkpt lat="45.39534" lon="5.90022">
        <ele>1468.952266518</ele>
        <time>2015-11-05T10:37:48Z</time>
      </trkpt>
      <trkpt lat="45.39535" lon="5.90022">
        <ele>1468.952266518</ele>
        <time>2015-11-05T10:37:58Z</time>
      </trkpt>
      <trkpt lat="45.39535" lon="5.90022">
        <ele>1468.952266518</ele>
        <time>2015-11-05T10:38:03Z</time>
      </trkpt>
      <trkpt lat="45.39535" lon="5.90022">
        <ele>1468.952266518</ele>
        <time>2015-11-05T10:38:13Z</time>
      </trkpt>
      <trkpt lat="45.39535" lon="5.90022">
        <ele>1468.952266518</ele>
        <time>2015-11-05T10:38:18Z</time>
      </trkpt>
      <trkpt lat="45.39535" lon="5.90022">
        <ele>1468.952266518</ele>
        <time>2015-11-05T10:38:34Z</time>
      </trkpt>
      <trkpt lat="45.39532" lon="5.90021">
        <ele>1468.952266518</ele>
        <time>2015-11-05T10:38:37Z</time>
      </trkpt>
      <trkpt lat="45.39528" lon="5.9002">
        <ele>1470.677387342</ele>
        <time>2015-11-05T10:38:48Z</time>
      </trkpt>
      <trkpt lat="45.39528" lon="5.90019">
        <ele>1470.677387342</ele>
        <time>2015-11-05T10:38:53Z</time>
      </trkpt>
      <trkpt lat="45.39518" lon="5.90023">
        <ele>1472.156945204</ele>
        <time>2015-11-05T10:39:03Z</time>
      </trkpt>
      <trkpt lat="45.39515" lon="5.90023">
        <ele>1472.156945204</ele>
        <time>2015-11-05T10:39:08Z</time>
      </trkpt>
      <trkpt lat="45.39508" lon="5.90028">
        <ele>1473.839282683</ele>
        <time>2015-11-05T10:39:18Z</time>
      </trkpt>
      <trkpt lat="45.39508" lon="5.90028">
        <ele>1473.839282683</ele>
        <time>2015-11-05T10:39:23Z</time>
      </trkpt>
      <trkpt lat="45.39503" lon="5.9003">
        <ele>1473.839282683</ele>
        <time>2015-11-05T10:39:33Z</time>
      </trkpt>
      <trkpt lat="45.39504" lon="5.90031">
        <ele>1473.839282683</ele>
        <time>2015-11-05T10:39:38Z</time>
      </trkpt>
      <trkpt lat="45.39502" lon="5.90035">
        <ele>1473.839282683</ele>
        <time>2015-11-05T10:39:48Z</time>
      </trkpt>
      <trkpt lat="45.395" lon="5.90037">
        <ele>1476.28355586</ele>
        <time>2015-11-05T10:39:53Z</time>
      </trkpt>
      <trkpt lat="45.39502" lon="5.90045">
        <ele>1476.28355586</ele>
        <time>2015-11-05T10:40:07Z</time>
      </trkpt>
      <trkpt lat="45.395" lon="5.90045">
        <ele>1476.28355586</ele>
        <time>2015-11-05T10:40:13Z</time>
      </trkpt>
      <trkpt lat="45.39497" lon="5.90047">
        <ele>1479.861798589</ele>
        <time>2015-11-05T10:40:24Z</time>
      </trkpt>
      <trkpt lat="45.39496" lon="5.90047">
        <ele>1479.861798589</ele>
        <time>2015-11-05T10:40:28Z</time>
      </trkpt>
      <trkpt lat="45.39496" lon="5.90046">
        <ele>1479.861798589</ele>
        <time>2015-11-05T10:40:33Z</time>
      </trkpt>
      <trkpt lat="45.39493" lon="5.90055">
        <ele>1479.861798589</ele>
        <time>2015-11-05T10:40:43Z</time>
      </trkpt>
      <trkpt lat="45.39492" lon="5.90058">
        <ele>1482.609954161</ele>
        <time>2015-11-05T10:40:48Z</time>
      </trkpt>
      <trkpt lat="45.39487" lon="5.90058">
        <ele>1482.609954161</ele>
        <time>2015-11-05T10:40:58Z</time>
      </trkpt>
      <trkpt lat="45.39489" lon="5.90061">
        <ele>1482.609954161</ele>
        <time>2015-11-05T10:41:03Z</time>
      </trkpt>
      <trkpt lat="45.39493" lon="5.90068">
        <ele>1484.295992135</ele>
        <time>2015-11-05T10:41:13Z</time>
      </trkpt>
      <trkpt lat="45.39494" lon="5.90071">
        <ele>1484.295992135</ele>
        <time>2015-11-05T10:41:18Z</time>
      </trkpt>
      <trkpt lat="45.39495" lon="5.90077">
        <ele>1484.295992135</ele>
        <time>2015-11-05T10:41:28Z</time>
      </trkpt>
      <trkpt lat="45.39496" lon="5.90078">
        <ele>1484.295992135</ele>
        <time>2015-11-05T10:41:33Z</time>
      </trkpt>
      <trkpt lat="45.39496" lon="5.90091">
        <ele>1486.437435068</ele>
        <time>2015-11-05T10:41:42Z</time>
      </trkpt>
      <trkpt lat="45.39496" lon="5.90094">
        <ele>1486.437435068</ele>
        <time>2015-11-05T10:41:47Z</time>
      </trkpt>
      <trkpt lat="45.39496" lon="5.90102">
        <ele>1486.437435068</ele>
        <time>2015-11-05T10:41:58Z</time>
      </trkpt>
      <trkpt lat="45.39496" lon="5.90104">
        <ele>1488.854020048</ele>
        <time>2015-11-05T10:42:03Z</time>
      </trkpt>
      <trkpt lat="45.39496" lon="5.90109">
        <ele>1488.854020048</ele>
        <time>2015-11-05T10:42:13Z</time>
      </trkpt>
      <trkpt lat="45.39493" lon="5.90114">
        <ele>1488.854020048</ele>
        <time>2015-11-05T10:42:18Z</time>
      </trkpt>
      <trkpt lat="45.39491" lon="5.90117">
        <ele>1492.386919997</ele>
        <time>2015-11-05T10:42:28Z</time>
      </trkpt>
      <trkpt lat="45.39489" lon="5.90121">
        <ele>1492.386919997</ele>
        <time>2015-11-05T10:42:33Z</time>
      </trkpt>
      <trkpt lat="45.39485" lon="5.90124">
        <ele>1492.386919997</ele>
        <time>2015-11-05T10:42:43Z</time>
      </trkpt>
      <trkpt lat="45.39484" lon="5.90127">
        <ele>1496.515569758</ele>
        <time>2015-11-05T10:42:48Z</time>
      </trkpt>
      <trkpt lat="45.39481" lon="5.90133">
        <ele>1496.515569758</ele>
        <time>2015-11-05T10:42:58Z</time>
      </trkpt>
      <trkpt lat="45.39482" lon="5.90134">
        <ele>1496.515569758</ele>
        <time>2015-11-05T10:43:04Z</time>
      </trkpt>
      <trkpt lat="45.39477" lon="5.9014">
        <ele>1500.900273403</ele>
        <time>2015-11-05T10:43:18Z</time>
      </trkpt>
      <trkpt lat="45.39476" lon="5.9014">
        <ele>1500.900273403</ele>
        <time>2015-11-05T10:43:23Z</time>
      </trkpt>
      <trkpt lat="45.39475" lon="5.9014">
        <ele>1500.900273403</ele>
        <time>2015-11-05T10:43:33Z</time>
      </trkpt>
      <trkpt lat="45.39471" lon="5.90141">
        <ele>1500.900273403</ele>
        <time>2015-11-05T10:43:38Z</time>
      </trkpt>
      <trkpt lat="45.39464" lon="5.90141">
        <ele>1503.352317142</ele>
        <time>2015-11-05T10:43:48Z</time>
      </trkpt>
      <trkpt lat="45.39464" lon="5.90141">
        <ele>1503.352317142</ele>
        <time>2015-11-05T10:43:53Z</time>
      </trkpt>
      <trkpt lat="45.39464" lon="5.90141">
        <ele>1503.352317142</ele>
        <time>2015-11-05T10:44:03Z</time>
      </trkpt>
      <trkpt lat="45.39463" lon="5.90143">
        <ele>1503.352317142</ele>
        <time>2015-11-05T10:44:08Z</time>
      </trkpt>
      <trkpt lat="45.39462" lon="5.9015">
        <ele>1503.352317142</ele>
        <time>2015-11-05T10:44:18Z</time>
      </trkpt>
      <trkpt lat="45.39462" lon="5.9015">
        <ele>1503.352317142</ele>
        <time>2015-11-05T10:44:23Z</time>
      </trkpt>
      <trkpt lat="45.39461" lon="5.90152">
        <ele>1507.469723314</ele>
        <time>2015-11-05T10:44:33Z</time>
      </trkpt>
      <trkpt lat="45.39461" lon="5.90156">
        <ele>1507.469723314</ele>
        <time>2015-11-05T10:44:38Z</time>
      </trkpt>
      <trkpt lat="45.39459" lon="5.90158">
        <ele>1507.469723314</ele>
        <time>2015-11-05T10:44:53Z</time>
      </trkpt>
      <trkpt lat="45.39459" lon="5.90158">
        <ele>1507.469723314</ele>
        <time>2015-11-05T10:44:58Z</time>
      </trkpt>
      <trkpt lat="45.39453" lon="5.90159">
        <ele>1511.105510116</ele>
        <time>2015-11-05T10:45:08Z</time>
      </trkpt>
      <trkpt lat="45.39453" lon="5.90158">
        <ele>1511.105510116</ele>
        <time>2015-11-05T10:45:12Z</time>
      </trkpt>
      <trkpt lat="45.39453" lon="5.9016">
        <ele>1511.105510116</ele>
        <time>2015-11-05T10:45:23Z</time>
      </trkpt>
      <trkpt lat="45.39454" lon="5.90161">
        <ele>1511.105510116</ele>
        <time>2015-11-05T10:45:28Z</time>
      </trkpt>
      <trkpt lat="45.39454" lon="5.9017">
        <ele>1514.433632151</ele>
        <time>2015-11-05T10:45:38Z</time>
      </trkpt>
      <trkpt lat="45.39451" lon="5.9017">
        <ele>1514.433632151</ele>
        <time>2015-11-05T10:45:43Z</time>
      </trkpt>
      <trkpt lat="45.39448" lon="5.90169">
        <ele>1514.433632151</ele>
        <time>2015-11-05T10:45:53Z</time>
      </trkpt>
      <trkpt lat="45.39448" lon="5.90169">
        <ele>1514.433632151</ele>
        <time>2015-11-05T10:45:58Z</time>
      </trkpt>
      <trkpt lat="45.39447" lon="5.90174">
        <ele>1516.895772742</ele>
        <time>2015-11-05T10:46:08Z</time>
      </trkpt>
      <trkpt lat="45.39446" lon="5.90174">
        <ele>1516.895772742</ele>
        <time>2015-11-05T10:46:13Z</time>
      </trkpt>
      <trkpt lat="45.39446" lon="5.90175">
        <ele>1516.895772742</ele>
        <time>2015-11-05T10:46:23Z</time>
      </trkpt>
      <trkpt lat="45.39446" lon="5.90175">
        <ele>1516.895772742</ele>
        <time>2015-11-05T10:46:28Z</time>
      </trkpt>
      <trkpt lat="45.39446" lon="5.90175">
        <ele>1516.895772742</ele>
        <time>2015-11-05T10:46:38Z</time>
      </trkpt>
      <trkpt lat="45.39446" lon="5.90174">
        <ele>1516.895772742</ele>
        <time>2015-11-05T10:46:43Z</time>
      </trkpt>
      <trkpt lat="45.39442" lon="5.90174">
        <ele>1516.895772742</ele>
        <time>2015-11-05T10:46:53Z</time>
      </trkpt>
      <trkpt lat="45.39441" lon="5.90176">
        <ele>1516.895772742</ele>
        <time>2015-11-05T10:46:58Z</time>
      </trkpt>
      <trkpt lat="45.3944" lon="5.90184">
        <ele>1519.418367297</ele>
        <time>2015-11-05T10:47:08Z</time>
      </trkpt>
      <trkpt lat="45.3944" lon="5.90188">
        <ele>1519.418367297</ele>
        <time>2015-11-05T10:47:13Z</time>
      </trkpt>
      <trkpt lat="45.3944" lon="5.90195">
        <ele>1519.418367297</ele>
        <time>2015-11-05T10:47:27Z</time>
      </trkpt>
      <trkpt lat="45.39437" lon="5.90198">
        <ele>1521.995150831</ele>
        <time>2015-11-05T10:47:33Z</time>
      </trkpt>
      <trkpt lat="45.39436" lon="5.90202">
        <ele>1521.995150831</ele>
        <time>2015-11-05T10:47:43Z</time>
      </trkpt>
      <trkpt lat="45.39434" lon="5.90204">
        <ele>1521.995150831</ele>
        <time>2015-11-05T10:47:48Z</time>
      </trkpt>
      <trkpt lat="45.39426" lon="5.9021">
        <ele>1524.908573131</ele>
        <time>2015-11-05T10:47:58Z</time>
      </trkpt>
      <trkpt lat="45.39423" lon="5.9021">
        <ele>1524.908573131</ele>
        <time>2015-11-05T10:48:03Z</time>
      </trkpt>
      <trkpt lat="45.39423" lon="5.90216">
        <ele>1524.908573131</ele>
        <time>2015-11-05T10:48:20Z</time>
      </trkpt>
      <trkpt lat="45.39423" lon="5.90217">
        <ele>1524.908573131</ele>
        <time>2015-11-05T10:48:22Z</time>
      </trkpt>
      <trkpt lat="45.39415" lon="5.90221">
        <ele>1527.55489994</ele>
        <time>2015-11-05T10:48:33Z</time>
      </trkpt>
      <trkpt lat="45.39413" lon="5.90224">
        <ele>1527.55489994</ele>
        <time>2015-11-05T10:48:38Z</time>
      </trkpt>
      <trkpt lat="45.3941" lon="5.90225">
        <ele>1527.55489994</ele>
        <time>2015-11-05T10:48:48Z</time>
      </trkpt>
      <trkpt lat="45.39402" lon="5.90227">
        <ele>1529.663885868</ele>
        <time>2015-11-05T10:48:53Z</time>
      </trkpt>
      <trkpt lat="45.39396" lon="5.90226">
        <ele>1529.663885868</ele>
        <time>2015-11-05T10:49:03Z</time>
      </trkpt>
      <trkpt lat="45.39396" lon="5.90227">
        <ele>1529.663885868</ele>
        <time>2015-11-05T10:49:08Z</time>
      </trkpt>
      <trkpt lat="45.39393" lon="5.9023">
        <ele>1531.707359005</ele>
        <time>2015-11-05T10:49:18Z</time>
      </trkpt>
      <trkpt lat="45.3939" lon="5.90231">
        <ele>1531.707359005</ele>
        <time>2015-11-05T10:49:23Z</time>
      </trkpt>
      <trkpt lat="45.39389" lon="5.90233">
        <ele>1531.707359005</ele>
        <time>2015-11-05T10:49:33Z</time>
      </trkpt>
      <trkpt lat="45.39384" lon="5.90233">
        <ele>1533.690485418</ele>
        <time>2015-11-05T10:49:38Z</time>
      </trkpt>
      <trkpt lat="45.39382" lon="5.90234">
        <ele>1533.690485418</ele>
        <time>2015-11-05T10:49:48Z</time>
      </trkpt>
      <trkpt lat="45.39376" lon="5.90237">
        <ele>1533.690485418</ele>
        <time>2015-11-05T10:49:53Z</time>
      </trkpt>
      <trkpt lat="45.39372" lon="5.90238">
        <ele>1535.474245778</ele>
        <time>2015-11-05T10:50:08Z</time>
      </trkpt>
      <trkpt lat="45.3937" lon="5.90237">
        <ele>1535.474245778</ele>
        <time>2015-11-05T10:50:13Z</time>
      </trkpt>
      <trkpt lat="45.39362" lon="5.90245">
        <ele>1537.21873787</ele>
        <time>2015-11-05T10:50:23Z</time>
      </trkpt>
      <trkpt lat="45.39358" lon="5.90246">
        <ele>1537.21873787</ele>
        <time>2015-11-05T10:50:28Z</time>
      </trkpt>
      <trkpt lat="45.39353" lon="5.90247">
        <ele>1537.21873787</ele>
        <time>2015-11-05T10:50:38Z</time>
      </trkpt>
      <trkpt lat="45.3935" lon="5.90246">
        <ele>1538.640185286</ele>
        <time>2015-11-05T10:50:43Z</time>
      </trkpt>
      <trkpt lat="45.39343" lon="5.90241">
        <ele>1538.640185286</ele>
        <time>2015-11-05T10:50:53Z</time>
      </trkpt>
      <trkpt lat="45.3934" lon="5.90241">
        <ele>1540.341327529</ele>
        <time>2015-11-05T10:50:58Z</time>
      </trkpt>
      <trkpt lat="45.39331" lon="5.90246">
        <ele>1542.015259039</ele>
        <time>2015-11-05T10:51:08Z</time>
      </trkpt>
      <trkpt lat="45.3933" lon="5.90244">
        <ele>1542.015259039</ele>
        <time>2015-11-05T10:51:13Z</time>
      </trkpt>
      <trkpt lat="45.39328" lon="5.90245">
        <ele>1542.015259039</ele>
        <time>2015-11-05T10:51:23Z</time>
      </trkpt>
      <trkpt lat="45.39324" lon="5.90246">
        <ele>1542.015259039</ele>
        <time>2015-11-05T10:51:28Z</time>
      </trkpt>
      <trkpt lat="45.39322" lon="5.90244">
        <ele>1543.954211685</ele>
        <time>2015-11-05T10:51:38Z</time>
      </trkpt>
      <trkpt lat="45.39319" lon="5.90244">
        <ele>1543.954211685</ele>
        <time>2015-11-05T10:51:42Z</time>
      </trkpt>
      <trkpt lat="45.39319" lon="5.90244">
        <ele>1543.954211685</ele>
        <time>2015-11-05T10:51:53Z</time>
      </trkpt>
      <trkpt lat="45.39319" lon="5.90244">
        <ele>1543.954211685</ele>
        <time>2015-11-05T10:51:58Z</time>
      </trkpt>
      <trkpt lat="45.39318" lon="5.9025">
        <ele>1543.954211685</ele>
        <time>2015-11-05T10:52:13Z</time>
      </trkpt>
      <trkpt lat="45.39318" lon="5.9025">
        <ele>1545.995933706</ele>
        <time>2015-11-05T10:52:28Z</time>
      </trkpt>
      <trkpt lat="45.39318" lon="5.9025">
        <ele>1545.995933706</ele>
        <time>2015-11-05T10:52:33Z</time>
      </trkpt>
      <trkpt lat="45.39318" lon="5.9025">
        <ele>1545.995933706</ele>
        <time>2015-11-05T10:52:43Z</time>
      </trkpt>
      <trkpt lat="45.39317" lon="5.90251">
        <ele>1545.995933706</ele>
        <time>2015-11-05T10:52:48Z</time>
      </trkpt>
      <trkpt lat="45.39318" lon="5.90257">
        <ele>1545.995933706</ele>
        <time>2015-11-05T10:52:58Z</time>
      </trkpt>
      <trkpt lat="45.39318" lon="5.90259">
        <ele>1545.995933706</ele>
        <time>2015-11-05T10:53:03Z</time>
      </trkpt>
      <trkpt lat="45.39319" lon="5.9026">
        <ele>1545.995933706</ele>
        <time>2015-11-05T10:53:13Z</time>
      </trkpt>
      <trkpt lat="45.39319" lon="5.9026">
        <ele>1545.995933706</ele>
        <time>2015-11-05T10:53:18Z</time>
      </trkpt>
      <trkpt lat="45.39322" lon="5.90269">
        <ele>1547.125186719</ele>
        <time>2015-11-05T10:53:28Z</time>
      </trkpt>
      <trkpt lat="45.39322" lon="5.90272">
        <ele>1547.125186719</ele>
        <time>2015-11-05T10:53:33Z</time>
      </trkpt>
      <trkpt lat="45.39327" lon="5.90282">
        <ele>1548.709689507</ele>
        <time>2015-11-05T10:53:48Z</time>
      </trkpt>
      <trkpt lat="45.39332" lon="5.90297">
        <ele>1549.853773721</ele>
        <time>2015-11-05T10:54:03Z</time>
      </trkpt>
      <trkpt lat="45.39335" lon="5.90306">
        <ele>1549.853773721</ele>
        <time>2015-11-05T10:54:08Z</time>
      </trkpt>
      <trkpt lat="45.39341" lon="5.9032">
        <ele>1550.305263273</ele>
        <time>2015-11-05T10:54:18Z</time>
      </trkpt>
      <trkpt lat="45.39341" lon="5.90323">
        <ele>1550.305263273</ele>
        <time>2015-11-05T10:54:23Z</time>
      </trkpt>
      <trkpt lat="45.39345" lon="5.90338">
        <ele>1551.129453949</ele>
        <time>2015-11-05T10:54:33Z</time>
      </trkpt>
      <trkpt lat="45.39344" lon="5.90338">
        <ele>1551.129453949</ele>
        <time>2015-11-05T10:54:38Z</time>
      </trkpt>
      <trkpt lat="45.39345" lon="5.90345">
        <ele>1551.129453949</ele>
        <time>2015-11-05T10:54:47Z</time>
      </trkpt>
      <trkpt lat="45.39347" lon="5.90352">
        <ele>1551.727107221</ele>
        <time>2015-11-05T10:54:54Z</time>
      </trkpt>
      <trkpt lat="45.39352" lon="5.90358">
        <ele>1551.727107221</ele>
        <time>2015-11-05T10:55:03Z</time>
      </trkpt>
      <trkpt lat="45.39355" lon="5.90364">
        <ele>1552.696505689</ele>
        <time>2015-11-05T10:55:08Z</time>
      </trkpt>
      <trkpt lat="45.39359" lon="5.90367">
        <ele>1552.696505689</ele>
        <time>2015-11-05T10:55:18Z</time>
      </trkpt>
      <trkpt lat="45.39361" lon="5.9037">
        <ele>1552.696505689</ele>
        <time>2015-11-05T10:55:23Z</time>
      </trkpt>
      <trkpt lat="45.39369" lon="5.90375">
        <ele>1552.717456835</ele>
        <time>2015-11-05T10:55:34Z</time>
      </trkpt>
      <trkpt lat="45.3937" lon="5.90379">
        <ele>1552.717456835</ele>
        <time>2015-11-05T10:55:38Z</time>
      </trkpt>
      <trkpt lat="45.39371" lon="5.90379">
        <ele>1552.717456835</ele>
        <time>2015-11-05T10:55:48Z</time>
      </trkpt>
      <trkpt lat="45.39371" lon="5.90378">
        <ele>1552.717456835</ele>
        <time>2015-11-05T10:55:53Z</time>
      </trkpt>
      <trkpt lat="45.39375" lon="5.90379">
        <ele>1552.717456835</ele>
        <time>2015-11-05T10:56:08Z</time>
      </trkpt>
      <trkpt lat="45.39379" lon="5.90381">
        <ele>1553.595694311</ele>
        <time>2015-11-05T10:56:13Z</time>
      </trkpt>
      <trkpt lat="45.39383" lon="5.90385">
        <ele>1553.595694311</ele>
        <time>2015-11-05T10:56:23Z</time>
      </trkpt>
      <trkpt lat="45.39387" lon="5.90386">
        <ele>1553.595694311</ele>
        <time>2015-11-05T10:56:27Z</time>
      </trkpt>
      <trkpt lat="45.39391" lon="5.90397">
        <ele>1553.975502502</ele>
        <time>2015-11-05T10:56:38Z</time>
      </trkpt>
      <trkpt lat="45.39392" lon="5.90399">
        <ele>1553.975502502</ele>
        <time>2015-11-05T10:56:43Z</time>
      </trkpt>
      <trkpt lat="45.39398" lon="5.90401">
        <ele>1553.975502502</ele>
        <time>2015-11-05T10:56:53Z</time>
      </trkpt>
      <trkpt lat="45.39401" lon="5.904">
        <ele>1553.610857971</ele>
        <time>2015-11-05T10:56:58Z</time>
      </trkpt>
      <trkpt lat="45.39408" lon="5.90407">
        <ele>1553.610857971</ele>
        <time>2015-11-05T10:57:08Z</time>
      </trkpt>
      <trkpt lat="45.3941" lon="5.90406">
        <ele>1552.852255083</ele>
        <time>2015-11-05T10:57:13Z</time>
      </trkpt>
      <trkpt lat="45.39414" lon="5.90407">
        <ele>1552.852255083</ele>
        <time>2015-11-05T10:57:23Z</time>
      </trkpt>
      <trkpt lat="45.39413" lon="5.90406">
        <ele>1552.852255083</ele>
        <time>2015-11-05T10:57:28Z</time>
      </trkpt>
      <trkpt lat="45.39417" lon="5.90408">
        <ele>1552.852255083</ele>
        <time>2015-11-05T10:57:38Z</time>
      </trkpt>
      <trkpt lat="45.3942" lon="5.90409">
        <ele>1551.448998188</ele>
        <time>2015-11-05T10:57:43Z</time>
      </trkpt>
      <trkpt lat="45.39425" lon="5.90414">
        <ele>1551.448998188</ele>
        <time>2015-11-05T10:57:53Z</time>
      </trkpt>
      <trkpt lat="45.3943" lon="5.90417">
        <ele>1550.611607517</ele>
        <time>2015-11-05T10:57:58Z</time>
      </trkpt>
      <trkpt lat="45.39433" lon="5.90431">
        <ele>1549.154174361</ele>
        <time>2015-11-05T10:58:08Z</time>
      </trkpt>
      <trkpt lat="45.39436" lon="5.90433">
        <ele>1549.154174361</ele>
        <time>2015-11-05T10:58:13Z</time>
      </trkpt>
      <trkpt lat="45.39442" lon="5.9044">
        <ele>1548.285268285</ele>
        <time>2015-11-05T10:58:23Z</time>
      </trkpt>
      <trkpt lat="45.39449" lon="5.90443">
        <ele>1548.285268285</ele>
        <time>2015-11-05T10:58:28Z</time>
      </trkpt>
      <trkpt lat="45.39453" lon="5.9045">
        <ele>1547.393521419</ele>
        <time>2015-11-05T10:58:38Z</time>
      </trkpt>
      <trkpt lat="45.39454" lon="5.90453">
        <ele>1547.393521419</ele>
        <time>2015-11-05T10:58:43Z</time>
      </trkpt>
      <trkpt lat="45.39454" lon="5.90456">
        <ele>1547.393521419</ele>
        <time>2015-11-05T10:58:53Z</time>
      </trkpt>
      <trkpt lat="45.39455" lon="5.90456">
        <ele>1547.393521419</ele>
        <time>2015-11-05T10:58:58Z</time>
      </trkpt>
      <trkpt lat="45.39454" lon="5.90458">
        <ele>1547.393521419</ele>
        <time>2015-11-05T10:59:13Z</time>
      </trkpt>
      <trkpt lat="45.39454" lon="5.90461">
        <ele>1547.393521419</ele>
        <time>2015-11-05T10:59:18Z</time>
      </trkpt>
      <trkpt lat="45.39458" lon="5.90463">
        <ele>1547.641691774</ele>
        <time>2015-11-05T10:59:28Z</time>
      </trkpt>
      <trkpt lat="45.39459" lon="5.90467">
        <ele>1547.641691774</ele>
        <time>2015-11-05T10:59:33Z</time>
      </trkpt>
      <trkpt lat="45.3946" lon="5.90476">
        <ele>1547.797954253</ele>
        <time>2015-11-05T10:59:43Z</time>
      </trkpt>
      <trkpt lat="45.39461" lon="5.9048">
        <ele>1547.797954253</ele>
        <time>2015-11-05T10:59:48Z</time>
      </trkpt>
      <trkpt lat="45.39462" lon="5.90487">
        <ele>1547.797954253</ele>
        <time>2015-11-05T10:59:58Z</time>
      </trkpt>
      <trkpt lat="45.39462" lon="5.90488">
        <ele>1547.585701937</ele>
        <time>2015-11-05T11:00:03Z</time>
      </trkpt>
      <trkpt lat="45.39468" lon="5.90492">
        <ele>1547.585701937</ele>
        <time>2015-11-05T11:00:13Z</time>
      </trkpt>
      <trkpt lat="45.39473" lon="5.90496">
        <ele>1547.181816288</ele>
        <time>2015-11-05T11:00:18Z</time>
      </trkpt>
      <trkpt lat="45.39482" lon="5.90508">
        <ele>1546.462300216</ele>
        <time>2015-11-05T11:00:33Z</time>
      </trkpt>
      <trkpt lat="45.39489" lon="5.90512">
        <ele>1546.462300216</ele>
        <time>2015-11-05T11:00:38Z</time>
      </trkpt>
      <trkpt lat="45.39495" lon="5.90522">
        <ele>1546.03350413</ele>
        <time>2015-11-05T11:00:48Z</time>
      </trkpt>
      <trkpt lat="45.39496" lon="5.90527">
        <ele>1546.03350413</ele>
        <time>2015-11-05T11:00:53Z</time>
      </trkpt>
      <trkpt lat="45.39494" lon="5.90541">
        <ele>1545.159214261</ele>
        <time>2015-11-05T11:01:03Z</time>
      </trkpt>
      <trkpt lat="45.39496" lon="5.90547">
        <ele>1545.159214261</ele>
        <time>2015-11-05T11:01:08Z</time>
      </trkpt>
      <trkpt lat="45.39496" lon="5.90555">
        <ele>1544.455339774</ele>
        <time>2015-11-05T11:01:18Z</time>
      </trkpt>
      <trkpt lat="45.39499" lon="5.9056">
        <ele>1544.455339774</ele>
        <time>2015-11-05T11:01:23Z</time>
      </trkpt>
      <trkpt lat="45.39501" lon="5.90567">
        <ele>1543.915411104</ele>
        <time>2015-11-05T11:01:33Z</time>
      </trkpt>
      <trkpt lat="45.39498" lon="5.90568">
        <ele>1543.915411104</ele>
        <time>2015-11-05T11:01:38Z</time>
      </trkpt>
      <trkpt lat="45.39505" lon="5.90574">
        <ele>1543.532760995</ele>
        <time>2015-11-05T11:01:48Z</time>
      </trkpt>
      <trkpt lat="45.39504" lon="5.90577">
        <ele>1543.532760995</ele>
        <time>2015-11-05T11:01:53Z</time>
      </trkpt>
      <trkpt lat="45.39514" lon="5.90587">
        <ele>1542.724111994</ele>
        <time>2015-11-05T11:02:08Z</time>
      </trkpt>
      <trkpt lat="45.39528" lon="5.90601">
        <ele>1542.823461555</ele>
        <time>2015-11-05T11:02:23Z</time>
      </trkpt>
      <trkpt lat="45.3953" lon="5.90605">
        <ele>1542.823461555</ele>
        <time>2015-11-05T11:02:28Z</time>
      </trkpt>
      <trkpt lat="45.39536" lon="5.90616">
        <ele>1543.190610982</ele>
        <time>2015-11-05T11:02:38Z</time>
      </trkpt>
      <trkpt lat="45.39536" lon="5.90617">
        <ele>1543.190610982</ele>
        <time>2015-11-05T11:02:43Z</time>
      </trkpt>
      <trkpt lat="45.39543" lon="5.90629">
        <ele>1543.663768908</ele>
        <time>2015-11-05T11:02:53Z</time>
      </trkpt>
      <trkpt lat="45.39543" lon="5.90629">
        <ele>1543.663768908</ele>
        <time>2015-11-05T11:02:58Z</time>
      </trkpt>
      <trkpt lat="45.39549" lon="5.9064">
        <ele>1543.948424332</ele>
        <time>2015-11-05T11:03:08Z</time>
      </trkpt>
      <trkpt lat="45.3955" lon="5.90648">
        <ele>1543.948424332</ele>
        <time>2015-11-05T11:03:13Z</time>
      </trkpt>
      <trkpt lat="45.39556" lon="5.90656">
        <ele>1544.348487476</ele>
        <time>2015-11-05T11:03:23Z</time>
      </trkpt>
      <trkpt lat="45.39557" lon="5.90661">
        <ele>1544.348487476</ele>
        <time>2015-11-05T11:03:28Z</time>
      </trkpt>
      <trkpt lat="45.39562" lon="5.90669">
        <ele>1544.568597436</ele>
        <time>2015-11-05T11:03:39Z</time>
      </trkpt>
      <trkpt lat="45.39566" lon="5.90672">
        <ele>1544.568597436</ele>
        <time>2015-11-05T11:03:43Z</time>
      </trkpt>
      <trkpt lat="45.39573" lon="5.90681">
        <ele>1545.200094044</ele>
        <time>2015-11-05T11:03:53Z</time>
      </trkpt>
      <trkpt lat="45.39576" lon="5.90686">
        <ele>1545.200094044</ele>
        <time>2015-11-05T11:03:58Z</time>
      </trkpt>
      <trkpt lat="45.39577" lon="5.90695">
        <ele>1545.780786683</ele>
        <time>2015-11-05T11:04:08Z</time>
      </trkpt>
      <trkpt lat="45.39577" lon="5.90697">
        <ele>1545.780786683</ele>
        <time>2015-11-05T11:04:13Z</time>
      </trkpt>
      <trkpt lat="45.39583" lon="5.90707">
        <ele>1546.314763892</ele>
        <time>2015-11-05T11:04:23Z</time>
      </trkpt>
      <trkpt lat="45.39587" lon="5.90709">
        <ele>1546.314763892</ele>
        <time>2015-11-05T11:04:29Z</time>
      </trkpt>
      <trkpt lat="45.39598" lon="5.90711">
        <ele>1546.661694075</ele>
        <time>2015-11-05T11:04:38Z</time>
      </trkpt>
      <trkpt lat="45.39601" lon="5.90714">
        <ele>1546.661694075</ele>
        <time>2015-11-05T11:04:43Z</time>
      </trkpt>
      <trkpt lat="45.39617" lon="5.90728">
        <ele>1546.83605947</ele>
        <time>2015-11-05T11:04:58Z</time>
      </trkpt>
      <trkpt lat="45.39621" lon="5.90731">
        <ele>1546.83605947</ele>
        <time>2015-11-05T11:05:03Z</time>
      </trkpt>
      <trkpt lat="45.39627" lon="5.90739">
        <ele>1546.563416591</ele>
        <time>2015-11-05T11:05:13Z</time>
      </trkpt>
      <trkpt lat="45.39628" lon="5.9074">
        <ele>1546.563416591</ele>
        <time>2015-11-05T11:05:18Z</time>
      </trkpt>
      <trkpt lat="45.39634" lon="5.90739">
        <ele>1546.563416591</ele>
        <time>2015-11-05T11:05:28Z</time>
      </trkpt>
      <trkpt lat="45.39635" lon="5.90739">
        <ele>1546.563416591</ele>
        <time>2015-11-05T11:05:33Z</time>
      </trkpt>
      <trkpt lat="45.39641" lon="5.90734">
        <ele>1546.022951358</ele>
        <time>2015-11-05T11:05:43Z</time>
      </trkpt>
      <trkpt lat="45.39646" lon="5.90734">
        <ele>1546.022951358</ele>
        <time>2015-11-05T11:05:48Z</time>
      </trkpt>
      <trkpt lat="45.39652" lon="5.90735">
        <ele>1545.237211153</ele>
        <time>2015-11-05T11:05:58Z</time>
      </trkpt>
      <trkpt lat="45.39652" lon="5.90735">
        <ele>1545.237211153</ele>
        <time>2015-11-05T11:06:03Z</time>
      </trkpt>
      <trkpt lat="45.3966" lon="5.90735">
        <ele>1545.237211153</ele>
        <time>2015-11-05T11:06:14Z</time>
      </trkpt>
      <trkpt lat="45.39663" lon="5.90734">
        <ele>1544.804105477</ele>
        <time>2015-11-05T11:06:17Z</time>
      </trkpt>
      <trkpt lat="45.39667" lon="5.90729">
        <ele>1544.804105477</ele>
        <time>2015-11-05T11:06:28Z</time>
      </trkpt>
      <trkpt lat="45.3967" lon="5.90728">
        <ele>1544.804105477</ele>
        <time>2015-11-05T11:06:33Z</time>
      </trkpt>
      <trkpt lat="45.39673" lon="5.90729">
        <ele>1544.123629003</ele>
        <time>2015-11-05T11:06:43Z</time>
      </trkpt>
      <trkpt lat="45.3968" lon="5.90728">
        <ele>1544.123629003</ele>
        <time>2015-11-05T11:06:48Z</time>
      </trkpt>
      <trkpt lat="45.3968" lon="5.90728">
        <ele>1544.123629003</ele>
        <time>2015-11-05T11:06:57Z</time>
      </trkpt>
      <trkpt lat="45.39681" lon="5.90728">
        <ele>1544.123629003</ele>
        <time>2015-11-05T11:07:02Z</time>
      </trkpt>
      <trkpt lat="45.39681" lon="5.90728">
        <ele>1544.123629003</ele>
        <time>2015-11-05T11:07:07Z</time>
      </trkpt>
      <trkpt lat="45.39681" lon="5.90728">
        <ele>1544.123629003</ele>
        <time>2015-11-05T11:07:12Z</time>
      </trkpt>
      <trkpt lat="45.39681" lon="5.90728">
        <ele>1544.123629003</ele>
        <time>2015-11-05T11:07:17Z</time>
      </trkpt>
      <trkpt lat="45.39681" lon="5.90728">
        <ele>1544.123629003</ele>
        <time>2015-11-05T11:07:22Z</time>
      </trkpt>
      <trkpt lat="45.39681" lon="5.90728">
        <ele>1544.123629003</ele>
        <time>2015-11-05T11:07:27Z</time>
      </trkpt>
      <trkpt lat="45.39681" lon="5.90728">
        <ele>1544.123629003</ele>
        <time>2015-11-05T11:07:32Z</time>
      </trkpt>
      <trkpt lat="45.39681" lon="5.90728">
        <ele>1544.123629003</ele>
        <time>2015-11-05T11:07:37Z</time>
      </trkpt>
      <trkpt lat="45.39681" lon="5.90728">
        <ele>1544.123629003</ele>
        <time>2015-11-05T11:07:42Z</time>
      </trkpt>
      <trkpt lat="45.39681" lon="5.90728">
        <ele>1544.123629003</ele>
        <time>2015-11-05T11:07:47Z</time>
      </trkpt>
      <trkpt lat="45.39691" lon="5.90721">
        <ele>1543.505099327</ele>
        <time>2015-11-05T11:07:58Z</time>
      </trkpt>
      <trkpt lat="45.39695" lon="5.90718">
        <ele>1543.505099327</ele>
        <time>2015-11-05T11:08:03Z</time>
      </trkpt>
      <trkpt lat="45.39698" lon="5.90716">
        <ele>1543.505099327</ele>
        <time>2015-11-05T11:08:13Z</time>
      </trkpt>
      <trkpt lat="45.39702" lon="5.90716">
        <ele>1542.514267825</ele>
        <time>2015-11-05T11:08:18Z</time>
      </trkpt>
      <trkpt lat="45.39713" lon="5.90721">
        <ele>1541.037936834</ele>
        <time>2015-11-05T11:08:28Z</time>
      </trkpt>
      <trkpt lat="45.39712" lon="5.9072">
        <ele>1541.037936834</ele>
        <time>2015-11-05T11:08:33Z</time>
      </trkpt>
      <trkpt lat="45.39723" lon="5.90725">
        <ele>1539.548912983</ele>
        <time>2015-11-05T11:08:43Z</time>
      </trkpt>
      <trkpt lat="45.39726" lon="5.90729">
        <ele>1539.548912983</ele>
        <time>2015-11-05T11:08:48Z</time>
      </trkpt>
      <trkpt lat="45.39735" lon="5.9073">
        <ele>1537.908740228</ele>
        <time>2015-11-05T11:09:03Z</time>
      </trkpt>
      <trkpt lat="45.39737" lon="5.90727">
        <ele>1537.908740228</ele>
        <time>2015-11-05T11:09:08Z</time>
      </trkpt>
      <trkpt lat="45.39742" lon="5.90725">
        <ele>1537.908740228</ele>
        <time>2015-11-05T11:09:18Z</time>
      </trkpt>
      <trkpt lat="45.39744" lon="5.90725">
        <ele>1536.709987737</ele>
        <time>2015-11-05T11:09:23Z</time>
      </trkpt>
      <trkpt lat="45.39749" lon="5.90727">
        <ele>1536.709987737</ele>
        <time>2015-11-05T11:09:33Z</time>
      </trkpt>
      <trkpt lat="45.39754" lon="5.90726">
        <ele>1535.491549104</ele>
        <time>2015-11-05T11:09:38Z</time>
      </trkpt>
      <trkpt lat="45.39759" lon="5.90728">
        <ele>1535.491549104</ele>
        <time>2015-11-05T11:09:48Z</time>
      </trkpt>
      <trkpt lat="45.39766" lon="5.9073">
        <ele>1533.826113136</ele>
        <time>2015-11-05T11:09:54Z</time>
      </trkpt>
      <trkpt lat="45.39775" lon="5.9073">
        <ele>1531.462987342</ele>
        <time>2015-11-05T11:10:03Z</time>
      </trkpt>
      <trkpt lat="45.39779" lon="5.90732">
        <ele>1531.462987342</ele>
        <time>2015-11-05T11:10:08Z</time>
      </trkpt>
      <trkpt lat="45.39788" lon="5.9073">
        <ele>1529.901046695</ele>
        <time>2015-11-05T11:10:18Z</time>
      </trkpt>
      <trkpt lat="45.39793" lon="5.90729">
        <ele>1529.901046695</ele>
        <time>2015-11-05T11:10:23Z</time>
      </trkpt>
      <trkpt lat="45.39798" lon="5.9073">
        <ele>1527.932667291</ele>
        <time>2015-11-05T11:10:34Z</time>
      </trkpt>
      <trkpt lat="45.39802" lon="5.90729">
        <ele>1527.932667291</ele>
        <time>2015-11-05T11:10:38Z</time>
      </trkpt>
      <trkpt lat="45.39806" lon="5.90732">
        <ele>1527.932667291</ele>
        <time>2015-11-05T11:10:48Z</time>
      </trkpt>
      <trkpt lat="45.39808" lon="5.90731">
        <ele>1525.448705689</ele>
        <time>2015-11-05T11:10:53Z</time>
      </trkpt>
      <trkpt lat="45.39824" lon="5.90723">
        <ele>1523.0698838</ele>
        <time>2015-11-05T11:11:08Z</time>
      </trkpt>
      <trkpt lat="45.39824" lon="5.90724">
        <ele>1523.0698838</ele>
        <time>2015-11-05T11:11:13Z</time>
      </trkpt>
      <trkpt lat="45.39834" lon="5.90726">
        <ele>1520.650315378</ele>
        <time>2015-11-05T11:11:23Z</time>
      </trkpt>
      <trkpt lat="45.3984" lon="5.90727">
        <ele>1520.650315378</ele>
        <time>2015-11-05T11:11:28Z</time>
      </trkpt>
      <trkpt lat="45.39846" lon="5.90733">
        <ele>1518.775336848</ele>
        <time>2015-11-05T11:11:38Z</time>
      </trkpt>
      <trkpt lat="45.39848" lon="5.90737">
        <ele>1518.775336848</ele>
        <time>2015-11-05T11:11:43Z</time>
      </trkpt>
      <trkpt lat="45.39854" lon="5.90741">
        <ele>1517.40914681</ele>
        <time>2015-11-05T11:11:53Z</time>
      </trkpt>
      <trkpt lat="45.39859" lon="5.90742">
        <ele>1517.40914681</ele>
        <time>2015-11-05T11:11:58Z</time>
      </trkpt>
      <trkpt lat="45.39867" lon="5.90741">
        <ele>1515.940534517</ele>
        <time>2015-11-05T11:12:08Z</time>
      </trkpt>
      <trkpt lat="45.39872" lon="5.90742">
        <ele>1515.940534517</ele>
        <time>2015-11-05T11:12:13Z</time>
      </trkpt>
      <trkpt lat="45.39881" lon="5.9074">
        <ele>1515.100312092</ele>
        <time>2015-11-05T11:12:23Z</time>
      </trkpt>
      <trkpt lat="45.39884" lon="5.9074">
        <ele>1515.100312092</ele>
        <time>2015-11-05T11:12:28Z</time>
      </trkpt>
      <trkpt lat="45.39893" lon="5.90741">
        <ele>1514.554907861</ele>
        <time>2015-11-05T11:12:38Z</time>
      </trkpt>
      <trkpt lat="45.39894" lon="5.9074">
        <ele>1514.554907861</ele>
        <time>2015-11-05T11:12:44Z</time>
      </trkpt>
      <trkpt lat="45.39895" lon="5.90741">
        <ele>1514.554907861</ele>
        <time>2015-11-05T11:12:52Z</time>
      </trkpt>
      <trkpt lat="45.39895" lon="5.90741">
        <ele>1514.554907861</ele>
        <time>2015-11-05T11:12:57Z</time>
      </trkpt>
      <trkpt lat="45.39894" lon="5.90741">
        <ele>1514.554907861</ele>
        <time>2015-11-05T11:13:03Z</time>
      </trkpt>
      <trkpt lat="45.39893" lon="5.9074">
        <ele>1514.554907861</ele>
        <time>2015-11-05T11:13:08Z</time>
      </trkpt>
      <trkpt lat="45.39901" lon="5.90738">
        <ele>1515.003057701</ele>
        <time>2015-11-05T11:13:18Z</time>
      </trkpt>
      <trkpt lat="45.39907" lon="5.90743">
        <ele>1515.003057701</ele>
        <time>2015-11-05T11:13:23Z</time>
      </trkpt>
      <trkpt lat="45.39915" lon="5.90747">
        <ele>1514.207021476</ele>
        <time>2015-11-05T11:13:33Z</time>
      </trkpt>
      <trkpt lat="45.39919" lon="5.90745">
        <ele>1514.207021476</ele>
        <time>2015-11-05T11:13:38Z</time>
      </trkpt>
      <trkpt lat="45.39925" lon="5.90745">
        <ele>1513.411364725</ele>
        <time>2015-11-05T11:13:48Z</time>
      </trkpt>
      <trkpt lat="45.39929" lon="5.90744">
        <ele>1513.411364725</ele>
        <time>2015-11-05T11:13:54Z</time>
      </trkpt>
      <trkpt lat="45.39939" lon="5.90744">
        <ele>1513.048558726</ele>
        <time>2015-11-05T11:14:03Z</time>
      </trkpt>
      <trkpt lat="45.39943" lon="5.90744">
        <ele>1513.048558726</ele>
        <time>2015-11-05T11:14:08Z</time>
      </trkpt>
      <trkpt lat="45.39954" lon="5.90748">
        <ele>1512.220988866</ele>
        <time>2015-11-05T11:14:19Z</time>
      </trkpt>
      <trkpt lat="45.39958" lon="5.90749">
        <ele>1512.220988866</ele>
        <time>2015-11-05T11:14:23Z</time>
      </trkpt>
      <trkpt lat="45.39968" lon="5.90751">
        <ele>1510.674632334</ele>
        <time>2015-11-05T11:14:38Z</time>
      </trkpt>
      <trkpt lat="45.39973" lon="5.9075">
        <ele>1510.674632334</ele>
        <time>2015-11-05T11:14:43Z</time>
      </trkpt>
      <trkpt lat="45.39983" lon="5.90751">
        <ele>1509.473055102</ele>
        <time>2015-11-05T11:14:53Z</time>
      </trkpt>
      <trkpt lat="45.39986" lon="5.90749">
        <ele>1509.473055102</ele>
        <time>2015-11-05T11:14:58Z</time>
      </trkpt>
      <trkpt lat="45.39994" lon="5.90753">
        <ele>1508.735977167</ele>
        <time>2015-11-05T11:15:08Z</time>
      </trkpt>
      <trkpt lat="45.39997" lon="5.90754">
        <ele>1508.735977167</ele>
        <time>2015-11-05T11:15:13Z</time>
      </trkpt>
      <trkpt lat="45.40002" lon="5.90759">
        <ele>1507.564163877</ele>
        <time>2015-11-05T11:15:23Z</time>
      </trkpt>
      <trkpt lat="45.40006" lon="5.90759">
        <ele>1507.564163877</ele>
        <time>2015-11-05T11:15:28Z</time>
      </trkpt>
      <trkpt lat="45.40013" lon="5.90765">
        <ele>1506.278471663</ele>
        <time>2015-11-05T11:15:38Z</time>
      </trkpt>
      <trkpt lat="45.40019" lon="5.90768">
        <ele>1506.278471663</ele>
        <time>2015-11-05T11:15:43Z</time>
      </trkpt>
      <trkpt lat="45.40027" lon="5.90767">
        <ele>1504.599990168</ele>
        <time>2015-11-05T11:15:53Z</time>
      </trkpt>
      <trkpt lat="45.40029" lon="5.90769">
        <ele>1504.599990168</ele>
        <time>2015-11-05T11:15:58Z</time>
      </trkpt>
      <trkpt lat="45.40037" lon="5.90772">
        <ele>1502.559551923</ele>
        <time>2015-11-05T11:16:08Z</time>
      </trkpt>
      <trkpt lat="45.40043" lon="5.90774">
        <ele>1502.559551923</ele>
        <time>2015-11-05T11:16:13Z</time>
      </trkpt>
      <trkpt lat="45.4005" lon="5.9077">
        <ele>1500.763114779</ele>
        <time>2015-11-05T11:16:23Z</time>
      </trkpt>
      <trkpt lat="45.40058" lon="5.90773">
        <ele>1500.763114779</ele>
        <time>2015-11-05T11:16:28Z</time>
      </trkpt>
      <trkpt lat="45.40068" lon="5.90774">
        <ele>1498.762589436</ele>
        <time>2015-11-05T11:16:38Z</time>
      </trkpt>
      <trkpt lat="45.40072" lon="5.90779">
        <ele>1498.762589436</ele>
        <time>2015-11-05T11:16:43Z</time>
      </trkpt>
      <trkpt lat="45.40084" lon="5.90785">
        <ele>1496.863858235</ele>
        <time>2015-11-05T11:16:58Z</time>
      </trkpt>
      <trkpt lat="45.4009" lon="5.90787">
        <ele>1496.863858235</ele>
        <time>2015-11-05T11:17:03Z</time>
      </trkpt>
      <trkpt lat="45.40092" lon="5.90805">
        <ele>1493.764748171</ele>
        <time>2015-11-05T11:17:14Z</time>
      </trkpt>
      <trkpt lat="45.40095" lon="5.90806">
        <ele>1493.764748171</ele>
        <time>2015-11-05T11:17:18Z</time>
      </trkpt>
      <trkpt lat="45.40101" lon="5.9081">
        <ele>1491.432475633</ele>
        <time>2015-11-05T11:17:28Z</time>
      </trkpt>
      <trkpt lat="45.40106" lon="5.90812">
        <ele>1491.432475633</ele>
        <time>2015-11-05T11:17:32Z</time>
      </trkpt>
      <trkpt lat="45.40117" lon="5.90817">
        <ele>1490.102289077</ele>
        <time>2015-11-05T11:17:43Z</time>
      </trkpt>
      <trkpt lat="45.4012" lon="5.9082">
        <ele>1490.102289077</ele>
        <time>2015-11-05T11:17:48Z</time>
      </trkpt>
      <trkpt lat="45.40126" lon="5.90823">
        <ele>1488.692258963</ele>
        <time>2015-11-05T11:17:58Z</time>
      </trkpt>
      <trkpt lat="45.40127" lon="5.90824">
        <ele>1488.692258963</ele>
        <time>2015-11-05T11:18:03Z</time>
      </trkpt>
      <trkpt lat="45.40136" lon="5.9083">
        <ele>1486.920628163</ele>
        <time>2015-11-05T11:18:13Z</time>
      </trkpt>
      <trkpt lat="45.40142" lon="5.90832">
        <ele>1486.920628163</ele>
        <time>2015-11-05T11:18:18Z</time>
      </trkpt>
      <trkpt lat="45.40147" lon="5.90836">
        <ele>1485.391936246</ele>
        <time>2015-11-05T11:18:23Z</time>
      </trkpt>
      <trkpt lat="45.40152" lon="5.90838">
        <ele>1485.391936246</ele>
        <time>2015-11-05T11:18:32Z</time>
      </trkpt>
      <trkpt lat="45.40155" lon="5.90841">
        <ele>1485.391936246</ele>
        <time>2015-11-05T11:18:38Z</time>
      </trkpt>
      <trkpt lat="45.40166" lon="5.90844">
        <ele>1483.368552092</ele>
        <time>2015-11-05T11:18:48Z</time>
      </trkpt>
      <trkpt lat="45.40169" lon="5.90847">
        <ele>1483.368552092</ele>
        <time>2015-11-05T11:18:53Z</time>
      </trkpt>
      <trkpt lat="45.4018" lon="5.90854">
        <ele>1481.03300708</ele>
        <time>2015-11-05T11:19:03Z</time>
      </trkpt>
      <trkpt lat="45.40184" lon="5.90857">
        <ele>1481.03300708</ele>
        <time>2015-11-05T11:19:08Z</time>
      </trkpt>
      <trkpt lat="45.40193" lon="5.90864">
        <ele>1478.555221218</ele>
        <time>2015-11-05T11:19:18Z</time>
      </trkpt>
      <trkpt lat="45.40197" lon="5.90867">
        <ele>1478.555221218</ele>
        <time>2015-11-05T11:19:23Z</time>
      </trkpt>
      <trkpt lat="45.40203" lon="5.90867">
        <ele>1476.381174312</ele>
        <time>2015-11-05T11:19:33Z</time>
      </trkpt>
      <trkpt lat="45.40207" lon="5.90866">
        <ele>1476.381174312</ele>
        <time>2015-11-05T11:19:38Z</time>
      </trkpt>
      <trkpt lat="45.40217" lon="5.90872">
        <ele>1474.634929954</ele>
        <time>2015-11-05T11:19:48Z</time>
      </trkpt>
      <trkpt lat="45.4022" lon="5.90879">
        <ele>1474.634929954</ele>
        <time>2015-11-05T11:19:53Z</time>
      </trkpt>
      <trkpt lat="45.40234" lon="5.90889">
        <ele>1472.709601222</ele>
        <time>2015-11-05T11:20:08Z</time>
      </trkpt>
      <trkpt lat="45.40248" lon="5.90895">
        <ele>1471.484417883</ele>
        <time>2015-11-05T11:20:23Z</time>
      </trkpt>
      <trkpt lat="45.40252" lon="5.90901">
        <ele>1471.484417883</ele>
        <time>2015-11-05T11:20:28Z</time>
      </trkpt>
      <trkpt lat="45.40259" lon="5.90912">
        <ele>1469.898537114</ele>
        <time>2015-11-05T11:20:38Z</time>
      </trkpt>
      <trkpt lat="45.40263" lon="5.90915">
        <ele>1469.898537114</ele>
        <time>2015-11-05T11:20:43Z</time>
      </trkpt>
      <trkpt lat="45.4027" lon="5.90919">
        <ele>1469.419877455</ele>
        <time>2015-11-05T11:20:53Z</time>
      </trkpt>
      <trkpt lat="45.40274" lon="5.90921">
        <ele>1469.419877455</ele>
        <time>2015-11-05T11:20:58Z</time>
      </trkpt>
      <trkpt lat="45.40282" lon="5.90929">
        <ele>1468.379022244</ele>
        <time>2015-11-05T11:21:08Z</time>
      </trkpt>
      <trkpt lat="45.40287" lon="5.90931">
        <ele>1468.379022244</ele>
        <time>2015-11-05T11:21:13Z</time>
      </trkpt>
      <trkpt lat="45.40295" lon="5.90934">
        <ele>1467.96882582</ele>
        <time>2015-11-05T11:21:23Z</time>
      </trkpt>
      <trkpt lat="45.40296" lon="5.90936">
        <ele>1467.96882582</ele>
        <time>2015-11-05T11:21:28Z</time>
      </trkpt>
      <trkpt lat="45.40304" lon="5.90939">
        <ele>1467.851593522</ele>
        <time>2015-11-05T11:21:38Z</time>
      </trkpt>
      <trkpt lat="45.40308" lon="5.90944">
        <ele>1467.851593522</ele>
        <time>2015-11-05T11:21:42Z</time>
      </trkpt>
      <trkpt lat="45.40318" lon="5.90953">
        <ele>1467.425363301</ele>
        <time>2015-11-05T11:21:53Z</time>
      </trkpt>
      <trkpt lat="45.40321" lon="5.90957">
        <ele>1467.425363301</ele>
        <time>2015-11-05T11:21:58Z</time>
      </trkpt>
      <trkpt lat="45.40335" lon="5.90963">
        <ele>1466.709685419</ele>
        <time>2015-11-05T11:22:14Z</time>
      </trkpt>
      <trkpt lat="45.40339" lon="5.90962">
        <ele>1466.709685419</ele>
        <time>2015-11-05T11:22:18Z</time>
      </trkpt>
      <trkpt lat="45.40348" lon="5.90972">
        <ele>1466.15581151</ele>
        <time>2015-11-05T11:22:28Z</time>
      </trkpt>
      <trkpt lat="45.40352" lon="5.90975">
        <ele>1466.15581151</ele>
        <time>2015-11-05T11:22:33Z</time>
      </trkpt>
      <trkpt lat="45.40359" lon="5.90981">
        <ele>1466.03728184</ele>
        <time>2015-11-05T11:22:43Z</time>
      </trkpt>
      <trkpt lat="45.40366" lon="5.90985">
        <ele>1466.03728184</ele>
        <time>2015-11-05T11:22:48Z</time>
      </trkpt>
      <trkpt lat="45.40373" lon="5.90989">
        <ele>1466.750445767</ele>
        <time>2015-11-05T11:22:58Z</time>
      </trkpt>
      <trkpt lat="45.40374" lon="5.90989">
        <ele>1466.750445767</ele>
        <time>2015-11-05T11:23:03Z</time>
      </trkpt>
      <trkpt lat="45.40379" lon="5.90994">
        <ele>1466.750445767</ele>
        <time>2015-11-05T11:23:13Z</time>
      </trkpt>
      <trkpt lat="45.40383" lon="5.90998">
        <ele>1467.507339944</ele>
        <time>2015-11-05T11:23:18Z</time>
      </trkpt>
      <trkpt lat="45.40386" lon="5.91001">
        <ele>1467.507339944</ele>
        <time>2015-11-05T11:23:28Z</time>
      </trkpt>
      <trkpt lat="45.40387" lon="5.91003">
        <ele>1467.507339944</ele>
        <time>2015-11-05T11:23:33Z</time>
      </trkpt>
      <trkpt lat="45.40394" lon="5.91015">
        <ele>1467.721911184</ele>
        <time>2015-11-05T11:23:48Z</time>
      </trkpt>
      <trkpt lat="45.404" lon="5.91015">
        <ele>1467.721911184</ele>
        <time>2015-11-05T11:23:58Z</time>
      </trkpt>
      <trkpt lat="45.40403" lon="5.91017">
        <ele>1467.721911184</ele>
        <time>2015-11-05T11:24:03Z</time>
      </trkpt>
      <trkpt lat="45.40406" lon="5.91018">
        <ele>1469.158511414</ele>
        <time>2015-11-05T11:24:18Z</time>
      </trkpt>
      <trkpt lat="45.40409" lon="5.91017">
        <ele>1469.158511414</ele>
        <time>2015-11-05T11:24:23Z</time>
      </trkpt>
      <trkpt lat="45.4041" lon="5.91016">
        <ele>1469.158511414</ele>
        <time>2015-11-05T11:24:33Z</time>
      </trkpt>
      <trkpt lat="45.40411" lon="5.91014">
        <ele>1469.158511414</ele>
        <time>2015-11-05T11:24:38Z</time>
      </trkpt>
      <trkpt lat="45.40418" lon="5.91014">
        <ele>1470.566302722</ele>
        <time>2015-11-05T11:24:48Z</time>
      </trkpt>
      <trkpt lat="45.40421" lon="5.91011">
        <ele>1470.566302722</ele>
        <time>2015-11-05T11:24:54Z</time>
      </trkpt>
      <trkpt lat="45.40432" lon="5.91007">
        <ele>1471.218831895</ele>
        <time>2015-11-05T11:25:03Z</time>
      </trkpt>
      <trkpt lat="45.40433" lon="5.91005">
        <ele>1471.218831895</ele>
        <time>2015-11-05T11:25:08Z</time>
      </trkpt>
      <trkpt lat="45.40435" lon="5.91003">
        <ele>1471.218831895</ele>
        <time>2015-11-05T11:25:18Z</time>
      </trkpt>
      <trkpt lat="45.40436" lon="5.91001">
        <ele>1471.218831895</ele>
        <time>2015-11-05T11:25:23Z</time>
      </trkpt>
      <trkpt lat="45.40439" lon="5.91001">
        <ele>1471.218831895</ele>
        <time>2015-11-05T11:25:33Z</time>
      </trkpt>
      <trkpt lat="45.40441" lon="5.91001">
        <ele>1471.021670938</ele>
        <time>2015-11-05T11:25:38Z</time>
      </trkpt>
      <trkpt lat="45.40445" lon="5.90999">
        <ele>1471.021670938</ele>
        <time>2015-11-05T11:25:48Z</time>
      </trkpt>
      <trkpt lat="45.40445" lon="5.90994">
        <ele>1471.021670938</ele>
        <time>2015-11-05T11:25:53Z</time>
      </trkpt>
      <trkpt lat="45.40449" lon="5.90988">
        <ele>1469.889817587</ele>
        <time>2015-11-05T11:26:08Z</time>
      </trkpt>
      <trkpt lat="45.4045" lon="5.90988">
        <ele>1469.889817587</ele>
        <time>2015-11-05T11:26:13Z</time>
      </trkpt>
      <trkpt lat="45.40452" lon="5.90988">
        <ele>1469.889817587</ele>
        <time>2015-11-05T11:26:23Z</time>
      </trkpt>
      <trkpt lat="45.40453" lon="5.90988">
        <ele>1469.889817587</ele>
        <time>2015-11-05T11:26:28Z</time>
      </trkpt>
      <trkpt lat="45.40458" lon="5.90987">
        <ele>1469.889817587</ele>
        <time>2015-11-05T11:26:38Z</time>
      </trkpt>
      <trkpt lat="45.4046" lon="5.90984">
        <ele>1469.332468149</ele>
        <time>2015-11-05T11:26:42Z</time>
      </trkpt>
      <trkpt lat="45.40465" lon="5.90985">
        <ele>1469.332468149</ele>
        <time>2015-11-05T11:26:53Z</time>
      </trkpt>
      <trkpt lat="45.40469" lon="5.90985">
        <ele>1468.584783676</ele>
        <time>2015-11-05T11:26:58Z</time>
      </trkpt>
      <trkpt lat="45.40478" lon="5.90982">
        <ele>1468.584783676</ele>
        <time>2015-11-05T11:27:08Z</time>
      </trkpt>
      <trkpt lat="45.40478" lon="5.90982">
        <ele>1467.659304644</ele>
        <time>2015-11-05T11:27:14Z</time>
      </trkpt>
      <trkpt lat="45.40483" lon="5.90978">
        <ele>1467.659304644</ele>
        <time>2015-11-05T11:27:23Z</time>
      </trkpt>
      <trkpt lat="45.40483" lon="5.90971">
        <ele>1466.280026657</ele>
        <time>2015-11-05T11:27:28Z</time>
      </trkpt>
      <trkpt lat="45.40483" lon="5.90968">
        <ele>1466.280026657</ele>
        <time>2015-11-05T11:27:38Z</time>
      </trkpt>
      <trkpt lat="45.40485" lon="5.90961">
        <ele>1466.280026657</ele>
        <time>2015-11-05T11:27:42Z</time>
      </trkpt>
      <trkpt lat="45.40493" lon="5.90949">
        <ele>1464.769032204</ele>
        <time>2015-11-05T11:27:53Z</time>
      </trkpt>
      <trkpt lat="45.40495" lon="5.90948">
        <ele>1464.769032204</ele>
        <time>2015-11-05T11:27:58Z</time>
      </trkpt>
      <trkpt lat="45.40497" lon="5.90944">
        <ele>1464.769032204</ele>
        <time>2015-11-05T11:28:08Z</time>
      </trkpt>
      <trkpt lat="45.40498" lon="5.90942">
        <ele>1464.769032204</ele>
        <time>2015-11-05T11:28:13Z</time>
      </trkpt>
      <trkpt lat="45.40497" lon="5.9094">
        <ele>1464.769032204</ele>
        <time>2015-11-05T11:28:18Z</time>
      </trkpt>
      <trkpt lat="45.40499" lon="5.9094">
        <ele>1462.560531743</ele>
        <time>2015-11-05T11:28:28Z</time>
      </trkpt>
      <trkpt lat="45.40499" lon="5.90939">
        <ele>1462.560531743</ele>
        <time>2015-11-05T11:28:33Z</time>
      </trkpt>
      <trkpt lat="45.40505" lon="5.90931">
        <ele>1460.861664768</ele>
        <time>2015-11-05T11:28:43Z</time>
      </trkpt>
      <trkpt lat="45.40508" lon="5.90935">
        <ele>1460.861664768</ele>
        <time>2015-11-05T11:28:48Z</time>
      </trkpt>
      <trkpt lat="45.40509" lon="5.90936">
        <ele>1460.861664768</ele>
        <time>2015-11-05T11:28:58Z</time>
      </trkpt>
      <trkpt lat="45.40509" lon="5.90937">
        <ele>1460.861664768</ele>
        <time>2015-11-05T11:29:03Z</time>
      </trkpt>
      <trkpt lat="45.40511" lon="5.90935">
        <ele>1460.861664768</ele>
        <time>2015-11-05T11:29:07Z</time>
      </trkpt>
      <trkpt lat="45.4051" lon="5.90936">
        <ele>1460.861664768</ele>
        <time>2015-11-05T11:29:12Z</time>
      </trkpt>
      <trkpt lat="45.4051" lon="5.90936">
        <ele>1460.861664768</ele>
        <time>2015-11-05T11:29:17Z</time>
      </trkpt>
      <trkpt lat="45.4051" lon="5.90936">
        <ele>1460.861664768</ele>
        <time>2015-11-05T11:29:23Z</time>
      </trkpt>
      <trkpt lat="45.4051" lon="5.90936">
        <ele>1460.861664768</ele>
        <time>2015-11-05T11:29:28Z</time>
      </trkpt>
      <trkpt lat="45.4051" lon="5.90936">
        <ele>1460.861664768</ele>
        <time>2015-11-05T11:29:32Z</time>
      </trkpt>
      <trkpt lat="45.40511" lon="5.90935">
        <ele>1458.195527629</ele>
        <time>2015-11-05T11:29:37Z</time>
      </trkpt>
      <trkpt lat="45.40515" lon="5.90929">
        <ele>1458.195527629</ele>
        <time>2015-11-05T11:29:42Z</time>
      </trkpt>
      <trkpt lat="45.4052" lon="5.90928">
        <ele>1455.79047381</ele>
        <time>2015-11-05T11:29:47Z</time>
      </trkpt>
      <trkpt lat="45.4052" lon="5.90927">
        <ele>1455.79047381</ele>
        <time>2015-11-05T11:29:52Z</time>
      </trkpt>
      <trkpt lat="45.40523" lon="5.90924">
        <ele>1455.79047381</ele>
        <time>2015-11-05T11:29:57Z</time>
      </trkpt>
      <trkpt lat="45.40528" lon="5.90924">
        <ele>1455.79047381</ele>
        <time>2015-11-05T11:30:02Z</time>
      </trkpt>
      <trkpt lat="45.40531" lon="5.90921">
        <ele>1453.919260557</ele>
        <time>2015-11-05T11:30:07Z</time>
      </trkpt>
      <trkpt lat="45.40533" lon="5.90919">
        <ele>1453.919260557</ele>
        <time>2015-11-05T11:30:12Z</time>
      </trkpt>
      <trkpt lat="45.40538" lon="5.9092">
        <ele>1453.919260557</ele>
        <time>2015-11-05T11:30:17Z</time>
      </trkpt>
      <trkpt lat="45.40542" lon="5.9092">
        <ele>1452.112580529</ele>
        <time>2015-11-05T11:30:22Z</time>
      </trkpt>
      <trkpt lat="45.40542" lon="5.9092">
        <ele>1452.112580529</ele>
        <time>2015-11-05T11:30:27Z</time>
      </trkpt>
      <trkpt lat="45.40541" lon="5.90919">
        <ele>1452.112580529</ele>
        <time>2015-11-05T11:30:32Z</time>
      </trkpt>
      <trkpt lat="45.40542" lon="5.90919">
        <ele>1452.112580529</ele>
        <time>2015-11-05T11:30:37Z</time>
      </trkpt>
      <trkpt lat="45.40542" lon="5.90919">
        <ele>1452.112580529</ele>
        <time>2015-11-05T11:30:42Z</time>
      </trkpt>
      <trkpt lat="45.40542" lon="5.90919">
        <ele>1452.112580529</ele>
        <time>2015-11-05T11:30:47Z</time>
      </trkpt>
      <trkpt lat="45.40546" lon="5.9092">
        <ele>1452.112580529</ele>
        <time>2015-11-05T11:30:52Z</time>
      </trkpt>
      <trkpt lat="45.40544" lon="5.9092">
        <ele>1452.112580529</ele>
        <time>2015-11-05T11:30:57Z</time>
      </trkpt>
      <trkpt lat="45.40542" lon="5.90921">
        <ele>1449.935434491</ele>
        <time>2015-11-05T11:31:02Z</time>
      </trkpt>
      <trkpt lat="45.40542" lon="5.90919">
        <ele>1449.935434491</ele>
        <time>2015-11-05T11:31:07Z</time>
      </trkpt>
      <trkpt lat="45.40542" lon="5.9092">
        <ele>1449.935434491</ele>
        <time>2015-11-05T11:31:12Z</time>
      </trkpt>
      <trkpt lat="45.40542" lon="5.90919">
        <ele>1449.935434491</ele>
        <time>2015-11-05T11:31:17Z</time>
      </trkpt>
      <trkpt lat="45.40542" lon="5.90919">
        <ele>1449.935434491</ele>
        <time>2015-11-05T11:31:22Z</time>
      </trkpt>
      <trkpt lat="45.40542" lon="5.90919">
        <ele>1449.935434491</ele>
        <time>2015-11-05T11:31:27Z</time>
      </trkpt>
      <trkpt lat="45.40542" lon="5.90919">
        <ele>1449.935434491</ele>
        <time>2015-11-05T11:31:32Z</time>
      </trkpt>
      <trkpt lat="45.40544" lon="5.90921">
        <ele>1449.935434491</ele>
        <time>2015-11-05T11:31:37Z</time>
      </trkpt>
      <trkpt lat="45.40546" lon="5.90921">
        <ele>1449.935434491</ele>
        <time>2015-11-05T11:31:42Z</time>
      </trkpt>
      <trkpt lat="45.40546" lon="5.90921">
        <ele>1449.935434491</ele>
        <time>2015-11-05T11:31:47Z</time>
      </trkpt>
      <trkpt lat="45.40546" lon="5.90921">
        <ele>1449.935434491</ele>
        <time>2015-11-05T11:31:52Z</time>
      </trkpt>
      <trkpt lat="45.40546" lon="5.90921">
        <ele>1449.935434491</ele>
        <time>2015-11-05T11:31:57Z</time>
      </trkpt>
      <trkpt lat="45.40546" lon="5.90921">
        <ele>1449.935434491</ele>
        <time>2015-11-05T11:32:02Z</time>
      </trkpt>
      <trkpt lat="45.40546" lon="5.90921">
        <ele>1449.935434491</ele>
        <time>2015-11-05T11:32:07Z</time>
      </trkpt>
      <trkpt lat="45.40546" lon="5.90921">
        <ele>1449.935434491</ele>
        <time>2015-11-05T11:32:12Z</time>
      </trkpt>
      <trkpt lat="45.40546" lon="5.90921">
        <ele>1449.935434491</ele>
        <time>2015-11-05T11:32:17Z</time>
      </trkpt>
      <trkpt lat="45.40546" lon="5.90921">
        <ele>1449.935434491</ele>
        <time>2015-11-05T11:32:22Z</time>
      </trkpt>
      <trkpt lat="45.40546" lon="5.90921">
        <ele>1449.935434491</ele>
        <time>2015-11-05T11:32:27Z</time>
      </trkpt>
      <trkpt lat="45.40546" lon="5.90921">
        <ele>1449.935434491</ele>
        <time>2015-11-05T11:32:32Z</time>
      </trkpt>
      <trkpt lat="45.40546" lon="5.90921">
        <ele>1449.935434491</ele>
        <time>2015-11-05T11:32:37Z</time>
      </trkpt>
      <trkpt lat="45.40546" lon="5.90921">
        <ele>1449.935434491</ele>
        <time>2015-11-05T11:32:42Z</time>
      </trkpt>
      <trkpt lat="45.40546" lon="5.90921">
        <ele>1449.935434491</ele>
        <time>2015-11-05T11:32:47Z</time>
      </trkpt>
      <trkpt lat="45.40546" lon="5.90921">
        <ele>1449.935434491</ele>
        <time>2015-11-05T11:32:52Z</time>
      </trkpt>
      <trkpt lat="45.40546" lon="5.90921">
        <ele>1449.935434491</ele>
        <time>2015-11-05T11:32:57Z</time>
      </trkpt>
      <trkpt lat="45.40546" lon="5.90921">
        <ele>1449.935434491</ele>
        <time>2015-11-05T11:33:02Z</time>
      </trkpt>
      <trkpt lat="45.40546" lon="5.90921">
        <ele>1449.935434491</ele>
        <time>2015-11-05T11:33:07Z</time>
      </trkpt>
      <trkpt lat="45.40546" lon="5.90921">
        <ele>1449.935434491</ele>
        <time>2015-11-05T11:33:12Z</time>
      </trkpt>
      <trkpt lat="45.40546" lon="5.90921">
        <ele>1449.935434491</ele>
        <time>2015-11-05T11:33:17Z</time>
      </trkpt>
      <trkpt lat="45.40546" lon="5.90921">
        <ele>1449.935434491</ele>
        <time>2015-11-05T11:33:22Z</time>
      </trkpt>
      <trkpt lat="45.40546" lon="5.90921">
        <ele>1449.935434491</ele>
        <time>2015-11-05T11:33:27Z</time>
      </trkpt>
      <trkpt lat="45.40546" lon="5.90921">
        <ele>1449.935434491</ele>
        <time>2015-11-05T11:33:32Z</time>
      </trkpt>
      <trkpt lat="45.40546" lon="5.90921">
        <ele>1449.935434491</ele>
        <time>2015-11-05T11:33:37Z</time>
      </trkpt>
      <trkpt lat="45.40546" lon="5.90921">
        <ele>1449.935434491</ele>
        <time>2015-11-05T11:33:42Z</time>
      </trkpt>
      <trkpt lat="45.40546" lon="5.90921">
        <ele>1449.935434491</ele>
        <time>2015-11-05T11:33:47Z</time>
      </trkpt>
      <trkpt lat="45.40547" lon="5.90921">
        <ele>1449.935434491</ele>
        <time>2015-11-05T11:33:52Z</time>
      </trkpt>
      <trkpt lat="45.40547" lon="5.90921">
        <ele>1449.935434491</ele>
        <time>2015-11-05T11:33:57Z</time>
      </trkpt>
      <trkpt lat="45.40547" lon="5.90921">
        <ele>1449.935434491</ele>
        <time>2015-11-05T11:34:02Z</time>
      </trkpt>
      <trkpt lat="45.40547" lon="5.90921">
        <ele>1449.935434491</ele>
        <time>2015-11-05T11:34:07Z</time>
      </trkpt>
      <trkpt lat="45.40547" lon="5.90921">
        <ele>1449.935434491</ele>
        <time>2015-11-05T11:34:12Z</time>
      </trkpt>
      <trkpt lat="45.40547" lon="5.90921">
        <ele>1449.935434491</ele>
        <time>2015-11-05T11:34:17Z</time>
      </trkpt>
      <trkpt lat="45.40547" lon="5.90921">
        <ele>1449.935434491</ele>
        <time>2015-11-05T11:34:22Z</time>
      </trkpt>
      <trkpt lat="45.40547" lon="5.90921">
        <ele>1449.935434491</ele>
        <time>2015-11-05T11:34:27Z</time>
      </trkpt>
      <trkpt lat="45.40547" lon="5.90922">
        <ele>1449.935434491</ele>
        <time>2015-11-05T11:34:32Z</time>
      </trkpt>
      <trkpt lat="45.40547" lon="5.90922">
        <ele>1449.935434491</ele>
        <time>2015-11-05T11:34:48Z</time>
      </trkpt>
      <trkpt lat="45.40547" lon="5.90922">
        <ele>1449.935434491</ele>
        <time>2015-11-05T11:35:04Z</time>
      </trkpt>
      <trkpt lat="45.40547" lon="5.90922">
        <ele>1449.935434491</ele>
        <time>2015-11-05T11:35:08Z</time>
      </trkpt>
      <trkpt lat="45.40547" lon="5.90922">
        <ele>1449.935434491</ele>
        <time>2015-11-05T11:35:17Z</time>
      </trkpt>
      <trkpt lat="45.40547" lon="5.90922">
        <ele>1449.935434491</ele>
        <time>2015-11-05T11:35:23Z</time>
      </trkpt>
      <trkpt lat="45.40547" lon="5.90922">
        <ele>1449.935434491</ele>
        <time>2015-11-05T11:35:33Z</time>
      </trkpt>
      <trkpt lat="45.40547" lon="5.90922">
        <ele>1449.935434491</ele>
        <time>2015-11-05T11:35:38Z</time>
      </trkpt>
      <trkpt lat="45.40547" lon="5.90922">
        <ele>1449.935434491</ele>
        <time>2015-11-05T11:35:48Z</time>
      </trkpt>
      <trkpt lat="45.40547" lon="5.90922">
        <ele>1449.935434491</ele>
        <time>2015-11-05T11:35:53Z</time>
      </trkpt>
      <trkpt lat="45.40547" lon="5.90922">
        <ele>1449.935434491</ele>
        <time>2015-11-05T11:36:03Z</time>
      </trkpt>
      <trkpt lat="45.40547" lon="5.90922">
        <ele>1449.935434491</ele>
        <time>2015-11-05T11:36:08Z</time>
      </trkpt>
      <trkpt lat="45.40547" lon="5.90922">
        <ele>1449.935434491</ele>
        <time>2015-11-05T11:36:18Z</time>
      </trkpt>
      <trkpt lat="45.40547" lon="5.90922">
        <ele>1449.935434491</ele>
        <time>2015-11-05T11:36:23Z</time>
      </trkpt>
      <trkpt lat="45.40547" lon="5.90922">
        <ele>1449.935434491</ele>
        <time>2015-11-05T11:36:33Z</time>
      </trkpt>
      <trkpt lat="45.40547" lon="5.90922">
        <ele>1449.935434491</ele>
        <time>2015-11-05T11:36:38Z</time>
      </trkpt>
      <trkpt lat="45.40547" lon="5.90922">
        <ele>1449.935434491</ele>
        <time>2015-11-05T11:36:50Z</time>
      </trkpt>
      <trkpt lat="45.40547" lon="5.90922">
        <ele>1449.935434491</ele>
        <time>2015-11-05T11:36:50Z</time>
      </trkpt>
      <trkpt lat="45.40547" lon="5.90922">
        <ele>1449.935434491</ele>
        <time>2015-11-05T11:36:58Z</time>
      </trkpt>
      <trkpt lat="45.40547" lon="5.90922">
        <ele>1449.935434491</ele>
        <time>2015-11-05T11:37:17Z</time>
      </trkpt>
      <trkpt lat="45.40547" lon="5.90922">
        <ele>1449.935434491</ele>
        <time>2015-11-05T11:37:35Z</time>
      </trkpt>
      <trkpt lat="45.40547" lon="5.90922">
        <ele>1449.935434491</ele>
        <time>2015-11-05T11:37:50Z</time>
      </trkpt>
      <trkpt lat="45.40547" lon="5.90922">
        <ele>1449.935434491</ele>
        <time>2015-11-05T11:37:52Z</time>
      </trkpt>
      <trkpt lat="45.40545" lon="5.9093">
        <ele>1448.859269009</ele>
        <time>2015-11-05T11:38:08Z</time>
      </trkpt>
      <trkpt lat="45.40546" lon="5.90928">
        <ele>1448.859269009</ele>
        <time>2015-11-05T11:38:13Z</time>
      </trkpt>
      <trkpt lat="45.40549" lon="5.90925">
        <ele>1448.859269009</ele>
        <time>2015-11-05T11:38:23Z</time>
      </trkpt>
      <trkpt lat="45.40551" lon="5.90924">
        <ele>1448.859269009</ele>
        <time>2015-11-05T11:38:28Z</time>
      </trkpt>
      <trkpt lat="45.40552" lon="5.90923">
        <ele>1448.859269009</ele>
        <time>2015-11-05T11:38:38Z</time>
      </trkpt>
      <trkpt lat="45.40553" lon="5.90921">
        <ele>1448.082684674</ele>
        <time>2015-11-05T11:38:43Z</time>
      </trkpt>
      <trkpt lat="45.40553" lon="5.9092">
        <ele>1448.082684674</ele>
        <time>2015-11-05T11:38:53Z</time>
      </trkpt>
      <trkpt lat="45.40552" lon="5.90922">
        <ele>1448.082684674</ele>
        <time>2015-11-05T11:38:58Z</time>
      </trkpt>
      <trkpt lat="45.40554" lon="5.90923">
        <ele>1448.082684674</ele>
        <time>2015-11-05T11:39:08Z</time>
      </trkpt>
      <trkpt lat="45.40554" lon="5.90923">
        <ele>1448.082684674</ele>
        <time>2015-11-05T11:39:13Z</time>
      </trkpt>
      <trkpt lat="45.40553" lon="5.90923">
        <ele>1448.082684674</ele>
        <time>2015-11-05T11:39:23Z</time>
      </trkpt>
      <trkpt lat="45.40553" lon="5.90923">
        <ele>1448.082684674</ele>
        <time>2015-11-05T11:39:28Z</time>
      </trkpt>
      <trkpt lat="45.40553" lon="5.90923">
        <ele>1448.082684674</ele>
        <time>2015-11-05T11:39:44Z</time>
      </trkpt>
      <trkpt lat="45.40553" lon="5.90923">
        <ele>1448.082684674</ele>
        <time>2015-11-05T11:39:47Z</time>
      </trkpt>
      <trkpt lat="45.40553" lon="5.90923">
        <ele>1448.082684674</ele>
        <time>2015-11-05T11:39:58Z</time>
      </trkpt>
      <trkpt lat="45.40553" lon="5.90923">
        <ele>1448.082684674</ele>
        <time>2015-11-05T11:40:04Z</time>
      </trkpt>
      <trkpt lat="45.40554" lon="5.90924">
        <ele>1448.082684674</ele>
        <time>2015-11-05T11:40:13Z</time>
      </trkpt>
      <trkpt lat="45.40555" lon="5.90925">
        <ele>1448.082684674</ele>
        <time>2015-11-05T11:40:17Z</time>
      </trkpt>
      <trkpt lat="45.40554" lon="5.90925">
        <ele>1448.082684674</ele>
        <time>2015-11-05T11:40:33Z</time>
      </trkpt>
      <trkpt lat="45.40554" lon="5.90925">
        <ele>1448.082684674</ele>
        <time>2015-11-05T11:40:38Z</time>
      </trkpt>
      <trkpt lat="45.40554" lon="5.90925">
        <ele>1448.082684674</ele>
        <time>2015-11-05T11:40:48Z</time>
      </trkpt>
      <trkpt lat="45.40554" lon="5.90925">
        <ele>1448.082684674</ele>
        <time>2015-11-05T11:40:53Z</time>
      </trkpt>
      <trkpt lat="45.40553" lon="5.90927">
        <ele>1448.082684674</ele>
        <time>2015-11-05T11:41:03Z</time>
      </trkpt>
      <trkpt lat="45.40553" lon="5.90927">
        <ele>1448.082684674</ele>
        <time>2015-11-05T11:41:08Z</time>
      </trkpt>
      <trkpt lat="45.40553" lon="5.90926">
        <ele>1448.082684674</ele>
        <time>2015-11-05T11:41:18Z</time>
      </trkpt>
      <trkpt lat="45.40554" lon="5.90927">
        <ele>1447.871090346</ele>
        <time>2015-11-05T11:41:23Z</time>
      </trkpt>
      <trkpt lat="45.40553" lon="5.90926">
        <ele>1447.871090346</ele>
        <time>2015-11-05T11:41:33Z</time>
      </trkpt>
      <trkpt lat="45.40553" lon="5.90926">
        <ele>1447.871090346</ele>
        <time>2015-11-05T11:41:39Z</time>
      </trkpt>
      <trkpt lat="45.40552" lon="5.90924">
        <ele>1447.871090346</ele>
        <time>2015-11-05T11:41:48Z</time>
      </trkpt>
      <trkpt lat="45.40551" lon="5.90924">
        <ele>1447.871090346</ele>
        <time>2015-11-05T11:41:53Z</time>
      </trkpt>
      <trkpt lat="45.40552" lon="5.90921">
        <ele>1447.871090346</ele>
        <time>2015-11-05T11:42:03Z</time>
      </trkpt>
      <trkpt lat="45.40551" lon="5.90921">
        <ele>1447.871090346</ele>
        <time>2015-11-05T11:42:08Z</time>
      </trkpt>
      <trkpt lat="45.40552" lon="5.90923">
        <ele>1447.871090346</ele>
        <time>2015-11-05T11:42:23Z</time>
      </trkpt>
      <trkpt lat="45.40548" lon="5.90923">
        <ele>1447.460036481</ele>
        <time>2015-11-05T11:42:38Z</time>
      </trkpt>
      <trkpt lat="45.40548" lon="5.90922">
        <ele>1447.460036481</ele>
        <time>2015-11-05T11:42:42Z</time>
      </trkpt>
      <trkpt lat="45.40548" lon="5.90922">
        <ele>1447.460036481</ele>
        <time>2015-11-05T11:42:52Z</time>
      </trkpt>
      <trkpt lat="45.40548" lon="5.90922">
        <ele>1447.460036481</ele>
        <time>2015-11-05T11:42:58Z</time>
      </trkpt>
      <trkpt lat="45.40548" lon="5.90922">
        <ele>1447.460036481</ele>
        <time>2015-11-05T11:43:08Z</time>
      </trkpt>
      <trkpt lat="45.40548" lon="5.90922">
        <ele>1447.460036481</ele>
        <time>2015-11-05T11:43:13Z</time>
      </trkpt>
      <trkpt lat="45.40548" lon="5.90922">
        <ele>1447.460036481</ele>
        <time>2015-11-05T11:43:23Z</time>
      </trkpt>
      <trkpt lat="45.40548" lon="5.90922">
        <ele>1447.460036481</ele>
        <time>2015-11-05T11:43:28Z</time>
      </trkpt>
      <trkpt lat="45.40552" lon="5.90923">
        <ele>1447.460036481</ele>
        <time>2015-11-05T11:43:38Z</time>
      </trkpt>
      <trkpt lat="45.40554" lon="5.90927">
        <ele>1447.460036481</ele>
        <time>2015-11-05T11:43:43Z</time>
      </trkpt>
      <trkpt lat="45.40555" lon="5.90929">
        <ele>1446.285904643</ele>
        <time>2015-11-05T11:43:53Z</time>
      </trkpt>
      <trkpt lat="45.40559" lon="5.90932">
        <ele>1446.285904643</ele>
        <time>2015-11-05T11:43:58Z</time>
      </trkpt>
      <trkpt lat="45.40565" lon="5.9094">
        <ele>1445.125627778</ele>
        <time>2015-11-05T11:44:08Z</time>
      </trkpt>
      <trkpt lat="45.40567" lon="5.90945">
        <ele>1445.125627778</ele>
        <time>2015-11-05T11:44:13Z</time>
      </trkpt>
      <trkpt lat="45.40574" lon="5.90956">
        <ele>1444.122591034</ele>
        <time>2015-11-05T11:44:24Z</time>
      </trkpt>
      <trkpt lat="45.40575" lon="5.90957">
        <ele>1444.122591034</ele>
        <time>2015-11-05T11:44:28Z</time>
      </trkpt>
      <trkpt lat="45.40577" lon="5.90959">
        <ele>1444.122591034</ele>
        <time>2015-11-05T11:44:33Z</time>
      </trkpt>
      <trkpt lat="45.40582" lon="5.90969">
        <ele>1443.553326084</ele>
        <time>2015-11-05T11:44:43Z</time>
      </trkpt>
      <trkpt lat="45.40584" lon="5.90976">
        <ele>1443.553326084</ele>
        <time>2015-11-05T11:44:48Z</time>
      </trkpt>
      <trkpt lat="45.40586" lon="5.90985">
        <ele>1442.375842275</ele>
        <time>2015-11-05T11:44:57Z</time>
      </trkpt>
      <trkpt lat="45.40586" lon="5.90991">
        <ele>1442.375842275</ele>
        <time>2015-11-05T11:45:03Z</time>
      </trkpt>
      <trkpt lat="45.40588" lon="5.91002">
        <ele>1441.355742226</ele>
        <time>2015-11-05T11:45:13Z</time>
      </trkpt>
      <trkpt lat="45.4059" lon="5.91005">
        <ele>1441.355742226</ele>
        <time>2015-11-05T11:45:18Z</time>
      </trkpt>
      <trkpt lat="45.40592" lon="5.91009">
        <ele>1441.355742226</ele>
        <time>2015-11-05T11:45:28Z</time>
      </trkpt>
      <trkpt lat="45.40595" lon="5.91012">
        <ele>1441.490179824</ele>
        <time>2015-11-05T11:45:33Z</time>
      </trkpt>
      <trkpt lat="45.40603" lon="5.9102">
        <ele>1442.258723594</ele>
        <time>2015-11-05T11:45:44Z</time>
      </trkpt>
      <trkpt lat="45.40605" lon="5.91028">
        <ele>1442.258723594</ele>
        <time>2015-11-05T11:45:48Z</time>
      </trkpt>
      <trkpt lat="45.40611" lon="5.91035">
        <ele>1442.889193316</ele>
        <time>2015-11-05T11:45:58Z</time>
      </trkpt>
      <trkpt lat="45.40612" lon="5.91041">
        <ele>1442.889193316</ele>
        <time>2015-11-05T11:46:03Z</time>
      </trkpt>
      <trkpt lat="45.40613" lon="5.91046">
        <ele>1442.889193316</ele>
        <time>2015-11-05T11:46:13Z</time>
      </trkpt>
      <trkpt lat="45.40614" lon="5.91049">
        <ele>1443.675329783</ele>
        <time>2015-11-05T11:46:18Z</time>
      </trkpt>
      <trkpt lat="45.40619" lon="5.91056">
        <ele>1443.675329783</ele>
        <time>2015-11-05T11:46:28Z</time>
      </trkpt>
      <trkpt lat="45.4062" lon="5.91058">
        <ele>1443.675329783</ele>
        <time>2015-11-05T11:46:33Z</time>
      </trkpt>
      <trkpt lat="45.40627" lon="5.91072">
        <ele>1445.75357158</ele>
        <time>2015-11-05T11:46:48Z</time>
      </trkpt>
      <trkpt lat="45.40628" lon="5.91075">
        <ele>1445.75357158</ele>
        <time>2015-11-05T11:46:53Z</time>
      </trkpt>
      <trkpt lat="45.40629" lon="5.91077">
        <ele>1445.75357158</ele>
        <time>2015-11-05T11:47:03Z</time>
      </trkpt>
      <trkpt lat="45.40629" lon="5.91077">
        <ele>1445.75357158</ele>
        <time>2015-11-05T11:47:08Z</time>
      </trkpt>
      <trkpt lat="45.40633" lon="5.91077">
        <ele>1445.75357158</ele>
        <time>2015-11-05T11:47:18Z</time>
      </trkpt>
      <trkpt lat="45.40638" lon="5.91079">
        <ele>1448.876312632</ele>
        <time>2015-11-05T11:47:33Z</time>
      </trkpt>
      <trkpt lat="45.4064" lon="5.91079">
        <ele>1448.876312632</ele>
        <time>2015-11-05T11:47:38Z</time>
      </trkpt>
      <trkpt lat="45.40645" lon="5.91085">
        <ele>1448.876312632</ele>
        <time>2015-11-05T11:47:48Z</time>
      </trkpt>
      <trkpt lat="45.40646" lon="5.91087">
        <ele>1452.090732594</ele>
        <time>2015-11-05T11:47:53Z</time>
      </trkpt>
      <trkpt lat="45.40651" lon="5.91095">
        <ele>1452.090732594</ele>
        <time>2015-11-05T11:48:07Z</time>
      </trkpt>
      <trkpt lat="45.40651" lon="5.91095">
        <ele>1452.090732594</ele>
        <time>2015-11-05T11:48:14Z</time>
      </trkpt>
      <trkpt lat="45.40655" lon="5.91098">
        <ele>1455.234409256</ele>
        <time>2015-11-05T11:48:18Z</time>
      </trkpt>
      <trkpt lat="45.40658" lon="5.91106">
        <ele>1455.234409256</ele>
        <time>2015-11-05T11:48:28Z</time>
      </trkpt>
      <trkpt lat="45.4066" lon="5.91108">
        <ele>1455.234409256</ele>
        <time>2015-11-05T11:48:33Z</time>
      </trkpt>
      <trkpt lat="45.40661" lon="5.91111">
        <ele>1457.292512302</ele>
        <time>2015-11-05T11:48:45Z</time>
      </trkpt>
      <trkpt lat="45.4066" lon="5.91117">
        <ele>1457.292512302</ele>
        <time>2015-11-05T11:48:48Z</time>
      </trkpt>
      <trkpt lat="45.40665" lon="5.91129">
        <ele>1459.489623312</ele>
        <time>2015-11-05T11:48:58Z</time>
      </trkpt>
      <trkpt lat="45.40668" lon="5.91136">
        <ele>1459.489623312</ele>
        <time>2015-11-05T11:49:03Z</time>
      </trkpt>
      <trkpt lat="45.40671" lon="5.91147">
        <ele>1462.671923538</ele>
        <time>2015-11-05T11:49:13Z</time>
      </trkpt>
      <trkpt lat="45.40671" lon="5.91152">
        <ele>1462.671923538</ele>
        <time>2015-11-05T11:49:18Z</time>
      </trkpt>
      <trkpt lat="45.40677" lon="5.91164">
        <ele>1466.035633191</ele>
        <time>2015-11-05T11:49:33Z</time>
      </trkpt>
      <trkpt lat="45.4068" lon="5.91167">
        <ele>1466.035633191</ele>
        <time>2015-11-05T11:49:38Z</time>
      </trkpt>
      <trkpt lat="45.40672" lon="5.91171">
        <ele>1468.83570906</ele>
        <time>2015-11-05T11:49:48Z</time>
      </trkpt>
      <trkpt lat="45.40673" lon="5.91171">
        <ele>1468.83570906</ele>
        <time>2015-11-05T11:49:53Z</time>
      </trkpt>
      <trkpt lat="45.40673" lon="5.91171">
        <ele>1468.83570906</ele>
        <time>2015-11-05T11:50:03Z</time>
      </trkpt>
      <trkpt lat="45.40673" lon="5.9117">
        <ele>1468.83570906</ele>
        <time>2015-11-05T11:50:08Z</time>
      </trkpt>
      <trkpt lat="45.40671" lon="5.91169">
        <ele>1468.83570906</ele>
        <time>2015-11-05T11:50:18Z</time>
      </trkpt>
      <trkpt lat="45.40671" lon="5.9117">
        <ele>1468.83570906</ele>
        <time>2015-11-05T11:50:23Z</time>
      </trkpt>
      <trkpt lat="45.40671" lon="5.9117">
        <ele>1468.83570906</ele>
        <time>2015-11-05T11:50:33Z</time>
      </trkpt>
      <trkpt lat="45.40671" lon="5.9117">
        <ele>1468.83570906</ele>
        <time>2015-11-05T11:50:38Z</time>
      </trkpt>
      <trkpt lat="45.40671" lon="5.9117">
        <ele>1468.83570906</ele>
        <time>2015-11-05T11:50:48Z</time>
      </trkpt>
      <trkpt lat="45.40675" lon="5.91171">
        <ele>1468.83570906</ele>
        <time>2015-11-05T11:50:53Z</time>
      </trkpt>
      <trkpt lat="45.40674" lon="5.91172">
        <ele>1472.54530373</ele>
        <time>2015-11-05T11:51:08Z</time>
      </trkpt>
      <trkpt lat="45.40679" lon="5.91171">
        <ele>1472.54530373</ele>
        <time>2015-11-05T11:51:12Z</time>
      </trkpt>
      <trkpt lat="45.40683" lon="5.91176">
        <ele>1476.077144205</ele>
        <time>2015-11-05T11:51:22Z</time>
      </trkpt>
      <trkpt lat="45.40687" lon="5.9118">
        <ele>1476.077144205</ele>
        <time>2015-11-05T11:51:28Z</time>
      </trkpt>
      <trkpt lat="45.40691" lon="5.91187">
        <ele>1479.433351867</ele>
        <time>2015-11-05T11:51:38Z</time>
      </trkpt>
      <trkpt lat="45.40694" lon="5.91191">
        <ele>1479.433351867</ele>
        <time>2015-11-05T11:51:43Z</time>
      </trkpt>
      <trkpt lat="45.40697" lon="5.91199">
        <ele>1482.904867688</ele>
        <time>2015-11-05T11:51:53Z</time>
      </trkpt>
      <trkpt lat="45.40698" lon="5.91205">
        <ele>1482.904867688</ele>
        <time>2015-11-05T11:51:58Z</time>
      </trkpt>
      <trkpt lat="45.40702" lon="5.91214">
        <ele>1486.47298719</ele>
        <time>2015-11-05T11:52:08Z</time>
      </trkpt>
      <trkpt lat="45.40702" lon="5.91219">
        <ele>1486.47298719</ele>
        <time>2015-11-05T11:52:13Z</time>
      </trkpt>
      <trkpt lat="45.40708" lon="5.91228">
        <ele>1489.54394641</ele>
        <time>2015-11-05T11:52:23Z</time>
      </trkpt>
      <trkpt lat="45.40711" lon="5.9123">
        <ele>1489.54394641</ele>
        <time>2015-11-05T11:52:28Z</time>
      </trkpt>
      <trkpt lat="45.40713" lon="5.91233">
        <ele>1489.54394641</ele>
        <time>2015-11-05T11:52:38Z</time>
      </trkpt>
      <trkpt lat="45.40717" lon="5.91236">
        <ele>1492.578061298</ele>
        <time>2015-11-05T11:52:43Z</time>
      </trkpt>
      <trkpt lat="45.4072" lon="5.91245">
        <ele>1492.578061298</ele>
        <time>2015-11-05T11:52:53Z</time>
      </trkpt>
      <trkpt lat="45.40722" lon="5.91249">
        <ele>1495.425786327</ele>
        <time>2015-11-05T11:52:58Z</time>
      </trkpt>
      <trkpt lat="45.40725" lon="5.91256">
        <ele>1495.425786327</ele>
        <time>2015-11-05T11:53:08Z</time>
      </trkpt>
      <trkpt lat="45.40727" lon="5.91264">
        <ele>1497.661157765</ele>
        <time>2015-11-05T11:53:13Z</time>
      </trkpt>
      <trkpt lat="45.40731" lon="5.91268">
        <ele>1497.661157765</ele>
        <time>2015-11-05T11:53:24Z</time>
      </trkpt>
      <trkpt lat="45.40732" lon="5.9127">
        <ele>1497.661157765</ele>
        <time>2015-11-05T11:53:28Z</time>
      </trkpt>
      <trkpt lat="45.40736" lon="5.91274">
        <ele>1501.053184384</ele>
        <time>2015-11-05T11:53:38Z</time>
      </trkpt>
      <trkpt lat="45.40739" lon="5.91279">
        <ele>1501.053184384</ele>
        <time>2015-11-05T11:53:43Z</time>
      </trkpt>
      <trkpt lat="45.40742" lon="5.91285">
        <ele>1504.64397468</ele>
        <time>2015-11-05T11:53:53Z</time>
      </trkpt>
      <trkpt lat="45.40743" lon="5.91289">
        <ele>1504.64397468</ele>
        <time>2015-11-05T11:53:58Z</time>
      </trkpt>
      <trkpt lat="45.40746" lon="5.91295">
        <ele>1504.64397468</ele>
        <time>2015-11-05T11:54:09Z</time>
      </trkpt>
      <trkpt lat="45.40749" lon="5.91298">
        <ele>1507.689851752</ele>
        <time>2015-11-05T11:54:13Z</time>
      </trkpt>
      <trkpt lat="45.40753" lon="5.91309">
        <ele>1507.689851752</ele>
        <time>2015-11-05T11:54:27Z</time>
      </trkpt>
      <trkpt lat="45.40752" lon="5.91313">
        <ele>1511.232926526</ele>
        <time>2015-11-05T11:54:33Z</time>
      </trkpt>
      <trkpt lat="45.40755" lon="5.91319">
        <ele>1511.232926526</ele>
        <time>2015-11-05T11:54:43Z</time>
      </trkpt>
      <trkpt lat="45.40756" lon="5.9132">
        <ele>1511.232926526</ele>
        <time>2015-11-05T11:54:48Z</time>
      </trkpt>
      <trkpt lat="45.4076" lon="5.91327">
        <ele>1513.211321042</ele>
        <time>2015-11-05T11:54:58Z</time>
      </trkpt>
      <trkpt lat="45.40763" lon="5.91328">
        <ele>1513.211321042</ele>
        <time>2015-11-05T11:55:03Z</time>
      </trkpt>
      <trkpt lat="45.40768" lon="5.9134">
        <ele>1514.457410702</ele>
        <time>2015-11-05T11:55:13Z</time>
      </trkpt>
      <trkpt lat="45.40771" lon="5.91339">
        <ele>1514.457410702</ele>
        <time>2015-11-05T11:55:18Z</time>
      </trkpt>
      <trkpt lat="45.40773" lon="5.91342">
        <ele>1514.457410702</ele>
        <time>2015-11-05T11:55:28Z</time>
      </trkpt>
      <trkpt lat="45.40775" lon="5.91349">
        <ele>1515.312422557</ele>
        <time>2015-11-05T11:55:33Z</time>
      </trkpt>
      <trkpt lat="45.40783" lon="5.91356">
        <ele>1515.661541325</ele>
        <time>2015-11-05T11:55:43Z</time>
      </trkpt>
      <trkpt lat="45.40784" lon="5.91359">
        <ele>1515.661541325</ele>
        <time>2015-11-05T11:55:48Z</time>
      </trkpt>
      <trkpt lat="45.40786" lon="5.91364">
        <ele>1515.661541325</ele>
        <time>2015-11-05T11:55:58Z</time>
      </trkpt>
      <trkpt lat="45.40787" lon="5.91365">
        <ele>1515.661541325</ele>
        <time>2015-11-05T11:56:03Z</time>
      </trkpt>
      <trkpt lat="45.40789" lon="5.91367">
        <ele>1517.129380699</ele>
        <time>2015-11-05T11:56:13Z</time>
      </trkpt>
      <trkpt lat="45.40789" lon="5.91367">
        <ele>1517.129380699</ele>
        <time>2015-11-05T11:56:18Z</time>
      </trkpt>
      <trkpt lat="45.40797" lon="5.91383">
        <ele>1517.903736875</ele>
        <time>2015-11-05T11:56:29Z</time>
      </trkpt>
      <trkpt lat="45.40799" lon="5.91385">
        <ele>1517.903736875</ele>
        <time>2015-11-05T11:56:33Z</time>
      </trkpt>
      <trkpt lat="45.40804" lon="5.91397">
        <ele>1518.613454339</ele>
        <time>2015-11-05T11:56:43Z</time>
      </trkpt>
      <trkpt lat="45.40805" lon="5.91402">
        <ele>1518.613454339</ele>
        <time>2015-11-05T11:56:48Z</time>
      </trkpt>
      <trkpt lat="45.40809" lon="5.91407">
        <ele>1519.553324091</ele>
        <time>2015-11-05T11:56:58Z</time>
      </trkpt>
      <trkpt lat="45.40811" lon="5.91408">
        <ele>1519.553324091</ele>
        <time>2015-11-05T11:57:03Z</time>
      </trkpt>
      <trkpt lat="45.40811" lon="5.91419">
        <ele>1519.554887553</ele>
        <time>2015-11-05T11:57:13Z</time>
      </trkpt>
      <trkpt lat="45.40811" lon="5.91422">
        <ele>1519.554887553</ele>
        <time>2015-11-05T11:57:18Z</time>
      </trkpt>
      <trkpt lat="45.4081" lon="5.91426">
        <ele>1519.554887553</ele>
        <time>2015-11-05T11:57:28Z</time>
      </trkpt>
      <trkpt lat="45.40812" lon="5.9143">
        <ele>1519.554887553</ele>
        <time>2015-11-05T11:57:33Z</time>
      </trkpt>
      <trkpt lat="45.40817" lon="5.91437">
        <ele>1520.420520351</ele>
        <time>2015-11-05T11:57:43Z</time>
      </trkpt>
      <trkpt lat="45.40819" lon="5.91441">
        <ele>1520.420520351</ele>
        <time>2015-11-05T11:57:48Z</time>
      </trkpt>
      <trkpt lat="45.40827" lon="5.91456">
        <ele>1520.21511806</ele>
        <time>2015-11-05T11:58:03Z</time>
      </trkpt>
      <trkpt lat="45.40831" lon="5.91459">
        <ele>1520.21511806</ele>
        <time>2015-11-05T11:58:07Z</time>
      </trkpt>
      <trkpt lat="45.40835" lon="5.91459">
        <ele>1520.21511806</ele>
        <time>2015-11-05T11:58:17Z</time>
      </trkpt>
      <trkpt lat="45.40836" lon="5.91463">
        <ele>1521.328063211</ele>
        <time>2015-11-05T11:58:23Z</time>
      </trkpt>
      <trkpt lat="45.40838" lon="5.91468">
        <ele>1521.328063211</ele>
        <time>2015-11-05T11:58:33Z</time>
      </trkpt>
      <trkpt lat="45.40839" lon="5.91473">
        <ele>1521.328063211</ele>
        <time>2015-11-05T11:58:38Z</time>
      </trkpt>
      <trkpt lat="45.40845" lon="5.91478">
        <ele>1522.510939806</ele>
        <time>2015-11-05T11:58:48Z</time>
      </trkpt>
      <trkpt lat="45.40845" lon="5.91479">
        <ele>1522.510939806</ele>
        <time>2015-11-05T11:58:53Z</time>
      </trkpt>
      <trkpt lat="45.40848" lon="5.91488">
        <ele>1522.510939806</ele>
        <time>2015-11-05T11:59:03Z</time>
      </trkpt>
      <trkpt lat="45.40849" lon="5.9149">
        <ele>1523.759809845</ele>
        <time>2015-11-05T11:59:08Z</time>
      </trkpt>
      <trkpt lat="45.4085" lon="5.91493">
        <ele>1523.759809845</ele>
        <time>2015-11-05T11:59:18Z</time>
      </trkpt>
      <trkpt lat="45.40852" lon="5.91496">
        <ele>1523.759809845</ele>
        <time>2015-11-05T11:59:23Z</time>
      </trkpt>
      <trkpt lat="45.40852" lon="5.91503">
        <ele>1523.918013873</ele>
        <time>2015-11-05T11:59:33Z</time>
      </trkpt>
      <trkpt lat="45.40854" lon="5.91504">
        <ele>1523.918013873</ele>
        <time>2015-11-05T11:59:38Z</time>
      </trkpt>
      <trkpt lat="45.40857" lon="5.91509">
        <ele>1523.918013873</ele>
        <time>2015-11-05T11:59:48Z</time>
      </trkpt>
      <trkpt lat="45.40857" lon="5.91513">
        <ele>1524.799196111</ele>
        <time>2015-11-05T11:59:53Z</time>
      </trkpt>
      <trkpt lat="45.40857" lon="5.91516">
        <ele>1524.799196111</ele>
        <time>2015-11-05T12:00:08Z</time>
      </trkpt>
      <trkpt lat="45.40859" lon="5.91517">
        <ele>1524.799196111</ele>
        <time>2015-11-05T12:00:13Z</time>
      </trkpt>
      <trkpt lat="45.40864" lon="5.91524">
        <ele>1527.793566959</ele>
        <time>2015-11-05T12:00:23Z</time>
      </trkpt>
      <trkpt lat="45.40866" lon="5.91523">
        <ele>1527.793566959</ele>
        <time>2015-11-05T12:00:28Z</time>
      </trkpt>
      <trkpt lat="45.40869" lon="5.91525">
        <ele>1527.793566959</ele>
        <time>2015-11-05T12:00:38Z</time>
      </trkpt>
      <trkpt lat="45.40867" lon="5.91536">
        <ele>1531.445214937</ele>
        <time>2015-11-05T12:00:53Z</time>
      </trkpt>
      <trkpt lat="45.40868" lon="5.91536">
        <ele>1531.445214937</ele>
        <time>2015-11-05T12:00:58Z</time>
      </trkpt>
      <trkpt lat="45.40869" lon="5.91537">
        <ele>1531.445214937</ele>
        <time>2015-11-05T12:01:08Z</time>
      </trkpt>
      <trkpt lat="45.4087" lon="5.91537">
        <ele>1531.445214937</ele>
        <time>2015-11-05T12:01:13Z</time>
      </trkpt>
      <trkpt lat="45.40873" lon="5.91539">
        <ele>1531.445214937</ele>
        <time>2015-11-05T12:01:22Z</time>
      </trkpt>
      <trkpt lat="45.40874" lon="5.91541">
        <ele>1531.445214937</ele>
        <time>2015-11-05T12:01:27Z</time>
      </trkpt>
      <trkpt lat="45.40876" lon="5.91549">
        <ele>1535.700380953</ele>
        <time>2015-11-05T12:01:39Z</time>
      </trkpt>
      <trkpt lat="45.4088" lon="5.91552">
        <ele>1535.700380953</ele>
        <time>2015-11-05T12:01:43Z</time>
      </trkpt>
      <trkpt lat="45.40881" lon="5.91559">
        <ele>1535.700380953</ele>
        <time>2015-11-05T12:01:53Z</time>
      </trkpt>
      <trkpt lat="45.40885" lon="5.91563">
        <ele>1539.931172512</ele>
        <time>2015-11-05T12:01:58Z</time>
      </trkpt>
      <trkpt lat="45.40886" lon="5.91564">
        <ele>1539.931172512</ele>
        <time>2015-11-05T12:02:08Z</time>
      </trkpt>
      <trkpt lat="45.40887" lon="5.91565">
        <ele>1539.931172512</ele>
        <time>2015-11-05T12:02:13Z</time>
      </trkpt>
      <trkpt lat="45.40886" lon="5.91569">
        <ele>1539.931172512</ele>
        <time>2015-11-05T12:02:23Z</time>
      </trkpt>
      <trkpt lat="45.40887" lon="5.9157">
        <ele>1539.931172512</ele>
        <time>2015-11-05T12:02:28Z</time>
      </trkpt>
      <trkpt lat="45.40894" lon="5.91579">
        <ele>1543.123624332</ele>
        <time>2015-11-05T12:02:38Z</time>
      </trkpt>
      <trkpt lat="45.40896" lon="5.91584">
        <ele>1543.123624332</ele>
        <time>2015-11-05T12:02:44Z</time>
      </trkpt>
      <trkpt lat="45.409" lon="5.9159">
        <ele>1545.926471166</ele>
        <time>2015-11-05T12:02:58Z</time>
      </trkpt>
      <trkpt lat="45.40898" lon="5.91595">
        <ele>1545.926471166</ele>
        <time>2015-11-05T12:03:13Z</time>
      </trkpt>
      <trkpt lat="45.40901" lon="5.91599">
        <ele>1545.926471166</ele>
        <time>2015-11-05T12:03:18Z</time>
      </trkpt>
      <trkpt lat="45.40905" lon="5.91605">
        <ele>1549.518418492</ele>
        <time>2015-11-05T12:03:28Z</time>
      </trkpt>
      <trkpt lat="45.40906" lon="5.91611">
        <ele>1549.518418492</ele>
        <time>2015-11-05T12:03:33Z</time>
      </trkpt>
      <trkpt lat="45.40911" lon="5.91615">
        <ele>1553.548355855</ele>
        <time>2015-11-05T12:03:43Z</time>
      </trkpt>
      <trkpt lat="45.40911" lon="5.91616">
        <ele>1553.548355855</ele>
        <time>2015-11-05T12:03:48Z</time>
      </trkpt>
      <trkpt lat="45.40916" lon="5.9162">
        <ele>1553.548355855</ele>
        <time>2015-11-05T12:03:58Z</time>
      </trkpt>
      <trkpt lat="45.40917" lon="5.91623">
        <ele>1553.548355855</ele>
        <time>2015-11-05T12:04:03Z</time>
      </trkpt>
      <trkpt lat="45.40922" lon="5.9163">
        <ele>1558.122174098</ele>
        <time>2015-11-05T12:04:13Z</time>
      </trkpt>
      <trkpt lat="45.40925" lon="5.91634">
        <ele>1558.122174098</ele>
        <time>2015-11-05T12:04:18Z</time>
      </trkpt>
      <trkpt lat="45.4093" lon="5.91649">
        <ele>1561.895460196</ele>
        <time>2015-11-05T12:04:32Z</time>
      </trkpt>
      <trkpt lat="45.40933" lon="5.91654">
        <ele>1561.895460196</ele>
        <time>2015-11-05T12:04:37Z</time>
      </trkpt>
      <trkpt lat="45.40937" lon="5.91659">
        <ele>1565.498372865</ele>
        <time>2015-11-05T12:04:43Z</time>
      </trkpt>
      <trkpt lat="45.40939" lon="5.91659">
        <ele>1565.498372865</ele>
        <time>2015-11-05T12:04:48Z</time>
      </trkpt>
      <trkpt lat="45.40947" lon="5.9167">
        <ele>1568.218384306</ele>
        <time>2015-11-05T12:04:58Z</time>
      </trkpt>
      <trkpt lat="45.40947" lon="5.91673">
        <ele>1568.218384306</ele>
        <time>2015-11-05T12:05:03Z</time>
      </trkpt>
      <trkpt lat="45.40949" lon="5.9168">
        <ele>1568.218384306</ele>
        <time>2015-11-05T12:05:18Z</time>
      </trkpt>
      <trkpt lat="45.4095" lon="5.91685">
        <ele>1570.406692578</ele>
        <time>2015-11-05T12:05:23Z</time>
      </trkpt>
      <trkpt lat="45.40952" lon="5.91691">
        <ele>1570.406692578</ele>
        <time>2015-11-05T12:05:33Z</time>
      </trkpt>
      <trkpt lat="45.40953" lon="5.91697">
        <ele>1571.957980349</ele>
        <time>2015-11-05T12:05:38Z</time>
      </trkpt>
      <trkpt lat="45.40957" lon="5.91704">
        <ele>1571.957980349</ele>
        <time>2015-11-05T12:05:48Z</time>
      </trkpt>
      <trkpt lat="45.40958" lon="5.91702">
        <ele>1571.957980349</ele>
        <time>2015-11-05T12:05:53Z</time>
      </trkpt>
      <trkpt lat="45.40962" lon="5.91703">
        <ele>1576.23524419</ele>
        <time>2015-11-05T12:06:04Z</time>
      </trkpt>
      <trkpt lat="45.40964" lon="5.91702">
        <ele>1576.23524419</ele>
        <time>2015-11-05T12:06:08Z</time>
      </trkpt>
      <trkpt lat="45.40966" lon="5.91712">
        <ele>1576.23524419</ele>
        <time>2015-11-05T12:06:18Z</time>
      </trkpt>
      <trkpt lat="45.40967" lon="5.91713">
        <ele>1580.294239659</ele>
        <time>2015-11-05T12:06:23Z</time>
      </trkpt>
      <trkpt lat="45.40967" lon="5.91713">
        <ele>1580.294239659</ele>
        <time>2015-11-05T12:06:33Z</time>
      </trkpt>
      <trkpt lat="45.40967" lon="5.91713">
        <ele>1580.294239659</ele>
        <time>2015-11-05T12:06:38Z</time>
      </trkpt>
      <trkpt lat="45.40967" lon="5.91713">
        <ele>1580.294239659</ele>
        <time>2015-11-05T12:06:48Z</time>
      </trkpt>
      <trkpt lat="45.40967" lon="5.91713">
        <ele>1580.294239659</ele>
        <time>2015-11-05T12:06:53Z</time>
      </trkpt>
      <trkpt lat="45.40972" lon="5.91725">
        <ele>1582.992956245</ele>
        <time>2015-11-05T12:07:03Z</time>
      </trkpt>
      <trkpt lat="45.40972" lon="5.91727">
        <ele>1582.992956245</ele>
        <time>2015-11-05T12:07:08Z</time>
      </trkpt>
      <trkpt lat="45.40976" lon="5.91737">
        <ele>1582.992956245</ele>
        <time>2015-11-05T12:07:23Z</time>
      </trkpt>
      <trkpt lat="45.40976" lon="5.91737">
        <ele>1582.992956245</ele>
        <time>2015-11-05T12:07:27Z</time>
      </trkpt>
      <trkpt lat="45.40978" lon="5.91744">
        <ele>1584.141871045</ele>
        <time>2015-11-05T12:07:38Z</time>
      </trkpt>
      <trkpt lat="45.40981" lon="5.91746">
        <ele>1584.141871045</ele>
        <time>2015-11-05T12:07:43Z</time>
      </trkpt>
      <trkpt lat="45.40983" lon="5.91754">
        <ele>1584.141871045</ele>
        <time>2015-11-05T12:07:53Z</time>
      </trkpt>
      <trkpt lat="45.40984" lon="5.91755">
        <ele>1585.587396253</ele>
        <time>2015-11-05T12:07:57Z</time>
      </trkpt>
      <trkpt lat="45.4099" lon="5.91765">
        <ele>1587.454352287</ele>
        <time>2015-11-05T12:08:08Z</time>
      </trkpt>
      <trkpt lat="45.40992" lon="5.91767">
        <ele>1587.454352287</ele>
        <time>2015-11-05T12:08:13Z</time>
      </trkpt>
      <trkpt lat="45.40997" lon="5.91774">
        <ele>1589.424961521</ele>
        <time>2015-11-05T12:08:23Z</time>
      </trkpt>
      <trkpt lat="45.40998" lon="5.91775">
        <ele>1589.424961521</ele>
        <time>2015-11-05T12:08:28Z</time>
      </trkpt>
      <trkpt lat="45.41002" lon="5.9178">
        <ele>1589.424961521</ele>
        <time>2015-11-05T12:08:38Z</time>
      </trkpt>
      <trkpt lat="45.41005" lon="5.91784">
        <ele>1591.204573539</ele>
        <time>2015-11-05T12:08:42Z</time>
      </trkpt>
      <trkpt lat="45.4101" lon="5.91792">
        <ele>1591.204573539</ele>
        <time>2015-11-05T12:08:53Z</time>
      </trkpt>
      <trkpt lat="45.4101" lon="5.91795">
        <ele>1592.37666982</ele>
        <time>2015-11-05T12:08:58Z</time>
      </trkpt>
      <trkpt lat="45.41011" lon="5.918">
        <ele>1592.37666982</ele>
        <time>2015-11-05T12:09:08Z</time>
      </trkpt>
      <trkpt lat="45.41014" lon="5.91802">
        <ele>1592.37666982</ele>
        <time>2015-11-05T12:09:13Z</time>
      </trkpt>
      <trkpt lat="45.41018" lon="5.91809">
        <ele>1593.277639557</ele>
        <time>2015-11-05T12:09:23Z</time>
      </trkpt>
      <trkpt lat="45.41021" lon="5.91813">
        <ele>1593.277639557</ele>
        <time>2015-11-05T12:09:28Z</time>
      </trkpt>
      <trkpt lat="45.41026" lon="5.91819">
        <ele>1593.931736132</ele>
        <time>2015-11-05T12:09:38Z</time>
      </trkpt>
      <trkpt lat="45.41028" lon="5.91824">
        <ele>1593.931736132</ele>
        <time>2015-11-05T12:09:43Z</time>
      </trkpt>
      <trkpt lat="45.41036" lon="5.9183">
        <ele>1593.929811129</ele>
        <time>2015-11-05T12:09:53Z</time>
      </trkpt>
      <trkpt lat="45.41038" lon="5.91832">
        <ele>1593.929811129</ele>
        <time>2015-11-05T12:09:58Z</time>
      </trkpt>
      <trkpt lat="45.41043" lon="5.91837">
        <ele>1593.929811129</ele>
        <time>2015-11-05T12:10:08Z</time>
      </trkpt>
      <trkpt lat="45.41047" lon="5.9184">
        <ele>1594.191616315</ele>
        <time>2015-11-05T12:10:13Z</time>
      </trkpt>
      <trkpt lat="45.41054" lon="5.91849">
        <ele>1593.262804226</ele>
        <time>2015-11-05T12:10:28Z</time>
      </trkpt>
      <trkpt lat="45.41056" lon="5.91852">
        <ele>1593.262804226</ele>
        <time>2015-11-05T12:10:33Z</time>
      </trkpt>
      <trkpt lat="45.4106" lon="5.91858">
        <ele>1592.10494391</ele>
        <time>2015-11-05T12:10:43Z</time>
      </trkpt>
      <trkpt lat="45.41062" lon="5.91863">
        <ele>1592.10494391</ele>
        <time>2015-11-05T12:10:48Z</time>
      </trkpt>
      <trkpt lat="45.41062" lon="5.91868">
        <ele>1592.10494391</ele>
        <time>2015-11-05T12:10:52Z</time>
      </trkpt>
      <trkpt lat="45.41065" lon="5.91871">
        <ele>1592.762442696</ele>
        <time>2015-11-05T12:10:57Z</time>
      </trkpt>
      <trkpt lat="45.41066" lon="5.91873">
        <ele>1592.762442696</ele>
        <time>2015-11-05T12:11:02Z</time>
      </trkpt>
      <trkpt lat="45.41071" lon="5.91878">
        <ele>1592.762442696</ele>
        <time>2015-11-05T12:11:13Z</time>
      </trkpt>
      <trkpt lat="45.41071" lon="5.91877">
        <ele>1592.762442696</ele>
        <time>2015-11-05T12:11:18Z</time>
      </trkpt>
      <trkpt lat="45.41077" lon="5.91887">
        <ele>1592.945134383</ele>
        <time>2015-11-05T12:11:33Z</time>
      </trkpt>
      <trkpt lat="45.41078" lon="5.91893">
        <ele>1592.945134383</ele>
        <time>2015-11-05T12:11:38Z</time>
      </trkpt>
      <trkpt lat="45.4108" lon="5.919">
        <ele>1592.982216338</ele>
        <time>2015-11-05T12:11:48Z</time>
      </trkpt>
      <trkpt lat="45.41086" lon="5.91902">
        <ele>1592.982216338</ele>
        <time>2015-11-05T12:11:53Z</time>
      </trkpt>
      <trkpt lat="45.41089" lon="5.91908">
        <ele>1593.179006818</ele>
        <time>2015-11-05T12:12:04Z</time>
      </trkpt>
      <trkpt lat="45.41091" lon="5.91909">
        <ele>1593.179006818</ele>
        <time>2015-11-05T12:12:08Z</time>
      </trkpt>
      <trkpt lat="45.41088" lon="5.9191">
        <ele>1593.179006818</ele>
        <time>2015-11-05T12:12:18Z</time>
      </trkpt>
      <trkpt lat="45.41088" lon="5.9191">
        <ele>1593.179006818</ele>
        <time>2015-11-05T12:12:23Z</time>
      </trkpt>
      <trkpt lat="45.41095" lon="5.91915">
        <ele>1593.961945058</ele>
        <time>2015-11-05T12:12:33Z</time>
      </trkpt>
      <trkpt lat="45.41097" lon="5.91919">
        <ele>1593.961945058</ele>
        <time>2015-11-05T12:12:38Z</time>
      </trkpt>
      <trkpt lat="45.411" lon="5.91925">
        <ele>1593.961945058</ele>
        <time>2015-11-05T12:12:48Z</time>
      </trkpt>
      <trkpt lat="45.411" lon="5.91926">
        <ele>1594.283266338</ele>
        <time>2015-11-05T12:12:53Z</time>
      </trkpt>
      <trkpt lat="45.41101" lon="5.91937">
        <ele>1594.283266338</ele>
        <time>2015-11-05T12:13:08Z</time>
      </trkpt>
      <trkpt lat="45.41099" lon="5.9194">
        <ele>1595.335009242</ele>
        <time>2015-11-05T12:13:13Z</time>
      </trkpt>
      <trkpt lat="45.41102" lon="5.91944">
        <ele>1595.335009242</ele>
        <time>2015-11-05T12:13:23Z</time>
      </trkpt>
      <trkpt lat="45.41101" lon="5.91946">
        <ele>1595.335009242</ele>
        <time>2015-11-05T12:13:28Z</time>
      </trkpt>
      <trkpt lat="45.411" lon="5.91946">
        <ele>1595.335009242</ele>
        <time>2015-11-05T12:13:38Z</time>
      </trkpt>
      <trkpt lat="45.411" lon="5.91946">
        <ele>1595.335009242</ele>
        <time>2015-11-05T12:13:43Z</time>
      </trkpt>
      <trkpt lat="45.41101" lon="5.91949">
        <ele>1595.335009242</ele>
        <time>2015-11-05T12:13:53Z</time>
      </trkpt>
      <trkpt lat="45.41101" lon="5.91949">
        <ele>1595.335009242</ele>
        <time>2015-11-05T12:13:58Z</time>
      </trkpt>
      <trkpt lat="45.41105" lon="5.9195">
        <ele>1595.769575457</ele>
        <time>2015-11-05T12:14:08Z</time>
      </trkpt>
      <trkpt lat="45.41105" lon="5.91949">
        <ele>1595.769575457</ele>
        <time>2015-11-05T12:14:12Z</time>
      </trkpt>
      <trkpt lat="45.4111" lon="5.91957">
        <ele>1595.769575457</ele>
        <time>2015-11-05T12:14:27Z</time>
      </trkpt>
      <trkpt lat="45.41111" lon="5.91957">
        <ele>1594.772288316</ele>
        <time>2015-11-05T12:14:43Z</time>
      </trkpt>
      <trkpt lat="45.41111" lon="5.91957">
        <ele>1594.772288316</ele>
        <time>2015-11-05T12:14:48Z</time>
      </trkpt>
      <trkpt lat="45.41114" lon="5.91962">
        <ele>1594.772288316</ele>
        <time>2015-11-05T12:14:58Z</time>
      </trkpt>
      <trkpt lat="45.41116" lon="5.91965">
        <ele>1594.772288316</ele>
        <time>2015-11-05T12:15:03Z</time>
      </trkpt>
      <trkpt lat="45.41122" lon="5.91971">
        <ele>1594.186191336</ele>
        <time>2015-11-05T12:15:13Z</time>
      </trkpt>
      <trkpt lat="45.41125" lon="5.91976">
        <ele>1594.186191336</ele>
        <time>2015-11-05T12:15:18Z</time>
      </trkpt>
      <trkpt lat="45.41129" lon="5.9198">
        <ele>1594.852969584</ele>
        <time>2015-11-05T12:15:28Z</time>
      </trkpt>
      <trkpt lat="45.4113" lon="5.91985">
        <ele>1594.852969584</ele>
        <time>2015-11-05T12:15:33Z</time>
      </trkpt>
      <trkpt lat="45.41138" lon="5.91994">
        <ele>1595.243029489</ele>
        <time>2015-11-05T12:15:43Z</time>
      </trkpt>
      <trkpt lat="45.41141" lon="5.91997">
        <ele>1595.243029489</ele>
        <time>2015-11-05T12:15:49Z</time>
      </trkpt>
      <trkpt lat="45.41145" lon="5.92004">
        <ele>1595.813202183</ele>
        <time>2015-11-05T12:15:58Z</time>
      </trkpt>
      <trkpt lat="45.41147" lon="5.92006">
        <ele>1595.813202183</ele>
        <time>2015-11-05T12:16:03Z</time>
      </trkpt>
      <trkpt lat="45.4115" lon="5.92012">
        <ele>1595.813202183</ele>
        <time>2015-11-05T12:16:13Z</time>
      </trkpt>
      <trkpt lat="45.4115" lon="5.92017">
        <ele>1596.697872756</ele>
        <time>2015-11-05T12:16:18Z</time>
      </trkpt>
      <trkpt lat="45.41153" lon="5.92025">
        <ele>1596.697872756</ele>
        <time>2015-11-05T12:16:29Z</time>
      </trkpt>
      <trkpt lat="45.41155" lon="5.92028">
        <ele>1597.732292551</ele>
        <time>2015-11-05T12:16:33Z</time>
      </trkpt>
      <trkpt lat="45.41162" lon="5.92033">
        <ele>1597.732292551</ele>
        <time>2015-11-05T12:16:43Z</time>
      </trkpt>
      <trkpt lat="45.41165" lon="5.92037">
        <ele>1598.330907293</ele>
        <time>2015-11-05T12:16:48Z</time>
      </trkpt>
      <trkpt lat="45.41172" lon="5.92046">
        <ele>1599.249250211</ele>
        <time>2015-11-05T12:17:03Z</time>
      </trkpt>
      <trkpt lat="45.41175" lon="5.92048">
        <ele>1599.249250211</ele>
        <time>2015-11-05T12:17:08Z</time>
      </trkpt>
      <trkpt lat="45.4117" lon="5.92058">
        <ele>1601.186313024</ele>
        <time>2015-11-05T12:17:18Z</time>
      </trkpt>
      <trkpt lat="45.41171" lon="5.92063">
        <ele>1601.186313024</ele>
        <time>2015-11-05T12:17:23Z</time>
      </trkpt>
      <trkpt lat="45.41177" lon="5.92069">
        <ele>1603.345635084</ele>
        <time>2015-11-05T12:17:33Z</time>
      </trkpt>
      <trkpt lat="45.4118" lon="5.92072">
        <ele>1603.345635084</ele>
        <time>2015-11-05T12:17:38Z</time>
      </trkpt>
      <trkpt lat="45.41187" lon="5.92074">
        <ele>1605.276736727</ele>
        <time>2015-11-05T12:17:48Z</time>
      </trkpt>
      <trkpt lat="45.41187" lon="5.92077">
        <ele>1605.276736727</ele>
        <time>2015-11-05T12:17:53Z</time>
      </trkpt>
      <trkpt lat="45.4119" lon="5.9208">
        <ele>1605.276736727</ele>
        <time>2015-11-05T12:18:03Z</time>
      </trkpt>
      <trkpt lat="45.4119" lon="5.92083">
        <ele>1605.276736727</ele>
        <time>2015-11-05T12:18:07Z</time>
      </trkpt>
      <trkpt lat="45.41191" lon="5.92087">
        <ele>1609.156761734</ele>
        <time>2015-11-05T12:18:23Z</time>
      </trkpt>
      <trkpt lat="45.41192" lon="5.92086">
        <ele>1609.156761734</ele>
        <time>2015-11-05T12:18:28Z</time>
      </trkpt>
      <trkpt lat="45.41195" lon="5.92091">
        <ele>1609.156761734</ele>
        <time>2015-11-05T12:18:38Z</time>
      </trkpt>
      <trkpt lat="45.41195" lon="5.92095">
        <ele>1609.156761734</ele>
        <time>2015-11-05T12:18:43Z</time>
      </trkpt>
      <trkpt lat="45.41193" lon="5.92101">
        <ele>1611.80935973</ele>
        <time>2015-11-05T12:18:52Z</time>
      </trkpt>
      <trkpt lat="45.41193" lon="5.92101">
        <ele>1611.80935973</ele>
        <time>2015-11-05T12:18:58Z</time>
      </trkpt>
      <trkpt lat="45.41191" lon="5.92102">
        <ele>1611.80935973</ele>
        <time>2015-11-05T12:19:08Z</time>
      </trkpt>
      <trkpt lat="45.41193" lon="5.92103">
        <ele>1611.80935973</ele>
        <time>2015-11-05T12:19:13Z</time>
      </trkpt>
      <trkpt lat="45.41197" lon="5.92105">
        <ele>1611.80935973</ele>
        <time>2015-11-05T12:19:23Z</time>
      </trkpt>
      <trkpt lat="45.41199" lon="5.92108">
        <ele>1614.618216411</ele>
        <time>2015-11-05T12:19:28Z</time>
      </trkpt>
      <trkpt lat="45.41204" lon="5.92113">
        <ele>1614.618216411</ele>
        <time>2015-11-05T12:19:38Z</time>
      </trkpt>
      <trkpt lat="45.41204" lon="5.92113">
        <ele>1614.618216411</ele>
        <time>2015-11-05T12:19:43Z</time>
      </trkpt>
      <trkpt lat="45.41202" lon="5.92115">
        <ele>1614.618216411</ele>
        <time>2015-11-05T12:19:53Z</time>
      </trkpt>
      <trkpt lat="45.4121" lon="5.92116">
        <ele>1618.864880031</ele>
        <time>2015-11-05T12:19:58Z</time>
      </trkpt>
      <trkpt lat="45.41205" lon="5.9212">
        <ele>1618.864880031</ele>
        <time>2015-11-05T12:20:08Z</time>
      </trkpt>
      <trkpt lat="45.41207" lon="5.92123">
        <ele>1618.864880031</ele>
        <time>2015-11-05T12:20:13Z</time>
      </trkpt>
      <trkpt lat="45.41212" lon="5.9213">
        <ele>1622.706355787</ele>
        <time>2015-11-05T12:20:23Z</time>
      </trkpt>
      <trkpt lat="45.41213" lon="5.92133">
        <ele>1622.706355787</ele>
        <time>2015-11-05T12:20:28Z</time>
      </trkpt>
      <trkpt lat="45.41215" lon="5.92138">
        <ele>1622.706355787</ele>
        <time>2015-11-05T12:20:43Z</time>
      </trkpt>
      <trkpt lat="45.41214" lon="5.92139">
        <ele>1622.706355787</ele>
        <time>2015-11-05T12:20:58Z</time>
      </trkpt>
      <trkpt lat="45.41217" lon="5.92143">
        <ele>1626.74193714</ele>
        <time>2015-11-05T12:21:03Z</time>
      </trkpt>
      <trkpt lat="45.41217" lon="5.92145">
        <ele>1626.74193714</ele>
        <time>2015-11-05T12:21:13Z</time>
      </trkpt>
      <trkpt lat="45.41217" lon="5.92145">
        <ele>1626.74193714</ele>
        <time>2015-11-05T12:21:18Z</time>
      </trkpt>
      <trkpt lat="45.4122" lon="5.92147">
        <ele>1626.74193714</ele>
        <time>2015-11-05T12:21:28Z</time>
      </trkpt>
      <trkpt lat="45.41222" lon="5.92149">
        <ele>1626.74193714</ele>
        <time>2015-11-05T12:21:33Z</time>
      </trkpt>
      <trkpt lat="45.41224" lon="5.92156">
        <ele>1631.382248666</ele>
        <time>2015-11-05T12:21:42Z</time>
      </trkpt>
      <trkpt lat="45.41222" lon="5.92162">
        <ele>1631.382248666</ele>
        <time>2015-11-05T12:21:48Z</time>
      </trkpt>
      <trkpt lat="45.41229" lon="5.92173">
        <ele>1635.709087257</ele>
        <time>2015-11-05T12:21:58Z</time>
      </trkpt>
      <trkpt lat="45.41235" lon="5.92173">
        <ele>1635.709087257</ele>
        <time>2015-11-05T12:22:03Z</time>
      </trkpt>
      <trkpt lat="45.41237" lon="5.92176">
        <ele>1635.709087257</ele>
        <time>2015-11-05T12:22:18Z</time>
      </trkpt>
      <trkpt lat="45.41237" lon="5.92176">
        <ele>1635.709087257</ele>
        <time>2015-11-05T12:22:23Z</time>
      </trkpt>
      <trkpt lat="45.41239" lon="5.92178">
        <ele>1641.898972859</ele>
        <time>2015-11-05T12:22:33Z</time>
      </trkpt>
      <trkpt lat="45.41241" lon="5.92181">
        <ele>1641.898972859</ele>
        <time>2015-11-05T12:22:38Z</time>
      </trkpt>
      <trkpt lat="45.41242" lon="5.92191">
        <ele>1647.063616456</ele>
        <time>2015-11-05T12:22:48Z</time>
      </trkpt>
      <trkpt lat="45.41243" lon="5.92191">
        <ele>1647.063616456</ele>
        <time>2015-11-05T12:22:53Z</time>
      </trkpt>
      <trkpt lat="45.41245" lon="5.92197">
        <ele>1647.063616456</ele>
        <time>2015-11-05T12:23:03Z</time>
      </trkpt>
      <trkpt lat="45.41245" lon="5.92199">
        <ele>1647.063616456</ele>
        <time>2015-11-05T12:23:08Z</time>
      </trkpt>
      <trkpt lat="45.4124" lon="5.92205">
        <ele>1651.988552706</ele>
        <time>2015-11-05T12:23:18Z</time>
      </trkpt>
      <trkpt lat="45.4124" lon="5.92205">
        <ele>1651.988552706</ele>
        <time>2015-11-05T12:23:23Z</time>
      </trkpt>
      <trkpt lat="45.41241" lon="5.92203">
        <ele>1651.988552706</ele>
        <time>2015-11-05T12:23:33Z</time>
      </trkpt>
      <trkpt lat="45.4124" lon="5.92205">
        <ele>1651.988552706</ele>
        <time>2015-11-05T12:23:38Z</time>
      </trkpt>
      <trkpt lat="45.41243" lon="5.92205">
        <ele>1651.988552706</ele>
        <time>2015-11-05T12:23:53Z</time>
      </trkpt>
      <trkpt lat="45.41244" lon="5.92205">
        <ele>1651.988552706</ele>
        <time>2015-11-05T12:23:57Z</time>
      </trkpt>
      <trkpt lat="45.41244" lon="5.92206">
        <ele>1651.988552706</ele>
        <time>2015-11-05T12:24:08Z</time>
      </trkpt>
      <trkpt lat="45.41244" lon="5.92206">
        <ele>1651.988552706</ele>
        <time>2015-11-05T12:24:13Z</time>
      </trkpt>
      <trkpt lat="45.41244" lon="5.92206">
        <ele>1651.988552706</ele>
        <time>2015-11-05T12:24:23Z</time>
      </trkpt>
      <trkpt lat="45.41244" lon="5.92206">
        <ele>1651.988552706</ele>
        <time>2015-11-05T12:24:28Z</time>
      </trkpt>
      <trkpt lat="45.41243" lon="5.92206">
        <ele>1651.988552706</ele>
        <time>2015-11-05T12:24:38Z</time>
      </trkpt>
      <trkpt lat="45.41243" lon="5.92206">
        <ele>1651.988552706</ele>
        <time>2015-11-05T12:24:43Z</time>
      </trkpt>
      <trkpt lat="45.41243" lon="5.92206">
        <ele>1651.988552706</ele>
        <time>2015-11-05T12:24:57Z</time>
      </trkpt>
      <trkpt lat="45.41243" lon="5.92206">
        <ele>1651.988552706</ele>
        <time>2015-11-05T12:25:02Z</time>
      </trkpt>
      <trkpt lat="45.41243" lon="5.92206">
        <ele>1651.988552706</ele>
        <time>2015-11-05T12:25:13Z</time>
      </trkpt>
      <trkpt lat="45.41243" lon="5.92206">
        <ele>1651.988552706</ele>
        <time>2015-11-05T12:25:17Z</time>
      </trkpt>
      <trkpt lat="45.41243" lon="5.92206">
        <ele>1651.988552706</ele>
        <time>2015-11-05T12:25:28Z</time>
      </trkpt>
      <trkpt lat="45.41243" lon="5.92206">
        <ele>1651.988552706</ele>
        <time>2015-11-05T12:25:33Z</time>
      </trkpt>
      <trkpt lat="45.41243" lon="5.92207">
        <ele>1651.988552706</ele>
        <time>2015-11-05T12:25:43Z</time>
      </trkpt>
      <trkpt lat="45.41241" lon="5.92209">
        <ele>1656.393635532</ele>
        <time>2015-11-05T12:25:48Z</time>
      </trkpt>
      <trkpt lat="45.41241" lon="5.9221">
        <ele>1656.393635532</ele>
        <time>2015-11-05T12:25:58Z</time>
      </trkpt>
      <trkpt lat="45.41241" lon="5.9221">
        <ele>1656.393635532</ele>
        <time>2015-11-05T12:26:03Z</time>
      </trkpt>
      <trkpt lat="45.41241" lon="5.9221">
        <ele>1656.393635532</ele>
        <time>2015-11-05T12:26:13Z</time>
      </trkpt>
      <trkpt lat="45.41241" lon="5.9221">
        <ele>1656.393635532</ele>
        <time>2015-11-05T12:26:18Z</time>
      </trkpt>
      <trkpt lat="45.41243" lon="5.92208">
        <ele>1656.393635532</ele>
        <time>2015-11-05T12:26:33Z</time>
      </trkpt>
      <trkpt lat="45.41242" lon="5.92208">
        <ele>1656.393635532</ele>
        <time>2015-11-05T12:26:38Z</time>
      </trkpt>
      <trkpt lat="45.41242" lon="5.92208">
        <ele>1656.393635532</ele>
        <time>2015-11-05T12:26:48Z</time>
      </trkpt>
      <trkpt lat="45.41242" lon="5.92208">
        <ele>1656.393635532</ele>
        <time>2015-11-05T12:26:53Z</time>
      </trkpt>
      <trkpt lat="45.41243" lon="5.92208">
        <ele>1656.393635532</ele>
        <time>2015-11-05T12:27:03Z</time>
      </trkpt>
      <trkpt lat="45.41243" lon="5.92208">
        <ele>1656.393635532</ele>
        <time>2015-11-05T12:27:08Z</time>
      </trkpt>
      <trkpt lat="45.41243" lon="5.92208">
        <ele>1656.393635532</ele>
        <time>2015-11-05T12:27:18Z</time>
      </trkpt>
      <trkpt lat="45.41243" lon="5.92208">
        <ele>1656.393635532</ele>
        <time>2015-11-05T12:27:22Z</time>
      </trkpt>
      <trkpt lat="45.41243" lon="5.92208">
        <ele>1656.393635532</ele>
        <time>2015-11-05T12:27:32Z</time>
      </trkpt>
      <trkpt lat="45.41243" lon="5.92208">
        <ele>1656.393635532</ele>
        <time>2015-11-05T12:27:38Z</time>
      </trkpt>
      <trkpt lat="45.41243" lon="5.92208">
        <ele>1656.393635532</ele>
        <time>2015-11-05T12:27:48Z</time>
      </trkpt>
      <trkpt lat="45.41243" lon="5.9221">
        <ele>1656.393635532</ele>
        <time>2015-11-05T12:27:53Z</time>
      </trkpt>
      <trkpt lat="45.41243" lon="5.92209">
        <ele>1656.393635532</ele>
        <time>2015-11-05T12:28:02Z</time>
      </trkpt>
      <trkpt lat="45.41243" lon="5.92211">
        <ele>1656.393635532</ele>
        <time>2015-11-05T12:28:08Z</time>
      </trkpt>
      <trkpt lat="45.41244" lon="5.92211">
        <ele>1656.393635532</ele>
        <time>2015-11-05T12:28:18Z</time>
      </trkpt>
      <trkpt lat="45.41241" lon="5.92214">
        <ele>1660.741461729</ele>
        <time>2015-11-05T12:28:23Z</time>
      </trkpt>
      <trkpt lat="45.4124" lon="5.92216">
        <ele>1660.741461729</ele>
        <time>2015-11-05T12:28:28Z</time>
      </trkpt>
      <trkpt lat="45.41235" lon="5.92223">
        <ele>1660.741461729</ele>
        <time>2015-11-05T12:28:38Z</time>
      </trkpt>
      <trkpt lat="45.41236" lon="5.92229">
        <ele>1664.740414002</ele>
        <time>2015-11-05T12:28:43Z</time>
      </trkpt>
      <trkpt lat="45.41236" lon="5.92237">
        <ele>1664.740414002</ele>
        <time>2015-11-05T12:28:53Z</time>
      </trkpt>
      <trkpt lat="45.41234" lon="5.9224">
        <ele>1664.740414002</ele>
        <time>2015-11-05T12:28:58Z</time>
      </trkpt>
      <trkpt lat="45.41236" lon="5.92246">
        <ele>1667.833225471</ele>
        <time>2015-11-05T12:29:08Z</time>
      </trkpt>
      <trkpt lat="45.41236" lon="5.92249">
        <ele>1667.833225471</ele>
        <time>2015-11-05T12:29:13Z</time>
      </trkpt>
      <trkpt lat="45.41235" lon="5.92252">
        <ele>1667.833225471</ele>
        <time>2015-11-05T12:29:23Z</time>
      </trkpt>
      <trkpt lat="45.41234" lon="5.92253">
        <ele>1667.833225471</ele>
        <time>2015-11-05T12:29:28Z</time>
      </trkpt>
      <trkpt lat="45.41236" lon="5.92258">
        <ele>1671.235619156</ele>
        <time>2015-11-05T12:29:38Z</time>
      </trkpt>
      <trkpt lat="45.41236" lon="5.9226">
        <ele>1671.235619156</ele>
        <time>2015-11-05T12:29:43Z</time>
      </trkpt>
      <trkpt lat="45.41238" lon="5.92265">
        <ele>1671.235619156</ele>
        <time>2015-11-05T12:29:58Z</time>
      </trkpt>
      <trkpt lat="45.41235" lon="5.92265">
        <ele>1671.235619156</ele>
        <time>2015-11-05T12:30:02Z</time>
      </trkpt>
      <trkpt lat="45.41236" lon="5.92268">
        <ele>1675.496879778</ele>
        <time>2015-11-05T12:30:13Z</time>
      </trkpt>
      <trkpt lat="45.41233" lon="5.92267">
        <ele>1675.496879778</ele>
        <time>2015-11-05T12:30:17Z</time>
      </trkpt>
      <trkpt lat="45.41229" lon="5.92267">
        <ele>1675.496879778</ele>
        <time>2015-11-05T12:30:28Z</time>
      </trkpt>
      <trkpt lat="45.41227" lon="5.92267">
        <ele>1675.496879778</ele>
        <time>2015-11-05T12:30:33Z</time>
      </trkpt>
      <trkpt lat="45.41224" lon="5.92265">
        <ele>1680.114938532</ele>
        <time>2015-11-05T12:30:43Z</time>
      </trkpt>
      <trkpt lat="45.41224" lon="5.92263">
        <ele>1680.114938532</ele>
        <time>2015-11-05T12:30:48Z</time>
      </trkpt>
      <trkpt lat="45.41214" lon="5.92262">
        <ele>1683.75912669</ele>
        <time>2015-11-05T12:30:58Z</time>
      </trkpt>
      <trkpt lat="45.4121" lon="5.92261">
        <ele>1683.75912669</ele>
        <time>2015-11-05T12:31:02Z</time>
      </trkpt>
      <trkpt lat="45.41203" lon="5.92258">
        <ele>1687.505225823</ele>
        <time>2015-11-05T12:31:13Z</time>
      </trkpt>
      <trkpt lat="45.41202" lon="5.92254">
        <ele>1687.505225823</ele>
        <time>2015-11-05T12:31:18Z</time>
      </trkpt>
      <trkpt lat="45.41194" lon="5.92253">
        <ele>1690.044116431</ele>
        <time>2015-11-05T12:31:28Z</time>
      </trkpt>
      <trkpt lat="45.41195" lon="5.92253">
        <ele>1690.044116431</ele>
        <time>2015-11-05T12:31:33Z</time>
      </trkpt>
      <trkpt lat="45.4119" lon="5.92247">
        <ele>1690.044116431</ele>
        <time>2015-11-05T12:31:43Z</time>
      </trkpt>
      <trkpt lat="45.4119" lon="5.92245">
        <ele>1690.044116431</ele>
        <time>2015-11-05T12:31:48Z</time>
      </trkpt>
      <trkpt lat="45.41181" lon="5.92245">
        <ele>1693.048643462</ele>
        <time>2015-11-05T12:32:03Z</time>
      </trkpt>
      <trkpt lat="45.4118" lon="5.92243">
        <ele>1693.048643462</ele>
        <time>2015-11-05T12:32:08Z</time>
      </trkpt>
      <trkpt lat="45.41173" lon="5.92237">
        <ele>1695.761861885</ele>
        <time>2015-11-05T12:32:18Z</time>
      </trkpt>
      <trkpt lat="45.41174" lon="5.92235">
        <ele>1695.761861885</ele>
        <time>2015-11-05T12:32:22Z</time>
      </trkpt>
      <trkpt lat="45.41174" lon="5.92236">
        <ele>1695.761861885</ele>
        <time>2015-11-05T12:32:33Z</time>
      </trkpt>
      <trkpt lat="45.41174" lon="5.92236">
        <ele>1695.761861885</ele>
        <time>2015-11-05T12:32:38Z</time>
      </trkpt>
      <trkpt lat="45.41167" lon="5.92232">
        <ele>1698.780422762</ele>
        <time>2015-11-05T12:32:47Z</time>
      </trkpt>
      <trkpt lat="45.41163" lon="5.92233">
        <ele>1698.780422762</ele>
        <time>2015-11-05T12:32:53Z</time>
      </trkpt>
      <trkpt lat="45.41162" lon="5.92233">
        <ele>1698.780422762</ele>
        <time>2015-11-05T12:33:03Z</time>
      </trkpt>
      <trkpt lat="45.41164" lon="5.92234">
        <ele>1698.780422762</ele>
        <time>2015-11-05T12:33:08Z</time>
      </trkpt>
      <trkpt lat="45.41165" lon="5.92233">
        <ele>1698.780422762</ele>
        <time>2015-11-05T12:33:18Z</time>
      </trkpt>
      <trkpt lat="45.41163" lon="5.92232">
        <ele>1702.224123484</ele>
        <time>2015-11-05T12:33:23Z</time>
      </trkpt>
      <trkpt lat="45.41163" lon="5.92231">
        <ele>1702.224123484</ele>
        <time>2015-11-05T12:33:33Z</time>
      </trkpt>
      <trkpt lat="45.41163" lon="5.92231">
        <ele>1702.224123484</ele>
        <time>2015-11-05T12:33:38Z</time>
      </trkpt>
      <trkpt lat="45.4116" lon="5.9223">
        <ele>1702.224123484</ele>
        <time>2015-11-05T12:33:48Z</time>
      </trkpt>
      <trkpt lat="45.4116" lon="5.9223">
        <ele>1702.224123484</ele>
        <time>2015-11-05T12:33:53Z</time>
      </trkpt>
      <trkpt lat="45.41159" lon="5.92231">
        <ele>1702.224123484</ele>
        <time>2015-11-05T12:33:58Z</time>
      </trkpt>
      <trkpt lat="45.41153" lon="5.92229">
        <ele>1705.48237216</ele>
        <time>2015-11-05T12:34:08Z</time>
      </trkpt>
      <trkpt lat="45.4115" lon="5.9223">
        <ele>1705.48237216</ele>
        <time>2015-11-05T12:34:13Z</time>
      </trkpt>
      <trkpt lat="45.41148" lon="5.92231">
        <ele>1705.48237216</ele>
        <time>2015-11-05T12:34:23Z</time>
      </trkpt>
      <trkpt lat="45.41147" lon="5.92231">
        <ele>1705.48237216</ele>
        <time>2015-11-05T12:34:28Z</time>
      </trkpt>
      <trkpt lat="45.41143" lon="5.92233">
        <ele>1708.134214679</ele>
        <time>2015-11-05T12:34:38Z</time>
      </trkpt>
      <trkpt lat="45.41139" lon="5.92227">
        <ele>1708.134214679</ele>
        <time>2015-11-05T12:34:43Z</time>
      </trkpt>
      <trkpt lat="45.41134" lon="5.92227">
        <ele>1710.800245277</ele>
        <time>2015-11-05T12:34:53Z</time>
      </trkpt>
      <trkpt lat="45.41133" lon="5.92227">
        <ele>1710.800245277</ele>
        <time>2015-11-05T12:34:58Z</time>
      </trkpt>
      <trkpt lat="45.41123" lon="5.92219">
        <ele>1714.055569319</ele>
        <time>2015-11-05T12:35:08Z</time>
      </trkpt>
      <trkpt lat="45.41122" lon="5.92219">
        <ele>1714.055569319</ele>
        <time>2015-11-05T12:35:12Z</time>
      </trkpt>
      <trkpt lat="45.41121" lon="5.92218">
        <ele>1714.055569319</ele>
        <time>2015-11-05T12:35:18Z</time>
      </trkpt>
      <trkpt lat="45.41118" lon="5.92219">
        <ele>1714.055569319</ele>
        <time>2015-11-05T12:35:28Z</time>
      </trkpt>
      <trkpt lat="45.41117" lon="5.92219">
        <ele>1714.055569319</ele>
        <time>2015-11-05T12:35:33Z</time>
      </trkpt>
      <trkpt lat="45.41111" lon="5.9221">
        <ele>1717.278635008</ele>
        <time>2015-11-05T12:35:43Z</time>
      </trkpt>
      <trkpt lat="45.41107" lon="5.92204">
        <ele>1717.278635008</ele>
        <time>2015-11-05T12:35:48Z</time>
      </trkpt>
      <trkpt lat="45.41103" lon="5.92199">
        <ele>1719.605541527</ele>
        <time>2015-11-05T12:35:58Z</time>
      </trkpt>
      <trkpt lat="45.411" lon="5.92197">
        <ele>1719.605541527</ele>
        <time>2015-11-05T12:36:03Z</time>
      </trkpt>
      <trkpt lat="45.41099" lon="5.92193">
        <ele>1719.605541527</ele>
        <time>2015-11-05T12:36:13Z</time>
      </trkpt>
      <trkpt lat="45.41099" lon="5.92193">
        <ele>1719.605541527</ele>
        <time>2015-11-05T12:36:18Z</time>
      </trkpt>
      <trkpt lat="45.41099" lon="5.92193">
        <ele>1719.605541527</ele>
        <time>2015-11-05T12:36:28Z</time>
      </trkpt>
      <trkpt lat="45.41099" lon="5.92193">
        <ele>1719.605541527</ele>
        <time>2015-11-05T12:36:33Z</time>
      </trkpt>
      <trkpt lat="45.41098" lon="5.92193">
        <ele>1719.605541527</ele>
        <time>2015-11-05T12:36:43Z</time>
      </trkpt>
      <trkpt lat="45.41098" lon="5.92194">
        <ele>1719.605541527</ele>
        <time>2015-11-05T12:36:48Z</time>
      </trkpt>
      <trkpt lat="45.41098" lon="5.92195">
        <ele>1719.605541527</ele>
        <time>2015-11-05T12:36:58Z</time>
      </trkpt>
      <trkpt lat="45.41099" lon="5.92195">
        <ele>1721.67959085</ele>
        <time>2015-11-05T12:37:03Z</time>
      </trkpt>
      <trkpt lat="45.41104" lon="5.92198">
        <ele>1721.67959085</ele>
        <time>2015-11-05T12:37:13Z</time>
      </trkpt>
      <trkpt lat="45.41104" lon="5.92201">
        <ele>1721.67959085</ele>
        <time>2015-11-05T12:37:18Z</time>
      </trkpt>
      <trkpt lat="45.41106" lon="5.92201">
        <ele>1721.67959085</ele>
        <time>2015-11-05T12:37:28Z</time>
      </trkpt>
      <trkpt lat="45.41106" lon="5.92202">
        <ele>1723.521198484</ele>
        <time>2015-11-05T12:37:34Z</time>
      </trkpt>
      <trkpt lat="45.41107" lon="5.92202">
        <ele>1723.521198484</ele>
        <time>2015-11-05T12:37:47Z</time>
      </trkpt>
      <trkpt lat="45.41107" lon="5.92201">
        <ele>1723.521198484</ele>
        <time>2015-11-05T12:38:03Z</time>
      </trkpt>
      <trkpt lat="45.41108" lon="5.92201">
        <ele>1723.521198484</ele>
        <time>2015-11-05T12:38:08Z</time>
      </trkpt>
      <trkpt lat="45.41111" lon="5.92207">
        <ele>1723.521198484</ele>
        <time>2015-11-05T12:38:18Z</time>
      </trkpt>
      <trkpt lat="45.41114" lon="5.92208">
        <ele>1726.302916443</ele>
        <time>2015-11-05T12:38:23Z</time>
      </trkpt>
      <trkpt lat="45.41119" lon="5.92217">
        <ele>1726.302916443</ele>
        <time>2015-11-05T12:38:33Z</time>
      </trkpt>
      <trkpt lat="45.41119" lon="5.92218">
        <ele>1726.302916443</ele>
        <time>2015-11-05T12:38:38Z</time>
      </trkpt>
      <trkpt lat="45.41122" lon="5.92221">
        <ele>1728.802829089</ele>
        <time>2015-11-05T12:38:48Z</time>
      </trkpt>
      <trkpt lat="45.41123" lon="5.9222">
        <ele>1728.802829089</ele>
        <time>2015-11-05T12:38:53Z</time>
      </trkpt>
      <trkpt lat="45.41123" lon="5.92222">
        <ele>1728.802829089</ele>
        <time>2015-11-05T12:39:03Z</time>
      </trkpt>
      <trkpt lat="45.41123" lon="5.92223">
        <ele>1728.802829089</ele>
        <time>2015-11-05T12:39:08Z</time>
      </trkpt>
      <trkpt lat="45.41127" lon="5.92231">
        <ele>1731.618980216</ele>
        <time>2015-11-05T12:39:18Z</time>
      </trkpt>
      <trkpt lat="45.41127" lon="5.92232">
        <ele>1731.618980216</ele>
        <time>2015-11-05T12:39:23Z</time>
      </trkpt>
      <trkpt lat="45.41129" lon="5.92237">
        <ele>1731.618980216</ele>
        <time>2015-11-05T12:39:33Z</time>
      </trkpt>
      <trkpt lat="45.41129" lon="5.9224">
        <ele>1731.618980216</ele>
        <time>2015-11-05T12:39:38Z</time>
      </trkpt>
      <trkpt lat="45.41131" lon="5.92251">
        <ele>1733.57532502</ele>
        <time>2015-11-05T12:39:47Z</time>
      </trkpt>
      <trkpt lat="45.41131" lon="5.92251">
        <ele>1733.57532502</ele>
        <time>2015-11-05T12:39:53Z</time>
      </trkpt>
      <trkpt lat="45.41131" lon="5.92251">
        <ele>1733.57532502</ele>
        <time>2015-11-05T12:40:02Z</time>
      </trkpt>
      <trkpt lat="45.41133" lon="5.92252">
        <ele>1733.57532502</ele>
        <time>2015-11-05T12:40:07Z</time>
      </trkpt>
      <trkpt lat="45.41133" lon="5.92251">
        <ele>1733.57532502</ele>
        <time>2015-11-05T12:40:18Z</time>
      </trkpt>
      <trkpt lat="45.41134" lon="5.92251">
        <ele>1733.57532502</ele>
        <time>2015-11-05T12:40:24Z</time>
      </trkpt>
      <trkpt lat="45.41134" lon="5.92251">
        <ele>1733.57532502</ele>
        <time>2015-11-05T12:40:28Z</time>
      </trkpt>
      <trkpt lat="45.41133" lon="5.92255">
        <ele>1733.57532502</ele>
        <time>2015-11-05T12:40:38Z</time>
      </trkpt>
      <trkpt lat="45.41133" lon="5.92256">
        <ele>1733.57532502</ele>
        <time>2015-11-05T12:40:43Z</time>
      </trkpt>
      <trkpt lat="45.41133" lon="5.92255">
        <ele>1733.57532502</ele>
        <time>2015-11-05T12:40:53Z</time>
      </trkpt>
      <trkpt lat="45.41133" lon="5.92255">
        <ele>1733.57532502</ele>
        <time>2015-11-05T12:40:58Z</time>
      </trkpt>
      <trkpt lat="45.41133" lon="5.92255">
        <ele>1733.57532502</ele>
        <time>2015-11-05T12:41:08Z</time>
      </trkpt>
      <trkpt lat="45.41133" lon="5.92255">
        <ele>1733.57532502</ele>
        <time>2015-11-05T12:41:13Z</time>
      </trkpt>
      <trkpt lat="45.41132" lon="5.92258">
        <ele>1736.755126076</ele>
        <time>2015-11-05T12:41:23Z</time>
      </trkpt>
      <trkpt lat="45.41129" lon="5.92257">
        <ele>1736.755126076</ele>
        <time>2015-11-05T12:41:28Z</time>
      </trkpt>
      <trkpt lat="45.41127" lon="5.9226">
        <ele>1736.755126076</ele>
        <time>2015-11-05T12:41:38Z</time>
      </trkpt>
      <trkpt lat="45.41127" lon="5.9226">
        <ele>1736.755126076</ele>
        <time>2015-11-05T12:41:43Z</time>
      </trkpt>
      <trkpt lat="45.41124" lon="5.9226">
        <ele>1736.755126076</ele>
        <time>2015-11-05T12:41:54Z</time>
      </trkpt>
      <trkpt lat="45.41124" lon="5.92262">
        <ele>1739.626562257</ele>
        <time>2015-11-05T12:41:58Z</time>
      </trkpt>
      <trkpt lat="45.41124" lon="5.92261">
        <ele>1739.626562257</ele>
        <time>2015-11-05T12:42:03Z</time>
      </trkpt>
      <trkpt lat="45.41122" lon="5.92263">
        <ele>1739.626562257</ele>
        <time>2015-11-05T12:42:13Z</time>
      </trkpt>
      <trkpt lat="45.41123" lon="5.92264">
        <ele>1739.626562257</ele>
        <time>2015-11-05T12:42:17Z</time>
      </trkpt>
      <trkpt lat="45.4112" lon="5.9226">
        <ele>1739.626562257</ele>
        <time>2015-11-05T12:42:28Z</time>
      </trkpt>
      <trkpt lat="45.41119" lon="5.92264">
        <ele>1742.356473153</ele>
        <time>2015-11-05T12:42:32Z</time>
      </trkpt>
      <trkpt lat="45.41118" lon="5.92262">
        <ele>1742.356473153</ele>
        <time>2015-11-05T12:42:43Z</time>
      </trkpt>
      <trkpt lat="45.41118" lon="5.92262">
        <ele>1742.356473153</ele>
        <time>2015-11-05T12:42:48Z</time>
      </trkpt>
      <trkpt lat="45.41119" lon="5.92268">
        <ele>1742.356473153</ele>
        <time>2015-11-05T12:43:03Z</time>
      </trkpt>
      <trkpt lat="45.41119" lon="5.92268">
        <ele>1742.356473153</ele>
        <time>2015-11-05T12:43:08Z</time>
      </trkpt>
      <trkpt lat="45.41119" lon="5.92268">
        <ele>1742.356473153</ele>
        <time>2015-11-05T12:43:18Z</time>
      </trkpt>
      <trkpt lat="45.41119" lon="5.92268">
        <ele>1742.356473153</ele>
        <time>2015-11-05T12:43:23Z</time>
      </trkpt>
      <trkpt lat="45.41119" lon="5.92268">
        <ele>1742.356473153</ele>
        <time>2015-11-05T12:43:33Z</time>
      </trkpt>
      <trkpt lat="45.41119" lon="5.92271">
        <ele>1742.356473153</ele>
        <time>2015-11-05T12:43:38Z</time>
      </trkpt>
      <trkpt lat="45.4112" lon="5.92268">
        <ele>1745.243992214</ele>
        <time>2015-11-05T12:43:42Z</time>
      </trkpt>
      <trkpt lat="45.41121" lon="5.9227">
        <ele>1745.243992214</ele>
        <time>2015-11-05T12:43:47Z</time>
      </trkpt>
      <trkpt lat="45.41121" lon="5.9227">
        <ele>1745.243992214</ele>
        <time>2015-11-05T12:43:52Z</time>
      </trkpt>
      <trkpt lat="45.41121" lon="5.9227">
        <ele>1745.243992214</ele>
        <time>2015-11-05T12:43:58Z</time>
      </trkpt>
      <trkpt lat="45.41121" lon="5.9227">
        <ele>1745.243992214</ele>
        <time>2015-11-05T12:44:08Z</time>
      </trkpt>
      <trkpt lat="45.41121" lon="5.9227">
        <ele>1745.243992214</ele>
        <time>2015-11-05T12:44:13Z</time>
      </trkpt>
      <trkpt lat="45.41121" lon="5.9227">
        <ele>1745.243992214</ele>
        <time>2015-11-05T12:44:28Z</time>
      </trkpt>
      <trkpt lat="45.41121" lon="5.9227">
        <ele>1745.243992214</ele>
        <time>2015-11-05T12:44:32Z</time>
      </trkpt>
      <trkpt lat="45.41121" lon="5.9227">
        <ele>1745.243992214</ele>
        <time>2015-11-05T12:44:42Z</time>
      </trkpt>
      <trkpt lat="45.41121" lon="5.9227">
        <ele>1745.243992214</ele>
        <time>2015-11-05T12:44:48Z</time>
      </trkpt>
      <trkpt lat="45.41121" lon="5.9227">
        <ele>1745.243992214</ele>
        <time>2015-11-05T12:45:03Z</time>
      </trkpt>
      <trkpt lat="45.41123" lon="5.92274">
        <ele>1745.243992214</ele>
        <time>2015-11-05T12:45:18Z</time>
      </trkpt>
      <trkpt lat="45.41124" lon="5.92277">
        <ele>1745.243992214</ele>
        <time>2015-11-05T12:45:28Z</time>
      </trkpt>
      <trkpt lat="45.41124" lon="5.92276">
        <ele>1745.243992214</ele>
        <time>2015-11-05T12:45:32Z</time>
      </trkpt>
      <trkpt lat="45.41124" lon="5.92279">
        <ele>1748.565875598</ele>
        <time>2015-11-05T12:45:38Z</time>
      </trkpt>
      <trkpt lat="45.41125" lon="5.92284">
        <ele>1748.565875598</ele>
        <time>2015-11-05T12:45:53Z</time>
      </trkpt>
      <trkpt lat="45.4113" lon="5.92287">
        <ele>1751.712699998</ele>
        <time>2015-11-05T12:46:08Z</time>
      </trkpt>
      <trkpt lat="45.41135" lon="5.92294">
        <ele>1751.712699998</ele>
        <time>2015-11-05T12:46:23Z</time>
      </trkpt>
      <trkpt lat="45.41134" lon="5.92295">
        <ele>1751.712699998</ele>
        <time>2015-11-05T12:46:28Z</time>
      </trkpt>
      <trkpt lat="45.41135" lon="5.92305">
        <ele>1755.273225784</ele>
        <time>2015-11-05T12:46:38Z</time>
      </trkpt>
      <trkpt lat="45.41133" lon="5.92306">
        <ele>1755.273225784</ele>
        <time>2015-11-05T12:46:43Z</time>
      </trkpt>
      <trkpt lat="45.41133" lon="5.92305">
        <ele>1755.273225784</ele>
        <time>2015-11-05T12:46:53Z</time>
      </trkpt>
      <trkpt lat="45.41134" lon="5.92306">
        <ele>1755.273225784</ele>
        <time>2015-11-05T12:46:57Z</time>
      </trkpt>
      <trkpt lat="45.41134" lon="5.92307">
        <ele>1755.273225784</ele>
        <time>2015-11-05T12:47:07Z</time>
      </trkpt>
      <trkpt lat="45.41134" lon="5.92314">
        <ele>1757.918391615</ele>
        <time>2015-11-05T12:47:13Z</time>
      </trkpt>
      <trkpt lat="45.41136" lon="5.92317">
        <ele>1757.918391615</ele>
        <time>2015-11-05T12:47:23Z</time>
      </trkpt>
      <trkpt lat="45.41136" lon="5.92317">
        <ele>1757.918391615</ele>
        <time>2015-11-05T12:47:28Z</time>
      </trkpt>
      <trkpt lat="45.41136" lon="5.92317">
        <ele>1757.918391615</ele>
        <time>2015-11-05T12:47:38Z</time>
      </trkpt>
      <trkpt lat="45.41136" lon="5.92317">
        <ele>1757.918391615</ele>
        <time>2015-11-05T12:47:43Z</time>
      </trkpt>
      <trkpt lat="45.41132" lon="5.92316">
        <ele>1757.918391615</ele>
        <time>2015-11-05T12:47:53Z</time>
      </trkpt>
      <trkpt lat="45.41131" lon="5.92317">
        <ele>1757.918391615</ele>
        <time>2015-11-05T12:47:58Z</time>
      </trkpt>
      <trkpt lat="45.4113" lon="5.92318">
        <ele>1760.581036095</ele>
        <time>2015-11-05T12:48:08Z</time>
      </trkpt>
      <trkpt lat="45.4113" lon="5.92318">
        <ele>1760.581036095</ele>
        <time>2015-11-05T12:48:13Z</time>
      </trkpt>
      <trkpt lat="45.4113" lon="5.92318">
        <ele>1760.581036095</ele>
        <time>2015-11-05T12:48:23Z</time>
      </trkpt>
      <trkpt lat="45.4113" lon="5.92318">
        <ele>1760.581036095</ele>
        <time>2015-11-05T12:48:28Z</time>
      </trkpt>
      <trkpt lat="45.4113" lon="5.92318">
        <ele>1760.581036095</ele>
        <time>2015-11-05T12:48:33Z</time>
      </trkpt>
      <trkpt lat="45.4113" lon="5.92318">
        <ele>1760.581036095</ele>
        <time>2015-11-05T12:48:38Z</time>
      </trkpt>
      <trkpt lat="45.41127" lon="5.92318">
        <ele>1760.581036095</ele>
        <time>2015-11-05T12:48:43Z</time>
      </trkpt>
      <trkpt lat="45.41127" lon="5.92318">
        <ele>1760.581036095</ele>
        <time>2015-11-05T12:48:58Z</time>
      </trkpt>
      <trkpt lat="45.41127" lon="5.92318">
        <ele>1760.581036095</ele>
        <time>2015-11-05T12:49:03Z</time>
      </trkpt>
      <trkpt lat="45.41127" lon="5.92318">
        <ele>1760.581036095</ele>
        <time>2015-11-05T12:49:13Z</time>
      </trkpt>
      <trkpt lat="45.41127" lon="5.92318">
        <ele>1760.581036095</ele>
        <time>2015-11-05T12:49:18Z</time>
      </trkpt>
      <trkpt lat="45.41127" lon="5.9232">
        <ele>1760.581036095</ele>
        <time>2015-11-05T12:49:27Z</time>
      </trkpt>
      <trkpt lat="45.41127" lon="5.92321">
        <ele>1760.581036095</ele>
        <time>2015-11-05T12:49:33Z</time>
      </trkpt>
      <trkpt lat="45.41128" lon="5.92321">
        <ele>1760.581036095</ele>
        <time>2015-11-05T12:49:43Z</time>
      </trkpt>
      <trkpt lat="45.41128" lon="5.92321">
        <ele>1760.581036095</ele>
        <time>2015-11-05T12:49:47Z</time>
      </trkpt>
      <trkpt lat="45.41128" lon="5.92321">
        <ele>1760.581036095</ele>
        <time>2015-11-05T12:49:58Z</time>
      </trkpt>
      <trkpt lat="45.41128" lon="5.92321">
        <ele>1760.581036095</ele>
        <time>2015-11-05T12:50:03Z</time>
      </trkpt>
      <trkpt lat="45.41125" lon="5.92317">
        <ele>1762.107894505</ele>
        <time>2015-11-05T12:50:13Z</time>
      </trkpt>
      <trkpt lat="45.41124" lon="5.92318">
        <ele>1762.107894505</ele>
        <time>2015-11-05T12:50:18Z</time>
      </trkpt>
      <trkpt lat="45.4112" lon="5.92315">
        <ele>1762.107894505</ele>
        <time>2015-11-05T12:50:28Z</time>
      </trkpt>
      <trkpt lat="45.41117" lon="5.92317">
        <ele>1762.107894505</ele>
        <time>2015-11-05T12:50:33Z</time>
      </trkpt>
      <trkpt lat="45.41108" lon="5.92315">
        <ele>1765.180520141</ele>
        <time>2015-11-05T12:50:48Z</time>
      </trkpt>
      <trkpt lat="45.41108" lon="5.92313">
        <ele>1765.180520141</ele>
        <time>2015-11-05T12:50:53Z</time>
      </trkpt>
      <trkpt lat="45.41106" lon="5.92309">
        <ele>1765.180520141</ele>
        <time>2015-11-05T12:51:03Z</time>
      </trkpt>
      <trkpt lat="45.41105" lon="5.92311">
        <ele>1765.180520141</ele>
        <time>2015-11-05T12:51:08Z</time>
      </trkpt>
      <trkpt lat="45.411" lon="5.9231">
        <ele>1768.388160999</ele>
        <time>2015-11-05T12:51:18Z</time>
      </trkpt>
      <trkpt lat="45.41096" lon="5.9231">
        <ele>1768.388160999</ele>
        <time>2015-11-05T12:51:23Z</time>
      </trkpt>
      <trkpt lat="45.41094" lon="5.9231">
        <ele>1768.388160999</ele>
        <time>2015-11-05T12:51:33Z</time>
      </trkpt>
      <trkpt lat="45.41092" lon="5.92308">
        <ele>1768.388160999</ele>
        <time>2015-11-05T12:51:38Z</time>
      </trkpt>
      <trkpt lat="45.4109" lon="5.92308">
        <ele>1771.57622251</ele>
        <time>2015-11-05T12:51:48Z</time>
      </trkpt>
      <trkpt lat="45.4109" lon="5.92311">
        <ele>1771.57622251</ele>
        <time>2015-11-05T12:51:53Z</time>
      </trkpt>
      <trkpt lat="45.41092" lon="5.92307">
        <ele>1771.57622251</ele>
        <time>2015-11-05T12:52:02Z</time>
      </trkpt>
      <trkpt lat="45.41093" lon="5.92307">
        <ele>1771.57622251</ele>
        <time>2015-11-05T12:52:07Z</time>
      </trkpt>
      <trkpt lat="45.41099" lon="5.92312">
        <ele>1774.889755899</ele>
        <time>2015-11-05T12:52:19Z</time>
      </trkpt>
      <trkpt lat="45.41099" lon="5.9231">
        <ele>1774.889755899</ele>
        <time>2015-11-05T12:52:22Z</time>
      </trkpt>
      <trkpt lat="45.41101" lon="5.92312">
        <ele>1774.889755899</ele>
        <time>2015-11-05T12:52:33Z</time>
      </trkpt>
      <trkpt lat="45.41105" lon="5.92316">
        <ele>1778.030484188</ele>
        <time>2015-11-05T12:52:38Z</time>
      </trkpt>
      <trkpt lat="45.41102" lon="5.92321">
        <ele>1778.030484188</ele>
        <time>2015-11-05T12:52:48Z</time>
      </trkpt>
      <trkpt lat="45.41099" lon="5.92321">
        <ele>1778.030484188</ele>
        <time>2015-11-05T12:52:53Z</time>
      </trkpt>
      <trkpt lat="45.41096" lon="5.92316">
        <ele>1781.010761775</ele>
        <time>2015-11-05T12:53:03Z</time>
      </trkpt>
      <trkpt lat="45.41095" lon="5.92315">
        <ele>1781.010761775</ele>
        <time>2015-11-05T12:53:08Z</time>
      </trkpt>
      <trkpt lat="45.4109" lon="5.9231">
        <ele>1781.010761775</ele>
        <time>2015-11-05T12:53:23Z</time>
      </trkpt>
      <trkpt lat="45.4109" lon="5.9231">
        <ele>1781.010761775</ele>
        <time>2015-11-05T12:53:28Z</time>
      </trkpt>
      <trkpt lat="45.4109" lon="5.92312">
        <ele>1781.010761775</ele>
        <time>2015-11-05T12:53:38Z</time>
      </trkpt>
      <trkpt lat="45.4109" lon="5.92316">
        <ele>1783.121941257</ele>
        <time>2015-11-05T12:53:43Z</time>
      </trkpt>
      <trkpt lat="45.4109" lon="5.92313">
        <ele>1783.121941257</ele>
        <time>2015-11-05T12:53:53Z</time>
      </trkpt>
      <trkpt lat="45.4109" lon="5.92313">
        <ele>1783.121941257</ele>
        <time>2015-11-05T12:53:58Z</time>
      </trkpt>
      <trkpt lat="45.41084" lon="5.92314">
        <ele>1783.121941257</ele>
        <time>2015-11-05T12:54:08Z</time>
      </trkpt>
      <trkpt lat="45.41081" lon="5.92311">
        <ele>1785.439212798</ele>
        <time>2015-11-05T12:54:12Z</time>
      </trkpt>
      <trkpt lat="45.41072" lon="5.92305">
        <ele>1787.372986084</ele>
        <time>2015-11-05T12:54:23Z</time>
      </trkpt>
      <trkpt lat="45.41068" lon="5.923">
        <ele>1787.372986084</ele>
        <time>2015-11-05T12:54:28Z</time>
      </trkpt>
      <trkpt lat="45.41064" lon="5.92295">
        <ele>1788.954497997</ele>
        <time>2015-11-05T12:54:38Z</time>
      </trkpt>
      <trkpt lat="45.41061" lon="5.92292">
        <ele>1788.954497997</ele>
        <time>2015-11-05T12:54:43Z</time>
      </trkpt>
      <trkpt lat="45.4106" lon="5.92295">
        <ele>1788.954497997</ele>
        <time>2015-11-05T12:54:58Z</time>
      </trkpt>
      <trkpt lat="45.41054" lon="5.92293">
        <ele>1789.925442293</ele>
        <time>2015-11-05T12:55:13Z</time>
      </trkpt>
      <trkpt lat="45.41046" lon="5.92292">
        <ele>1789.925442293</ele>
        <time>2015-11-05T12:55:28Z</time>
      </trkpt>
      <trkpt lat="45.41045" lon="5.92291">
        <ele>1791.056953366</ele>
        <time>2015-11-05T12:55:33Z</time>
      </trkpt>
      <trkpt lat="45.41044" lon="5.92289">
        <ele>1791.056953366</ele>
        <time>2015-11-05T12:55:43Z</time>
      </trkpt>
      <trkpt lat="45.41045" lon="5.9229">
        <ele>1791.056953366</ele>
        <time>2015-11-05T12:55:48Z</time>
      </trkpt>
      <trkpt lat="45.41045" lon="5.92289">
        <ele>1791.056953366</ele>
        <time>2015-11-05T12:55:58Z</time>
      </trkpt>
      <trkpt lat="45.41045" lon="5.92289">
        <ele>1791.056953366</ele>
        <time>2015-11-05T12:56:03Z</time>
      </trkpt>
      <trkpt lat="45.41045" lon="5.92289">
        <ele>1791.056953366</ele>
        <time>2015-11-05T12:56:13Z</time>
      </trkpt>
      <trkpt lat="45.41045" lon="5.92289">
        <ele>1791.056953366</ele>
        <time>2015-11-05T12:56:18Z</time>
      </trkpt>
      <trkpt lat="45.41043" lon="5.92289">
        <ele>1791.056953366</ele>
        <time>2015-11-05T12:56:27Z</time>
      </trkpt>
      <trkpt lat="45.41042" lon="5.92289">
        <ele>1791.056953366</ele>
        <time>2015-11-05T12:56:33Z</time>
      </trkpt>
      <trkpt lat="45.41041" lon="5.92289">
        <ele>1791.056953366</ele>
        <time>2015-11-05T12:56:38Z</time>
      </trkpt>
      <trkpt lat="45.41041" lon="5.92289">
        <ele>1791.056953366</ele>
        <time>2015-11-05T12:56:48Z</time>
      </trkpt>
      <trkpt lat="45.41041" lon="5.92289">
        <ele>1791.056953366</ele>
        <time>2015-11-05T12:56:53Z</time>
      </trkpt>
      <trkpt lat="45.41039" lon="5.92288">
        <ele>1793.063031863</ele>
        <time>2015-11-05T12:57:03Z</time>
      </trkpt>
      <trkpt lat="45.41039" lon="5.92289">
        <ele>1793.063031863</ele>
        <time>2015-11-05T12:57:08Z</time>
      </trkpt>
      <trkpt lat="45.41036" lon="5.92294">
        <ele>1793.063031863</ele>
        <time>2015-11-05T12:57:23Z</time>
      </trkpt>
      <trkpt lat="45.41033" lon="5.92295">
        <ele>1793.063031863</ele>
        <time>2015-11-05T12:57:28Z</time>
      </trkpt>
      <trkpt lat="45.41027" lon="5.92296">
        <ele>1794.729282847</ele>
        <time>2015-11-05T12:57:38Z</time>
      </trkpt>
      <trkpt lat="45.41026" lon="5.92297">
        <ele>1794.729282847</ele>
        <time>2015-11-05T12:57:43Z</time>
      </trkpt>
      <trkpt lat="45.41022" lon="5.92297">
        <ele>1794.729282847</ele>
        <time>2015-11-05T12:57:53Z</time>
      </trkpt>
      <trkpt lat="45.41022" lon="5.92297">
        <ele>1794.729282847</ele>
        <time>2015-11-05T12:57:58Z</time>
      </trkpt>
      <trkpt lat="45.41021" lon="5.92298">
        <ele>1794.729282847</ele>
        <time>2015-11-05T12:58:08Z</time>
      </trkpt>
      <trkpt lat="45.41021" lon="5.92299">
        <ele>1794.729282847</ele>
        <time>2015-11-05T12:58:13Z</time>
      </trkpt>
      <trkpt lat="45.41021" lon="5.92298">
        <ele>1794.729282847</ele>
        <time>2015-11-05T12:58:23Z</time>
      </trkpt>
      <trkpt lat="45.41021" lon="5.92298">
        <ele>1794.729282847</ele>
        <time>2015-11-05T12:58:28Z</time>
      </trkpt>
      <trkpt lat="45.41019" lon="5.923">
        <ele>1795.940194972</ele>
        <time>2015-11-05T12:58:43Z</time>
      </trkpt>
      <trkpt lat="45.41019" lon="5.92298">
        <ele>1795.940194972</ele>
        <time>2015-11-05T12:58:48Z</time>
      </trkpt>
      <trkpt lat="45.41019" lon="5.92298">
        <ele>1795.940194972</ele>
        <time>2015-11-05T12:58:53Z</time>
      </trkpt>
      <trkpt lat="45.41019" lon="5.92298">
        <ele>1795.940194972</ele>
        <time>2015-11-05T12:58:58Z</time>
      </trkpt>
      <trkpt lat="45.41019" lon="5.92298">
        <ele>1795.940194972</ele>
        <time>2015-11-05T12:59:03Z</time>
      </trkpt>
      <trkpt lat="45.41019" lon="5.92297">
        <ele>1795.940194972</ele>
        <time>2015-11-05T12:59:13Z</time>
      </trkpt>
      <trkpt lat="45.41019" lon="5.92297">
        <ele>1795.940194972</ele>
        <time>2015-11-05T12:59:18Z</time>
      </trkpt>
      <trkpt lat="45.41019" lon="5.92297">
        <ele>1795.940194972</ele>
        <time>2015-11-05T12:59:28Z</time>
      </trkpt>
      <trkpt lat="45.41019" lon="5.92297">
        <ele>1795.940194972</ele>
        <time>2015-11-05T12:59:33Z</time>
      </trkpt>
      <trkpt lat="45.41019" lon="5.92297">
        <ele>1795.940194972</ele>
        <time>2015-11-05T12:59:43Z</time>
      </trkpt>
      <trkpt lat="45.41019" lon="5.92297">
        <ele>1795.940194972</ele>
        <time>2015-11-05T12:59:48Z</time>
      </trkpt>
      <trkpt lat="45.41019" lon="5.92298">
        <ele>1795.940194972</ele>
        <time>2015-11-05T12:59:58Z</time>
      </trkpt>
      <trkpt lat="45.41017" lon="5.923">
        <ele>1795.940194972</ele>
        <time>2015-11-05T13:00:03Z</time>
      </trkpt>
      <trkpt lat="45.41016" lon="5.92299">
        <ele>1795.940194972</ele>
        <time>2015-11-05T13:00:13Z</time>
      </trkpt>
      <trkpt lat="45.41017" lon="5.92294">
        <ele>1797.598733823</ele>
        <time>2015-11-05T13:00:17Z</time>
      </trkpt>
      <trkpt lat="45.41017" lon="5.92293">
        <ele>1797.598733823</ele>
        <time>2015-11-05T13:00:27Z</time>
      </trkpt>
      <trkpt lat="45.41017" lon="5.92293">
        <ele>1797.598733823</ele>
        <time>2015-11-05T13:00:33Z</time>
      </trkpt>
      <trkpt lat="45.41017" lon="5.92291">
        <ele>1797.598733823</ele>
        <time>2015-11-05T13:00:43Z</time>
      </trkpt>
      <trkpt lat="45.41017" lon="5.92291">
        <ele>1797.598733823</ele>
        <time>2015-11-05T13:00:48Z</time>
      </trkpt>
      <trkpt lat="45.41017" lon="5.92289">
        <ele>1797.598733823</ele>
        <time>2015-11-05T13:00:58Z</time>
      </trkpt>
      <trkpt lat="45.41017" lon="5.92289">
        <ele>1797.598733823</ele>
        <time>2015-11-05T13:01:03Z</time>
      </trkpt>
      <trkpt lat="45.41017" lon="5.92289">
        <ele>1797.598733823</ele>
        <time>2015-11-05T13:01:13Z</time>
      </trkpt>
      <trkpt lat="45.41016" lon="5.92291">
        <ele>1797.598733823</ele>
        <time>2015-11-05T13:01:18Z</time>
      </trkpt>
      <trkpt lat="45.41016" lon="5.9229">
        <ele>1797.598733823</ele>
        <time>2015-11-05T13:01:28Z</time>
      </trkpt>
      <trkpt lat="45.41016" lon="5.9229">
        <ele>1797.598733823</ele>
        <time>2015-11-05T13:01:33Z</time>
      </trkpt>
      <trkpt lat="45.41016" lon="5.9229">
        <ele>1797.598733823</ele>
        <time>2015-11-05T13:01:48Z</time>
      </trkpt>
      <trkpt lat="45.41016" lon="5.9229">
        <ele>1797.598733823</ele>
        <time>2015-11-05T13:01:53Z</time>
      </trkpt>
      <trkpt lat="45.41016" lon="5.9229">
        <ele>1797.598733823</ele>
        <time>2015-11-05T13:02:00Z</time>
      </trkpt>
      <trkpt lat="45.41016" lon="5.9229">
        <ele>1797.598733823</ele>
        <time>2015-11-05T13:02:03Z</time>
      </trkpt>
      <trkpt lat="45.41016" lon="5.9229">
        <ele>1797.598733823</ele>
        <time>2015-11-05T13:02:08Z</time>
      </trkpt>
      <trkpt lat="45.41016" lon="5.92289">
        <ele>1797.598733823</ele>
        <time>2015-11-05T13:02:18Z</time>
      </trkpt>
      <trkpt lat="45.41015" lon="5.92289">
        <ele>1797.598733823</ele>
        <time>2015-11-05T13:02:23Z</time>
      </trkpt>
      <trkpt lat="45.41015" lon="5.92289">
        <ele>1797.598733823</ele>
        <time>2015-11-05T13:02:33Z</time>
      </trkpt>
      <trkpt lat="45.41015" lon="5.92289">
        <ele>1797.598733823</ele>
        <time>2015-11-05T13:02:38Z</time>
      </trkpt>
      <trkpt lat="45.41015" lon="5.92291">
        <ele>1798.66676133</ele>
        <time>2015-11-05T13:02:47Z</time>
      </trkpt>
      <trkpt lat="45.41015" lon="5.92291">
        <ele>1798.66676133</ele>
        <time>2015-11-05T13:02:52Z</time>
      </trkpt>
      <trkpt lat="45.41014" lon="5.92292">
        <ele>1798.66676133</ele>
        <time>2015-11-05T13:03:03Z</time>
      </trkpt>
      <trkpt lat="45.41015" lon="5.92292">
        <ele>1798.66676133</ele>
        <time>2015-11-05T13:03:08Z</time>
      </trkpt>
      <trkpt lat="45.41014" lon="5.92293">
        <ele>1798.66676133</ele>
        <time>2015-11-05T13:03:23Z</time>
      </trkpt>
      <trkpt lat="45.41014" lon="5.92293">
        <ele>1798.66676133</ele>
        <time>2015-11-05T13:03:38Z</time>
      </trkpt>
      <trkpt lat="45.41014" lon="5.92293">
        <ele>1798.66676133</ele>
        <time>2015-11-05T13:03:43Z</time>
      </trkpt>
      <trkpt lat="45.41014" lon="5.92293">
        <ele>1798.66676133</ele>
        <time>2015-11-05T13:03:53Z</time>
      </trkpt>
      <trkpt lat="45.41014" lon="5.92293">
        <ele>1798.66676133</ele>
        <time>2015-11-05T13:03:58Z</time>
      </trkpt>
      <trkpt lat="45.41014" lon="5.92293">
        <ele>1798.66676133</ele>
        <time>2015-11-05T13:04:08Z</time>
      </trkpt>
      <trkpt lat="45.41014" lon="5.92293">
        <ele>1798.66676133</ele>
        <time>2015-11-05T13:04:13Z</time>
      </trkpt>
      <trkpt lat="45.4101" lon="5.92283">
        <ele>1799.336866272</ele>
        <time>2015-11-05T13:04:23Z</time>
      </trkpt>
      <trkpt lat="45.41007" lon="5.92282">
        <ele>1799.336866272</ele>
        <time>2015-11-05T13:04:28Z</time>
      </trkpt>
      <trkpt lat="45.41004" lon="5.92283">
        <ele>1799.336866272</ele>
        <time>2015-11-05T13:04:38Z</time>
      </trkpt>
      <trkpt lat="45.40998" lon="5.92281">
        <ele>1799.788516653</ele>
        <time>2015-11-05T13:04:43Z</time>
      </trkpt>
      <trkpt lat="45.40999" lon="5.92271">
        <ele>1799.788516653</ele>
        <time>2015-11-05T13:04:53Z</time>
      </trkpt>
      <trkpt lat="45.40998" lon="5.92268">
        <ele>1800.332621164</ele>
        <time>2015-11-05T13:04:57Z</time>
      </trkpt>
      <trkpt lat="45.40998" lon="5.92266">
        <ele>1800.332621164</ele>
        <time>2015-11-05T13:05:08Z</time>
      </trkpt>
      <trkpt lat="45.40998" lon="5.92265">
        <ele>1800.332621164</ele>
        <time>2015-11-05T13:05:13Z</time>
      </trkpt>
      <trkpt lat="45.40998" lon="5.92264">
        <ele>1800.332621164</ele>
        <time>2015-11-05T13:05:28Z</time>
      </trkpt>
      <trkpt lat="45.40992" lon="5.92259">
        <ele>1800.536322919</ele>
        <time>2015-11-05T13:05:33Z</time>
      </trkpt>
      <trkpt lat="45.4099" lon="5.92254">
        <ele>1800.536322919</ele>
        <time>2015-11-05T13:05:43Z</time>
      </trkpt>
      <trkpt lat="45.4099" lon="5.92254">
        <ele>1800.536322919</ele>
        <time>2015-11-05T13:05:48Z</time>
      </trkpt>
      <trkpt lat="45.4099" lon="5.92254">
        <ele>1800.536322919</ele>
        <time>2015-11-05T13:05:58Z</time>
      </trkpt>
      <trkpt lat="45.4099" lon="5.92254">
        <ele>1800.536322919</ele>
        <time>2015-11-05T13:06:03Z</time>
      </trkpt>
      <trkpt lat="45.4099" lon="5.92254">
        <ele>1800.536322919</ele>
        <time>2015-11-05T13:06:08Z</time>
      </trkpt>
      <trkpt lat="45.4099" lon="5.92254">
        <ele>1800.536322919</ele>
        <time>2015-11-05T13:06:12Z</time>
      </trkpt>
      <trkpt lat="45.4099" lon="5.92254">
        <ele>1800.536322919</ele>
        <time>2015-11-05T13:06:17Z</time>
      </trkpt>
      <trkpt lat="45.4099" lon="5.92252">
        <ele>1800.536322919</ele>
        <time>2015-11-05T13:06:32Z</time>
      </trkpt>
      <trkpt lat="45.40989" lon="5.9225">
        <ele>1800.536322919</ele>
        <time>2015-11-05T13:06:38Z</time>
      </trkpt>
      <trkpt lat="45.40988" lon="5.92247">
        <ele>1799.855281905</ele>
        <time>2015-11-05T13:06:48Z</time>
      </trkpt>
      <trkpt lat="45.40987" lon="5.92245">
        <ele>1799.855281905</ele>
        <time>2015-11-05T13:06:53Z</time>
      </trkpt>
      <trkpt lat="45.40987" lon="5.9224">
        <ele>1799.855281905</ele>
        <time>2015-11-05T13:07:03Z</time>
      </trkpt>
      <trkpt lat="45.40987" lon="5.92239">
        <ele>1799.855281905</ele>
        <time>2015-11-05T13:07:08Z</time>
      </trkpt>
      <trkpt lat="45.40986" lon="5.92234">
        <ele>1799.855281905</ele>
        <time>2015-11-05T13:07:18Z</time>
      </trkpt>
      <trkpt lat="45.40986" lon="5.92234">
        <ele>1799.516823551</ele>
        <time>2015-11-05T13:07:23Z</time>
      </trkpt>
      <trkpt lat="45.40987" lon="5.92233">
        <ele>1799.516823551</ele>
        <time>2015-11-05T13:07:33Z</time>
      </trkpt>
      <trkpt lat="45.40987" lon="5.92234">
        <ele>1799.516823551</ele>
        <time>2015-11-05T13:07:38Z</time>
      </trkpt>
      <trkpt lat="45.40988" lon="5.92234">
        <ele>1799.516823551</ele>
        <time>2015-11-05T13:07:48Z</time>
      </trkpt>
      <trkpt lat="45.40988" lon="5.92233">
        <ele>1799.516823551</ele>
        <time>2015-11-05T13:07:53Z</time>
      </trkpt>
      <trkpt lat="45.40988" lon="5.92232">
        <ele>1799.516823551</ele>
        <time>2015-11-05T13:07:58Z</time>
      </trkpt>
      <trkpt lat="45.40989" lon="5.92231">
        <ele>1799.516823551</ele>
        <time>2015-11-05T13:08:08Z</time>
      </trkpt>
      <trkpt lat="45.40989" lon="5.92231">
        <ele>1799.516823551</ele>
        <time>2015-11-05T13:08:12Z</time>
      </trkpt>
      <trkpt lat="45.40989" lon="5.92231">
        <ele>1799.516823551</ele>
        <time>2015-11-05T13:08:22Z</time>
      </trkpt>
      <trkpt lat="45.40986" lon="5.9223">
        <ele>1799.516823551</ele>
        <time>2015-11-05T13:08:27Z</time>
      </trkpt>
      <trkpt lat="45.40985" lon="5.92226">
        <ele>1798.207111077</ele>
        <time>2015-11-05T13:08:38Z</time>
      </trkpt>
      <trkpt lat="45.40986" lon="5.92225">
        <ele>1798.207111077</ele>
        <time>2015-11-05T13:08:43Z</time>
      </trkpt>
      <trkpt lat="45.40986" lon="5.92219">
        <ele>1798.207111077</ele>
        <time>2015-11-05T13:08:53Z</time>
      </trkpt>
      <trkpt lat="45.40984" lon="5.9222">
        <ele>1798.207111077</ele>
        <time>2015-11-05T13:08:58Z</time>
      </trkpt>
      <trkpt lat="45.40982" lon="5.92221">
        <ele>1797.017155683</ele>
        <time>2015-11-05T13:09:08Z</time>
      </trkpt>
      <trkpt lat="45.40983" lon="5.9222">
        <ele>1797.017155683</ele>
        <time>2015-11-05T13:09:13Z</time>
      </trkpt>
      <trkpt lat="45.40983" lon="5.92221">
        <ele>1797.017155683</ele>
        <time>2015-11-05T13:09:23Z</time>
      </trkpt>
      <trkpt lat="45.40983" lon="5.92221">
        <ele>1797.017155683</ele>
        <time>2015-11-05T13:09:28Z</time>
      </trkpt>
      <trkpt lat="45.40983" lon="5.92221">
        <ele>1797.017155683</ele>
        <time>2015-11-05T13:09:38Z</time>
      </trkpt>
      <trkpt lat="45.40983" lon="5.92221">
        <ele>1797.017155683</ele>
        <time>2015-11-05T13:09:43Z</time>
      </trkpt>
      <trkpt lat="45.40983" lon="5.92221">
        <ele>1797.017155683</ele>
        <time>2015-11-05T13:09:58Z</time>
      </trkpt>
      <trkpt lat="45.40983" lon="5.92221">
        <ele>1797.017155683</ele>
        <time>2015-11-05T13:10:03Z</time>
      </trkpt>
      <trkpt lat="45.40983" lon="5.92221">
        <ele>1797.017155683</ele>
        <time>2015-11-05T13:10:13Z</time>
      </trkpt>
      <trkpt lat="45.40983" lon="5.92221">
        <ele>1797.017155683</ele>
        <time>2015-11-05T13:10:18Z</time>
      </trkpt>
      <trkpt lat="45.40983" lon="5.92221">
        <ele>1797.017155683</ele>
        <time>2015-11-05T13:10:28Z</time>
      </trkpt>
      <trkpt lat="45.40984" lon="5.92218">
        <ele>1797.017155683</ele>
        <time>2015-11-05T13:10:33Z</time>
      </trkpt>
      <trkpt lat="45.40985" lon="5.92216">
        <ele>1797.017155683</ele>
        <time>2015-11-05T13:10:43Z</time>
      </trkpt>
      <trkpt lat="45.40985" lon="5.92216">
        <ele>1797.017155683</ele>
        <time>2015-11-05T13:10:48Z</time>
      </trkpt>
      <trkpt lat="45.40985" lon="5.92216">
        <ele>1797.017155683</ele>
        <time>2015-11-05T13:10:58Z</time>
      </trkpt>
      <trkpt lat="45.40985" lon="5.92216">
        <ele>1797.017155683</ele>
        <time>2015-11-05T13:11:03Z</time>
      </trkpt>
      <trkpt lat="45.40985" lon="5.92216">
        <ele>1797.017155683</ele>
        <time>2015-11-05T13:11:13Z</time>
      </trkpt>
      <trkpt lat="45.40985" lon="5.92216">
        <ele>1797.017155683</ele>
        <time>2015-11-05T13:11:18Z</time>
      </trkpt>
      <trkpt lat="45.40985" lon="5.92216">
        <ele>1797.017155683</ele>
        <time>2015-11-05T13:11:33Z</time>
      </trkpt>
      <trkpt lat="45.40985" lon="5.92216">
        <ele>1797.017155683</ele>
        <time>2015-11-05T13:11:37Z</time>
      </trkpt>
      <trkpt lat="45.40985" lon="5.92216">
        <ele>1797.017155683</ele>
        <time>2015-11-05T13:11:47Z</time>
      </trkpt>
      <trkpt lat="45.40985" lon="5.92216">
        <ele>1797.017155683</ele>
        <time>2015-11-05T13:11:52Z</time>
      </trkpt>
      <trkpt lat="45.40984" lon="5.92216">
        <ele>1797.017155683</ele>
        <time>2015-11-05T13:11:57Z</time>
      </trkpt>
      <trkpt lat="45.40982" lon="5.92214">
        <ele>1797.017155683</ele>
        <time>2015-11-05T13:12:02Z</time>
      </trkpt>
      <trkpt lat="45.40985" lon="5.92215">
        <ele>1796.236746544</ele>
        <time>2015-11-05T13:12:12Z</time>
      </trkpt>
      <trkpt lat="45.40984" lon="5.92215">
        <ele>1796.236746544</ele>
        <time>2015-11-05T13:12:17Z</time>
      </trkpt>
      <trkpt lat="45.40984" lon="5.92215">
        <ele>1796.236746544</ele>
        <time>2015-11-05T13:12:28Z</time>
      </trkpt>
      <trkpt lat="45.40984" lon="5.92215">
        <ele>1796.236746544</ele>
        <time>2015-11-05T13:12:33Z</time>
      </trkpt>
      <trkpt lat="45.40984" lon="5.92211">
        <ele>1796.236746544</ele>
        <time>2015-11-05T13:12:47Z</time>
      </trkpt>
      <trkpt lat="45.40983" lon="5.92212">
        <ele>1796.236746544</ele>
        <time>2015-11-05T13:12:52Z</time>
      </trkpt>
      <trkpt lat="45.40983" lon="5.92212">
        <ele>1796.236746544</ele>
        <time>2015-11-05T13:12:58Z</time>
      </trkpt>
      <trkpt lat="45.40983" lon="5.92212">
        <ele>1796.236746544</ele>
        <time>2015-11-05T13:13:03Z</time>
      </trkpt>
      <trkpt lat="45.40983" lon="5.92212">
        <ele>1796.236746544</ele>
        <time>2015-11-05T13:13:18Z</time>
      </trkpt>
      <trkpt lat="45.40983" lon="5.92212">
        <ele>1796.236746544</ele>
        <time>2015-11-05T13:13:33Z</time>
      </trkpt>
      <trkpt lat="45.40983" lon="5.92212">
        <ele>1796.236746544</ele>
        <time>2015-11-05T13:13:38Z</time>
      </trkpt>
      <trkpt lat="45.40983" lon="5.92212">
        <ele>1796.236746544</ele>
        <time>2015-11-05T13:13:48Z</time>
      </trkpt>
      <trkpt lat="45.40983" lon="5.92212">
        <ele>1796.236746544</ele>
        <time>2015-11-05T13:13:53Z</time>
      </trkpt>
      <trkpt lat="45.40983" lon="5.92212">
        <ele>1796.236746544</ele>
        <time>2015-11-05T13:14:03Z</time>
      </trkpt>
      <trkpt lat="45.40983" lon="5.92212">
        <ele>1796.236746544</ele>
        <time>2015-11-05T13:14:08Z</time>
      </trkpt>
      <trkpt lat="45.40983" lon="5.92212">
        <ele>1796.236746544</ele>
        <time>2015-11-05T13:14:18Z</time>
      </trkpt>
      <trkpt lat="45.40983" lon="5.92212">
        <ele>1796.236746544</ele>
        <time>2015-11-05T13:14:23Z</time>
      </trkpt>
      <trkpt lat="45.40982" lon="5.92212">
        <ele>1796.236746544</ele>
        <time>2015-11-05T13:14:33Z</time>
      </trkpt>
      <trkpt lat="45.40982" lon="5.92212">
        <ele>1796.236746544</ele>
        <time>2015-11-05T13:14:38Z</time>
      </trkpt>
      <trkpt lat="45.40982" lon="5.92212">
        <ele>1796.236746544</ele>
        <time>2015-11-05T13:14:48Z</time>
      </trkpt>
      <trkpt lat="45.40982" lon="5.92212">
        <ele>1796.236746544</ele>
        <time>2015-11-05T13:14:52Z</time>
      </trkpt>
      <trkpt lat="45.40982" lon="5.92211">
        <ele>1796.236746544</ele>
        <time>2015-11-05T13:15:02Z</time>
      </trkpt>
      <trkpt lat="45.40983" lon="5.92211">
        <ele>1796.236746544</ele>
        <time>2015-11-05T13:15:07Z</time>
      </trkpt>
      <trkpt lat="45.40982" lon="5.92211">
        <ele>1796.236746544</ele>
        <time>2015-11-05T13:15:17Z</time>
      </trkpt>
      <trkpt lat="45.40981" lon="5.9221">
        <ele>1796.236746544</ele>
        <time>2015-11-05T13:15:23Z</time>
      </trkpt>
      <trkpt lat="45.4098" lon="5.92207">
        <ele>1794.25958869</ele>
        <time>2015-11-05T13:15:38Z</time>
      </trkpt>
      <trkpt lat="45.4098" lon="5.92207">
        <ele>1794.25958869</ele>
        <time>2015-11-05T13:15:43Z</time>
      </trkpt>
      <trkpt lat="45.4098" lon="5.92206">
        <ele>1794.25958869</ele>
        <time>2015-11-05T13:15:53Z</time>
      </trkpt>
      <trkpt lat="45.4098" lon="5.92206">
        <ele>1794.25958869</ele>
        <time>2015-11-05T13:15:58Z</time>
      </trkpt>
      <trkpt lat="45.4098" lon="5.92206">
        <ele>1794.25958869</ele>
        <time>2015-11-05T13:16:08Z</time>
      </trkpt>
      <trkpt lat="45.4098" lon="5.92206">
        <ele>1794.25958869</ele>
        <time>2015-11-05T13:16:13Z</time>
      </trkpt>
      <trkpt lat="45.4098" lon="5.92206">
        <ele>1794.25958869</ele>
        <time>2015-11-05T13:16:23Z</time>
      </trkpt>
      <trkpt lat="45.40981" lon="5.92198">
        <ele>1794.25958869</ele>
        <time>2015-11-05T13:16:28Z</time>
      </trkpt>
      <trkpt lat="45.40984" lon="5.92199">
        <ele>1792.194523302</ele>
        <time>2015-11-05T13:16:38Z</time>
      </trkpt>
      <trkpt lat="45.40984" lon="5.922">
        <ele>1792.194523302</ele>
        <time>2015-11-05T13:16:43Z</time>
      </trkpt>
      <trkpt lat="45.40983" lon="5.92201">
        <ele>1792.194523302</ele>
        <time>2015-11-05T13:16:53Z</time>
      </trkpt>
      <trkpt lat="45.40983" lon="5.92201">
        <ele>1792.194523302</ele>
        <time>2015-11-05T13:16:58Z</time>
      </trkpt>
      <trkpt lat="45.40983" lon="5.92201">
        <ele>1792.194523302</ele>
        <time>2015-11-05T13:17:08Z</time>
      </trkpt>
      <trkpt lat="45.40983" lon="5.92201">
        <ele>1792.194523302</ele>
        <time>2015-11-05T13:17:13Z</time>
      </trkpt>
      <trkpt lat="45.40983" lon="5.92201">
        <ele>1792.194523302</ele>
        <time>2015-11-05T13:17:23Z</time>
      </trkpt>
      <trkpt lat="45.40983" lon="5.922">
        <ele>1792.194523302</ele>
        <time>2015-11-05T13:17:28Z</time>
      </trkpt>
      <trkpt lat="45.40983" lon="5.922">
        <ele>1792.194523302</ele>
        <time>2015-11-05T13:17:43Z</time>
      </trkpt>
      <trkpt lat="45.40983" lon="5.922">
        <ele>1792.194523302</ele>
        <time>2015-11-05T13:17:48Z</time>
      </trkpt>
      <trkpt lat="45.40983" lon="5.922">
        <ele>1792.194523302</ele>
        <time>2015-11-05T13:17:58Z</time>
      </trkpt>
      <trkpt lat="45.40983" lon="5.922">
        <ele>1792.194523302</ele>
        <time>2015-11-05T13:18:03Z</time>
      </trkpt>
      <trkpt lat="45.40983" lon="5.922">
        <ele>1792.194523302</ele>
        <time>2015-11-05T13:18:13Z</time>
      </trkpt>
      <trkpt lat="45.40983" lon="5.922">
        <ele>1792.194523302</ele>
        <time>2015-11-05T13:18:17Z</time>
      </trkpt>
      <trkpt lat="45.40983" lon="5.922">
        <ele>1792.194523302</ele>
        <time>2015-11-05T13:18:28Z</time>
      </trkpt>
      <trkpt lat="45.40982" lon="5.92201">
        <ele>1792.194523302</ele>
        <time>2015-11-05T13:18:32Z</time>
      </trkpt>
      <trkpt lat="45.40976" lon="5.92202">
        <ele>1790.492502908</ele>
        <time>2015-11-05T13:18:43Z</time>
      </trkpt>
      <trkpt lat="45.40978" lon="5.92203">
        <ele>1790.492502908</ele>
        <time>2015-11-05T13:18:48Z</time>
      </trkpt>
      <trkpt lat="45.40977" lon="5.92199">
        <ele>1790.492502908</ele>
        <time>2015-11-05T13:18:58Z</time>
      </trkpt>
      <trkpt lat="45.40977" lon="5.92198">
        <ele>1790.492502908</ele>
        <time>2015-11-05T13:19:03Z</time>
      </trkpt>
      <trkpt lat="45.40977" lon="5.92198">
        <ele>1790.492502908</ele>
        <time>2015-11-05T13:19:18Z</time>
      </trkpt>
      <trkpt lat="45.40977" lon="5.92198">
        <ele>1790.492502908</ele>
        <time>2015-11-05T13:19:23Z</time>
      </trkpt>
      <trkpt lat="45.40977" lon="5.92198">
        <ele>1790.492502908</ele>
        <time>2015-11-05T13:19:33Z</time>
      </trkpt>
      <trkpt lat="45.40977" lon="5.92198">
        <ele>1790.492502908</ele>
        <time>2015-11-05T13:19:38Z</time>
      </trkpt>
      <trkpt lat="45.40977" lon="5.92198">
        <ele>1790.492502908</ele>
        <time>2015-11-05T13:19:48Z</time>
      </trkpt>
      <trkpt lat="45.40977" lon="5.92198">
        <ele>1790.492502908</ele>
        <time>2015-11-05T13:19:54Z</time>
      </trkpt>
      <trkpt lat="45.40977" lon="5.92198">
        <ele>1790.492502908</ele>
        <time>2015-11-05T13:20:03Z</time>
      </trkpt>
      <trkpt lat="45.40977" lon="5.92198">
        <ele>1790.492502908</ele>
        <time>2015-11-05T13:20:08Z</time>
      </trkpt>
      <trkpt lat="45.40977" lon="5.92198">
        <ele>1790.492502908</ele>
        <time>2015-11-05T13:20:18Z</time>
      </trkpt>
      <trkpt lat="45.40977" lon="5.92198">
        <ele>1790.492502908</ele>
        <time>2015-11-05T13:20:23Z</time>
      </trkpt>
      <trkpt lat="45.40977" lon="5.92198">
        <ele>1790.154855422</ele>
        <time>2015-11-05T13:20:33Z</time>
      </trkpt>
      <trkpt lat="45.40977" lon="5.92198">
        <ele>1789.817207937</ele>
        <time>2015-11-05T13:21:23Z</time>
      </trkpt>
      <trkpt lat="45.40977" lon="5.92198">
        <ele>1789.479560451</ele>
        <time>2015-11-05T13:21:27Z</time>
      </trkpt>
      <trkpt lat="45.40977" lon="5.92198">
        <ele>1789.141912965</ele>
        <time>2015-11-05T13:23:57Z</time>
      </trkpt>
      <trkpt lat="45.40977" lon="5.92198">
        <ele>1788.804265479</ele>
        <time>2015-11-05T13:24:10Z</time>
      </trkpt>
      <trkpt lat="45.40977" lon="5.92198">
        <ele>1788.466617993</ele>
        <time>2015-11-05T13:24:12Z</time>
      </trkpt>
      <trkpt lat="45.40969" lon="5.92183">
        <ele>1788.128970508</ele>
        <time>2015-11-05T13:27:44Z</time>
      </trkpt>
      <trkpt lat="45.40973" lon="5.92177">
        <ele>1788.128970508</ele>
        <time>2015-11-05T13:27:48Z</time>
      </trkpt>
      <trkpt lat="45.40973" lon="5.92141">
        <ele>1784.732661531</ele>
        <time>2015-11-05T13:27:58Z</time>
      </trkpt>
      <trkpt lat="45.40974" lon="5.9214">
        <ele>1784.732661531</ele>
        <time>2015-11-05T13:28:03Z</time>
      </trkpt>
      <trkpt lat="45.40975" lon="5.92136">
        <ele>1784.732661531</ele>
        <time>2015-11-05T13:28:13Z</time>
      </trkpt>
      <trkpt lat="45.40975" lon="5.92136">
        <ele>1784.732661531</ele>
        <time>2015-11-05T13:28:18Z</time>
      </trkpt>
      <trkpt lat="45.40975" lon="5.92135">
        <ele>1784.732661531</ele>
        <time>2015-11-05T13:28:30Z</time>
      </trkpt>
      <trkpt lat="45.40973" lon="5.92129">
        <ele>1781.835637716</ele>
        <time>2015-11-05T13:28:33Z</time>
      </trkpt>
      <trkpt lat="45.40972" lon="5.92118">
        <ele>1781.835637716</ele>
        <time>2015-11-05T13:28:43Z</time>
      </trkpt>
      <trkpt lat="45.4097" lon="5.92116">
        <ele>1778.549929782</ele>
        <time>2015-11-05T13:28:48Z</time>
      </trkpt>
      <trkpt lat="45.4097" lon="5.92115">
        <ele>1778.549929782</ele>
        <time>2015-11-05T13:29:02Z</time>
      </trkpt>
      <trkpt lat="45.4097" lon="5.92116">
        <ele>1778.549929782</ele>
        <time>2015-11-05T13:29:17Z</time>
      </trkpt>
      <trkpt lat="45.4097" lon="5.92116">
        <ele>1778.549929782</ele>
        <time>2015-11-05T13:29:22Z</time>
      </trkpt>
      <trkpt lat="45.4097" lon="5.92116">
        <ele>1778.549929782</ele>
        <time>2015-11-05T13:29:32Z</time>
      </trkpt>
      <trkpt lat="45.4097" lon="5.92115">
        <ele>1778.549929782</ele>
        <time>2015-11-05T13:29:38Z</time>
      </trkpt>
      <trkpt lat="45.40967" lon="5.92115">
        <ele>1778.549929782</ele>
        <time>2015-11-05T13:29:48Z</time>
      </trkpt>
      <trkpt lat="45.40968" lon="5.92118">
        <ele>1778.549929782</ele>
        <time>2015-11-05T13:29:53Z</time>
      </trkpt>
      <trkpt lat="45.40968" lon="5.92116">
        <ele>1778.549929782</ele>
        <time>2015-11-05T13:30:04Z</time>
      </trkpt>
      <trkpt lat="45.40968" lon="5.92116">
        <ele>1778.549929782</ele>
        <time>2015-11-05T13:30:08Z</time>
      </trkpt>
      <trkpt lat="45.40968" lon="5.92121">
        <ele>1775.494674718</ele>
        <time>2015-11-05T13:30:18Z</time>
      </trkpt>
      <trkpt lat="45.40966" lon="5.92119">
        <ele>1775.494674718</ele>
        <time>2015-11-05T13:30:23Z</time>
      </trkpt>
      <trkpt lat="45.40966" lon="5.92118">
        <ele>1775.494674718</ele>
        <time>2015-11-05T13:30:33Z</time>
      </trkpt>
      <trkpt lat="45.40966" lon="5.92118">
        <ele>1775.494674718</ele>
        <time>2015-11-05T13:30:38Z</time>
      </trkpt>
      <trkpt lat="45.40966" lon="5.92118">
        <ele>1775.494674718</ele>
        <time>2015-11-05T13:30:43Z</time>
      </trkpt>
      <trkpt lat="45.40964" lon="5.92118">
        <ele>1775.494674718</ele>
        <time>2015-11-05T13:30:48Z</time>
      </trkpt>
      <trkpt lat="45.40965" lon="5.92107">
        <ele>1772.089649545</ele>
        <time>2015-11-05T13:30:53Z</time>
      </trkpt>
      <trkpt lat="45.40952" lon="5.9211">
        <ele>1765.203870584</ele>
        <time>2015-11-05T13:31:08Z</time>
      </trkpt>
      <trkpt lat="45.40951" lon="5.92112">
        <ele>1765.203870584</ele>
        <time>2015-11-05T13:31:13Z</time>
      </trkpt>
      <trkpt lat="45.4095" lon="5.9211">
        <ele>1765.203870584</ele>
        <time>2015-11-05T13:31:23Z</time>
      </trkpt>
      <trkpt lat="45.4095" lon="5.9211">
        <ele>1765.203870584</ele>
        <time>2015-11-05T13:31:27Z</time>
      </trkpt>
      <trkpt lat="45.4095" lon="5.9211">
        <ele>1765.203870584</ele>
        <time>2015-11-05T13:31:38Z</time>
      </trkpt>
      <trkpt lat="45.4095" lon="5.9211">
        <ele>1765.203870584</ele>
        <time>2015-11-05T13:31:43Z</time>
      </trkpt>
      <trkpt lat="45.4095" lon="5.9211">
        <ele>1765.203870584</ele>
        <time>2015-11-05T13:31:52Z</time>
      </trkpt>
      <trkpt lat="45.4095" lon="5.9211">
        <ele>1765.203870584</ele>
        <time>2015-11-05T13:31:58Z</time>
      </trkpt>
      <trkpt lat="45.4095" lon="5.9211">
        <ele>1765.203870584</ele>
        <time>2015-11-05T13:32:08Z</time>
      </trkpt>
      <trkpt lat="45.4095" lon="5.9211">
        <ele>1765.203870584</ele>
        <time>2015-11-05T13:32:13Z</time>
      </trkpt>
      <trkpt lat="45.4095" lon="5.9211">
        <ele>1765.203870584</ele>
        <time>2015-11-05T13:32:29Z</time>
      </trkpt>
      <trkpt lat="45.4095" lon="5.9211">
        <ele>1765.203870584</ele>
        <time>2015-11-05T13:32:38Z</time>
      </trkpt>
      <trkpt lat="45.4095" lon="5.9211">
        <ele>1765.203870584</ele>
        <time>2015-11-05T13:32:43Z</time>
      </trkpt>
      <trkpt lat="45.4095" lon="5.9211">
        <ele>1765.203870584</ele>
        <time>2015-11-05T13:32:48Z</time>
      </trkpt>
      <trkpt lat="45.4095" lon="5.9211">
        <ele>1765.203870584</ele>
        <time>2015-11-05T13:32:58Z</time>
      </trkpt>
      <trkpt lat="45.40949" lon="5.92103">
        <ele>1765.203870584</ele>
        <time>2015-11-05T13:33:03Z</time>
      </trkpt>
      <trkpt lat="45.4094" lon="5.92082">
        <ele>1758.718956904</ele>
        <time>2015-11-05T13:33:13Z</time>
      </trkpt>
      <trkpt lat="45.4094" lon="5.92084">
        <ele>1758.718956904</ele>
        <time>2015-11-05T13:33:18Z</time>
      </trkpt>
      <trkpt lat="45.40938" lon="5.92083">
        <ele>1758.718956904</ele>
        <time>2015-11-05T13:33:28Z</time>
      </trkpt>
      <trkpt lat="45.40938" lon="5.92084">
        <ele>1758.718956904</ele>
        <time>2015-11-05T13:33:33Z</time>
      </trkpt>
      <trkpt lat="45.40938" lon="5.92084">
        <ele>1758.718956904</ele>
        <time>2015-11-05T13:33:43Z</time>
      </trkpt>
      <trkpt lat="45.40938" lon="5.92084">
        <ele>1758.718956904</ele>
        <time>2015-11-05T13:33:48Z</time>
      </trkpt>
      <trkpt lat="45.40938" lon="5.92084">
        <ele>1758.718956904</ele>
        <time>2015-11-05T13:33:58Z</time>
      </trkpt>
      <trkpt lat="45.40938" lon="5.92084">
        <ele>1758.718956904</ele>
        <time>2015-11-05T13:34:05Z</time>
      </trkpt>
      <trkpt lat="45.40938" lon="5.92084">
        <ele>1758.718956904</ele>
        <time>2015-11-05T13:34:07Z</time>
      </trkpt>
      <trkpt lat="45.40938" lon="5.92084">
        <ele>1758.718956904</ele>
        <time>2015-11-05T13:34:17Z</time>
      </trkpt>
      <trkpt lat="45.40938" lon="5.92084">
        <ele>1758.718956904</ele>
        <time>2015-11-05T13:34:22Z</time>
      </trkpt>
      <trkpt lat="45.40938" lon="5.92084">
        <ele>1758.718956904</ele>
        <time>2015-11-05T13:34:33Z</time>
      </trkpt>
      <trkpt lat="45.40938" lon="5.92084">
        <ele>1758.718956904</ele>
        <time>2015-11-05T13:34:37Z</time>
      </trkpt>
      <trkpt lat="45.40938" lon="5.92084">
        <ele>1758.718956904</ele>
        <time>2015-11-05T13:34:47Z</time>
      </trkpt>
      <trkpt lat="45.40937" lon="5.92083">
        <ele>1758.718956904</ele>
        <time>2015-11-05T13:34:53Z</time>
      </trkpt>
      <trkpt lat="45.40934" lon="5.92084">
        <ele>1758.718956904</ele>
        <time>2015-11-05T13:35:02Z</time>
      </trkpt>
      <trkpt lat="45.40934" lon="5.92084">
        <ele>1750.321286408</ele>
        <time>2015-11-05T13:35:07Z</time>
      </trkpt>
      <trkpt lat="45.40934" lon="5.92084">
        <ele>1750.321286408</ele>
        <time>2015-11-05T13:35:17Z</time>
      </trkpt>
      <trkpt lat="45.40934" lon="5.92084">
        <ele>1750.321286408</ele>
        <time>2015-11-05T13:35:23Z</time>
      </trkpt>
      <trkpt lat="45.40934" lon="5.92084">
        <ele>1750.321286408</ele>
        <time>2015-11-05T13:35:32Z</time>
      </trkpt>
      <trkpt lat="45.40934" lon="5.92084">
        <ele>1750.321286408</ele>
        <time>2015-11-05T13:35:37Z</time>
      </trkpt>
      <trkpt lat="45.40934" lon="5.92084">
        <ele>1750.321286408</ele>
        <time>2015-11-05T13:35:47Z</time>
      </trkpt>
      <trkpt lat="45.40934" lon="5.92084">
        <ele>1750.321286408</ele>
        <time>2015-11-05T13:35:53Z</time>
      </trkpt>
      <trkpt lat="45.40934" lon="5.92084">
        <ele>1750.321286408</ele>
        <time>2015-11-05T13:36:07Z</time>
      </trkpt>
      <trkpt lat="45.40934" lon="5.92084">
        <ele>1750.321286408</ele>
        <time>2015-11-05T13:36:12Z</time>
      </trkpt>
      <trkpt lat="45.40934" lon="5.92084">
        <ele>1750.321286408</ele>
        <time>2015-11-05T13:36:22Z</time>
      </trkpt>
      <trkpt lat="45.40933" lon="5.92084">
        <ele>1750.321286408</ele>
        <time>2015-11-05T13:36:27Z</time>
      </trkpt>
      <trkpt lat="45.40933" lon="5.92084">
        <ele>1750.321286408</ele>
        <time>2015-11-05T13:36:37Z</time>
      </trkpt>
      <trkpt lat="45.40933" lon="5.92084">
        <ele>1750.321286408</ele>
        <time>2015-11-05T13:36:43Z</time>
      </trkpt>
      <trkpt lat="45.40935" lon="5.92083">
        <ele>1750.321286408</ele>
        <time>2015-11-05T13:36:57Z</time>
      </trkpt>
      <trkpt lat="45.40933" lon="5.92082">
        <ele>1750.321286408</ele>
        <time>2015-11-05T13:37:02Z</time>
      </trkpt>
      <trkpt lat="45.40932" lon="5.92085">
        <ele>1750.321286408</ele>
        <time>2015-11-05T13:37:12Z</time>
      </trkpt>
      <trkpt lat="45.40931" lon="5.92086">
        <ele>1750.321286408</ele>
        <time>2015-11-05T13:37:18Z</time>
      </trkpt>
      <trkpt lat="45.40931" lon="5.92086">
        <ele>1750.321286408</ele>
        <time>2015-11-05T13:37:28Z</time>
      </trkpt>
      <trkpt lat="45.40931" lon="5.92086">
        <ele>1750.321286408</ele>
        <time>2015-11-05T13:37:33Z</time>
      </trkpt>
      <trkpt lat="45.40931" lon="5.92086">
        <ele>1750.321286408</ele>
        <time>2015-11-05T13:37:45Z</time>
      </trkpt>
      <trkpt lat="45.40931" lon="5.92086">
        <ele>1750.321286408</ele>
        <time>2015-11-05T13:37:48Z</time>
      </trkpt>
      <trkpt lat="45.4093" lon="5.92085">
        <ele>1750.321286408</ele>
        <time>2015-11-05T13:37:58Z</time>
      </trkpt>
      <trkpt lat="45.4093" lon="5.92086">
        <ele>1744.933559162</ele>
        <time>2015-11-05T13:38:03Z</time>
      </trkpt>
      <trkpt lat="45.40929" lon="5.92085">
        <ele>1744.933559162</ele>
        <time>2015-11-05T13:38:13Z</time>
      </trkpt>
      <trkpt lat="45.40929" lon="5.92085">
        <ele>1744.933559162</ele>
        <time>2015-11-05T13:38:18Z</time>
      </trkpt>
      <trkpt lat="45.40928" lon="5.92085">
        <ele>1744.933559162</ele>
        <time>2015-11-05T13:38:28Z</time>
      </trkpt>
      <trkpt lat="45.40928" lon="5.92085">
        <ele>1744.933559162</ele>
        <time>2015-11-05T13:38:33Z</time>
      </trkpt>
      <trkpt lat="45.40928" lon="5.92085">
        <ele>1744.933559162</ele>
        <time>2015-11-05T13:38:43Z</time>
      </trkpt>
      <trkpt lat="45.40928" lon="5.92085">
        <ele>1744.933559162</ele>
        <time>2015-11-05T13:38:48Z</time>
      </trkpt>
      <trkpt lat="45.40928" lon="5.92083">
        <ele>1744.933559162</ele>
        <time>2015-11-05T13:38:58Z</time>
      </trkpt>
      <trkpt lat="45.40928" lon="5.92082">
        <ele>1744.933559162</ele>
        <time>2015-11-05T13:39:03Z</time>
      </trkpt>
      <trkpt lat="45.40925" lon="5.92082">
        <ele>1744.933559162</ele>
        <time>2015-11-05T13:39:18Z</time>
      </trkpt>
      <trkpt lat="45.40922" lon="5.92081">
        <ele>1740.046487402</ele>
        <time>2015-11-05T13:39:23Z</time>
      </trkpt>
      <trkpt lat="45.40922" lon="5.9208">
        <ele>1740.046487402</ele>
        <time>2015-11-05T13:39:33Z</time>
      </trkpt>
      <trkpt lat="45.40922" lon="5.9208">
        <ele>1740.046487402</ele>
        <time>2015-11-05T13:39:38Z</time>
      </trkpt>
      <trkpt lat="45.40922" lon="5.9208">
        <ele>1740.046487402</ele>
        <time>2015-11-05T13:39:48Z</time>
      </trkpt>
      <trkpt lat="45.40922" lon="5.9208">
        <ele>1740.046487402</ele>
        <time>2015-11-05T13:39:53Z</time>
      </trkpt>
      <trkpt lat="45.40921" lon="5.92081">
        <ele>1740.046487402</ele>
        <time>2015-11-05T13:40:03Z</time>
      </trkpt>
      <trkpt lat="45.40919" lon="5.9208">
        <ele>1740.046487402</ele>
        <time>2015-11-05T13:40:08Z</time>
      </trkpt>
      <trkpt lat="45.40919" lon="5.92081">
        <ele>1740.046487402</ele>
        <time>2015-11-05T13:40:18Z</time>
      </trkpt>
      <trkpt lat="45.40918" lon="5.92082">
        <ele>1740.046487402</ele>
        <time>2015-11-05T13:40:23Z</time>
      </trkpt>
      <trkpt lat="45.40916" lon="5.92083">
        <ele>1740.046487402</ele>
        <time>2015-11-05T13:40:33Z</time>
      </trkpt>
      <trkpt lat="45.40915" lon="5.92082">
        <ele>1740.046487402</ele>
        <time>2015-11-05T13:40:39Z</time>
      </trkpt>
      <trkpt lat="45.40914" lon="5.92083">
        <ele>1736.071322448</ele>
        <time>2015-11-05T13:40:42Z</time>
      </trkpt>
      <trkpt lat="45.40913" lon="5.92081">
        <ele>1736.071322448</ele>
        <time>2015-11-05T13:40:53Z</time>
      </trkpt>
      <trkpt lat="45.40913" lon="5.92082">
        <ele>1736.071322448</ele>
        <time>2015-11-05T13:40:58Z</time>
      </trkpt>
      <trkpt lat="45.40909" lon="5.92085">
        <ele>1736.071322448</ele>
        <time>2015-11-05T13:41:05Z</time>
      </trkpt>
      <trkpt lat="45.40909" lon="5.92086">
        <ele>1736.071322448</ele>
        <time>2015-11-05T13:41:07Z</time>
      </trkpt>
      <trkpt lat="45.4091" lon="5.92085">
        <ele>1736.071322448</ele>
        <time>2015-11-05T13:41:13Z</time>
      </trkpt>
      <trkpt lat="45.4091" lon="5.92084">
        <ele>1736.071322448</ele>
        <time>2015-11-05T13:41:23Z</time>
      </trkpt>
      <trkpt lat="45.40911" lon="5.92083">
        <ele>1733.818371899</ele>
        <time>2015-11-05T13:41:28Z</time>
      </trkpt>
      <trkpt lat="45.4091" lon="5.92084">
        <ele>1733.818371899</ele>
        <time>2015-11-05T13:41:38Z</time>
      </trkpt>
      <trkpt lat="45.40909" lon="5.92084">
        <ele>1733.818371899</ele>
        <time>2015-11-05T13:41:43Z</time>
      </trkpt>
      <trkpt lat="45.40907" lon="5.92084">
        <ele>1733.818371899</ele>
        <time>2015-11-05T13:41:53Z</time>
      </trkpt>
      <trkpt lat="45.40907" lon="5.92085">
        <ele>1733.818371899</ele>
        <time>2015-11-05T13:41:58Z</time>
      </trkpt>
      <trkpt lat="45.40907" lon="5.92085">
        <ele>1733.818371899</ele>
        <time>2015-11-05T13:42:08Z</time>
      </trkpt>
      <trkpt lat="45.40907" lon="5.92085">
        <ele>1733.818371899</ele>
        <time>2015-11-05T13:42:13Z</time>
      </trkpt>
      <trkpt lat="45.40907" lon="5.92085">
        <ele>1733.818371899</ele>
        <time>2015-11-05T13:42:23Z</time>
      </trkpt>
      <trkpt lat="45.40907" lon="5.92085">
        <ele>1733.818371899</ele>
        <time>2015-11-05T13:42:28Z</time>
      </trkpt>
      <trkpt lat="45.40901" lon="5.92094">
        <ele>1731.439079468</ele>
        <time>2015-11-05T13:42:38Z</time>
      </trkpt>
      <trkpt lat="45.409" lon="5.92095">
        <ele>1731.439079468</ele>
        <time>2015-11-05T13:42:43Z</time>
      </trkpt>
      <trkpt lat="45.40893" lon="5.92111">
        <ele>1728.517539047</ele>
        <time>2015-11-05T13:42:53Z</time>
      </trkpt>
      <trkpt lat="45.40892" lon="5.9211">
        <ele>1728.517539047</ele>
        <time>2015-11-05T13:42:58Z</time>
      </trkpt>
      <trkpt lat="45.40892" lon="5.92109">
        <ele>1728.517539047</ele>
        <time>2015-11-05T13:43:02Z</time>
      </trkpt>
      <trkpt lat="45.40892" lon="5.92109">
        <ele>1728.517539047</ele>
        <time>2015-11-05T13:43:14Z</time>
      </trkpt>
      <trkpt lat="45.40892" lon="5.92107">
        <ele>1728.517539047</ele>
        <time>2015-11-05T13:43:17Z</time>
      </trkpt>
      <trkpt lat="45.40891" lon="5.92103">
        <ele>1728.517539047</ele>
        <time>2015-11-05T13:43:23Z</time>
      </trkpt>
      <trkpt lat="45.4089" lon="5.92102">
        <ele>1728.517539047</ele>
        <time>2015-11-05T13:43:27Z</time>
      </trkpt>
      <trkpt lat="45.4089" lon="5.921">
        <ele>1727.119324594</ele>
        <time>2015-11-05T13:43:38Z</time>
      </trkpt>
      <trkpt lat="45.4089" lon="5.921">
        <ele>1727.119324594</ele>
        <time>2015-11-05T13:43:43Z</time>
      </trkpt>
      <trkpt lat="45.4089" lon="5.92099">
        <ele>1727.119324594</ele>
        <time>2015-11-05T13:43:53Z</time>
      </trkpt>
      <trkpt lat="45.40889" lon="5.92099">
        <ele>1727.119324594</ele>
        <time>2015-11-05T13:43:58Z</time>
      </trkpt>
      <trkpt lat="45.4089" lon="5.921">
        <ele>1727.119324594</ele>
        <time>2015-11-05T13:44:03Z</time>
      </trkpt>
      <trkpt lat="45.40887" lon="5.92101">
        <ele>1727.119324594</ele>
        <time>2015-11-05T13:44:08Z</time>
      </trkpt>
      <trkpt lat="45.40887" lon="5.92098">
        <ele>1727.119324594</ele>
        <time>2015-11-05T13:44:13Z</time>
      </trkpt>
      <trkpt lat="45.40885" lon="5.92098">
        <ele>1727.119324594</ele>
        <time>2015-11-05T13:44:28Z</time>
      </trkpt>
      <trkpt lat="45.40886" lon="5.92099">
        <ele>1727.568316826</ele>
        <time>2015-11-05T13:44:33Z</time>
      </trkpt>
      <trkpt lat="45.40886" lon="5.92098">
        <ele>1727.568316826</ele>
        <time>2015-11-05T13:44:43Z</time>
      </trkpt>
      <trkpt lat="45.40886" lon="5.92097">
        <ele>1727.568316826</ele>
        <time>2015-11-05T13:44:48Z</time>
      </trkpt>
      <trkpt lat="45.40886" lon="5.92097">
        <ele>1727.568316826</ele>
        <time>2015-11-05T13:44:58Z</time>
      </trkpt>
      <trkpt lat="45.40886" lon="5.92097">
        <ele>1727.568316826</ele>
        <time>2015-11-05T13:45:05Z</time>
      </trkpt>
      <trkpt lat="45.40888" lon="5.92098">
        <ele>1727.568316826</ele>
        <time>2015-11-05T13:45:13Z</time>
      </trkpt>
      <trkpt lat="45.40886" lon="5.921">
        <ele>1727.568316826</ele>
        <time>2015-11-05T13:45:18Z</time>
      </trkpt>
      <trkpt lat="45.40888" lon="5.92097">
        <ele>1727.568316826</ele>
        <time>2015-11-05T13:45:33Z</time>
      </trkpt>
      <trkpt lat="45.40888" lon="5.92097">
        <ele>1727.568316826</ele>
        <time>2015-11-05T13:45:37Z</time>
      </trkpt>
      <trkpt lat="45.40888" lon="5.92097">
        <ele>1727.568316826</ele>
        <time>2015-11-05T13:45:48Z</time>
      </trkpt>
      <trkpt lat="45.40888" lon="5.92097">
        <ele>1727.568316826</ele>
        <time>2015-11-05T13:45:52Z</time>
      </trkpt>
      <trkpt lat="45.40888" lon="5.92097">
        <ele>1727.568316826</ele>
        <time>2015-11-05T13:46:03Z</time>
      </trkpt>
      <trkpt lat="45.40888" lon="5.92097">
        <ele>1727.568316826</ele>
        <time>2015-11-05T13:46:08Z</time>
      </trkpt>
      <trkpt lat="45.40888" lon="5.92097">
        <ele>1727.568316826</ele>
        <time>2015-11-05T13:46:18Z</time>
      </trkpt>
      <trkpt lat="45.40888" lon="5.92097">
        <ele>1727.568316826</ele>
        <time>2015-11-05T13:46:23Z</time>
      </trkpt>
      <trkpt lat="45.40888" lon="5.92097">
        <ele>1727.568316826</ele>
        <time>2015-11-05T13:46:33Z</time>
      </trkpt>
      <trkpt lat="45.40888" lon="5.92097">
        <ele>1727.568316826</ele>
        <time>2015-11-05T13:46:38Z</time>
      </trkpt>
      <trkpt lat="45.40887" lon="5.92104">
        <ele>1729.438433922</ele>
        <time>2015-11-05T13:46:48Z</time>
      </trkpt>
      <trkpt lat="45.40887" lon="5.92106">
        <ele>1729.438433922</ele>
        <time>2015-11-05T13:46:53Z</time>
      </trkpt>
      <trkpt lat="45.40886" lon="5.92105">
        <ele>1729.438433922</ele>
        <time>2015-11-05T13:47:08Z</time>
      </trkpt>
      <trkpt lat="45.40886" lon="5.92105">
        <ele>1729.438433922</ele>
        <time>2015-11-05T13:47:13Z</time>
      </trkpt>
      <trkpt lat="45.40886" lon="5.92105">
        <ele>1729.438433922</ele>
        <time>2015-11-05T13:47:24Z</time>
      </trkpt>
      <trkpt lat="45.40887" lon="5.92106">
        <ele>1729.438433922</ele>
        <time>2015-11-05T13:47:28Z</time>
      </trkpt>
      <trkpt lat="45.40884" lon="5.92104">
        <ele>1729.438433922</ele>
        <time>2015-11-05T13:47:38Z</time>
      </trkpt>
      <trkpt lat="45.40883" lon="5.92105">
        <ele>1732.474623294</ele>
        <time>2015-11-05T13:47:43Z</time>
      </trkpt>
      <trkpt lat="45.40882" lon="5.92105">
        <ele>1732.474623294</ele>
        <time>2015-11-05T13:47:53Z</time>
      </trkpt>
      <trkpt lat="45.40882" lon="5.92105">
        <ele>1732.474623294</ele>
        <time>2015-11-05T13:47:58Z</time>
      </trkpt>
      <trkpt lat="45.40879" lon="5.92106">
        <ele>1732.474623294</ele>
        <time>2015-11-05T13:48:08Z</time>
      </trkpt>
      <trkpt lat="45.40876" lon="5.92108">
        <ele>1732.474623294</ele>
        <time>2015-11-05T13:48:12Z</time>
      </trkpt>
      <trkpt lat="45.40875" lon="5.92111">
        <ele>1732.474623294</ele>
        <time>2015-11-05T13:48:28Z</time>
      </trkpt>
      <trkpt lat="45.40873" lon="5.92111">
        <ele>1735.716392992</ele>
        <time>2015-11-05T13:48:38Z</time>
      </trkpt>
      <trkpt lat="45.40873" lon="5.92113">
        <ele>1735.716392992</ele>
        <time>2015-11-05T13:48:43Z</time>
      </trkpt>
      <trkpt lat="45.40873" lon="5.92116">
        <ele>1735.716392992</ele>
        <time>2015-11-05T13:48:58Z</time>
      </trkpt>
      <trkpt lat="45.40872" lon="5.92118">
        <ele>1735.716392992</ele>
        <time>2015-11-05T13:49:08Z</time>
      </trkpt>
      <trkpt lat="45.40872" lon="5.92118">
        <ele>1735.716392992</ele>
        <time>2015-11-05T13:49:13Z</time>
      </trkpt>
      <trkpt lat="45.4088" lon="5.92122">
        <ele>1740.290493926</ele>
        <time>2015-11-05T13:49:28Z</time>
      </trkpt>
      <trkpt lat="45.4088" lon="5.92124">
        <ele>1740.290493926</ele>
        <time>2015-11-05T13:49:33Z</time>
      </trkpt>
      <trkpt lat="45.40879" lon="5.92125">
        <ele>1740.290493926</ele>
        <time>2015-11-05T13:49:43Z</time>
      </trkpt>
      <trkpt lat="45.40881" lon="5.9213">
        <ele>1740.290493926</ele>
        <time>2015-11-05T13:49:48Z</time>
      </trkpt>
      <trkpt lat="45.40884" lon="5.92129">
        <ele>1745.363488381</ele>
        <time>2015-11-05T13:49:58Z</time>
      </trkpt>
      <trkpt lat="45.40884" lon="5.92131">
        <ele>1745.363488381</ele>
        <time>2015-11-05T13:50:03Z</time>
      </trkpt>
      <trkpt lat="45.40885" lon="5.92135">
        <ele>1745.363488381</ele>
        <time>2015-11-05T13:50:13Z</time>
      </trkpt>
      <trkpt lat="45.40884" lon="5.92137">
        <ele>1745.363488381</ele>
        <time>2015-11-05T13:50:18Z</time>
      </trkpt>
      <trkpt lat="45.40884" lon="5.92139">
        <ele>1745.363488381</ele>
        <time>2015-11-05T13:50:27Z</time>
      </trkpt>
      <trkpt lat="45.40884" lon="5.92139">
        <ele>1745.363488381</ele>
        <time>2015-11-05T13:50:33Z</time>
      </trkpt>
      <trkpt lat="45.40885" lon="5.9214">
        <ele>1749.296918709</ele>
        <time>2015-11-05T13:50:43Z</time>
      </trkpt>
      <trkpt lat="45.40884" lon="5.9214">
        <ele>1749.296918709</ele>
        <time>2015-11-05T13:50:47Z</time>
      </trkpt>
      <trkpt lat="45.40888" lon="5.92146">
        <ele>1749.296918709</ele>
        <time>2015-11-05T13:50:58Z</time>
      </trkpt>
      <trkpt lat="45.40887" lon="5.9215">
        <ele>1753.457987417</ele>
        <time>2015-11-05T13:51:03Z</time>
      </trkpt>
      <trkpt lat="45.40886" lon="5.92152">
        <ele>1753.457987417</ele>
        <time>2015-11-05T13:51:13Z</time>
      </trkpt>
      <trkpt lat="45.40886" lon="5.92153">
        <ele>1753.457987417</ele>
        <time>2015-11-05T13:51:18Z</time>
      </trkpt>
      <trkpt lat="45.40884" lon="5.92157">
        <ele>1753.457987417</ele>
        <time>2015-11-05T13:51:29Z</time>
      </trkpt>
      <trkpt lat="45.40889" lon="5.92159">
        <ele>1757.95986955</ele>
        <time>2015-11-05T13:51:33Z</time>
      </trkpt>
      <trkpt lat="45.40888" lon="5.92159">
        <ele>1757.95986955</ele>
        <time>2015-11-05T13:51:38Z</time>
      </trkpt>
      <trkpt lat="45.4089" lon="5.92164">
        <ele>1757.95986955</ele>
        <time>2015-11-05T13:51:48Z</time>
      </trkpt>
      <trkpt lat="45.40888" lon="5.92167">
        <ele>1757.95986955</ele>
        <time>2015-11-05T13:51:53Z</time>
      </trkpt>
      <trkpt lat="45.40886" lon="5.92172">
        <ele>1762.618232448</ele>
        <time>2015-11-05T13:52:03Z</time>
      </trkpt>
      <trkpt lat="45.40883" lon="5.92172">
        <ele>1762.618232448</ele>
        <time>2015-11-05T13:52:08Z</time>
      </trkpt>
      <trkpt lat="45.40883" lon="5.92174">
        <ele>1762.618232448</ele>
        <time>2015-11-05T13:52:18Z</time>
      </trkpt>
      <trkpt lat="45.40883" lon="5.92174">
        <ele>1762.618232448</ele>
        <time>2015-11-05T13:52:23Z</time>
      </trkpt>
      <trkpt lat="45.40883" lon="5.92174">
        <ele>1762.618232448</ele>
        <time>2015-11-05T13:52:33Z</time>
      </trkpt>
      <trkpt lat="45.40883" lon="5.92174">
        <ele>1762.618232448</ele>
        <time>2015-11-05T13:52:38Z</time>
      </trkpt>
      <trkpt lat="45.40882" lon="5.92174">
        <ele>1762.618232448</ele>
        <time>2015-11-05T13:52:48Z</time>
      </trkpt>
      <trkpt lat="45.40882" lon="5.92174">
        <ele>1762.618232448</ele>
        <time>2015-11-05T13:52:52Z</time>
      </trkpt>
      <trkpt lat="45.40882" lon="5.92174">
        <ele>1762.618232448</ele>
        <time>2015-11-05T13:53:03Z</time>
      </trkpt>
      <trkpt lat="45.40882" lon="5.92174">
        <ele>1762.618232448</ele>
        <time>2015-11-05T13:53:07Z</time>
      </trkpt>
      <trkpt lat="45.40882" lon="5.92172">
        <ele>1762.618232448</ele>
        <time>2015-11-05T13:53:12Z</time>
      </trkpt>
      <trkpt lat="45.40882" lon="5.92174">
        <ele>1767.550098901</ele>
        <time>2015-11-05T13:53:18Z</time>
      </trkpt>
      <trkpt lat="45.40879" lon="5.92178">
        <ele>1767.550098901</ele>
        <time>2015-11-05T13:53:23Z</time>
      </trkpt>
      <trkpt lat="45.40882" lon="5.92185">
        <ele>1772.719093057</ele>
        <time>2015-11-05T13:53:33Z</time>
      </trkpt>
      <trkpt lat="45.40883" lon="5.92188">
        <ele>1772.719093057</ele>
        <time>2015-11-05T13:53:38Z</time>
      </trkpt>
      <trkpt lat="45.40884" lon="5.92189">
        <ele>1772.719093057</ele>
        <time>2015-11-05T13:53:48Z</time>
      </trkpt>
      <trkpt lat="45.40886" lon="5.92188">
        <ele>1772.719093057</ele>
        <time>2015-11-05T13:53:53Z</time>
      </trkpt>
      <trkpt lat="45.40891" lon="5.9219">
        <ele>1777.226297129</ele>
        <time>2015-11-05T13:54:03Z</time>
      </trkpt>
      <trkpt lat="45.40893" lon="5.92193">
        <ele>1777.226297129</ele>
        <time>2015-11-05T13:54:08Z</time>
      </trkpt>
      <trkpt lat="45.40897" lon="5.922">
        <ele>1781.537840823</ele>
        <time>2015-11-05T13:54:18Z</time>
      </trkpt>
      <trkpt lat="45.409" lon="5.92199">
        <ele>1781.537840823</ele>
        <time>2015-11-05T13:54:23Z</time>
      </trkpt>
      <trkpt lat="45.40904" lon="5.92202">
        <ele>1781.537840823</ele>
        <time>2015-11-05T13:54:33Z</time>
      </trkpt>
      <trkpt lat="45.40905" lon="5.92202">
        <ele>1781.537840823</ele>
        <time>2015-11-05T13:54:38Z</time>
      </trkpt>
      <trkpt lat="45.4091" lon="5.92203">
        <ele>1785.942240825</ele>
        <time>2015-11-05T13:54:48Z</time>
      </trkpt>
      <trkpt lat="45.40913" lon="5.92205">
        <ele>1785.942240825</ele>
        <time>2015-11-05T13:54:53Z</time>
      </trkpt>
      <trkpt lat="45.4092" lon="5.92209">
        <ele>1789.553889119</ele>
        <time>2015-11-05T13:55:03Z</time>
      </trkpt>
      <trkpt lat="45.4092" lon="5.92209">
        <ele>1789.553889119</ele>
        <time>2015-11-05T13:55:07Z</time>
      </trkpt>
      <trkpt lat="45.40923" lon="5.92211">
        <ele>1789.553889119</ele>
        <time>2015-11-05T13:55:23Z</time>
      </trkpt>
      <trkpt lat="45.40924" lon="5.92213">
        <ele>1789.553889119</ele>
        <time>2015-11-05T13:55:27Z</time>
      </trkpt>
      <trkpt lat="45.40925" lon="5.92214">
        <ele>1789.553889119</ele>
        <time>2015-11-05T13:55:33Z</time>
      </trkpt>
      <trkpt lat="45.40925" lon="5.92213">
        <ele>1789.553889119</ele>
        <time>2015-11-05T13:55:37Z</time>
      </trkpt>
      <trkpt lat="45.40929" lon="5.92222">
        <ele>1794.148703439</ele>
        <time>2015-11-05T13:55:53Z</time>
      </trkpt>
      <trkpt lat="45.4093" lon="5.92223">
        <ele>1794.148703439</ele>
        <time>2015-11-05T13:55:58Z</time>
      </trkpt>
      <trkpt lat="45.40931" lon="5.92225">
        <ele>1794.148703439</ele>
        <time>2015-11-05T13:56:08Z</time>
      </trkpt>
      <trkpt lat="45.40932" lon="5.92228">
        <ele>1794.148703439</ele>
        <time>2015-11-05T13:56:13Z</time>
      </trkpt>
      <trkpt lat="45.40935" lon="5.92232">
        <ele>1798.775651412</ele>
        <time>2015-11-05T13:56:23Z</time>
      </trkpt>
      <trkpt lat="45.40937" lon="5.92236">
        <ele>1798.775651412</ele>
        <time>2015-11-05T13:56:27Z</time>
      </trkpt>
      <trkpt lat="45.40938" lon="5.92241">
        <ele>1798.775651412</ele>
        <time>2015-11-05T13:56:38Z</time>
      </trkpt>
      <trkpt lat="45.40937" lon="5.92243">
        <ele>1803.13020415</ele>
        <time>2015-11-05T13:56:43Z</time>
      </trkpt>
      <trkpt lat="45.40939" lon="5.92249">
        <ele>1803.13020415</ele>
        <time>2015-11-05T13:56:53Z</time>
      </trkpt>
      <trkpt lat="45.40938" lon="5.9225">
        <ele>1803.13020415</ele>
        <time>2015-11-05T13:56:58Z</time>
      </trkpt>
      <trkpt lat="45.40941" lon="5.92252">
        <ele>1803.13020415</ele>
        <time>2015-11-05T13:57:08Z</time>
      </trkpt>
      <trkpt lat="45.40942" lon="5.92255">
        <ele>1808.22827397</ele>
        <time>2015-11-05T13:57:13Z</time>
      </trkpt>
      <trkpt lat="45.40944" lon="5.92257">
        <ele>1808.22827397</ele>
        <time>2015-11-05T13:57:23Z</time>
      </trkpt>
      <trkpt lat="45.40948" lon="5.92259">
        <ele>1808.22827397</ele>
        <time>2015-11-05T13:57:28Z</time>
      </trkpt>
      <trkpt lat="45.40951" lon="5.92262">
        <ele>1812.559492746</ele>
        <time>2015-11-05T13:57:33Z</time>
      </trkpt>
      <trkpt lat="45.40954" lon="5.92264">
        <ele>1812.559492746</ele>
        <time>2015-11-05T13:57:43Z</time>
      </trkpt>
      <trkpt lat="45.40954" lon="5.92267">
        <ele>1812.559492746</ele>
        <time>2015-11-05T13:57:47Z</time>
      </trkpt>
      <trkpt lat="45.40952" lon="5.92275">
        <ele>1816.888600484</ele>
        <time>2015-11-05T13:57:57Z</time>
      </trkpt>
      <trkpt lat="45.40954" lon="5.92281">
        <ele>1816.888600484</ele>
        <time>2015-11-05T13:58:03Z</time>
      </trkpt>
      <trkpt lat="45.40958" lon="5.92287">
        <ele>1821.05984962</ele>
        <time>2015-11-05T13:58:14Z</time>
      </trkpt>
      <trkpt lat="45.40959" lon="5.92291">
        <ele>1821.05984962</ele>
        <time>2015-11-05T13:58:18Z</time>
      </trkpt>
      <trkpt lat="45.40958" lon="5.92298">
        <ele>1821.05984962</ele>
        <time>2015-11-05T13:58:28Z</time>
      </trkpt>
      <trkpt lat="45.40959" lon="5.92302">
        <ele>1824.497402129</ele>
        <time>2015-11-05T13:58:33Z</time>
      </trkpt>
      <trkpt lat="45.40956" lon="5.92307">
        <ele>1824.497402129</ele>
        <time>2015-11-05T13:58:43Z</time>
      </trkpt>
      <trkpt lat="45.40955" lon="5.92308">
        <ele>1824.497402129</ele>
        <time>2015-11-05T13:58:48Z</time>
      </trkpt>
      <trkpt lat="45.40953" lon="5.92313">
        <ele>1828.399476969</ele>
        <time>2015-11-05T13:58:58Z</time>
      </trkpt>
      <trkpt lat="45.40952" lon="5.92314">
        <ele>1828.399476969</ele>
        <time>2015-11-05T13:59:03Z</time>
      </trkpt>
      <trkpt lat="45.40954" lon="5.92311">
        <ele>1828.399476969</ele>
        <time>2015-11-05T13:59:13Z</time>
      </trkpt>
      <trkpt lat="45.40955" lon="5.92309">
        <ele>1828.399476969</ele>
        <time>2015-11-05T13:59:17Z</time>
      </trkpt>
      <trkpt lat="45.40955" lon="5.92306">
        <ele>1828.399476969</ele>
        <time>2015-11-05T13:59:22Z</time>
      </trkpt>
      <trkpt lat="45.40957" lon="5.92307">
        <ele>1831.713667299</ele>
        <time>2015-11-05T13:59:28Z</time>
      </trkpt>
      <trkpt lat="45.40959" lon="5.92308">
        <ele>1831.713667299</ele>
        <time>2015-11-05T13:59:38Z</time>
      </trkpt>
      <trkpt lat="45.4096" lon="5.92308">
        <ele>1831.713667299</ele>
        <time>2015-11-05T13:59:43Z</time>
      </trkpt>
      <trkpt lat="45.40968" lon="5.92306">
        <ele>1834.475665675</ele>
        <time>2015-11-05T13:59:58Z</time>
      </trkpt>
      <trkpt lat="45.40974" lon="5.92305">
        <ele>1834.475665675</ele>
        <time>2015-11-05T14:00:09Z</time>
      </trkpt>
      <trkpt lat="45.4098" lon="5.92304">
        <ele>1836.720448366</ele>
        <time>2015-11-05T14:00:13Z</time>
      </trkpt>
      <trkpt lat="45.40985" lon="5.923">
        <ele>1836.720448366</ele>
        <time>2015-11-05T14:00:28Z</time>
      </trkpt>
      <trkpt lat="45.40984" lon="5.92301">
        <ele>1836.720448366</ele>
        <time>2015-11-05T14:00:38Z</time>
      </trkpt>
      <trkpt lat="45.40984" lon="5.92303">
        <ele>1836.720448366</ele>
        <time>2015-11-05T14:00:43Z</time>
      </trkpt>
      <trkpt lat="45.40988" lon="5.92309">
        <ele>1838.049885533</ele>
        <time>2015-11-05T14:00:57Z</time>
      </trkpt>
      <trkpt lat="45.40989" lon="5.9231">
        <ele>1838.049885533</ele>
        <time>2015-11-05T14:01:03Z</time>
      </trkpt>
      <trkpt lat="45.40985" lon="5.92309">
        <ele>1838.049885533</ele>
        <time>2015-11-05T14:01:13Z</time>
      </trkpt>
      <trkpt lat="45.40985" lon="5.92309">
        <ele>1838.049885533</ele>
        <time>2015-11-05T14:01:17Z</time>
      </trkpt>
      <trkpt lat="45.40986" lon="5.92309">
        <ele>1838.049885533</ele>
        <time>2015-11-05T14:01:28Z</time>
      </trkpt>
      <trkpt lat="45.40985" lon="5.92308">
        <ele>1838.049885533</ele>
        <time>2015-11-05T14:01:33Z</time>
      </trkpt>
      <trkpt lat="45.40987" lon="5.92308">
        <ele>1839.106769776</ele>
        <time>2015-11-05T14:01:43Z</time>
      </trkpt>
      <trkpt lat="45.40988" lon="5.92308">
        <ele>1839.106769776</ele>
        <time>2015-11-05T14:01:48Z</time>
      </trkpt>
      <trkpt lat="45.40987" lon="5.92303">
        <ele>1839.106769776</ele>
        <time>2015-11-05T14:01:58Z</time>
      </trkpt>
      <trkpt lat="45.40985" lon="5.92301">
        <ele>1839.106769776</ele>
        <time>2015-11-05T14:02:03Z</time>
      </trkpt>
      <trkpt lat="45.40984" lon="5.92301">
        <ele>1839.106769776</ele>
        <time>2015-11-05T14:02:13Z</time>
      </trkpt>
      <trkpt lat="45.40983" lon="5.92302">
        <ele>1839.106769776</ele>
        <time>2015-11-05T14:02:18Z</time>
      </trkpt>
      <trkpt lat="45.40984" lon="5.92302">
        <ele>1839.106769776</ele>
        <time>2015-11-05T14:02:28Z</time>
      </trkpt>
      <trkpt lat="45.40983" lon="5.92301">
        <ele>1839.623081725</ele>
        <time>2015-11-05T14:02:33Z</time>
      </trkpt>
      <trkpt lat="45.40984" lon="5.92304">
        <ele>1839.623081725</ele>
        <time>2015-11-05T14:02:48Z</time>
      </trkpt>
      <trkpt lat="45.40984" lon="5.92302">
        <ele>1839.623081725</ele>
        <time>2015-11-05T14:03:03Z</time>
      </trkpt>
      <trkpt lat="45.40984" lon="5.92302">
        <ele>1839.623081725</ele>
        <time>2015-11-05T14:03:08Z</time>
      </trkpt>
      <trkpt lat="45.40984" lon="5.92302">
        <ele>1839.623081725</ele>
        <time>2015-11-05T14:03:18Z</time>
      </trkpt>
      <trkpt lat="45.40984" lon="5.92302">
        <ele>1839.623081725</ele>
        <time>2015-11-05T14:03:23Z</time>
      </trkpt>
      <trkpt lat="45.40984" lon="5.923">
        <ele>1839.623081725</ele>
        <time>2015-11-05T14:03:33Z</time>
      </trkpt>
      <trkpt lat="45.40983" lon="5.92299">
        <ele>1839.623081725</ele>
        <time>2015-11-05T14:03:38Z</time>
      </trkpt>
      <trkpt lat="45.40983" lon="5.923">
        <ele>1839.623081725</ele>
        <time>2015-11-05T14:03:48Z</time>
      </trkpt>
      <trkpt lat="45.40983" lon="5.923">
        <ele>1839.623081725</ele>
        <time>2015-11-05T14:03:53Z</time>
      </trkpt>
      <trkpt lat="45.40983" lon="5.923">
        <ele>1839.623081725</ele>
        <time>2015-11-05T14:04:03Z</time>
      </trkpt>
      <trkpt lat="45.40983" lon="5.923">
        <ele>1839.623081725</ele>
        <time>2015-11-05T14:04:08Z</time>
      </trkpt>
      <trkpt lat="45.40983" lon="5.923">
        <ele>1839.623081725</ele>
        <time>2015-11-05T14:04:13Z</time>
      </trkpt>
      <trkpt lat="45.40983" lon="5.923">
        <ele>1839.623081725</ele>
        <time>2015-11-05T14:04:17Z</time>
      </trkpt>
      <trkpt lat="45.40983" lon="5.923">
        <ele>1839.623081725</ele>
        <time>2015-11-05T14:04:22Z</time>
      </trkpt>
      <trkpt lat="45.40983" lon="5.923">
        <ele>1839.623081725</ele>
        <time>2015-11-05T14:04:27Z</time>
      </trkpt>
      <trkpt lat="45.40983" lon="5.923">
        <ele>1839.623081725</ele>
        <time>2015-11-05T14:04:32Z</time>
      </trkpt>
      <trkpt lat="45.40983" lon="5.923">
        <ele>1839.623081725</ele>
        <time>2015-11-05T14:04:37Z</time>
      </trkpt>
      <trkpt lat="45.40983" lon="5.923">
        <ele>1839.623081725</ele>
        <time>2015-11-05T14:04:42Z</time>
      </trkpt>
      <trkpt lat="45.40983" lon="5.923">
        <ele>1839.623081725</ele>
        <time>2015-11-05T14:04:47Z</time>
      </trkpt>
      <trkpt lat="45.40983" lon="5.92301">
        <ele>1839.623081725</ele>
        <time>2015-11-05T14:04:53Z</time>
      </trkpt>
      <trkpt lat="45.40983" lon="5.923">
        <ele>1839.623081725</ele>
        <time>2015-11-05T14:05:03Z</time>
      </trkpt>
      <trkpt lat="45.40983" lon="5.923">
        <ele>1839.623081725</ele>
        <time>2015-11-05T14:05:08Z</time>
      </trkpt>
      <trkpt lat="45.40983" lon="5.923">
        <ele>1839.623081725</ele>
        <time>2015-11-05T14:05:19Z</time>
      </trkpt>
      <trkpt lat="45.40983" lon="5.923">
        <ele>1839.623081725</ele>
        <time>2015-11-05T14:05:22Z</time>
      </trkpt>
      <trkpt lat="45.40983" lon="5.923">
        <ele>1840.505182924</ele>
        <time>2015-11-05T14:05:38Z</time>
      </trkpt>
      <trkpt lat="45.40983" lon="5.923">
        <ele>1840.505182924</ele>
        <time>2015-11-05T14:05:53Z</time>
      </trkpt>
      <trkpt lat="45.40983" lon="5.923">
        <ele>1840.505182924</ele>
        <time>2015-11-05T14:05:58Z</time>
      </trkpt>
      <trkpt lat="45.40983" lon="5.923">
        <ele>1840.505182924</ele>
        <time>2015-11-05T14:06:08Z</time>
      </trkpt>
      <trkpt lat="45.40983" lon="5.923">
        <ele>1840.505182924</ele>
        <time>2015-11-05T14:06:13Z</time>
      </trkpt>
      <trkpt lat="45.40983" lon="5.923">
        <ele>1840.505182924</ele>
        <time>2015-11-05T14:06:23Z</time>
      </trkpt>
      <trkpt lat="45.40983" lon="5.923">
        <ele>1840.505182924</ele>
        <time>2015-11-05T14:06:28Z</time>
      </trkpt>
      <trkpt lat="45.40983" lon="5.923">
        <ele>1840.505182924</ele>
        <time>2015-11-05T14:06:38Z</time>
      </trkpt>
      <trkpt lat="45.40983" lon="5.923">
        <ele>1840.505182924</ele>
        <time>2015-11-05T14:06:42Z</time>
      </trkpt>
      <trkpt lat="45.40983" lon="5.92301">
        <ele>1840.505182924</ele>
        <time>2015-11-05T14:06:52Z</time>
      </trkpt>
      <trkpt lat="45.40983" lon="5.92301">
        <ele>1840.505182924</ele>
        <time>2015-11-05T14:06:58Z</time>
      </trkpt>
      <trkpt lat="45.40983" lon="5.92301">
        <ele>1840.505182924</ele>
        <time>2015-11-05T14:07:12Z</time>
      </trkpt>
      <trkpt lat="45.40983" lon="5.92301">
        <ele>1840.505182924</ele>
        <time>2015-11-05T14:07:28Z</time>
      </trkpt>
      <trkpt lat="45.40983" lon="5.92301">
        <ele>1840.505182924</ele>
        <time>2015-11-05T14:07:33Z</time>
      </trkpt>
      <trkpt lat="45.40983" lon="5.92302">
        <ele>1840.505182924</ele>
        <time>2015-11-05T14:07:43Z</time>
      </trkpt>
      <trkpt lat="45.40984" lon="5.92303">
        <ele>1840.505182924</ele>
        <time>2015-11-05T14:07:48Z</time>
      </trkpt>
      <trkpt lat="45.40983" lon="5.92303">
        <ele>1840.505182924</ele>
        <time>2015-11-05T14:07:58Z</time>
      </trkpt>
      <trkpt lat="45.40983" lon="5.92302">
        <ele>1840.505182924</ele>
        <time>2015-11-05T14:08:03Z</time>
      </trkpt>
      <trkpt lat="45.40983" lon="5.92302">
        <ele>1840.505182924</ele>
        <time>2015-11-05T14:08:13Z</time>
      </trkpt>
      <trkpt lat="45.40983" lon="5.92302">
        <ele>1840.505182924</ele>
        <time>2015-11-05T14:08:18Z</time>
      </trkpt>
      <trkpt lat="45.40983" lon="5.92302">
        <ele>1840.505182924</ele>
        <time>2015-11-05T14:08:28Z</time>
      </trkpt>
      <trkpt lat="45.40983" lon="5.92302">
        <ele>1840.505182924</ele>
        <time>2015-11-05T14:08:33Z</time>
      </trkpt>
      <trkpt lat="45.40983" lon="5.92302">
        <ele>1840.505182924</ele>
        <time>2015-11-05T14:08:43Z</time>
      </trkpt>
      <trkpt lat="45.40983" lon="5.92302">
        <ele>1840.505182924</ele>
        <time>2015-11-05T14:08:48Z</time>
      </trkpt>
      <trkpt lat="45.40983" lon="5.92302">
        <ele>1840.505182924</ele>
        <time>2015-11-05T14:08:58Z</time>
      </trkpt>
      <trkpt lat="45.40983" lon="5.92302">
        <ele>1840.505182924</ele>
        <time>2015-11-05T14:09:03Z</time>
      </trkpt>
      <trkpt lat="45.40983" lon="5.92302">
        <ele>1840.505182924</ele>
        <time>2015-11-05T14:09:18Z</time>
      </trkpt>
      <trkpt lat="45.40983" lon="5.92302">
        <ele>1840.505182924</ele>
        <time>2015-11-05T14:09:28Z</time>
      </trkpt>
      <trkpt lat="45.40983" lon="5.92302">
        <ele>1840.505182924</ele>
        <time>2015-11-05T14:09:33Z</time>
      </trkpt>
      <trkpt lat="45.40983" lon="5.92301">
        <ele>1840.505182924</ele>
        <time>2015-11-05T14:09:48Z</time>
      </trkpt>
      <trkpt lat="45.40983" lon="5.92298">
        <ele>1840.505182924</ele>
        <time>2015-11-05T14:09:53Z</time>
      </trkpt>
      <trkpt lat="45.40984" lon="5.923">
        <ele>1840.505182924</ele>
        <time>2015-11-05T14:10:03Z</time>
      </trkpt>
      <trkpt lat="45.40984" lon="5.923">
        <ele>1840.505182924</ele>
        <time>2015-11-05T14:10:08Z</time>
      </trkpt>
      <trkpt lat="45.40984" lon="5.923">
        <ele>1840.505182924</ele>
        <time>2015-11-05T14:10:18Z</time>
      </trkpt>
      <trkpt lat="45.40984" lon="5.923">
        <ele>1840.505182924</ele>
        <time>2015-11-05T14:10:23Z</time>
      </trkpt>
      <trkpt lat="45.40984" lon="5.923">
        <ele>1840.505182924</ele>
        <time>2015-11-05T14:10:33Z</time>
      </trkpt>
      <trkpt lat="45.40984" lon="5.923">
        <ele>1840.505182924</ele>
        <time>2015-11-05T14:10:38Z</time>
      </trkpt>
      <trkpt lat="45.40984" lon="5.92301">
        <ele>1840.505182924</ele>
        <time>2015-11-05T14:10:48Z</time>
      </trkpt>
      <trkpt lat="45.40984" lon="5.92301">
        <ele>1840.505182924</ele>
        <time>2015-11-05T14:10:53Z</time>
      </trkpt>
      <trkpt lat="45.40984" lon="5.92301">
        <ele>1840.505182924</ele>
        <time>2015-11-05T14:11:03Z</time>
      </trkpt>
      <trkpt lat="45.40983" lon="5.923">
        <ele>1841.439200767</ele>
        <time>2015-11-05T14:11:08Z</time>
      </trkpt>
      <trkpt lat="45.40983" lon="5.923">
        <ele>1841.439200767</ele>
        <time>2015-11-05T14:11:12Z</time>
      </trkpt>
      <trkpt lat="45.40983" lon="5.923">
        <ele>1841.439200767</ele>
        <time>2015-11-05T14:11:18Z</time>
      </trkpt>
      <trkpt lat="45.40983" lon="5.923">
        <ele>1841.439200767</ele>
        <time>2015-11-05T14:11:23Z</time>
      </trkpt>
      <trkpt lat="45.40983" lon="5.923">
        <ele>1841.439200767</ele>
        <time>2015-11-05T14:11:33Z</time>
      </trkpt>
      <trkpt lat="45.40983" lon="5.923">
        <ele>1841.439200767</ele>
        <time>2015-11-05T14:11:38Z</time>
      </trkpt>
      <trkpt lat="45.40983" lon="5.923">
        <ele>1841.439200767</ele>
        <time>2015-11-05T14:11:53Z</time>
      </trkpt>
      <trkpt lat="45.40983" lon="5.923">
        <ele>1841.439200767</ele>
        <time>2015-11-05T14:11:58Z</time>
      </trkpt>
      <trkpt lat="45.40983" lon="5.923">
        <ele>1841.439200767</ele>
        <time>2015-11-05T14:12:08Z</time>
      </trkpt>
      <trkpt lat="45.40983" lon="5.923">
        <ele>1841.439200767</ele>
        <time>2015-11-05T14:12:13Z</time>
      </trkpt>
      <trkpt lat="45.40983" lon="5.923">
        <ele>1841.439200767</ele>
        <time>2015-11-05T14:12:23Z</time>
      </trkpt>
      <trkpt lat="45.40983" lon="5.923">
        <ele>1841.439200767</ele>
        <time>2015-11-05T14:12:28Z</time>
      </trkpt>
      <trkpt lat="45.40983" lon="5.923">
        <ele>1841.439200767</ele>
        <time>2015-11-05T14:12:38Z</time>
      </trkpt>
      <trkpt lat="45.40983" lon="5.923">
        <ele>1841.439200767</ele>
        <time>2015-11-05T14:12:43Z</time>
      </trkpt>
      <trkpt lat="45.40983" lon="5.923">
        <ele>1841.439200767</ele>
        <time>2015-11-05T14:12:53Z</time>
      </trkpt>
      <trkpt lat="45.40983" lon="5.923">
        <ele>1841.439200767</ele>
        <time>2015-11-05T14:12:58Z</time>
      </trkpt>
      <trkpt lat="45.40983" lon="5.923">
        <ele>1841.439200767</ele>
        <time>2015-11-05T14:13:08Z</time>
      </trkpt>
      <trkpt lat="45.40983" lon="5.923">
        <ele>1841.439200767</ele>
        <time>2015-11-05T14:13:12Z</time>
      </trkpt>
      <trkpt lat="45.40983" lon="5.923">
        <ele>1841.439200767</ele>
        <time>2015-11-05T14:13:23Z</time>
      </trkpt>
      <trkpt lat="45.40983" lon="5.923">
        <ele>1841.439200767</ele>
        <time>2015-11-05T14:13:28Z</time>
      </trkpt>
      <trkpt lat="45.40983" lon="5.923">
        <ele>1841.439200767</ele>
        <time>2015-11-05T14:13:38Z</time>
      </trkpt>
      <trkpt lat="45.40983" lon="5.923">
        <ele>1841.439200767</ele>
        <time>2015-11-05T14:13:43Z</time>
      </trkpt>
      <trkpt lat="45.40983" lon="5.923">
        <ele>1841.439200767</ele>
        <time>2015-11-05T14:13:58Z</time>
      </trkpt>
      <trkpt lat="45.40983" lon="5.923">
        <ele>1841.439200767</ele>
        <time>2015-11-05T14:14:03Z</time>
      </trkpt>
      <trkpt lat="45.40982" lon="5.92298">
        <ele>1841.439200767</ele>
        <time>2015-11-05T14:14:13Z</time>
      </trkpt>
      <trkpt lat="45.40982" lon="5.92298">
        <ele>1841.439200767</ele>
        <time>2015-11-05T14:14:18Z</time>
      </trkpt>
      <trkpt lat="45.40982" lon="5.92298">
        <ele>1841.439200767</ele>
        <time>2015-11-05T14:14:28Z</time>
      </trkpt>
      <trkpt lat="45.40982" lon="5.92298">
        <ele>1841.439200767</ele>
        <time>2015-11-05T14:14:33Z</time>
      </trkpt>
      <trkpt lat="45.40982" lon="5.92298">
        <ele>1841.439200767</ele>
        <time>2015-11-05T14:14:43Z</time>
      </trkpt>
      <trkpt lat="45.40982" lon="5.92298">
        <ele>1841.439200767</ele>
        <time>2015-11-05T14:14:48Z</time>
      </trkpt>
      <trkpt lat="45.40982" lon="5.92298">
        <ele>1841.439200767</ele>
        <time>2015-11-05T14:14:58Z</time>
      </trkpt>
      <trkpt lat="45.40982" lon="5.92298">
        <ele>1841.439200767</ele>
        <time>2015-11-05T14:15:03Z</time>
      </trkpt>
      <trkpt lat="45.40982" lon="5.923">
        <ele>1841.439200767</ele>
        <time>2015-11-05T14:15:12Z</time>
      </trkpt>
      <trkpt lat="45.40982" lon="5.92302">
        <ele>1841.439200767</ele>
        <time>2015-11-05T14:15:18Z</time>
      </trkpt>
      <trkpt lat="45.40982" lon="5.92303">
        <ele>1841.439200767</ele>
        <time>2015-11-05T14:15:28Z</time>
      </trkpt>
      <trkpt lat="45.40982" lon="5.92303">
        <ele>1841.439200767</ele>
        <time>2015-11-05T14:15:33Z</time>
      </trkpt>
      <trkpt lat="45.40982" lon="5.92303">
        <ele>1841.439200767</ele>
        <time>2015-11-05T14:15:43Z</time>
      </trkpt>
      <trkpt lat="45.40983" lon="5.92304">
        <ele>1841.439200767</ele>
        <time>2015-11-05T14:15:47Z</time>
      </trkpt>
      <trkpt lat="45.40983" lon="5.92304">
        <ele>1841.439200767</ele>
        <time>2015-11-05T14:15:58Z</time>
      </trkpt>
      <trkpt lat="45.40983" lon="5.92305">
        <ele>1841.439200767</ele>
        <time>2015-11-05T14:16:03Z</time>
      </trkpt>
      <trkpt lat="45.40983" lon="5.92305">
        <ele>1841.439200767</ele>
        <time>2015-11-05T14:16:13Z</time>
      </trkpt>
      <trkpt lat="45.40983" lon="5.92305">
        <ele>1841.439200767</ele>
        <time>2015-11-05T14:16:18Z</time>
      </trkpt>
      <trkpt lat="45.40983" lon="5.92304">
        <ele>1842.422634423</ele>
        <time>2015-11-05T14:16:33Z</time>
      </trkpt>
      <trkpt lat="45.40982" lon="5.92304">
        <ele>1842.422634423</ele>
        <time>2015-11-05T14:16:38Z</time>
      </trkpt>
      <trkpt lat="45.40984" lon="5.92303">
        <ele>1842.422634423</ele>
        <time>2015-11-05T14:16:48Z</time>
      </trkpt>
      <trkpt lat="45.40984" lon="5.92303">
        <ele>1842.422634423</ele>
        <time>2015-11-05T14:16:53Z</time>
      </trkpt>
      <trkpt lat="45.40985" lon="5.92304">
        <ele>1842.422634423</ele>
        <time>2015-11-05T14:17:03Z</time>
      </trkpt>
      <trkpt lat="45.40985" lon="5.92303">
        <ele>1842.422634423</ele>
        <time>2015-11-05T14:17:08Z</time>
      </trkpt>
      <trkpt lat="45.40985" lon="5.92304">
        <ele>1842.422634423</ele>
        <time>2015-11-05T14:17:18Z</time>
      </trkpt>
      <trkpt lat="45.40985" lon="5.92304">
        <ele>1842.422634423</ele>
        <time>2015-11-05T14:17:23Z</time>
      </trkpt>
      <trkpt lat="45.40985" lon="5.92304">
        <ele>1842.422634423</ele>
        <time>2015-11-05T14:17:27Z</time>
      </trkpt>
      <trkpt lat="45.40986" lon="5.92305">
        <ele>1842.422634423</ele>
        <time>2015-11-05T14:17:32Z</time>
      </trkpt>
      <trkpt lat="45.40986" lon="5.92305">
        <ele>1842.422634423</ele>
        <time>2015-11-05T14:17:37Z</time>
      </trkpt>
      <trkpt lat="45.40986" lon="5.92304">
        <ele>1842.422634423</ele>
        <time>2015-11-05T14:17:42Z</time>
      </trkpt>
      <trkpt lat="45.40989" lon="5.92304">
        <ele>1842.876798093</ele>
        <time>2015-11-05T14:17:57Z</time>
      </trkpt>
      <trkpt lat="45.40989" lon="5.92305">
        <ele>1842.876798093</ele>
        <time>2015-11-05T14:18:02Z</time>
      </trkpt>
      <trkpt lat="45.40989" lon="5.92306">
        <ele>1842.876798093</ele>
        <time>2015-11-05T14:18:08Z</time>
      </trkpt>
      <trkpt lat="45.4099" lon="5.92306">
        <ele>1842.876798093</ele>
        <time>2015-11-05T14:18:12Z</time>
      </trkpt>
      <trkpt lat="45.40989" lon="5.92306">
        <ele>1842.876798093</ele>
        <time>2015-11-05T14:18:17Z</time>
      </trkpt>
      <trkpt lat="45.4099" lon="5.92306">
        <ele>1842.876798093</ele>
        <time>2015-11-05T14:18:27Z</time>
      </trkpt>
      <trkpt lat="45.40991" lon="5.92307">
        <ele>1842.876798093</ele>
        <time>2015-11-05T14:18:32Z</time>
      </trkpt>
      <trkpt lat="45.40991" lon="5.92307">
        <ele>1842.876798093</ele>
        <time>2015-11-05T14:18:47Z</time>
      </trkpt>
      <trkpt lat="45.40991" lon="5.92307">
        <ele>1842.876798093</ele>
        <time>2015-11-05T14:18:52Z</time>
      </trkpt>
      <trkpt lat="45.40991" lon="5.92307">
        <ele>1842.876798093</ele>
        <time>2015-11-05T14:18:57Z</time>
      </trkpt>
      <trkpt lat="45.40991" lon="5.92307">
        <ele>1842.876798093</ele>
        <time>2015-11-05T14:19:02Z</time>
      </trkpt>
      <trkpt lat="45.40991" lon="5.92307">
        <ele>1842.876798093</ele>
        <time>2015-11-05T14:19:12Z</time>
      </trkpt>
      <trkpt lat="45.40991" lon="5.92307">
        <ele>1842.876798093</ele>
        <time>2015-11-05T14:19:17Z</time>
      </trkpt>
      <trkpt lat="45.40991" lon="5.92307">
        <ele>1842.876798093</ele>
        <time>2015-11-05T14:19:32Z</time>
      </trkpt>
      <trkpt lat="45.40991" lon="5.92307">
        <ele>1842.876798093</ele>
        <time>2015-11-05T14:19:37Z</time>
      </trkpt>
      <trkpt lat="45.40991" lon="5.92307">
        <ele>1842.876798093</ele>
        <time>2015-11-05T14:19:47Z</time>
      </trkpt>
      <trkpt lat="45.40991" lon="5.92307">
        <ele>1842.876798093</ele>
        <time>2015-11-05T14:19:52Z</time>
      </trkpt>
      <trkpt lat="45.40991" lon="5.92307">
        <ele>1842.876798093</ele>
        <time>2015-11-05T14:20:02Z</time>
      </trkpt>
      <trkpt lat="45.40991" lon="5.92307">
        <ele>1842.876798093</ele>
        <time>2015-11-05T14:20:07Z</time>
      </trkpt>
      <trkpt lat="45.40991" lon="5.92307">
        <ele>1842.876798093</ele>
        <time>2015-11-05T14:20:12Z</time>
      </trkpt>
      <trkpt lat="45.40991" lon="5.92307">
        <ele>1842.876798093</ele>
        <time>2015-11-05T14:20:22Z</time>
      </trkpt>
      <trkpt lat="45.40991" lon="5.92307">
        <ele>1842.876798093</ele>
        <time>2015-11-05T14:20:27Z</time>
      </trkpt>
      <trkpt lat="45.4099" lon="5.92307">
        <ele>1842.876798093</ele>
        <time>2015-11-05T14:20:42Z</time>
      </trkpt>
      <trkpt lat="45.40991" lon="5.92307">
        <ele>1842.876798093</ele>
        <time>2015-11-05T14:20:47Z</time>
      </trkpt>
      <trkpt lat="45.4099" lon="5.92307">
        <ele>1842.876798093</ele>
        <time>2015-11-05T14:20:57Z</time>
      </trkpt>
      <trkpt lat="45.4099" lon="5.92307">
        <ele>1842.876798093</ele>
        <time>2015-11-05T14:21:02Z</time>
      </trkpt>
      <trkpt lat="45.4099" lon="5.92307">
        <ele>1842.876798093</ele>
        <time>2015-11-05T14:21:12Z</time>
      </trkpt>
      <trkpt lat="45.40991" lon="5.92307">
        <ele>1842.876798093</ele>
        <time>2015-11-05T14:21:17Z</time>
      </trkpt>
      <trkpt lat="45.40989" lon="5.92304">
        <ele>1842.699525235</ele>
        <time>2015-11-05T14:21:27Z</time>
      </trkpt>
      <trkpt lat="45.40989" lon="5.92304">
        <ele>1842.699525235</ele>
        <time>2015-11-05T14:21:32Z</time>
      </trkpt>
      <trkpt lat="45.40988" lon="5.92303">
        <ele>1842.699525235</ele>
        <time>2015-11-05T14:21:42Z</time>
      </trkpt>
      <trkpt lat="45.40988" lon="5.92303">
        <ele>1842.699525235</ele>
        <time>2015-11-05T14:21:47Z</time>
      </trkpt>
      <trkpt lat="45.40988" lon="5.92303">
        <ele>1842.699525235</ele>
        <time>2015-11-05T14:21:57Z</time>
      </trkpt>
      <trkpt lat="45.40988" lon="5.92303">
        <ele>1842.699525235</ele>
        <time>2015-11-05T14:22:02Z</time>
      </trkpt>
      <trkpt lat="45.40988" lon="5.92303">
        <ele>1842.699525235</ele>
        <time>2015-11-05T14:22:12Z</time>
      </trkpt>
      <trkpt lat="45.40988" lon="5.92303">
        <ele>1842.699525235</ele>
        <time>2015-11-05T14:22:17Z</time>
      </trkpt>
      <trkpt lat="45.40988" lon="5.92303">
        <ele>1842.699525235</ele>
        <time>2015-11-05T14:22:27Z</time>
      </trkpt>
      <trkpt lat="45.40988" lon="5.92303">
        <ele>1842.699525235</ele>
        <time>2015-11-05T14:22:33Z</time>
      </trkpt>
      <trkpt lat="45.40988" lon="5.92303">
        <ele>1842.699525235</ele>
        <time>2015-11-05T14:22:43Z</time>
      </trkpt>
      <trkpt lat="45.40988" lon="5.92303">
        <ele>1842.699525235</ele>
        <time>2015-11-05T14:22:48Z</time>
      </trkpt>
      <trkpt lat="45.40988" lon="5.92303">
        <ele>1842.699525235</ele>
        <time>2015-11-05T14:22:57Z</time>
      </trkpt>
      <trkpt lat="45.40988" lon="5.92303">
        <ele>1842.699525235</ele>
        <time>2015-11-05T14:23:02Z</time>
      </trkpt>
      <trkpt lat="45.40988" lon="5.92303">
        <ele>1842.699525235</ele>
        <time>2015-11-05T14:23:12Z</time>
      </trkpt>
      <trkpt lat="45.40988" lon="5.92303">
        <ele>1842.699525235</ele>
        <time>2015-11-05T14:23:17Z</time>
      </trkpt>
      <trkpt lat="45.40988" lon="5.92303">
        <ele>1842.699525235</ele>
        <time>2015-11-05T14:23:32Z</time>
      </trkpt>
      <trkpt lat="45.40986" lon="5.92304">
        <ele>1842.699525235</ele>
        <time>2015-11-05T14:23:37Z</time>
      </trkpt>
      <trkpt lat="45.40986" lon="5.92305">
        <ele>1842.699525235</ele>
        <time>2015-11-05T14:23:47Z</time>
      </trkpt>
      <trkpt lat="45.40986" lon="5.92305">
        <ele>1842.699525235</ele>
        <time>2015-11-05T14:23:52Z</time>
      </trkpt>
      <trkpt lat="45.40987" lon="5.92304">
        <ele>1842.699525235</ele>
        <time>2015-11-05T14:24:02Z</time>
      </trkpt>
      <trkpt lat="45.40987" lon="5.92304">
        <ele>1842.699525235</ele>
        <time>2015-11-05T14:24:07Z</time>
      </trkpt>
      <trkpt lat="45.40987" lon="5.92304">
        <ele>1842.699525235</ele>
        <time>2015-11-05T14:24:17Z</time>
      </trkpt>
      <trkpt lat="45.40987" lon="5.92304">
        <ele>1842.699525235</ele>
        <time>2015-11-05T14:24:22Z</time>
      </trkpt>
      <trkpt lat="45.40987" lon="5.92304">
        <ele>1842.699525235</ele>
        <time>2015-11-05T14:24:32Z</time>
      </trkpt>
      <trkpt lat="45.40987" lon="5.92304">
        <ele>1842.699525235</ele>
        <time>2015-11-05T14:24:38Z</time>
      </trkpt>
      <trkpt lat="45.40987" lon="5.92304">
        <ele>1842.699525235</ele>
        <time>2015-11-05T14:24:49Z</time>
      </trkpt>
      <trkpt lat="45.40987" lon="5.92304">
        <ele>1842.699525235</ele>
        <time>2015-11-05T14:24:53Z</time>
      </trkpt>
      <trkpt lat="45.40987" lon="5.92304">
        <ele>1842.699525235</ele>
        <time>2015-11-05T14:25:03Z</time>
      </trkpt>
      <trkpt lat="45.40987" lon="5.92304">
        <ele>1842.699525235</ele>
        <time>2015-11-05T14:25:08Z</time>
      </trkpt>
      <trkpt lat="45.40987" lon="5.92304">
        <ele>1842.699525235</ele>
        <time>2015-11-05T14:25:24Z</time>
      </trkpt>
      <trkpt lat="45.40987" lon="5.92304">
        <ele>1842.699525235</ele>
        <time>2015-11-05T14:25:39Z</time>
      </trkpt>
      <trkpt lat="45.40987" lon="5.92304">
        <ele>1842.699525235</ele>
        <time>2015-11-05T14:25:43Z</time>
      </trkpt>
      <trkpt lat="45.40987" lon="5.92304">
        <ele>1842.699525235</ele>
        <time>2015-11-05T14:25:54Z</time>
      </trkpt>
      <trkpt lat="45.40987" lon="5.92304">
        <ele>1842.699525235</ele>
        <time>2015-11-05T14:25:58Z</time>
      </trkpt>
      <trkpt lat="45.40987" lon="5.92304">
        <ele>1842.699525235</ele>
        <time>2015-11-05T14:26:08Z</time>
      </trkpt>
      <trkpt lat="45.40987" lon="5.92304">
        <ele>1842.699525235</ele>
        <time>2015-11-05T14:26:13Z</time>
      </trkpt>
      <trkpt lat="45.40987" lon="5.92304">
        <ele>1842.699525235</ele>
        <time>2015-11-05T14:26:22Z</time>
      </trkpt>
      <trkpt lat="45.40987" lon="5.92304">
        <ele>1842.699525235</ele>
        <time>2015-11-05T14:26:28Z</time>
      </trkpt>
      <trkpt lat="45.40987" lon="5.92304">
        <ele>1842.699525235</ele>
        <time>2015-11-05T14:26:39Z</time>
      </trkpt>
      <trkpt lat="45.40987" lon="5.92304">
        <ele>1842.699525235</ele>
        <time>2015-11-05T14:26:42Z</time>
      </trkpt>
      <trkpt lat="45.40987" lon="5.92304">
        <ele>1842.699525235</ele>
        <time>2015-11-05T14:26:54Z</time>
      </trkpt>
      <trkpt lat="45.40987" lon="5.92304">
        <ele>1842.699525235</ele>
        <time>2015-11-05T14:26:58Z</time>
      </trkpt>
      <trkpt lat="45.40987" lon="5.92304">
        <ele>1842.699525235</ele>
        <time>2015-11-05T14:27:08Z</time>
      </trkpt>
      <trkpt lat="45.40987" lon="5.92304">
        <ele>1842.699525235</ele>
        <time>2015-11-05T14:27:13Z</time>
      </trkpt>
      <trkpt lat="45.40987" lon="5.92304">
        <ele>1842.699525235</ele>
        <time>2015-11-05T14:27:27Z</time>
      </trkpt>
      <trkpt lat="45.40987" lon="5.92304">
        <ele>1842.699525235</ele>
        <time>2015-11-05T14:27:32Z</time>
      </trkpt>
      <trkpt lat="45.40987" lon="5.92304">
        <ele>1842.699525235</ele>
        <time>2015-11-05T14:27:43Z</time>
      </trkpt>
      <trkpt lat="45.40987" lon="5.92304">
        <ele>1842.699525235</ele>
        <time>2015-11-05T14:27:47Z</time>
      </trkpt>
      <trkpt lat="45.40987" lon="5.92304">
        <ele>1842.699525235</ele>
        <time>2015-11-05T14:27:59Z</time>
      </trkpt>
      <trkpt lat="45.40987" lon="5.92304">
        <ele>1842.699525235</ele>
        <time>2015-11-05T14:28:03Z</time>
      </trkpt>
      <trkpt lat="45.40987" lon="5.92304">
        <ele>1842.699525235</ele>
        <time>2015-11-05T14:28:14Z</time>
      </trkpt>
      <trkpt lat="45.40987" lon="5.92304">
        <ele>1842.699525235</ele>
        <time>2015-11-05T14:28:17Z</time>
      </trkpt>
      <trkpt lat="45.40987" lon="5.92304">
        <ele>1842.699525235</ele>
        <time>2015-11-05T14:28:27Z</time>
      </trkpt>
      <trkpt lat="45.40987" lon="5.92304">
        <ele>1842.699525235</ele>
        <time>2015-11-05T14:28:45Z</time>
      </trkpt>
      <trkpt lat="45.40987" lon="5.92304">
        <ele>1842.699525235</ele>
        <time>2015-11-05T14:28:47Z</time>
      </trkpt>
      <trkpt lat="45.40987" lon="5.92304">
        <ele>1842.699525235</ele>
        <time>2015-11-05T14:29:04Z</time>
      </trkpt>
      <trkpt lat="45.40987" lon="5.92304">
        <ele>1842.699525235</ele>
        <time>2015-11-05T14:29:07Z</time>
      </trkpt>
      <trkpt lat="45.40987" lon="5.92304">
        <ele>1842.699525235</ele>
        <time>2015-11-05T14:29:18Z</time>
      </trkpt>
      <trkpt lat="45.40987" lon="5.92304">
        <ele>1842.699525235</ele>
        <time>2015-11-05T14:29:18Z</time>
      </trkpt>
      <trkpt lat="45.40987" lon="5.92304">
        <ele>1842.699525235</ele>
        <time>2015-11-05T14:29:25Z</time>
      </trkpt>
      <trkpt lat="45.40987" lon="5.92304">
        <ele>1842.699525235</ele>
        <time>2015-11-05T14:29:37Z</time>
      </trkpt>
      <trkpt lat="45.40987" lon="5.92304">
        <ele>1842.699525235</ele>
        <time>2015-11-05T14:29:42Z</time>
      </trkpt>
      <trkpt lat="45.40987" lon="5.92304">
        <ele>1842.699525235</ele>
        <time>2015-11-05T14:29:52Z</time>
      </trkpt>
      <trkpt lat="45.40987" lon="5.92304">
        <ele>1842.699525235</ele>
        <time>2015-11-05T14:29:57Z</time>
      </trkpt>
      <trkpt lat="45.40987" lon="5.92304">
        <ele>1842.699525235</ele>
        <time>2015-11-05T14:30:07Z</time>
      </trkpt>
      <trkpt lat="45.40987" lon="5.92304">
        <ele>1842.699525235</ele>
        <time>2015-11-05T14:30:12Z</time>
      </trkpt>
      <trkpt lat="45.40987" lon="5.92304">
        <ele>1842.699525235</ele>
        <time>2015-11-05T14:30:22Z</time>
      </trkpt>
      <trkpt lat="45.40987" lon="5.92304">
        <ele>1842.699525235</ele>
        <time>2015-11-05T14:30:27Z</time>
      </trkpt>
      <trkpt lat="45.40987" lon="5.92304">
        <ele>1842.699525235</ele>
        <time>2015-11-05T14:30:37Z</time>
      </trkpt>
      <trkpt lat="45.40987" lon="5.92304">
        <ele>1842.699525235</ele>
        <time>2015-11-05T14:30:42Z</time>
      </trkpt>
      <trkpt lat="45.40986" lon="5.92305">
        <ele>1842.699525235</ele>
        <time>2015-11-05T14:30:52Z</time>
      </trkpt>
      <trkpt lat="45.40986" lon="5.92305">
        <ele>1842.699525235</ele>
        <time>2015-11-05T14:30:57Z</time>
      </trkpt>
      <trkpt lat="45.40986" lon="5.92305">
        <ele>1842.699525235</ele>
        <time>2015-11-05T14:31:07Z</time>
      </trkpt>
      <trkpt lat="45.40986" lon="5.92305">
        <ele>1842.699525235</ele>
        <time>2015-11-05T14:31:12Z</time>
      </trkpt>
      <trkpt lat="45.40986" lon="5.92305">
        <ele>1842.699525235</ele>
        <time>2015-11-05T14:31:22Z</time>
      </trkpt>
      <trkpt lat="45.40986" lon="5.92305">
        <ele>1842.699525235</ele>
        <time>2015-11-05T14:31:27Z</time>
      </trkpt>
      <trkpt lat="45.40986" lon="5.92305">
        <ele>1842.699525235</ele>
        <time>2015-11-05T14:31:37Z</time>
      </trkpt>
      <trkpt lat="45.40986" lon="5.92305">
        <ele>1842.699525235</ele>
        <time>2015-11-05T14:31:42Z</time>
      </trkpt>
      <trkpt lat="45.40986" lon="5.92305">
        <ele>1842.699525235</ele>
        <time>2015-11-05T14:31:52Z</time>
      </trkpt>
      <trkpt lat="45.40986" lon="5.92305">
        <ele>1842.699525235</ele>
        <time>2015-11-05T14:31:57Z</time>
      </trkpt>
      <trkpt lat="45.40986" lon="5.92305">
        <ele>1842.699525235</ele>
        <time>2015-11-05T14:32:07Z</time>
      </trkpt>
      <trkpt lat="45.40986" lon="5.92305">
        <ele>1842.699525235</ele>
        <time>2015-11-05T14:32:12Z</time>
      </trkpt>
      <trkpt lat="45.40986" lon="5.92305">
        <ele>1842.699525235</ele>
        <time>2015-11-05T14:32:22Z</time>
      </trkpt>
      <trkpt lat="45.40986" lon="5.92305">
        <ele>1842.699525235</ele>
        <time>2015-11-05T14:32:27Z</time>
      </trkpt>
      <trkpt lat="45.40986" lon="5.92305">
        <ele>1842.699525235</ele>
        <time>2015-11-05T14:32:42Z</time>
      </trkpt>
      <trkpt lat="45.40986" lon="5.92305">
        <ele>1842.699525235</ele>
        <time>2015-11-05T14:32:47Z</time>
      </trkpt>
      <trkpt lat="45.40987" lon="5.92304">
        <ele>1842.699525235</ele>
        <time>2015-11-05T14:32:57Z</time>
      </trkpt>
      <trkpt lat="45.40987" lon="5.92304">
        <ele>1842.699525235</ele>
        <time>2015-11-05T14:33:02Z</time>
      </trkpt>
      <trkpt lat="45.40987" lon="5.92304">
        <ele>1842.699525235</ele>
        <time>2015-11-05T14:33:12Z</time>
      </trkpt>
      <trkpt lat="45.40987" lon="5.92304">
        <ele>1842.699525235</ele>
        <time>2015-11-05T14:33:17Z</time>
      </trkpt>
      <trkpt lat="45.40987" lon="5.92304">
        <ele>1842.699525235</ele>
        <time>2015-11-05T14:33:27Z</time>
      </trkpt>
      <trkpt lat="45.40987" lon="5.92304">
        <ele>1842.699525235</ele>
        <time>2015-11-05T14:33:32Z</time>
      </trkpt>
      <trkpt lat="45.40987" lon="5.92304">
        <ele>1842.699525235</ele>
        <time>2015-11-05T14:33:42Z</time>
      </trkpt>
      <trkpt lat="45.40987" lon="5.92304">
        <ele>1842.699525235</ele>
        <time>2015-11-05T14:33:47Z</time>
      </trkpt>
      <trkpt lat="45.40987" lon="5.92304">
        <ele>1842.699525235</ele>
        <time>2015-11-05T14:33:57Z</time>
      </trkpt>
      <trkpt lat="45.40987" lon="5.92304">
        <ele>1842.699525235</ele>
        <time>2015-11-05T14:34:02Z</time>
      </trkpt>
      <trkpt lat="45.40987" lon="5.92304">
        <ele>1842.699525235</ele>
        <time>2015-11-05T14:34:12Z</time>
      </trkpt>
      <trkpt lat="45.40987" lon="5.92304">
        <ele>1842.699525235</ele>
        <time>2015-11-05T14:34:18Z</time>
      </trkpt>
      <trkpt lat="45.40987" lon="5.92304">
        <ele>1842.699525235</ele>
        <time>2015-11-05T14:34:28Z</time>
      </trkpt>
      <trkpt lat="45.40987" lon="5.92304">
        <ele>1842.662760006</ele>
        <time>2015-11-05T14:34:32Z</time>
      </trkpt>
      <trkpt lat="45.40987" lon="5.92304">
        <ele>1842.662760006</ele>
        <time>2015-11-05T14:34:42Z</time>
      </trkpt>
      <trkpt lat="45.40987" lon="5.92304">
        <ele>1842.662760006</ele>
        <time>2015-11-05T14:34:47Z</time>
      </trkpt>
      <trkpt lat="45.40987" lon="5.92304">
        <ele>1842.662760006</ele>
        <time>2015-11-05T14:35:04Z</time>
      </trkpt>
      <trkpt lat="45.40987" lon="5.92304">
        <ele>1842.662760006</ele>
        <time>2015-11-05T14:35:18Z</time>
      </trkpt>
      <trkpt lat="45.40987" lon="5.92304">
        <ele>1842.662760006</ele>
        <time>2015-11-05T14:35:32Z</time>
      </trkpt>
      <trkpt lat="45.40987" lon="5.92304">
        <ele>1842.662760006</ele>
        <time>2015-11-05T14:35:37Z</time>
      </trkpt>
      <trkpt lat="45.40987" lon="5.92304">
        <ele>1842.662760006</ele>
        <time>2015-11-05T14:35:51Z</time>
      </trkpt>
      <trkpt lat="45.40987" lon="5.92304">
        <ele>1842.662760006</ele>
        <time>2015-11-05T14:36:03Z</time>
      </trkpt>
      <trkpt lat="45.40987" lon="5.92304">
        <ele>1842.662760006</ele>
        <time>2015-11-05T14:36:33Z</time>
      </trkpt>
      <trkpt lat="45.40987" lon="5.92304">
        <ele>1842.662760006</ele>
        <time>2015-11-05T14:36:53Z</time>
      </trkpt>
      <trkpt lat="45.40987" lon="5.92304">
        <ele>1842.662760006</ele>
        <time>2015-11-05T14:37:10Z</time>
      </trkpt>
      <trkpt lat="45.40987" lon="5.92304">
        <ele>1842.662760006</ele>
        <time>2015-11-05T14:37:12Z</time>
      </trkpt>
      <trkpt lat="45.40987" lon="5.92304">
        <ele>1842.662760006</ele>
        <time>2015-11-05T14:37:24Z</time>
      </trkpt>
      <trkpt lat="45.40987" lon="5.92304">
        <ele>1842.662760006</ele>
        <time>2015-11-05T14:37:25Z</time>
      </trkpt>
      <trkpt lat="45.40987" lon="5.92304">
        <ele>1842.662760006</ele>
        <time>2015-11-05T14:37:31Z</time>
      </trkpt>
      <trkpt lat="45.40987" lon="5.92304">
        <ele>1842.662760006</ele>
        <time>2015-11-05T14:37:45Z</time>
      </trkpt>
      <trkpt lat="45.40987" lon="5.92304">
        <ele>1842.662760006</ele>
        <time>2015-11-05T14:37:47Z</time>
      </trkpt>
      <trkpt lat="45.40987" lon="5.92304">
        <ele>1842.662760006</ele>
        <time>2015-11-05T14:37:55Z</time>
      </trkpt>
      <trkpt lat="45.40987" lon="5.92304">
        <ele>1842.662760006</ele>
        <time>2015-11-05T14:37:57Z</time>
      </trkpt>
      <trkpt lat="45.40987" lon="5.92304">
        <ele>1842.662760006</ele>
        <time>2015-11-05T14:38:17Z</time>
      </trkpt>
      <trkpt lat="45.40987" lon="5.92304">
        <ele>1842.662760006</ele>
        <time>2015-11-05T14:38:36Z</time>
      </trkpt>
      <trkpt lat="45.40987" lon="5.92304">
        <ele>1842.662760006</ele>
        <time>2015-11-05T14:38:37Z</time>
      </trkpt>
      <trkpt lat="45.40987" lon="5.92304">
        <ele>1842.662760006</ele>
        <time>2015-11-05T14:38:55Z</time>
      </trkpt>
      <trkpt lat="45.40987" lon="5.92304">
        <ele>1842.662760006</ele>
        <time>2015-11-05T14:38:55Z</time>
      </trkpt>
      <trkpt lat="45.40987" lon="5.92304">
        <ele>1842.662760006</ele>
        <time>2015-11-05T14:38:57Z</time>
      </trkpt>
      <trkpt lat="45.40987" lon="5.92304">
        <ele>1842.662760006</ele>
        <time>2015-11-05T14:39:04Z</time>
      </trkpt>
      <trkpt lat="45.40987" lon="5.92304">
        <ele>1842.662760006</ele>
        <time>2015-11-05T14:39:07Z</time>
      </trkpt>
      <trkpt lat="45.40987" lon="5.92304">
        <ele>1842.662760006</ele>
        <time>2015-11-05T14:39:22Z</time>
      </trkpt>
      <trkpt lat="45.40987" lon="5.92304">
        <ele>1842.662760006</ele>
        <time>2015-11-05T14:39:27Z</time>
      </trkpt>
      <trkpt lat="45.40987" lon="5.92304">
        <ele>1842.662760006</ele>
        <time>2015-11-05T14:39:35Z</time>
      </trkpt>
      <trkpt lat="45.40987" lon="5.92304">
        <ele>1842.662760006</ele>
        <time>2015-11-05T14:39:37Z</time>
      </trkpt>
      <trkpt lat="45.40987" lon="5.92304">
        <ele>1842.662760006</ele>
        <time>2015-11-05T14:39:42Z</time>
      </trkpt>
      <trkpt lat="45.40988" lon="5.92304">
        <ele>1842.662760006</ele>
        <time>2015-11-05T14:39:52Z</time>
      </trkpt>
      <trkpt lat="45.40988" lon="5.92302">
        <ele>1842.662760006</ele>
        <time>2015-11-05T14:39:57Z</time>
      </trkpt>
      <trkpt lat="45.40989" lon="5.92301">
        <ele>1842.662760006</ele>
        <time>2015-11-05T14:40:08Z</time>
      </trkpt>
      <trkpt lat="45.40989" lon="5.92301">
        <ele>1842.662760006</ele>
        <time>2015-11-05T14:40:13Z</time>
      </trkpt>
      <trkpt lat="45.40989" lon="5.92301">
        <ele>1842.662760006</ele>
        <time>2015-11-05T14:40:23Z</time>
      </trkpt>
      <trkpt lat="45.40989" lon="5.92301">
        <ele>1842.662760006</ele>
        <time>2015-11-05T14:40:28Z</time>
      </trkpt>
      <trkpt lat="45.4099" lon="5.92303">
        <ele>1842.662760006</ele>
        <time>2015-11-05T14:40:37Z</time>
      </trkpt>
      <trkpt lat="45.4099" lon="5.92304">
        <ele>1842.662760006</ele>
        <time>2015-11-05T14:40:43Z</time>
      </trkpt>
      <trkpt lat="45.40989" lon="5.92303">
        <ele>1842.662760006</ele>
        <time>2015-11-05T14:40:53Z</time>
      </trkpt>
      <trkpt lat="45.40989" lon="5.92304">
        <ele>1842.662760006</ele>
        <time>2015-11-05T14:40:57Z</time>
      </trkpt>
      <trkpt lat="45.4099" lon="5.92303">
        <ele>1842.662760006</ele>
        <time>2015-11-05T14:41:09Z</time>
      </trkpt>
      <trkpt lat="45.40991" lon="5.92304">
        <ele>1842.616821437</ele>
        <time>2015-11-05T14:41:13Z</time>
      </trkpt>
      <trkpt lat="45.40991" lon="5.92305">
        <ele>1842.616821437</ele>
        <time>2015-11-05T14:41:29Z</time>
      </trkpt>
      <trkpt lat="45.4099" lon="5.92307">
        <ele>1842.616821437</ele>
        <time>2015-11-05T14:41:42Z</time>
      </trkpt>
      <trkpt lat="45.4099" lon="5.92307">
        <ele>1842.616821437</ele>
        <time>2015-11-05T14:41:48Z</time>
      </trkpt>
      <trkpt lat="45.4099" lon="5.92307">
        <ele>1842.616821437</ele>
        <time>2015-11-05T14:41:57Z</time>
      </trkpt>
      <trkpt lat="45.4099" lon="5.92307">
        <ele>1842.616821437</ele>
        <time>2015-11-05T14:42:02Z</time>
      </trkpt>
      <trkpt lat="45.4099" lon="5.92307">
        <ele>1842.616821437</ele>
        <time>2015-11-05T14:42:12Z</time>
      </trkpt>
      <trkpt lat="45.4099" lon="5.92307">
        <ele>1842.616821437</ele>
        <time>2015-11-05T14:42:17Z</time>
      </trkpt>
      <trkpt lat="45.4099" lon="5.92307">
        <ele>1842.616821437</ele>
        <time>2015-11-05T14:42:27Z</time>
      </trkpt>
      <trkpt lat="45.4099" lon="5.92307">
        <ele>1842.616821437</ele>
        <time>2015-11-05T14:42:32Z</time>
      </trkpt>
      <trkpt lat="45.4099" lon="5.92307">
        <ele>1842.616821437</ele>
        <time>2015-11-05T14:42:42Z</time>
      </trkpt>
      <trkpt lat="45.40993" lon="5.92305">
        <ele>1842.616821437</ele>
        <time>2015-11-05T14:42:47Z</time>
      </trkpt>
      <trkpt lat="45.40998" lon="5.92307">
        <ele>1842.711390049</ele>
        <time>2015-11-05T14:42:57Z</time>
      </trkpt>
      <trkpt lat="45.41003" lon="5.9231">
        <ele>1842.711390049</ele>
        <time>2015-11-05T14:43:02Z</time>
      </trkpt>
      <trkpt lat="45.41013" lon="5.92325">
        <ele>1841.931960319</ele>
        <time>2015-11-05T14:43:17Z</time>
      </trkpt>
      <trkpt lat="45.41017" lon="5.9233">
        <ele>1841.931960319</ele>
        <time>2015-11-05T14:43:22Z</time>
      </trkpt>
      <trkpt lat="45.41018" lon="5.92335">
        <ele>1841.931960319</ele>
        <time>2015-11-05T14:43:32Z</time>
      </trkpt>
      <trkpt lat="45.41021" lon="5.92337">
        <ele>1841.070406137</ele>
        <time>2015-11-05T14:43:37Z</time>
      </trkpt>
      <trkpt lat="45.41027" lon="5.92342">
        <ele>1841.070406137</ele>
        <time>2015-11-05T14:43:48Z</time>
      </trkpt>
      <trkpt lat="45.4103" lon="5.92346">
        <ele>1839.851926738</ele>
        <time>2015-11-05T14:43:52Z</time>
      </trkpt>
      <trkpt lat="45.41037" lon="5.92354">
        <ele>1838.455260915</ele>
        <time>2015-11-05T14:44:02Z</time>
      </trkpt>
      <trkpt lat="45.41048" lon="5.92363">
        <ele>1837.190620689</ele>
        <time>2015-11-05T14:44:18Z</time>
      </trkpt>
      <trkpt lat="45.4105" lon="5.92365">
        <ele>1837.190620689</ele>
        <time>2015-11-05T14:44:22Z</time>
      </trkpt>
      <trkpt lat="45.41057" lon="5.92373">
        <ele>1836.200916417</ele>
        <time>2015-11-05T14:44:34Z</time>
      </trkpt>
      <trkpt lat="45.41058" lon="5.92377">
        <ele>1836.200916417</ele>
        <time>2015-11-05T14:44:38Z</time>
      </trkpt>
      <trkpt lat="45.41059" lon="5.9238">
        <ele>1836.200916417</ele>
        <time>2015-11-05T14:44:42Z</time>
      </trkpt>
      <trkpt lat="45.41068" lon="5.92378">
        <ele>1835.185400772</ele>
        <time>2015-11-05T14:44:54Z</time>
      </trkpt>
      <trkpt lat="45.41081" lon="5.92381">
        <ele>1834.15363885</ele>
        <time>2015-11-05T14:45:08Z</time>
      </trkpt>
      <trkpt lat="45.41084" lon="5.92382">
        <ele>1834.15363885</ele>
        <time>2015-11-05T14:45:13Z</time>
      </trkpt>
      <trkpt lat="45.41091" lon="5.9238">
        <ele>1832.970334377</ele>
        <time>2015-11-05T14:45:22Z</time>
      </trkpt>
      <trkpt lat="45.41097" lon="5.92377">
        <ele>1832.970334377</ele>
        <time>2015-11-05T14:45:28Z</time>
      </trkpt>
      <trkpt lat="45.41106" lon="5.92381">
        <ele>1831.222222204</ele>
        <time>2015-11-05T14:45:38Z</time>
      </trkpt>
      <trkpt lat="45.41109" lon="5.92388">
        <ele>1831.222222204</ele>
        <time>2015-11-05T14:45:42Z</time>
      </trkpt>
      <trkpt lat="45.41113" lon="5.92401">
        <ele>1828.9601852</ele>
        <time>2015-11-05T14:45:54Z</time>
      </trkpt>
      <trkpt lat="45.41114" lon="5.92403">
        <ele>1828.9601852</ele>
        <time>2015-11-05T14:45:58Z</time>
      </trkpt>
      <trkpt lat="45.41118" lon="5.92413">
        <ele>1826.95322011</ele>
        <time>2015-11-05T14:46:08Z</time>
      </trkpt>
      <trkpt lat="45.41118" lon="5.92417">
        <ele>1826.95322011</ele>
        <time>2015-11-05T14:46:12Z</time>
      </trkpt>
      <trkpt lat="45.41121" lon="5.92428">
        <ele>1825.480621721</ele>
        <time>2015-11-05T14:46:22Z</time>
      </trkpt>
      <trkpt lat="45.41121" lon="5.92432">
        <ele>1825.480621721</ele>
        <time>2015-11-05T14:46:29Z</time>
      </trkpt>
      <trkpt lat="45.41126" lon="5.92444">
        <ele>1823.934823168</ele>
        <time>2015-11-05T14:46:39Z</time>
      </trkpt>
      <trkpt lat="45.41128" lon="5.92446">
        <ele>1823.934823168</ele>
        <time>2015-11-05T14:46:42Z</time>
      </trkpt>
      <trkpt lat="45.41132" lon="5.92447">
        <ele>1823.934823168</ele>
        <time>2015-11-05T14:46:53Z</time>
      </trkpt>
      <trkpt lat="45.41134" lon="5.92445">
        <ele>1823.934823168</ele>
        <time>2015-11-05T14:46:58Z</time>
      </trkpt>
      <trkpt lat="45.41142" lon="5.9244">
        <ele>1822.905792564</ele>
        <time>2015-11-05T14:47:13Z</time>
      </trkpt>
      <trkpt lat="45.41148" lon="5.92443">
        <ele>1822.905792564</ele>
        <time>2015-11-05T14:47:18Z</time>
      </trkpt>
      <trkpt lat="45.4115" lon="5.92444">
        <ele>1821.065062879</ele>
        <time>2015-11-05T14:47:30Z</time>
      </trkpt>
      <trkpt lat="45.4115" lon="5.92444">
        <ele>1821.065062879</ele>
        <time>2015-11-05T14:47:33Z</time>
      </trkpt>
      <trkpt lat="45.4115" lon="5.92444">
        <ele>1821.065062879</ele>
        <time>2015-11-05T14:47:42Z</time>
      </trkpt>
      <trkpt lat="45.4115" lon="5.92442">
        <ele>1821.065062879</ele>
        <time>2015-11-05T14:47:48Z</time>
      </trkpt>
      <trkpt lat="45.4114" lon="5.9243">
        <ele>1820.066047345</ele>
        <time>2015-11-05T14:47:58Z</time>
      </trkpt>
      <trkpt lat="45.41141" lon="5.92424">
        <ele>1820.066047345</ele>
        <time>2015-11-05T14:48:02Z</time>
      </trkpt>
      <trkpt lat="45.41147" lon="5.92407">
        <ele>1819.132346687</ele>
        <time>2015-11-05T14:48:13Z</time>
      </trkpt>
      <trkpt lat="45.41148" lon="5.92402">
        <ele>1819.132346687</ele>
        <time>2015-11-05T14:48:18Z</time>
      </trkpt>
      <trkpt lat="45.41145" lon="5.92403">
        <ele>1819.132346687</ele>
        <time>2015-11-05T14:48:34Z</time>
      </trkpt>
      <trkpt lat="45.41145" lon="5.92403">
        <ele>1819.132346687</ele>
        <time>2015-11-05T14:48:38Z</time>
      </trkpt>
      <trkpt lat="45.41145" lon="5.92403">
        <ele>1819.132346687</ele>
        <time>2015-11-05T14:48:48Z</time>
      </trkpt>
      <trkpt lat="45.41146" lon="5.92402">
        <ele>1819.132346687</ele>
        <time>2015-11-05T14:48:53Z</time>
      </trkpt>
      <trkpt lat="45.41145" lon="5.924">
        <ele>1819.132346687</ele>
        <time>2015-11-05T14:49:02Z</time>
      </trkpt>
      <trkpt lat="45.41147" lon="5.924">
        <ele>1818.120639613</ele>
        <time>2015-11-05T14:49:07Z</time>
      </trkpt>
      <trkpt lat="45.41149" lon="5.92402">
        <ele>1818.120639613</ele>
        <time>2015-11-05T14:49:18Z</time>
      </trkpt>
      <trkpt lat="45.4115" lon="5.92407">
        <ele>1818.120639613</ele>
        <time>2015-11-05T14:49:23Z</time>
      </trkpt>
      <trkpt lat="45.41149" lon="5.92419">
        <ele>1817.186355193</ele>
        <time>2015-11-05T14:49:33Z</time>
      </trkpt>
      <trkpt lat="45.41149" lon="5.92424">
        <ele>1817.186355193</ele>
        <time>2015-11-05T14:49:38Z</time>
      </trkpt>
      <trkpt lat="45.4115" lon="5.92431">
        <ele>1817.186355193</ele>
        <time>2015-11-05T14:49:47Z</time>
      </trkpt>
      <trkpt lat="45.41152" lon="5.92437">
        <ele>1816.328957652</ele>
        <time>2015-11-05T14:49:53Z</time>
      </trkpt>
      <trkpt lat="45.41157" lon="5.9244">
        <ele>1816.328957652</ele>
        <time>2015-11-05T14:50:03Z</time>
      </trkpt>
      <trkpt lat="45.41156" lon="5.9244">
        <ele>1816.328957652</ele>
        <time>2015-11-05T14:50:07Z</time>
      </trkpt>
      <trkpt lat="45.41156" lon="5.9244">
        <ele>1816.328957652</ele>
        <time>2015-11-05T14:50:18Z</time>
      </trkpt>
      <trkpt lat="45.41156" lon="5.9244">
        <ele>1816.328957652</ele>
        <time>2015-11-05T14:50:23Z</time>
      </trkpt>
      <trkpt lat="45.41156" lon="5.9244">
        <ele>1816.328957652</ele>
        <time>2015-11-05T14:50:34Z</time>
      </trkpt>
      <trkpt lat="45.41156" lon="5.9244">
        <ele>1816.328957652</ele>
        <time>2015-11-05T14:50:38Z</time>
      </trkpt>
      <trkpt lat="45.41156" lon="5.9244">
        <ele>1816.328957652</ele>
        <time>2015-11-05T14:50:42Z</time>
      </trkpt>
      <trkpt lat="45.41156" lon="5.9244">
        <ele>1816.328957652</ele>
        <time>2015-11-05T14:50:53Z</time>
      </trkpt>
      <trkpt lat="45.41151" lon="5.92449">
        <ele>1815.259294597</ele>
        <time>2015-11-05T14:51:07Z</time>
      </trkpt>
      <trkpt lat="45.41148" lon="5.92454">
        <ele>1815.259294597</ele>
        <time>2015-11-05T14:51:14Z</time>
      </trkpt>
      <trkpt lat="45.41147" lon="5.92458">
        <ele>1815.259294597</ele>
        <time>2015-11-05T14:51:23Z</time>
      </trkpt>
      <trkpt lat="45.41147" lon="5.92462">
        <ele>1814.718612528</ele>
        <time>2015-11-05T14:51:27Z</time>
      </trkpt>
      <trkpt lat="45.41148" lon="5.92474">
        <ele>1814.718612528</ele>
        <time>2015-11-05T14:51:38Z</time>
      </trkpt>
      <trkpt lat="45.41148" lon="5.92474">
        <ele>1814.095009373</ele>
        <time>2015-11-05T14:51:43Z</time>
      </trkpt>
      <trkpt lat="45.41148" lon="5.92474">
        <ele>1814.095009373</ele>
        <time>2015-11-05T14:51:53Z</time>
      </trkpt>
      <trkpt lat="45.41149" lon="5.92474">
        <ele>1814.095009373</ele>
        <time>2015-11-05T14:51:58Z</time>
      </trkpt>
      <trkpt lat="45.41148" lon="5.92478">
        <ele>1814.095009373</ele>
        <time>2015-11-05T14:52:07Z</time>
      </trkpt>
      <trkpt lat="45.41152" lon="5.92483">
        <ele>1814.095009373</ele>
        <time>2015-11-05T14:52:13Z</time>
      </trkpt>
      <trkpt lat="45.41154" lon="5.92486">
        <ele>1813.83033602</ele>
        <time>2015-11-05T14:52:24Z</time>
      </trkpt>
      <trkpt lat="45.41154" lon="5.92487">
        <ele>1813.83033602</ele>
        <time>2015-11-05T14:52:27Z</time>
      </trkpt>
      <trkpt lat="45.41155" lon="5.92487">
        <ele>1813.83033602</ele>
        <time>2015-11-05T14:52:39Z</time>
      </trkpt>
      <trkpt lat="45.41156" lon="5.92487">
        <ele>1813.83033602</ele>
        <time>2015-11-05T14:52:43Z</time>
      </trkpt>
      <trkpt lat="45.4116" lon="5.92484">
        <ele>1813.83033602</ele>
        <time>2015-11-05T14:52:53Z</time>
      </trkpt>
      <trkpt lat="45.41164" lon="5.9248">
        <ele>1814.044555199</ele>
        <time>2015-11-05T14:52:58Z</time>
      </trkpt>
      <trkpt lat="45.41166" lon="5.92476">
        <ele>1814.044555199</ele>
        <time>2015-11-05T14:53:08Z</time>
      </trkpt>
      <trkpt lat="45.41166" lon="5.92474">
        <ele>1814.044555199</ele>
        <time>2015-11-05T14:53:12Z</time>
      </trkpt>
      <trkpt lat="45.41168" lon="5.92477">
        <ele>1814.044555199</ele>
        <time>2015-11-05T14:53:17Z</time>
      </trkpt>
      <trkpt lat="45.4117" lon="5.92477">
        <ele>1814.044555199</ele>
        <time>2015-11-05T14:53:24Z</time>
      </trkpt>
      <trkpt lat="45.41175" lon="5.92477">
        <ele>1813.838503083</ele>
        <time>2015-11-05T14:53:28Z</time>
      </trkpt>
      <trkpt lat="45.41175" lon="5.92475">
        <ele>1813.838503083</ele>
        <time>2015-11-05T14:53:32Z</time>
      </trkpt>
      <trkpt lat="45.41179" lon="5.92476">
        <ele>1813.838503083</ele>
        <time>2015-11-05T14:53:43Z</time>
      </trkpt>
      <trkpt lat="45.41183" lon="5.92479">
        <ele>1813.244729875</ele>
        <time>2015-11-05T14:53:48Z</time>
      </trkpt>
      <trkpt lat="45.41188" lon="5.92474">
        <ele>1813.244729875</ele>
        <time>2015-11-05T14:53:58Z</time>
      </trkpt>
      <trkpt lat="45.41192" lon="5.9247">
        <ele>1813.014863307</ele>
        <time>2015-11-05T14:54:03Z</time>
      </trkpt>
      <trkpt lat="45.41197" lon="5.92469">
        <ele>1813.014863307</ele>
        <time>2015-11-05T14:54:12Z</time>
      </trkpt>
      <trkpt lat="45.41203" lon="5.92467">
        <ele>1812.691240255</ele>
        <time>2015-11-05T14:54:19Z</time>
      </trkpt>
      <trkpt lat="45.41209" lon="5.9247">
        <ele>1812.691240255</ele>
        <time>2015-11-05T14:54:28Z</time>
      </trkpt>
      <trkpt lat="45.4121" lon="5.92472">
        <ele>1812.691240255</ele>
        <time>2015-11-05T14:54:32Z</time>
      </trkpt>
      <trkpt lat="45.41212" lon="5.92473">
        <ele>1812.858700234</ele>
        <time>2015-11-05T14:54:43Z</time>
      </trkpt>
      <trkpt lat="45.41213" lon="5.92479">
        <ele>1812.858700234</ele>
        <time>2015-11-05T14:54:48Z</time>
      </trkpt>
      <trkpt lat="45.41211" lon="5.92483">
        <ele>1812.858700234</ele>
        <time>2015-11-05T14:54:52Z</time>
      </trkpt>
      <trkpt lat="45.41212" lon="5.92486">
        <ele>1812.18414716</ele>
        <time>2015-11-05T14:54:59Z</time>
      </trkpt>
      <trkpt lat="45.41213" lon="5.92487">
        <ele>1812.18414716</ele>
        <time>2015-11-05T14:55:03Z</time>
      </trkpt>
      <trkpt lat="45.4121" lon="5.92493">
        <ele>1812.18414716</ele>
        <time>2015-11-05T14:55:18Z</time>
      </trkpt>
      <trkpt lat="45.41211" lon="5.92495">
        <ele>1812.18414716</ele>
        <time>2015-11-05T14:55:23Z</time>
      </trkpt>
      <trkpt lat="45.41212" lon="5.92495">
        <ele>1812.18414716</ele>
        <time>2015-11-05T14:55:32Z</time>
      </trkpt>
      <trkpt lat="45.41211" lon="5.92495">
        <ele>1812.18414716</ele>
        <time>2015-11-05T14:55:38Z</time>
      </trkpt>
      <trkpt lat="45.41211" lon="5.92495">
        <ele>1812.18414716</ele>
        <time>2015-11-05T14:55:48Z</time>
      </trkpt>
      <trkpt lat="45.41211" lon="5.92495">
        <ele>1812.18414716</ele>
        <time>2015-11-05T14:55:52Z</time>
      </trkpt>
      <trkpt lat="45.41212" lon="5.92497">
        <ele>1812.172745435</ele>
        <time>2015-11-05T14:56:08Z</time>
      </trkpt>
      <trkpt lat="45.41212" lon="5.92497">
        <ele>1812.172745435</ele>
        <time>2015-11-05T14:56:12Z</time>
      </trkpt>
      <trkpt lat="45.41211" lon="5.92503">
        <ele>1812.172745435</ele>
        <time>2015-11-05T14:56:22Z</time>
      </trkpt>
      <trkpt lat="45.41212" lon="5.92506">
        <ele>1812.172745435</ele>
        <time>2015-11-05T14:56:27Z</time>
      </trkpt>
      <trkpt lat="45.41211" lon="5.92509">
        <ele>1812.172745435</ele>
        <time>2015-11-05T14:56:37Z</time>
      </trkpt>
      <trkpt lat="45.41211" lon="5.92509">
        <ele>1811.190760611</ele>
        <time>2015-11-05T14:56:42Z</time>
      </trkpt>
      <trkpt lat="45.41212" lon="5.9251">
        <ele>1811.190760611</ele>
        <time>2015-11-05T14:56:52Z</time>
      </trkpt>
      <trkpt lat="45.41212" lon="5.9251">
        <ele>1811.190760611</ele>
        <time>2015-11-05T14:56:57Z</time>
      </trkpt>
      <trkpt lat="45.41213" lon="5.92511">
        <ele>1811.190760611</ele>
        <time>2015-11-05T14:57:07Z</time>
      </trkpt>
      <trkpt lat="45.41214" lon="5.92511">
        <ele>1811.190760611</ele>
        <time>2015-11-05T14:57:12Z</time>
      </trkpt>
      <trkpt lat="45.41213" lon="5.92511">
        <ele>1811.190760611</ele>
        <time>2015-11-05T14:57:27Z</time>
      </trkpt>
      <trkpt lat="45.41213" lon="5.92511">
        <ele>1811.190760611</ele>
        <time>2015-11-05T14:57:32Z</time>
      </trkpt>
      <trkpt lat="45.41213" lon="5.92511">
        <ele>1811.190760611</ele>
        <time>2015-11-05T14:57:42Z</time>
      </trkpt>
      <trkpt lat="45.41213" lon="5.92511">
        <ele>1811.190760611</ele>
        <time>2015-11-05T14:57:47Z</time>
      </trkpt>
      <trkpt lat="45.41213" lon="5.92511">
        <ele>1811.190760611</ele>
        <time>2015-11-05T14:57:57Z</time>
      </trkpt>
      <trkpt lat="45.41213" lon="5.92511">
        <ele>1811.190760611</ele>
        <time>2015-11-05T14:58:02Z</time>
      </trkpt>
      <trkpt lat="45.41213" lon="5.92511">
        <ele>1811.190760611</ele>
        <time>2015-11-05T14:58:12Z</time>
      </trkpt>
      <trkpt lat="45.41213" lon="5.92511">
        <ele>1811.190760611</ele>
        <time>2015-11-05T14:58:17Z</time>
      </trkpt>
      <trkpt lat="45.41213" lon="5.92511">
        <ele>1811.190760611</ele>
        <time>2015-11-05T14:58:27Z</time>
      </trkpt>
      <trkpt lat="45.41213" lon="5.92511">
        <ele>1811.190760611</ele>
        <time>2015-11-05T14:58:32Z</time>
      </trkpt>
      <trkpt lat="45.41213" lon="5.92511">
        <ele>1811.190760611</ele>
        <time>2015-11-05T14:58:42Z</time>
      </trkpt>
      <trkpt lat="45.41213" lon="5.92511">
        <ele>1811.190760611</ele>
        <time>2015-11-05T14:58:47Z</time>
      </trkpt>
      <trkpt lat="45.41213" lon="5.92511">
        <ele>1811.190760611</ele>
        <time>2015-11-05T14:58:57Z</time>
      </trkpt>
      <trkpt lat="45.41213" lon="5.92511">
        <ele>1811.190760611</ele>
        <time>2015-11-05T14:59:02Z</time>
      </trkpt>
      <trkpt lat="45.41213" lon="5.92511">
        <ele>1811.190760611</ele>
        <time>2015-11-05T14:59:12Z</time>
      </trkpt>
      <trkpt lat="45.41213" lon="5.92511">
        <ele>1811.190760611</ele>
        <time>2015-11-05T14:59:17Z</time>
      </trkpt>
      <trkpt lat="45.41213" lon="5.92511">
        <ele>1811.190760611</ele>
        <time>2015-11-05T14:59:27Z</time>
      </trkpt>
      <trkpt lat="45.41213" lon="5.92511">
        <ele>1811.190760611</ele>
        <time>2015-11-05T14:59:33Z</time>
      </trkpt>
      <trkpt lat="45.41213" lon="5.92511">
        <ele>1811.190760611</ele>
        <time>2015-11-05T14:59:48Z</time>
      </trkpt>
      <trkpt lat="45.41213" lon="5.92511">
        <ele>1811.190760611</ele>
        <time>2015-11-05T14:59:53Z</time>
      </trkpt>
      <trkpt lat="45.41211" lon="5.9251">
        <ele>1811.190760611</ele>
        <time>2015-11-05T15:00:02Z</time>
      </trkpt>
      <trkpt lat="45.4121" lon="5.92504">
        <ele>1811.041622584</ele>
        <time>2015-11-05T15:00:08Z</time>
      </trkpt>
      <trkpt lat="45.41209" lon="5.92502">
        <ele>1811.041622584</ele>
        <time>2015-11-05T15:00:18Z</time>
      </trkpt>
      <trkpt lat="45.41209" lon="5.92502">
        <ele>1811.041622584</ele>
        <time>2015-11-05T15:00:22Z</time>
      </trkpt>
      <trkpt lat="45.41209" lon="5.92501">
        <ele>1811.041622584</ele>
        <time>2015-11-05T15:00:34Z</time>
      </trkpt>
      <trkpt lat="45.41209" lon="5.92501">
        <ele>1811.041622584</ele>
        <time>2015-11-05T15:00:37Z</time>
      </trkpt>
      <trkpt lat="45.41209" lon="5.92501">
        <ele>1811.041622584</ele>
        <time>2015-11-05T15:00:42Z</time>
      </trkpt>
      <trkpt lat="45.41209" lon="5.92501">
        <ele>1811.041622584</ele>
        <time>2015-11-05T15:00:54Z</time>
      </trkpt>
      <trkpt lat="45.41209" lon="5.92501">
        <ele>1811.041622584</ele>
        <time>2015-11-05T15:00:58Z</time>
      </trkpt>
      <trkpt lat="45.4121" lon="5.92502">
        <ele>1811.041622584</ele>
        <time>2015-11-05T15:01:07Z</time>
      </trkpt>
      <trkpt lat="45.41213" lon="5.92504">
        <ele>1811.041622584</ele>
        <time>2015-11-05T15:01:12Z</time>
      </trkpt>
      <trkpt lat="45.4122" lon="5.92505">
        <ele>1810.079265545</ele>
        <time>2015-11-05T15:01:22Z</time>
      </trkpt>
      <trkpt lat="45.4122" lon="5.92505">
        <ele>1810.079265545</ele>
        <time>2015-11-05T15:01:28Z</time>
      </trkpt>
      <trkpt lat="45.4122" lon="5.92505">
        <ele>1810.079265545</ele>
        <time>2015-11-05T15:01:38Z</time>
      </trkpt>
      <trkpt lat="45.4122" lon="5.92505">
        <ele>1810.079265545</ele>
        <time>2015-11-05T15:01:42Z</time>
      </trkpt>
      <trkpt lat="45.41221" lon="5.92511">
        <ele>1810.079265545</ele>
        <time>2015-11-05T15:01:53Z</time>
      </trkpt>
      <trkpt lat="45.41221" lon="5.92512">
        <ele>1810.079265545</ele>
        <time>2015-11-05T15:01:58Z</time>
      </trkpt>
      <trkpt lat="45.41222" lon="5.92513">
        <ele>1810.079265545</ele>
        <time>2015-11-05T15:02:13Z</time>
      </trkpt>
      <trkpt lat="45.41222" lon="5.92513">
        <ele>1810.079265545</ele>
        <time>2015-11-05T15:02:27Z</time>
      </trkpt>
      <trkpt lat="45.41227" lon="5.92519">
        <ele>1808.365926383</ele>
        <time>2015-11-05T15:02:32Z</time>
      </trkpt>
      <trkpt lat="45.41234" lon="5.92518">
        <ele>1808.365926383</ele>
        <time>2015-11-05T15:02:42Z</time>
      </trkpt>
      <trkpt lat="45.41234" lon="5.92519">
        <ele>1808.365926383</ele>
        <time>2015-11-05T15:02:47Z</time>
      </trkpt>
      <trkpt lat="45.41234" lon="5.92519">
        <ele>1808.365926383</ele>
        <time>2015-11-05T15:02:57Z</time>
      </trkpt>
      <trkpt lat="45.41235" lon="5.9252">
        <ele>1808.365926383</ele>
        <time>2015-11-05T15:03:03Z</time>
      </trkpt>
      <trkpt lat="45.41241" lon="5.92511">
        <ele>1806.105367478</ele>
        <time>2015-11-05T15:03:13Z</time>
      </trkpt>
      <trkpt lat="45.41243" lon="5.92506">
        <ele>1806.105367478</ele>
        <time>2015-11-05T15:03:18Z</time>
      </trkpt>
      <trkpt lat="45.41247" lon="5.92512">
        <ele>1803.487794468</ele>
        <time>2015-11-05T15:03:28Z</time>
      </trkpt>
      <trkpt lat="45.41252" lon="5.92512">
        <ele>1803.487794468</ele>
        <time>2015-11-05T15:03:32Z</time>
      </trkpt>
      <trkpt lat="45.41257" lon="5.92519">
        <ele>1800.978534402</ele>
        <time>2015-11-05T15:03:43Z</time>
      </trkpt>
      <trkpt lat="45.41259" lon="5.9252">
        <ele>1800.978534402</ele>
        <time>2015-11-05T15:03:48Z</time>
      </trkpt>
      <trkpt lat="45.41265" lon="5.92518">
        <ele>1800.978534402</ele>
        <time>2015-11-05T15:03:58Z</time>
      </trkpt>
      <trkpt lat="45.41266" lon="5.92519">
        <ele>1797.855399076</ele>
        <time>2015-11-05T15:04:03Z</time>
      </trkpt>
      <trkpt lat="45.41269" lon="5.92521">
        <ele>1797.855399076</ele>
        <time>2015-11-05T15:04:13Z</time>
      </trkpt>
      <trkpt lat="45.41271" lon="5.92519">
        <ele>1797.855399076</ele>
        <time>2015-11-05T15:04:18Z</time>
      </trkpt>
      <trkpt lat="45.41273" lon="5.92523">
        <ele>1794.459601907</ele>
        <time>2015-11-05T15:04:27Z</time>
      </trkpt>
      <trkpt lat="45.41275" lon="5.92523">
        <ele>1794.459601907</ele>
        <time>2015-11-05T15:04:32Z</time>
      </trkpt>
      <trkpt lat="45.41278" lon="5.92525">
        <ele>1794.459601907</ele>
        <time>2015-11-05T15:04:47Z</time>
      </trkpt>
      <trkpt lat="45.41281" lon="5.92537">
        <ele>1789.810891653</ele>
        <time>2015-11-05T15:05:03Z</time>
      </trkpt>
      <trkpt lat="45.41286" lon="5.92539">
        <ele>1789.810891653</ele>
        <time>2015-11-05T15:05:09Z</time>
      </trkpt>
      <trkpt lat="45.41292" lon="5.92533">
        <ele>1785.742474653</ele>
        <time>2015-11-05T15:05:18Z</time>
      </trkpt>
      <trkpt lat="45.41292" lon="5.92534">
        <ele>1785.742474653</ele>
        <time>2015-11-05T15:05:24Z</time>
      </trkpt>
      <trkpt lat="45.41297" lon="5.92542">
        <ele>1785.742474653</ele>
        <time>2015-11-05T15:05:33Z</time>
      </trkpt>
      <trkpt lat="45.41296" lon="5.92543">
        <ele>1785.742474653</ele>
        <time>2015-11-05T15:05:38Z</time>
      </trkpt>
      <trkpt lat="45.41298" lon="5.92543">
        <ele>1781.64529045</ele>
        <time>2015-11-05T15:05:47Z</time>
      </trkpt>
      <trkpt lat="45.41298" lon="5.92543">
        <ele>1781.64529045</ele>
        <time>2015-11-05T15:05:52Z</time>
      </trkpt>
      <trkpt lat="45.41294" lon="5.92547">
        <ele>1781.64529045</ele>
        <time>2015-11-05T15:06:02Z</time>
      </trkpt>
      <trkpt lat="45.41293" lon="5.92548">
        <ele>1781.64529045</ele>
        <time>2015-11-05T15:06:07Z</time>
      </trkpt>
      <trkpt lat="45.41298" lon="5.92546">
        <ele>1777.675446742</ele>
        <time>2015-11-05T15:06:17Z</time>
      </trkpt>
      <trkpt lat="45.41301" lon="5.9255">
        <ele>1777.675446742</ele>
        <time>2015-11-05T15:06:22Z</time>
      </trkpt>
      <trkpt lat="45.41301" lon="5.9255">
        <ele>1777.675446742</ele>
        <time>2015-11-05T15:06:27Z</time>
      </trkpt>
      <trkpt lat="45.41303" lon="5.92551">
        <ele>1777.675446742</ele>
        <time>2015-11-05T15:06:32Z</time>
      </trkpt>
      <trkpt lat="45.41308" lon="5.92555">
        <ele>1774.121114488</ele>
        <time>2015-11-05T15:06:37Z</time>
      </trkpt>
      <trkpt lat="45.41312" lon="5.92558">
        <ele>1774.121114488</ele>
        <time>2015-11-05T15:06:54Z</time>
      </trkpt>
      <trkpt lat="45.41312" lon="5.92558">
        <ele>1774.121114488</ele>
        <time>2015-11-05T15:06:58Z</time>
      </trkpt>
      <trkpt lat="45.41322" lon="5.92565">
        <ele>1770.959675146</ele>
        <time>2015-11-05T15:07:09Z</time>
      </trkpt>
      <trkpt lat="45.41328" lon="5.92571">
        <ele>1770.959675146</ele>
        <time>2015-11-05T15:07:13Z</time>
      </trkpt>
      <trkpt lat="45.41336" lon="5.92584">
        <ele>1768.024719564</ele>
        <time>2015-11-05T15:07:23Z</time>
      </trkpt>
      <trkpt lat="45.41336" lon="5.92586">
        <ele>1768.024719564</ele>
        <time>2015-11-05T15:07:28Z</time>
      </trkpt>
      <trkpt lat="45.41343" lon="5.92587">
        <ele>1768.024719564</ele>
        <time>2015-11-05T15:07:39Z</time>
      </trkpt>
      <trkpt lat="45.41346" lon="5.92588">
        <ele>1765.449408868</ele>
        <time>2015-11-05T15:07:43Z</time>
      </trkpt>
      <trkpt lat="45.41352" lon="5.92588">
        <ele>1765.449408868</ele>
        <time>2015-11-05T15:07:53Z</time>
      </trkpt>
      <trkpt lat="45.41352" lon="5.9259">
        <ele>1765.449408868</ele>
        <time>2015-11-05T15:07:58Z</time>
      </trkpt>
      <trkpt lat="45.41356" lon="5.92593">
        <ele>1763.355874141</ele>
        <time>2015-11-05T15:08:09Z</time>
      </trkpt>
      <trkpt lat="45.41357" lon="5.92592">
        <ele>1763.355874141</ele>
        <time>2015-11-05T15:08:14Z</time>
      </trkpt>
      <trkpt lat="45.41356" lon="5.92592">
        <ele>1763.355874141</ele>
        <time>2015-11-05T15:08:18Z</time>
      </trkpt>
      <trkpt lat="45.41356" lon="5.92592">
        <ele>1763.355874141</ele>
        <time>2015-11-05T15:08:22Z</time>
      </trkpt>
      <trkpt lat="45.41356" lon="5.92592">
        <ele>1763.355874141</ele>
        <time>2015-11-05T15:08:27Z</time>
      </trkpt>
      <trkpt lat="45.41356" lon="5.92593">
        <ele>1763.355874141</ele>
        <time>2015-11-05T15:08:32Z</time>
      </trkpt>
      <trkpt lat="45.41356" lon="5.92593">
        <ele>1763.355874141</ele>
        <time>2015-11-05T15:08:37Z</time>
      </trkpt>
      <trkpt lat="45.41357" lon="5.92593">
        <ele>1763.355874141</ele>
        <time>2015-11-05T15:08:43Z</time>
      </trkpt>
      <trkpt lat="45.41356" lon="5.92592">
        <ele>1763.355874141</ele>
        <time>2015-11-05T15:08:54Z</time>
      </trkpt>
      <trkpt lat="45.41356" lon="5.92593">
        <ele>1763.355874141</ele>
        <time>2015-11-05T15:08:58Z</time>
      </trkpt>
      <trkpt lat="45.41356" lon="5.92593">
        <ele>1763.355874141</ele>
        <time>2015-11-05T15:09:04Z</time>
      </trkpt>
      <trkpt lat="45.41356" lon="5.92593">
        <ele>1763.355874141</ele>
        <time>2015-11-05T15:09:13Z</time>
      </trkpt>
      <trkpt lat="45.41356" lon="5.92593">
        <ele>1763.355874141</ele>
        <time>2015-11-05T15:09:19Z</time>
      </trkpt>
      <trkpt lat="45.41362" lon="5.92596">
        <ele>1763.355874141</ele>
        <time>2015-11-05T15:09:28Z</time>
      </trkpt>
      <trkpt lat="45.41364" lon="5.92599">
        <ele>1761.279244203</ele>
        <time>2015-11-05T15:09:33Z</time>
      </trkpt>
      <trkpt lat="45.41368" lon="5.92599">
        <ele>1761.279244203</ele>
        <time>2015-11-05T15:09:42Z</time>
      </trkpt>
      <trkpt lat="45.41368" lon="5.92599">
        <ele>1761.279244203</ele>
        <time>2015-11-05T15:09:48Z</time>
      </trkpt>
      <trkpt lat="45.41368" lon="5.926">
        <ele>1761.279244203</ele>
        <time>2015-11-05T15:09:58Z</time>
      </trkpt>
      <trkpt lat="45.4137" lon="5.92602">
        <ele>1761.279244203</ele>
        <time>2015-11-05T15:10:02Z</time>
      </trkpt>
      <trkpt lat="45.41379" lon="5.92611">
        <ele>1759.220855945</ele>
        <time>2015-11-05T15:10:13Z</time>
      </trkpt>
      <trkpt lat="45.41382" lon="5.92613">
        <ele>1759.220855945</ele>
        <time>2015-11-05T15:10:18Z</time>
      </trkpt>
      <trkpt lat="45.41388" lon="5.92616">
        <ele>1757.469901434</ele>
        <time>2015-11-05T15:10:29Z</time>
      </trkpt>
      <trkpt lat="45.4139" lon="5.92621">
        <ele>1757.469901434</ele>
        <time>2015-11-05T15:10:33Z</time>
      </trkpt>
      <trkpt lat="45.41397" lon="5.92626">
        <ele>1756.581482952</ele>
        <time>2015-11-05T15:10:43Z</time>
      </trkpt>
      <trkpt lat="45.41397" lon="5.92625">
        <ele>1756.581482952</ele>
        <time>2015-11-05T15:10:49Z</time>
      </trkpt>
      <trkpt lat="45.41399" lon="5.92623">
        <ele>1756.581482952</ele>
        <time>2015-11-05T15:10:58Z</time>
      </trkpt>
      <trkpt lat="45.41399" lon="5.92622">
        <ele>1756.581482952</ele>
        <time>2015-11-05T15:11:03Z</time>
      </trkpt>
      <trkpt lat="45.414" lon="5.92623">
        <ele>1756.581482952</ele>
        <time>2015-11-05T15:11:07Z</time>
      </trkpt>
      <trkpt lat="45.414" lon="5.92625">
        <ele>1756.581482952</ele>
        <time>2015-11-05T15:11:12Z</time>
      </trkpt>
      <trkpt lat="45.41399" lon="5.92625">
        <ele>1756.581482952</ele>
        <time>2015-11-05T15:11:18Z</time>
      </trkpt>
      <trkpt lat="45.41402" lon="5.92626">
        <ele>1756.581482952</ele>
        <time>2015-11-05T15:11:23Z</time>
      </trkpt>
      <trkpt lat="45.41402" lon="5.9263">
        <ele>1755.770313007</ele>
        <time>2015-11-05T15:11:27Z</time>
      </trkpt>
      <trkpt lat="45.41406" lon="5.92637">
        <ele>1755.770313007</ele>
        <time>2015-11-05T15:11:42Z</time>
      </trkpt>
      <trkpt lat="45.41409" lon="5.92631">
        <ele>1755.749510798</ele>
        <time>2015-11-05T15:11:53Z</time>
      </trkpt>
      <trkpt lat="45.4141" lon="5.92629">
        <ele>1755.749510798</ele>
        <time>2015-11-05T15:11:58Z</time>
      </trkpt>
      <trkpt lat="45.41413" lon="5.92634">
        <ele>1755.749510798</ele>
        <time>2015-11-05T15:12:09Z</time>
      </trkpt>
      <trkpt lat="45.41417" lon="5.92636">
        <ele>1755.736326</ele>
        <time>2015-11-05T15:12:13Z</time>
      </trkpt>
      <trkpt lat="45.41417" lon="5.92642">
        <ele>1755.736326</ele>
        <time>2015-11-05T15:12:28Z</time>
      </trkpt>
      <trkpt lat="45.41416" lon="5.92641">
        <ele>1755.736326</ele>
        <time>2015-11-05T15:12:33Z</time>
      </trkpt>
      <trkpt lat="45.41416" lon="5.9264">
        <ele>1755.736326</ele>
        <time>2015-11-05T15:12:42Z</time>
      </trkpt>
      <trkpt lat="45.41416" lon="5.9264">
        <ele>1755.736326</ele>
        <time>2015-11-05T15:12:47Z</time>
      </trkpt>
      <trkpt lat="45.41416" lon="5.9264">
        <ele>1755.736326</ele>
        <time>2015-11-05T15:12:57Z</time>
      </trkpt>
      <trkpt lat="45.41416" lon="5.9264">
        <ele>1755.736326</ele>
        <time>2015-11-05T15:13:02Z</time>
      </trkpt>
      <trkpt lat="45.41416" lon="5.92641">
        <ele>1755.736326</ele>
        <time>2015-11-05T15:13:13Z</time>
      </trkpt>
      <trkpt lat="45.41416" lon="5.9264">
        <ele>1755.736326</ele>
        <time>2015-11-05T15:13:18Z</time>
      </trkpt>
      <trkpt lat="45.41418" lon="5.92641">
        <ele>1755.870020851</ele>
        <time>2015-11-05T15:13:29Z</time>
      </trkpt>
      <trkpt lat="45.41418" lon="5.92638">
        <ele>1755.870020851</ele>
        <time>2015-11-05T15:13:34Z</time>
      </trkpt>
      <trkpt lat="45.41429" lon="5.92634">
        <ele>1756.567327801</ele>
        <time>2015-11-05T15:13:44Z</time>
      </trkpt>
      <trkpt lat="45.41431" lon="5.92636">
        <ele>1756.567327801</ele>
        <time>2015-11-05T15:13:48Z</time>
      </trkpt>
      <trkpt lat="45.41439" lon="5.92645">
        <ele>1757.924478316</ele>
        <time>2015-11-05T15:13:58Z</time>
      </trkpt>
      <trkpt lat="45.41443" lon="5.92647">
        <ele>1757.924478316</ele>
        <time>2015-11-05T15:14:03Z</time>
      </trkpt>
      <trkpt lat="45.41453" lon="5.92651">
        <ele>1759.019946444</ele>
        <time>2015-11-05T15:14:14Z</time>
      </trkpt>
      <trkpt lat="45.41456" lon="5.92654">
        <ele>1759.019946444</ele>
        <time>2015-11-05T15:14:19Z</time>
      </trkpt>
      <trkpt lat="45.41462" lon="5.92662">
        <ele>1759.57704583</ele>
        <time>2015-11-05T15:14:29Z</time>
      </trkpt>
      <trkpt lat="45.41463" lon="5.92663">
        <ele>1759.57704583</ele>
        <time>2015-11-05T15:14:33Z</time>
      </trkpt>
      <trkpt lat="45.41475" lon="5.92675">
        <ele>1759.629137324</ele>
        <time>2015-11-05T15:14:48Z</time>
      </trkpt>
      <trkpt lat="45.41478" lon="5.9268">
        <ele>1759.629137324</ele>
        <time>2015-11-05T15:14:52Z</time>
      </trkpt>
      <trkpt lat="45.41482" lon="5.92687">
        <ele>1759.640890745</ele>
        <time>2015-11-05T15:15:02Z</time>
      </trkpt>
      <trkpt lat="45.41483" lon="5.92688">
        <ele>1759.640890745</ele>
        <time>2015-11-05T15:15:08Z</time>
      </trkpt>
      <trkpt lat="45.4149" lon="5.92694">
        <ele>1759.640890745</ele>
        <time>2015-11-05T15:15:18Z</time>
      </trkpt>
      <trkpt lat="45.41496" lon="5.92698">
        <ele>1759.178312306</ele>
        <time>2015-11-05T15:15:23Z</time>
      </trkpt>
      <trkpt lat="45.41507" lon="5.92704">
        <ele>1758.993545685</ele>
        <time>2015-11-05T15:15:34Z</time>
      </trkpt>
      <trkpt lat="45.41512" lon="5.92709">
        <ele>1758.993545685</ele>
        <time>2015-11-05T15:15:38Z</time>
      </trkpt>
      <trkpt lat="45.41517" lon="5.92713">
        <ele>1759.350416753</ele>
        <time>2015-11-05T15:15:49Z</time>
      </trkpt>
      <trkpt lat="45.41517" lon="5.92713">
        <ele>1759.350416753</ele>
        <time>2015-11-05T15:15:53Z</time>
      </trkpt>
      <trkpt lat="45.41521" lon="5.92714">
        <ele>1759.350416753</ele>
        <time>2015-11-05T15:16:04Z</time>
      </trkpt>
      <trkpt lat="45.41526" lon="5.92715">
        <ele>1760.491909736</ele>
        <time>2015-11-05T15:16:08Z</time>
      </trkpt>
      <trkpt lat="45.41535" lon="5.9272">
        <ele>1762.064584934</ele>
        <time>2015-11-05T15:16:19Z</time>
      </trkpt>
      <trkpt lat="45.41541" lon="5.92718">
        <ele>1762.064584934</ele>
        <time>2015-11-05T15:16:23Z</time>
      </trkpt>
      <trkpt lat="45.41549" lon="5.92723">
        <ele>1764.172177739</ele>
        <time>2015-11-05T15:16:33Z</time>
      </trkpt>
      <trkpt lat="45.41553" lon="5.92724">
        <ele>1764.172177739</ele>
        <time>2015-11-05T15:16:38Z</time>
      </trkpt>
      <trkpt lat="45.41561" lon="5.92731">
        <ele>1765.612407429</ele>
        <time>2015-11-05T15:16:48Z</time>
      </trkpt>
      <trkpt lat="45.41561" lon="5.92731">
        <ele>1765.612407429</ele>
        <time>2015-11-05T15:16:53Z</time>
      </trkpt>
      <trkpt lat="45.4156" lon="5.92727">
        <ele>1765.612407429</ele>
        <time>2015-11-05T15:17:04Z</time>
      </trkpt>
      <trkpt lat="45.4156" lon="5.92727">
        <ele>1765.612407429</ele>
        <time>2015-11-05T15:17:08Z</time>
      </trkpt>
      <trkpt lat="45.41568" lon="5.92733">
        <ele>1768.155532933</ele>
        <time>2015-11-05T15:17:24Z</time>
      </trkpt>
      <trkpt lat="45.4157" lon="5.92731">
        <ele>1768.155532933</ele>
        <time>2015-11-05T15:17:27Z</time>
      </trkpt>
      <trkpt lat="45.41575" lon="5.92731">
        <ele>1768.155532933</ele>
        <time>2015-11-05T15:17:32Z</time>
      </trkpt>
      <trkpt lat="45.41579" lon="5.9273">
        <ele>1770.556598671</ele>
        <time>2015-11-05T15:17:37Z</time>
      </trkpt>
      <trkpt lat="45.41581" lon="5.92729">
        <ele>1770.556598671</ele>
        <time>2015-11-05T15:17:42Z</time>
      </trkpt>
      <trkpt lat="45.41585" lon="5.9273">
        <ele>1770.556598671</ele>
        <time>2015-11-05T15:17:47Z</time>
      </trkpt>
      <trkpt lat="45.41589" lon="5.92733">
        <ele>1772.52733164</ele>
        <time>2015-11-05T15:17:54Z</time>
      </trkpt>
      <trkpt lat="45.41597" lon="5.92738">
        <ele>1772.52733164</ele>
        <time>2015-11-05T15:18:04Z</time>
      </trkpt>
      <trkpt lat="45.416" lon="5.9274">
        <ele>1774.090244318</ele>
        <time>2015-11-05T15:18:08Z</time>
      </trkpt>
      <trkpt lat="45.41605" lon="5.92742">
        <ele>1774.090244318</ele>
        <time>2015-11-05T15:18:18Z</time>
      </trkpt>
      <trkpt lat="45.41605" lon="5.92744">
        <ele>1774.090244318</ele>
        <time>2015-11-05T15:18:23Z</time>
      </trkpt>
      <trkpt lat="45.41604" lon="5.92744">
        <ele>1774.090244318</ele>
        <time>2015-11-05T15:18:27Z</time>
      </trkpt>
      <trkpt lat="45.41604" lon="5.92745">
        <ele>1774.090244318</ele>
        <time>2015-11-05T15:18:33Z</time>
      </trkpt>
      <trkpt lat="45.41604" lon="5.92745">
        <ele>1774.090244318</ele>
        <time>2015-11-05T15:18:37Z</time>
      </trkpt>
      <trkpt lat="45.41604" lon="5.92745">
        <ele>1774.090244318</ele>
        <time>2015-11-05T15:18:53Z</time>
      </trkpt>
      <trkpt lat="45.41606" lon="5.92745">
        <ele>1774.090244318</ele>
        <time>2015-11-05T15:18:57Z</time>
      </trkpt>
      <trkpt lat="45.41613" lon="5.92748">
        <ele>1775.555755447</ele>
        <time>2015-11-05T15:19:09Z</time>
      </trkpt>
      <trkpt lat="45.41615" lon="5.92749">
        <ele>1775.555755447</ele>
        <time>2015-11-05T15:19:14Z</time>
      </trkpt>
      <trkpt lat="45.41623" lon="5.92755">
        <ele>1777.644292418</ele>
        <time>2015-11-05T15:19:24Z</time>
      </trkpt>
      <trkpt lat="45.41625" lon="5.92755">
        <ele>1777.644292418</ele>
        <time>2015-11-05T15:19:28Z</time>
      </trkpt>
      <trkpt lat="45.41633" lon="5.92757">
        <ele>1780.013049284</ele>
        <time>2015-11-05T15:19:38Z</time>
      </trkpt>
      <trkpt lat="45.41635" lon="5.9276">
        <ele>1780.013049284</ele>
        <time>2015-11-05T15:19:44Z</time>
      </trkpt>
      <trkpt lat="45.41639" lon="5.92762">
        <ele>1780.013049284</ele>
        <time>2015-11-05T15:19:54Z</time>
      </trkpt>
      <trkpt lat="45.41642" lon="5.92764">
        <ele>1782.343840244</ele>
        <time>2015-11-05T15:19:58Z</time>
      </trkpt>
      <trkpt lat="45.4165" lon="5.92774">
        <ele>1784.486303908</ele>
        <time>2015-11-05T15:20:09Z</time>
      </trkpt>
      <trkpt lat="45.41653" lon="5.92771">
        <ele>1784.486303908</ele>
        <time>2015-11-05T15:20:14Z</time>
      </trkpt>
      <trkpt lat="45.41658" lon="5.92777">
        <ele>1786.30189384</ele>
        <time>2015-11-05T15:20:24Z</time>
      </trkpt>
      <trkpt lat="45.4166" lon="5.92778">
        <ele>1786.30189384</ele>
        <time>2015-11-05T15:20:28Z</time>
      </trkpt>
      <trkpt lat="45.41662" lon="5.92783">
        <ele>1786.30189384</ele>
        <time>2015-11-05T15:20:38Z</time>
      </trkpt>
      <trkpt lat="45.41668" lon="5.92787">
        <ele>1788.239850492</ele>
        <time>2015-11-05T15:20:44Z</time>
      </trkpt>
      <trkpt lat="45.41674" lon="5.92794">
        <ele>1788.239850492</ele>
        <time>2015-11-05T15:20:54Z</time>
      </trkpt>
      <trkpt lat="45.41675" lon="5.92796">
        <ele>1789.851654582</ele>
        <time>2015-11-05T15:20:58Z</time>
      </trkpt>
      <trkpt lat="45.41678" lon="5.92798">
        <ele>1789.851654582</ele>
        <time>2015-11-05T15:21:13Z</time>
      </trkpt>
      <trkpt lat="45.41678" lon="5.92798">
        <ele>1789.851654582</ele>
        <time>2015-11-05T15:21:18Z</time>
      </trkpt>
      <trkpt lat="45.41678" lon="5.92798">
        <ele>1789.851654582</ele>
        <time>2015-11-05T15:21:29Z</time>
      </trkpt>
      <trkpt lat="45.41678" lon="5.92798">
        <ele>1789.851654582</ele>
        <time>2015-11-05T15:21:34Z</time>
      </trkpt>
      <trkpt lat="45.41678" lon="5.92798">
        <ele>1789.851654582</ele>
        <time>2015-11-05T15:21:44Z</time>
      </trkpt>
      <trkpt lat="45.41678" lon="5.92798">
        <ele>1789.851654582</ele>
        <time>2015-11-05T15:21:48Z</time>
      </trkpt>
      <trkpt lat="45.41678" lon="5.92798">
        <ele>1789.851654582</ele>
        <time>2015-11-05T15:21:58Z</time>
      </trkpt>
      <trkpt lat="45.41678" lon="5.92798">
        <ele>1789.851654582</ele>
        <time>2015-11-05T15:22:02Z</time>
      </trkpt>
      <trkpt lat="45.41683" lon="5.92803">
        <ele>1791.731681488</ele>
        <time>2015-11-05T15:22:13Z</time>
      </trkpt>
      <trkpt lat="45.41684" lon="5.92802">
        <ele>1791.731681488</ele>
        <time>2015-11-05T15:22:18Z</time>
      </trkpt>
      <trkpt lat="45.41685" lon="5.92801">
        <ele>1791.731681488</ele>
        <time>2015-11-05T15:22:29Z</time>
      </trkpt>
      <trkpt lat="45.41686" lon="5.92802">
        <ele>1791.731681488</ele>
        <time>2015-11-05T15:22:33Z</time>
      </trkpt>
      <trkpt lat="45.41687" lon="5.928">
        <ele>1791.731681488</ele>
        <time>2015-11-05T15:22:44Z</time>
      </trkpt>
      <trkpt lat="45.41687" lon="5.928">
        <ele>1791.731681488</ele>
        <time>2015-11-05T15:22:48Z</time>
      </trkpt>
      <trkpt lat="45.41687" lon="5.928">
        <ele>1791.731681488</ele>
        <time>2015-11-05T15:22:53Z</time>
      </trkpt>
      <trkpt lat="45.41687" lon="5.928">
        <ele>1791.731681488</ele>
        <time>2015-11-05T15:23:03Z</time>
      </trkpt>
      <trkpt lat="45.41688" lon="5.92801">
        <ele>1791.731681488</ele>
        <time>2015-11-05T15:23:08Z</time>
      </trkpt>
      <trkpt lat="45.41695" lon="5.92794">
        <ele>1793.85370167</ele>
        <time>2015-11-05T15:23:19Z</time>
      </trkpt>
      <trkpt lat="45.41697" lon="5.92795">
        <ele>1793.85370167</ele>
        <time>2015-11-05T15:23:24Z</time>
      </trkpt>
      <trkpt lat="45.41701" lon="5.92786">
        <ele>1796.048877771</ele>
        <time>2015-11-05T15:23:34Z</time>
      </trkpt>
      <trkpt lat="45.41702" lon="5.92782">
        <ele>1796.048877771</ele>
        <time>2015-11-05T15:23:38Z</time>
      </trkpt>
      <trkpt lat="45.41706" lon="5.92775">
        <ele>1798.160825767</ele>
        <time>2015-11-05T15:23:49Z</time>
      </trkpt>
      <trkpt lat="45.41705" lon="5.92773">
        <ele>1798.160825767</ele>
        <time>2015-11-05T15:23:53Z</time>
      </trkpt>
      <trkpt lat="45.41709" lon="5.92772">
        <ele>1798.160825767</ele>
        <time>2015-11-05T15:24:03Z</time>
      </trkpt>
      <trkpt lat="45.41712" lon="5.92769">
        <ele>1800.189250414</ele>
        <time>2015-11-05T15:24:09Z</time>
      </trkpt>
      <trkpt lat="45.41719" lon="5.92766">
        <ele>1800.189250414</ele>
        <time>2015-11-05T15:24:19Z</time>
      </trkpt>
      <trkpt lat="45.41722" lon="5.92764">
        <ele>1802.27847977</ele>
        <time>2015-11-05T15:24:23Z</time>
      </trkpt>
      <trkpt lat="45.41729" lon="5.92762">
        <ele>1802.27847977</ele>
        <time>2015-11-05T15:24:34Z</time>
      </trkpt>
      <trkpt lat="45.41728" lon="5.9276">
        <ele>1802.27847977</ele>
        <time>2015-11-05T15:24:39Z</time>
      </trkpt>
      <trkpt lat="45.41733" lon="5.92758">
        <ele>1804.706435918</ele>
        <time>2015-11-05T15:24:48Z</time>
      </trkpt>
      <trkpt lat="45.41732" lon="5.92755">
        <ele>1804.706435918</ele>
        <time>2015-11-05T15:24:54Z</time>
      </trkpt>
      <trkpt lat="45.41736" lon="5.92752">
        <ele>1804.706435918</ele>
        <time>2015-11-05T15:25:04Z</time>
      </trkpt>
      <trkpt lat="45.4174" lon="5.92753">
        <ele>1807.441707717</ele>
        <time>2015-11-05T15:25:08Z</time>
      </trkpt>
      <trkpt lat="45.41742" lon="5.92754">
        <ele>1807.441707717</ele>
        <time>2015-11-05T15:25:18Z</time>
      </trkpt>
      <trkpt lat="45.41744" lon="5.92755">
        <ele>1807.441707717</ele>
        <time>2015-11-05T15:25:22Z</time>
      </trkpt>
      <trkpt lat="45.41753" lon="5.92756">
        <ele>1810.022250938</ele>
        <time>2015-11-05T15:25:38Z</time>
      </trkpt>
      <trkpt lat="45.41754" lon="5.92755">
        <ele>1810.022250938</ele>
        <time>2015-11-05T15:25:54Z</time>
      </trkpt>
      <trkpt lat="45.41754" lon="5.92755">
        <ele>1810.022250938</ele>
        <time>2015-11-05T15:25:58Z</time>
      </trkpt>
      <trkpt lat="45.41759" lon="5.92752">
        <ele>1810.022250938</ele>
        <time>2015-11-05T15:26:09Z</time>
      </trkpt>
      <trkpt lat="45.41758" lon="5.92751">
        <ele>1810.022250938</ele>
        <time>2015-11-05T15:26:13Z</time>
      </trkpt>
      <trkpt lat="45.41761" lon="5.92746">
        <ele>1812.308873982</ele>
        <time>2015-11-05T15:26:23Z</time>
      </trkpt>
      <trkpt lat="45.41762" lon="5.92746">
        <ele>1812.308873982</ele>
        <time>2015-11-05T15:26:28Z</time>
      </trkpt>
      <trkpt lat="45.41759" lon="5.92738">
        <ele>1812.308873982</ele>
        <time>2015-11-05T15:26:39Z</time>
      </trkpt>
      <trkpt lat="45.41757" lon="5.92734">
        <ele>1815.470690761</ele>
        <time>2015-11-05T15:26:44Z</time>
      </trkpt>
      <trkpt lat="45.41762" lon="5.92729">
        <ele>1815.470690761</ele>
        <time>2015-11-05T15:26:54Z</time>
      </trkpt>
      <trkpt lat="45.41764" lon="5.92728">
        <ele>1815.470690761</ele>
        <time>2015-11-05T15:26:58Z</time>
      </trkpt>
      <trkpt lat="45.41765" lon="5.9273">
        <ele>1818.282954503</ele>
        <time>2015-11-05T15:27:09Z</time>
      </trkpt>
      <trkpt lat="45.41766" lon="5.92728">
        <ele>1818.282954503</ele>
        <time>2015-11-05T15:27:13Z</time>
      </trkpt>
      <trkpt lat="45.41767" lon="5.92721">
        <ele>1818.282954503</ele>
        <time>2015-11-05T15:27:24Z</time>
      </trkpt>
      <trkpt lat="45.41768" lon="5.92718">
        <ele>1818.282954503</ele>
        <time>2015-11-05T15:27:29Z</time>
      </trkpt>
      <trkpt lat="45.41769" lon="5.9271">
        <ele>1820.620900935</ele>
        <time>2015-11-05T15:27:39Z</time>
      </trkpt>
      <trkpt lat="45.4177" lon="5.9271">
        <ele>1820.620900935</ele>
        <time>2015-11-05T15:27:44Z</time>
      </trkpt>
      <trkpt lat="45.41769" lon="5.9271">
        <ele>1820.620900935</ele>
        <time>2015-11-05T15:27:49Z</time>
      </trkpt>
      <trkpt lat="45.4177" lon="5.9271">
        <ele>1820.620900935</ele>
        <time>2015-11-05T15:27:58Z</time>
      </trkpt>
      <trkpt lat="45.4177" lon="5.9271">
        <ele>1820.620900935</ele>
        <time>2015-11-05T15:28:03Z</time>
      </trkpt>
      <trkpt lat="45.4177" lon="5.92706">
        <ele>1820.620900935</ele>
        <time>2015-11-05T15:28:14Z</time>
      </trkpt>
      <trkpt lat="45.4177" lon="5.92706">
        <ele>1820.620900935</ele>
        <time>2015-11-05T15:28:19Z</time>
      </trkpt>
      <trkpt lat="45.4177" lon="5.92706">
        <ele>1820.620900935</ele>
        <time>2015-11-05T15:28:29Z</time>
      </trkpt>
      <trkpt lat="45.41769" lon="5.92704">
        <ele>1820.620900935</ele>
        <time>2015-11-05T15:28:33Z</time>
      </trkpt>
      <trkpt lat="45.41767" lon="5.92692">
        <ele>1823.235181798</ele>
        <time>2015-11-05T15:28:44Z</time>
      </trkpt>
      <trkpt lat="45.41769" lon="5.92688">
        <ele>1823.235181798</ele>
        <time>2015-11-05T15:28:47Z</time>
      </trkpt>
      <trkpt lat="45.41771" lon="5.92674">
        <ele>1825.667892817</ele>
        <time>2015-11-05T15:28:59Z</time>
      </trkpt>
      <trkpt lat="45.41772" lon="5.92672">
        <ele>1825.667892817</ele>
        <time>2015-11-05T15:29:03Z</time>
      </trkpt>
      <trkpt lat="45.41773" lon="5.92666">
        <ele>1825.667892817</ele>
        <time>2015-11-05T15:29:14Z</time>
      </trkpt>
      <trkpt lat="45.41772" lon="5.92665">
        <ele>1825.667892817</ele>
        <time>2015-11-05T15:29:19Z</time>
      </trkpt>
      <trkpt lat="45.4177" lon="5.92664">
        <ele>1828.071968001</ele>
        <time>2015-11-05T15:29:29Z</time>
      </trkpt>
      <trkpt lat="45.41769" lon="5.92664">
        <ele>1828.071968001</ele>
        <time>2015-11-05T15:29:33Z</time>
      </trkpt>
      <trkpt lat="45.4177" lon="5.92664">
        <ele>1828.071968001</ele>
        <time>2015-11-05T15:29:38Z</time>
      </trkpt>
      <trkpt lat="45.41769" lon="5.92664">
        <ele>1828.071968001</ele>
        <time>2015-11-05T15:29:42Z</time>
      </trkpt>
      <trkpt lat="45.4177" lon="5.92664">
        <ele>1828.071968001</ele>
        <time>2015-11-05T15:29:47Z</time>
      </trkpt>
      <trkpt lat="45.41769" lon="5.92664">
        <ele>1828.071968001</ele>
        <time>2015-11-05T15:29:57Z</time>
      </trkpt>
      <trkpt lat="45.4177" lon="5.92663">
        <ele>1828.071968001</ele>
        <time>2015-11-05T15:30:02Z</time>
      </trkpt>
      <trkpt lat="45.4177" lon="5.92663">
        <ele>1828.071968001</ele>
        <time>2015-11-05T15:30:13Z</time>
      </trkpt>
      <trkpt lat="45.4177" lon="5.92663">
        <ele>1828.071968001</ele>
        <time>2015-11-05T15:30:19Z</time>
      </trkpt>
      <trkpt lat="45.41771" lon="5.92661">
        <ele>1828.071968001</ele>
        <time>2015-11-05T15:30:28Z</time>
      </trkpt>
      <trkpt lat="45.41771" lon="5.92661">
        <ele>1828.071968001</ele>
        <time>2015-11-05T15:30:33Z</time>
      </trkpt>
      <trkpt lat="45.41773" lon="5.9266">
        <ele>1828.071968001</ele>
        <time>2015-11-05T15:30:49Z</time>
      </trkpt>
      <trkpt lat="45.41773" lon="5.9266">
        <ele>1828.071968001</ele>
        <time>2015-11-05T15:30:58Z</time>
      </trkpt>
      <trkpt lat="45.41774" lon="5.92659">
        <ele>1830.01298364</ele>
        <time>2015-11-05T15:31:03Z</time>
      </trkpt>
      <trkpt lat="45.41773" lon="5.92659">
        <ele>1830.01298364</ele>
        <time>2015-11-05T15:31:19Z</time>
      </trkpt>
      <trkpt lat="45.41773" lon="5.92659">
        <ele>1830.01298364</ele>
        <time>2015-11-05T15:31:24Z</time>
      </trkpt>
      <trkpt lat="45.41773" lon="5.92659">
        <ele>1830.01298364</ele>
        <time>2015-11-05T15:31:34Z</time>
      </trkpt>
      <trkpt lat="45.41775" lon="5.9266">
        <ele>1830.01298364</ele>
        <time>2015-11-05T15:31:38Z</time>
      </trkpt>
      <trkpt lat="45.41774" lon="5.9266">
        <ele>1830.01298364</ele>
        <time>2015-11-05T15:31:48Z</time>
      </trkpt>
      <trkpt lat="45.41773" lon="5.92659">
        <ele>1830.01298364</ele>
        <time>2015-11-05T15:31:53Z</time>
      </trkpt>
      <trkpt lat="45.41769" lon="5.92652">
        <ele>1830.945848916</ele>
        <time>2015-11-05T15:32:03Z</time>
      </trkpt>
      <trkpt lat="45.41768" lon="5.92646">
        <ele>1830.945848916</ele>
        <time>2015-11-05T15:32:07Z</time>
      </trkpt>
      <trkpt lat="45.41768" lon="5.92634">
        <ele>1831.80967611</ele>
        <time>2015-11-05T15:32:18Z</time>
      </trkpt>
      <trkpt lat="45.41766" lon="5.92628">
        <ele>1831.80967611</ele>
        <time>2015-11-05T15:32:24Z</time>
      </trkpt>
      <trkpt lat="45.41766" lon="5.92616">
        <ele>1832.610324404</ele>
        <time>2015-11-05T15:32:34Z</time>
      </trkpt>
      <trkpt lat="45.41764" lon="5.9261">
        <ele>1832.610324404</ele>
        <time>2015-11-05T15:32:38Z</time>
      </trkpt>
      <trkpt lat="45.41764" lon="5.92602">
        <ele>1833.065366985</ele>
        <time>2015-11-05T15:32:49Z</time>
      </trkpt>
      <trkpt lat="45.41762" lon="5.92596">
        <ele>1833.065366985</ele>
        <time>2015-11-05T15:32:54Z</time>
      </trkpt>
      <trkpt lat="45.41763" lon="5.92585">
        <ele>1833.4907089</ele>
        <time>2015-11-05T15:33:04Z</time>
      </trkpt>
      <trkpt lat="45.4176" lon="5.9258">
        <ele>1833.4907089</ele>
        <time>2015-11-05T15:33:09Z</time>
      </trkpt>
      <trkpt lat="45.4176" lon="5.92561">
        <ele>1832.449947713</ele>
        <time>2015-11-05T15:33:18Z</time>
      </trkpt>
      <trkpt lat="45.41756" lon="5.92559">
        <ele>1832.449947713</ele>
        <time>2015-11-05T15:33:24Z</time>
      </trkpt>
      <trkpt lat="45.41753" lon="5.92545">
        <ele>1830.778103927</ele>
        <time>2015-11-05T15:33:33Z</time>
      </trkpt>
      <trkpt lat="45.4175" lon="5.9254">
        <ele>1830.778103927</ele>
        <time>2015-11-05T15:33:39Z</time>
      </trkpt>
      <trkpt lat="45.41745" lon="5.92531">
        <ele>1829.106615432</ele>
        <time>2015-11-05T15:33:49Z</time>
      </trkpt>
      <trkpt lat="45.41745" lon="5.92528">
        <ele>1829.106615432</ele>
        <time>2015-11-05T15:33:53Z</time>
      </trkpt>
      <trkpt lat="45.41744" lon="5.92525">
        <ele>1829.106615432</ele>
        <time>2015-11-05T15:33:58Z</time>
      </trkpt>
      <trkpt lat="45.41745" lon="5.92512">
        <ele>1827.155935357</ele>
        <time>2015-11-05T15:34:08Z</time>
      </trkpt>
      <trkpt lat="45.41746" lon="5.92506">
        <ele>1827.155935357</ele>
        <time>2015-11-05T15:34:13Z</time>
      </trkpt>
      <trkpt lat="45.41744" lon="5.92491">
        <ele>1825.388428295</ele>
        <time>2015-11-05T15:34:23Z</time>
      </trkpt>
      <trkpt lat="45.41746" lon="5.92484">
        <ele>1825.388428295</ele>
        <time>2015-11-05T15:34:29Z</time>
      </trkpt>
      <trkpt lat="45.4174" lon="5.92472">
        <ele>1823.223208018</ele>
        <time>2015-11-05T15:34:38Z</time>
      </trkpt>
      <trkpt lat="45.41739" lon="5.92465">
        <ele>1823.223208018</ele>
        <time>2015-11-05T15:34:43Z</time>
      </trkpt>
      <trkpt lat="45.41736" lon="5.92451">
        <ele>1821.276042295</ele>
        <time>2015-11-05T15:34:54Z</time>
      </trkpt>
      <trkpt lat="45.41737" lon="5.92444">
        <ele>1821.276042295</ele>
        <time>2015-11-05T15:34:58Z</time>
      </trkpt>
      <trkpt lat="45.41735" lon="5.92437">
        <ele>1819.540359243</ele>
        <time>2015-11-05T15:35:03Z</time>
      </trkpt>
      <trkpt lat="45.41735" lon="5.92433">
        <ele>1819.540359243</ele>
        <time>2015-11-05T15:35:12Z</time>
      </trkpt>
      <trkpt lat="45.41734" lon="5.92428">
        <ele>1819.540359243</ele>
        <time>2015-11-05T15:35:18Z</time>
      </trkpt>
      <trkpt lat="45.41734" lon="5.92411">
        <ele>1818.009403123</ele>
        <time>2015-11-05T15:35:28Z</time>
      </trkpt>
      <trkpt lat="45.41732" lon="5.92408">
        <ele>1818.009403123</ele>
        <time>2015-11-05T15:35:33Z</time>
      </trkpt>
      <trkpt lat="45.41733" lon="5.92407">
        <ele>1818.009403123</ele>
        <time>2015-11-05T15:35:44Z</time>
      </trkpt>
      <trkpt lat="45.41733" lon="5.92406">
        <ele>1818.009403123</ele>
        <time>2015-11-05T15:35:49Z</time>
      </trkpt>
      <trkpt lat="45.41734" lon="5.92405">
        <ele>1818.009403123</ele>
        <time>2015-11-05T15:35:59Z</time>
      </trkpt>
      <trkpt lat="45.41732" lon="5.92402">
        <ele>1818.009403123</ele>
        <time>2015-11-05T15:36:03Z</time>
      </trkpt>
      <trkpt lat="45.41731" lon="5.92405">
        <ele>1816.388022964</ele>
        <time>2015-11-05T15:36:14Z</time>
      </trkpt>
      <trkpt lat="45.41729" lon="5.92395">
        <ele>1816.388022964</ele>
        <time>2015-11-05T15:36:18Z</time>
      </trkpt>
      <trkpt lat="45.41723" lon="5.92381">
        <ele>1813.970554774</ele>
        <time>2015-11-05T15:36:29Z</time>
      </trkpt>
      <trkpt lat="45.41721" lon="5.92376">
        <ele>1813.970554774</ele>
        <time>2015-11-05T15:36:33Z</time>
      </trkpt>
      <trkpt lat="45.41714" lon="5.92367">
        <ele>1810.825826615</ele>
        <time>2015-11-05T15:36:43Z</time>
      </trkpt>
      <trkpt lat="45.41711" lon="5.92363">
        <ele>1810.825826615</ele>
        <time>2015-11-05T15:36:48Z</time>
      </trkpt>
      <trkpt lat="45.41705" lon="5.92351">
        <ele>1807.307717146</ele>
        <time>2015-11-05T15:36:58Z</time>
      </trkpt>
      <trkpt lat="45.41701" lon="5.92347">
        <ele>1807.307717146</ele>
        <time>2015-11-05T15:37:04Z</time>
      </trkpt>
      <trkpt lat="45.41699" lon="5.92335">
        <ele>1803.889089481</ele>
        <time>2015-11-05T15:37:19Z</time>
      </trkpt>
      <trkpt lat="45.417" lon="5.9233">
        <ele>1803.889089481</ele>
        <time>2015-11-05T15:37:23Z</time>
      </trkpt>
      <trkpt lat="45.41696" lon="5.92326">
        <ele>1803.889089481</ele>
        <time>2015-11-05T15:37:34Z</time>
      </trkpt>
      <trkpt lat="45.41695" lon="5.92325">
        <ele>1800.719367583</ele>
        <time>2015-11-05T15:37:38Z</time>
      </trkpt>
      <trkpt lat="45.41691" lon="5.92314">
        <ele>1800.719367583</ele>
        <time>2015-11-05T15:37:49Z</time>
      </trkpt>
      <trkpt lat="45.41688" lon="5.9231">
        <ele>1797.93607785</ele>
        <time>2015-11-05T15:37:53Z</time>
      </trkpt>
      <trkpt lat="45.41681" lon="5.92302">
        <ele>1797.93607785</ele>
        <time>2015-11-05T15:38:04Z</time>
      </trkpt>
      <trkpt lat="45.41679" lon="5.92299">
        <ele>1795.232985738</ele>
        <time>2015-11-05T15:38:08Z</time>
      </trkpt>
      <trkpt lat="45.41676" lon="5.92291">
        <ele>1795.232985738</ele>
        <time>2015-11-05T15:38:17Z</time>
      </trkpt>
      <trkpt lat="45.41673" lon="5.92283">
        <ele>1792.469983403</ele>
        <time>2015-11-05T15:38:23Z</time>
      </trkpt>
      <trkpt lat="45.41666" lon="5.92271">
        <ele>1789.517156215</ele>
        <time>2015-11-05T15:38:33Z</time>
      </trkpt>
      <trkpt lat="45.41664" lon="5.92265">
        <ele>1789.517156215</ele>
        <time>2015-11-05T15:38:38Z</time>
      </trkpt>
      <trkpt lat="45.41664" lon="5.92263">
        <ele>1789.517156215</ele>
        <time>2015-11-05T15:38:54Z</time>
      </trkpt>
      <trkpt lat="45.41664" lon="5.92263">
        <ele>1789.517156215</ele>
        <time>2015-11-05T15:38:58Z</time>
      </trkpt>
      <trkpt lat="45.4166" lon="5.92253">
        <ele>1786.398499539</ele>
        <time>2015-11-05T15:39:09Z</time>
      </trkpt>
      <trkpt lat="45.4166" lon="5.92246">
        <ele>1786.398499539</ele>
        <time>2015-11-05T15:39:13Z</time>
      </trkpt>
      <trkpt lat="45.41654" lon="5.92231">
        <ele>1784.001093286</ele>
        <time>2015-11-05T15:39:24Z</time>
      </trkpt>
      <trkpt lat="45.41654" lon="5.92225">
        <ele>1784.001093286</ele>
        <time>2015-11-05T15:39:28Z</time>
      </trkpt>
      <trkpt lat="45.4165" lon="5.92212">
        <ele>1781.703427022</ele>
        <time>2015-11-05T15:39:39Z</time>
      </trkpt>
      <trkpt lat="45.41647" lon="5.92207">
        <ele>1781.703427022</ele>
        <time>2015-11-05T15:39:43Z</time>
      </trkpt>
      <trkpt lat="45.4164" lon="5.92197">
        <ele>1778.78495942</ele>
        <time>2015-11-05T15:39:54Z</time>
      </trkpt>
      <trkpt lat="45.41638" lon="5.92187">
        <ele>1778.78495942</ele>
        <time>2015-11-05T15:39:58Z</time>
      </trkpt>
      <trkpt lat="45.41629" lon="5.92173">
        <ele>1775.876523123</ele>
        <time>2015-11-05T15:40:09Z</time>
      </trkpt>
      <trkpt lat="45.41627" lon="5.92173">
        <ele>1775.876523123</ele>
        <time>2015-11-05T15:40:13Z</time>
      </trkpt>
      <trkpt lat="45.41621" lon="5.92167">
        <ele>1775.876523123</ele>
        <time>2015-11-05T15:40:24Z</time>
      </trkpt>
      <trkpt lat="45.4162" lon="5.92161">
        <ele>1773.418171221</ele>
        <time>2015-11-05T15:40:28Z</time>
      </trkpt>
      <trkpt lat="45.41615" lon="5.92159">
        <ele>1773.418171221</ele>
        <time>2015-11-05T15:40:33Z</time>
      </trkpt>
      <trkpt lat="45.41604" lon="5.92156">
        <ele>1771.239623767</ele>
        <time>2015-11-05T15:40:44Z</time>
      </trkpt>
      <trkpt lat="45.41602" lon="5.92154">
        <ele>1771.239623767</ele>
        <time>2015-11-05T15:40:47Z</time>
      </trkpt>
      <trkpt lat="45.41595" lon="5.92139">
        <ele>1768.173246453</ele>
        <time>2015-11-05T15:40:59Z</time>
      </trkpt>
      <trkpt lat="45.4159" lon="5.92132">
        <ele>1768.173246453</ele>
        <time>2015-11-05T15:41:04Z</time>
      </trkpt>
      <trkpt lat="45.41588" lon="5.9213">
        <ele>1765.733372497</ele>
        <time>2015-11-05T15:41:13Z</time>
      </trkpt>
      <trkpt lat="45.41588" lon="5.92131">
        <ele>1765.733372497</ele>
        <time>2015-11-05T15:41:17Z</time>
      </trkpt>
      <trkpt lat="45.41586" lon="5.92131">
        <ele>1765.733372497</ele>
        <time>2015-11-05T15:41:27Z</time>
      </trkpt>
      <trkpt lat="45.41586" lon="5.9213">
        <ele>1765.733372497</ele>
        <time>2015-11-05T15:41:33Z</time>
      </trkpt>
      <trkpt lat="45.41587" lon="5.9213">
        <ele>1765.733372497</ele>
        <time>2015-11-05T15:41:43Z</time>
      </trkpt>
      <trkpt lat="45.41587" lon="5.9213">
        <ele>1765.733372497</ele>
        <time>2015-11-05T15:41:48Z</time>
      </trkpt>
      <trkpt lat="45.41587" lon="5.9213">
        <ele>1765.733372497</ele>
        <time>2015-11-05T15:41:58Z</time>
      </trkpt>
      <trkpt lat="45.41587" lon="5.9213">
        <ele>1765.733372497</ele>
        <time>2015-11-05T15:42:04Z</time>
      </trkpt>
      <trkpt lat="45.41587" lon="5.9213">
        <ele>1765.733372497</ele>
        <time>2015-11-05T15:42:18Z</time>
      </trkpt>
      <trkpt lat="45.41586" lon="5.92126">
        <ele>1765.733372497</ele>
        <time>2015-11-05T15:42:23Z</time>
      </trkpt>
      <trkpt lat="45.41586" lon="5.92126">
        <ele>1765.733372497</ele>
        <time>2015-11-05T15:42:33Z</time>
      </trkpt>
      <trkpt lat="45.41586" lon="5.92125">
        <ele>1765.733372497</ele>
        <time>2015-11-05T15:42:38Z</time>
      </trkpt>
      <trkpt lat="45.41577" lon="5.92119">
        <ele>1764.024041525</ele>
        <time>2015-11-05T15:42:49Z</time>
      </trkpt>
      <trkpt lat="45.41573" lon="5.92115">
        <ele>1764.024041525</ele>
        <time>2015-11-05T15:42:54Z</time>
      </trkpt>
      <trkpt lat="45.4157" lon="5.92111">
        <ele>1764.024041525</ele>
        <time>2015-11-05T15:43:03Z</time>
      </trkpt>
      <trkpt lat="45.41571" lon="5.92111">
        <ele>1761.986423372</ele>
        <time>2015-11-05T15:43:09Z</time>
      </trkpt>
      <trkpt lat="45.41565" lon="5.92106">
        <ele>1761.986423372</ele>
        <time>2015-11-05T15:43:18Z</time>
      </trkpt>
      <trkpt lat="45.41561" lon="5.92105">
        <ele>1759.648885871</ele>
        <time>2015-11-05T15:43:24Z</time>
      </trkpt>
      <trkpt lat="45.41547" lon="5.92088">
        <ele>1757.614725203</ele>
        <time>2015-11-05T15:43:38Z</time>
      </trkpt>
      <trkpt lat="45.41541" lon="5.92083">
        <ele>1757.614725203</ele>
        <time>2015-11-05T15:43:43Z</time>
      </trkpt>
      <trkpt lat="45.41535" lon="5.92072">
        <ele>1756.297693666</ele>
        <time>2015-11-05T15:43:54Z</time>
      </trkpt>
      <trkpt lat="45.41532" lon="5.9207">
        <ele>1756.297693666</ele>
        <time>2015-11-05T15:43:58Z</time>
      </trkpt>
      <trkpt lat="45.41522" lon="5.92061">
        <ele>1755.21421785</ele>
        <time>2015-11-05T15:44:09Z</time>
      </trkpt>
      <trkpt lat="45.41521" lon="5.92055">
        <ele>1755.21421785</ele>
        <time>2015-11-05T15:44:14Z</time>
      </trkpt>
      <trkpt lat="45.41512" lon="5.9205">
        <ele>1753.194794586</ele>
        <time>2015-11-05T15:44:24Z</time>
      </trkpt>
      <trkpt lat="45.4151" lon="5.92047">
        <ele>1753.194794586</ele>
        <time>2015-11-05T15:44:28Z</time>
      </trkpt>
      <trkpt lat="45.415" lon="5.92039">
        <ele>1751.608118319</ele>
        <time>2015-11-05T15:44:39Z</time>
      </trkpt>
      <trkpt lat="45.41498" lon="5.92034">
        <ele>1751.608118319</ele>
        <time>2015-11-05T15:44:42Z</time>
      </trkpt>
      <trkpt lat="45.41489" lon="5.92026">
        <ele>1749.847464418</ele>
        <time>2015-11-05T15:44:52Z</time>
      </trkpt>
      <trkpt lat="45.41484" lon="5.92025">
        <ele>1749.847464418</ele>
        <time>2015-11-05T15:44:58Z</time>
      </trkpt>
      <trkpt lat="45.41478" lon="5.92015">
        <ele>1748.936185034</ele>
        <time>2015-11-05T15:45:08Z</time>
      </trkpt>
      <trkpt lat="45.41476" lon="5.92009">
        <ele>1748.936185034</ele>
        <time>2015-11-05T15:45:13Z</time>
      </trkpt>
      <trkpt lat="45.41468" lon="5.92002">
        <ele>1747.802326987</ele>
        <time>2015-11-05T15:45:24Z</time>
      </trkpt>
      <trkpt lat="45.41463" lon="5.92001">
        <ele>1747.802326987</ele>
        <time>2015-11-05T15:45:28Z</time>
      </trkpt>
      <trkpt lat="45.41455" lon="5.91998">
        <ele>1747.61479794</ele>
        <time>2015-11-05T15:45:39Z</time>
      </trkpt>
      <trkpt lat="45.41451" lon="5.91998">
        <ele>1747.61479794</ele>
        <time>2015-11-05T15:45:44Z</time>
      </trkpt>
      <trkpt lat="45.4144" lon="5.91989">
        <ele>1747.003933827</ele>
        <time>2015-11-05T15:45:54Z</time>
      </trkpt>
      <trkpt lat="45.41437" lon="5.91987">
        <ele>1747.003933827</ele>
        <time>2015-11-05T15:45:58Z</time>
      </trkpt>
      <trkpt lat="45.41427" lon="5.91981">
        <ele>1746.286953173</ele>
        <time>2015-11-05T15:46:14Z</time>
      </trkpt>
      <trkpt lat="45.41427" lon="5.91979">
        <ele>1746.286953173</ele>
        <time>2015-11-05T15:46:18Z</time>
      </trkpt>
      <trkpt lat="45.41423" lon="5.91972">
        <ele>1746.286953173</ele>
        <time>2015-11-05T15:46:28Z</time>
      </trkpt>
      <trkpt lat="45.4142" lon="5.91968">
        <ele>1745.613832908</ele>
        <time>2015-11-05T15:46:34Z</time>
      </trkpt>
      <trkpt lat="45.41415" lon="5.91964">
        <ele>1745.613832908</ele>
        <time>2015-11-05T15:46:44Z</time>
      </trkpt>
      <trkpt lat="45.41411" lon="5.91959">
        <ele>1744.690966814</ele>
        <time>2015-11-05T15:46:48Z</time>
      </trkpt>
      <trkpt lat="45.41406" lon="5.9195">
        <ele>1744.690966814</ele>
        <time>2015-11-05T15:46:58Z</time>
      </trkpt>
      <trkpt lat="45.41403" lon="5.91948">
        <ele>1743.53514407</ele>
        <time>2015-11-05T15:47:03Z</time>
      </trkpt>
      <trkpt lat="45.41398" lon="5.9194">
        <ele>1743.53514407</ele>
        <time>2015-11-05T15:47:14Z</time>
      </trkpt>
      <trkpt lat="45.41394" lon="5.91937">
        <ele>1742.018378632</ele>
        <time>2015-11-05T15:47:18Z</time>
      </trkpt>
      <trkpt lat="45.41391" lon="5.91934">
        <ele>1742.018378632</ele>
        <time>2015-11-05T15:47:29Z</time>
      </trkpt>
      <trkpt lat="45.41388" lon="5.91929">
        <ele>1742.018378632</ele>
        <time>2015-11-05T15:47:34Z</time>
      </trkpt>
      <trkpt lat="45.41383" lon="5.91927">
        <ele>1740.599468801</ele>
        <time>2015-11-05T15:47:44Z</time>
      </trkpt>
      <trkpt lat="45.41382" lon="5.91927">
        <ele>1740.599468801</ele>
        <time>2015-11-05T15:47:48Z</time>
      </trkpt>
      <trkpt lat="45.41377" lon="5.9193">
        <ele>1740.599468801</ele>
        <time>2015-11-05T15:47:58Z</time>
      </trkpt>
      <trkpt lat="45.41376" lon="5.91931">
        <ele>1740.599468801</ele>
        <time>2015-11-05T15:48:03Z</time>
      </trkpt>
      <trkpt lat="45.41374" lon="5.91932">
        <ele>1739.270834983</ele>
        <time>2015-11-05T15:48:13Z</time>
      </trkpt>
      <trkpt lat="45.41374" lon="5.91932">
        <ele>1739.270834983</ele>
        <time>2015-11-05T15:48:18Z</time>
      </trkpt>
      <trkpt lat="45.41372" lon="5.91933">
        <ele>1739.270834983</ele>
        <time>2015-11-05T15:48:29Z</time>
      </trkpt>
      <trkpt lat="45.41371" lon="5.91934">
        <ele>1739.270834983</ele>
        <time>2015-11-05T15:48:33Z</time>
      </trkpt>
      <trkpt lat="45.41371" lon="5.91934">
        <ele>1739.270834983</ele>
        <time>2015-11-05T15:48:44Z</time>
      </trkpt>
      <trkpt lat="45.41371" lon="5.91934">
        <ele>1739.270834983</ele>
        <time>2015-11-05T15:48:48Z</time>
      </trkpt>
      <trkpt lat="45.41371" lon="5.91933">
        <ele>1739.270834983</ele>
        <time>2015-11-05T15:49:04Z</time>
      </trkpt>
      <trkpt lat="45.41371" lon="5.91933">
        <ele>1739.270834983</ele>
        <time>2015-11-05T15:49:08Z</time>
      </trkpt>
      <trkpt lat="45.41372" lon="5.91934">
        <ele>1739.270834983</ele>
        <time>2015-11-05T15:49:18Z</time>
      </trkpt>
      <trkpt lat="45.41371" lon="5.91934">
        <ele>1739.270834983</ele>
        <time>2015-11-05T15:49:23Z</time>
      </trkpt>
      <trkpt lat="45.41372" lon="5.91934">
        <ele>1739.270834983</ele>
        <time>2015-11-05T15:49:33Z</time>
      </trkpt>
      <trkpt lat="45.41372" lon="5.91934">
        <ele>1739.270834983</ele>
        <time>2015-11-05T15:49:38Z</time>
      </trkpt>
      <trkpt lat="45.41373" lon="5.91931">
        <ele>1739.270834983</ele>
        <time>2015-11-05T15:49:49Z</time>
      </trkpt>
      <trkpt lat="45.41373" lon="5.91926">
        <ele>1738.025141165</ele>
        <time>2015-11-05T15:49:53Z</time>
      </trkpt>
      <trkpt lat="45.41373" lon="5.91924">
        <ele>1738.025141165</ele>
        <time>2015-11-05T15:50:04Z</time>
      </trkpt>
      <trkpt lat="45.41373" lon="5.91925">
        <ele>1738.025141165</ele>
        <time>2015-11-05T15:50:08Z</time>
      </trkpt>
      <trkpt lat="45.41368" lon="5.91913">
        <ele>1736.711192841</ele>
        <time>2015-11-05T15:50:24Z</time>
      </trkpt>
      <trkpt lat="45.41361" lon="5.91903">
        <ele>1734.468489102</ele>
        <time>2015-11-05T15:50:38Z</time>
      </trkpt>
      <trkpt lat="45.41355" lon="5.91895">
        <ele>1734.468489102</ele>
        <time>2015-11-05T15:50:43Z</time>
      </trkpt>
      <trkpt lat="45.4135" lon="5.91887">
        <ele>1732.952192295</ele>
        <time>2015-11-05T15:50:53Z</time>
      </trkpt>
      <trkpt lat="45.41347" lon="5.91884">
        <ele>1732.952192295</ele>
        <time>2015-11-05T15:50:58Z</time>
      </trkpt>
      <trkpt lat="45.4134" lon="5.91874">
        <ele>1731.676243514</ele>
        <time>2015-11-05T15:51:09Z</time>
      </trkpt>
      <trkpt lat="45.41338" lon="5.91869">
        <ele>1731.676243514</ele>
        <time>2015-11-05T15:51:14Z</time>
      </trkpt>
      <trkpt lat="45.41337" lon="5.91858">
        <ele>1730.045467255</ele>
        <time>2015-11-05T15:51:24Z</time>
      </trkpt>
      <trkpt lat="45.41335" lon="5.91855">
        <ele>1730.045467255</ele>
        <time>2015-11-05T15:51:28Z</time>
      </trkpt>
      <trkpt lat="45.41332" lon="5.91851">
        <ele>1730.045467255</ele>
        <time>2015-11-05T15:51:39Z</time>
      </trkpt>
      <trkpt lat="45.41329" lon="5.9185">
        <ele>1728.229926551</ele>
        <time>2015-11-05T15:51:43Z</time>
      </trkpt>
      <trkpt lat="45.41324" lon="5.91834">
        <ele>1727.108236349</ele>
        <time>2015-11-05T15:51:54Z</time>
      </trkpt>
      <trkpt lat="45.4132" lon="5.91831">
        <ele>1727.108236349</ele>
        <time>2015-11-05T15:51:58Z</time>
      </trkpt>
      <trkpt lat="45.41316" lon="5.91829">
        <ele>1726.19549732</ele>
        <time>2015-11-05T15:52:03Z</time>
      </trkpt>
      <trkpt lat="45.41311" lon="5.9182">
        <ele>1726.19549732</ele>
        <time>2015-11-05T15:52:14Z</time>
      </trkpt>
      <trkpt lat="45.41308" lon="5.91814">
        <ele>1724.753601631</ele>
        <time>2015-11-05T15:52:18Z</time>
      </trkpt>
      <trkpt lat="45.413" lon="5.918">
        <ele>1723.1089092</ele>
        <time>2015-11-05T15:52:29Z</time>
      </trkpt>
      <trkpt lat="45.41298" lon="5.91794">
        <ele>1723.1089092</ele>
        <time>2015-11-05T15:52:33Z</time>
      </trkpt>
      <trkpt lat="45.41297" lon="5.91781">
        <ele>1721.564363288</ele>
        <time>2015-11-05T15:52:44Z</time>
      </trkpt>
      <trkpt lat="45.41293" lon="5.91776">
        <ele>1721.564363288</ele>
        <time>2015-11-05T15:52:48Z</time>
      </trkpt>
      <trkpt lat="45.41285" lon="5.91759">
        <ele>1719.823918926</ele>
        <time>2015-11-05T15:52:59Z</time>
      </trkpt>
      <trkpt lat="45.41281" lon="5.91756">
        <ele>1719.823918926</ele>
        <time>2015-11-05T15:53:03Z</time>
      </trkpt>
      <trkpt lat="45.41275" lon="5.91747">
        <ele>1718.190265651</ele>
        <time>2015-11-05T15:53:14Z</time>
      </trkpt>
      <trkpt lat="45.41276" lon="5.9174">
        <ele>1718.190265651</ele>
        <time>2015-11-05T15:53:18Z</time>
      </trkpt>
      <trkpt lat="45.41274" lon="5.9174">
        <ele>1718.190265651</ele>
        <time>2015-11-05T15:53:29Z</time>
      </trkpt>
      <trkpt lat="45.41274" lon="5.9174">
        <ele>1718.190265651</ele>
        <time>2015-11-05T15:53:34Z</time>
      </trkpt>
      <trkpt lat="45.41274" lon="5.9174">
        <ele>1718.190265651</ele>
        <time>2015-11-05T15:53:44Z</time>
      </trkpt>
      <trkpt lat="45.41274" lon="5.9174">
        <ele>1718.190265651</ele>
        <time>2015-11-05T15:53:48Z</time>
      </trkpt>
      <trkpt lat="45.41274" lon="5.9174">
        <ele>1718.190265651</ele>
        <time>2015-11-05T15:53:59Z</time>
      </trkpt>
      <trkpt lat="45.41274" lon="5.91741">
        <ele>1718.190265651</ele>
        <time>2015-11-05T15:54:03Z</time>
      </trkpt>
      <trkpt lat="45.41274" lon="5.91741">
        <ele>1718.190265651</ele>
        <time>2015-11-05T15:54:07Z</time>
      </trkpt>
      <trkpt lat="45.41273" lon="5.91741">
        <ele>1716.511218596</ele>
        <time>2015-11-05T15:54:18Z</time>
      </trkpt>
      <trkpt lat="45.41273" lon="5.91741">
        <ele>1716.511218596</ele>
        <time>2015-11-05T15:54:23Z</time>
      </trkpt>
      <trkpt lat="45.41273" lon="5.91741">
        <ele>1716.511218596</ele>
        <time>2015-11-05T15:54:32Z</time>
      </trkpt>
      <trkpt lat="45.41273" lon="5.91742">
        <ele>1716.511218596</ele>
        <time>2015-11-05T15:54:37Z</time>
      </trkpt>
      <trkpt lat="45.41273" lon="5.91742">
        <ele>1716.511218596</ele>
        <time>2015-11-05T15:54:49Z</time>
      </trkpt>
      <trkpt lat="45.41273" lon="5.91739">
        <ele>1716.511218596</ele>
        <time>2015-11-05T15:54:53Z</time>
      </trkpt>
      <trkpt lat="45.41268" lon="5.91736">
        <ele>1716.511218596</ele>
        <time>2015-11-05T15:55:03Z</time>
      </trkpt>
      <trkpt lat="45.41265" lon="5.91728">
        <ele>1714.501782889</ele>
        <time>2015-11-05T15:55:08Z</time>
      </trkpt>
      <trkpt lat="45.41264" lon="5.91719">
        <ele>1714.501782889</ele>
        <time>2015-11-05T15:55:19Z</time>
      </trkpt>
      <trkpt lat="45.41264" lon="5.91719">
        <ele>1714.501782889</ele>
        <time>2015-11-05T15:55:23Z</time>
      </trkpt>
      <trkpt lat="45.41264" lon="5.91703">
        <ele>1711.898819169</ele>
        <time>2015-11-05T15:55:34Z</time>
      </trkpt>
      <trkpt lat="45.41264" lon="5.91696">
        <ele>1711.898819169</ele>
        <time>2015-11-05T15:55:38Z</time>
      </trkpt>
      <trkpt lat="45.41264" lon="5.91684">
        <ele>1710.045397818</ele>
        <time>2015-11-05T15:55:48Z</time>
      </trkpt>
      <trkpt lat="45.41265" lon="5.9168">
        <ele>1710.045397818</ele>
        <time>2015-11-05T15:55:53Z</time>
      </trkpt>
      <trkpt lat="45.41264" lon="5.91666">
        <ele>1707.589813048</ele>
        <time>2015-11-05T15:56:09Z</time>
      </trkpt>
      <trkpt lat="45.41265" lon="5.91662">
        <ele>1707.589813048</ele>
        <time>2015-11-05T15:56:13Z</time>
      </trkpt>
      <trkpt lat="45.41269" lon="5.91659">
        <ele>1707.589813048</ele>
        <time>2015-11-05T15:56:23Z</time>
      </trkpt>
      <trkpt lat="45.4127" lon="5.91656">
        <ele>1705.154773931</ele>
        <time>2015-11-05T15:56:28Z</time>
      </trkpt>
      <trkpt lat="45.41273" lon="5.91655">
        <ele>1705.154773931</ele>
        <time>2015-11-05T15:56:38Z</time>
      </trkpt>
      <trkpt lat="45.41272" lon="5.91656">
        <ele>1705.154773931</ele>
        <time>2015-11-05T15:56:44Z</time>
      </trkpt>
      <trkpt lat="45.41272" lon="5.91656">
        <ele>1705.154773931</ele>
        <time>2015-11-05T15:56:54Z</time>
      </trkpt>
      <trkpt lat="45.41273" lon="5.91651">
        <ele>1705.154773931</ele>
        <time>2015-11-05T15:56:58Z</time>
      </trkpt>
      <trkpt lat="45.4127" lon="5.91639">
        <ele>1702.596613022</ele>
        <time>2015-11-05T15:57:09Z</time>
      </trkpt>
      <trkpt lat="45.41266" lon="5.91637">
        <ele>1702.596613022</ele>
        <time>2015-11-05T15:57:13Z</time>
      </trkpt>
      <trkpt lat="45.41261" lon="5.91627">
        <ele>1699.926649685</ele>
        <time>2015-11-05T15:57:24Z</time>
      </trkpt>
      <trkpt lat="45.41257" lon="5.91624">
        <ele>1699.926649685</ele>
        <time>2015-11-05T15:57:28Z</time>
      </trkpt>
      <trkpt lat="45.41255" lon="5.91623">
        <ele>1699.926649685</ele>
        <time>2015-11-05T15:57:32Z</time>
      </trkpt>
      <trkpt lat="45.41248" lon="5.91619">
        <ele>1697.155656702</ele>
        <time>2015-11-05T15:57:42Z</time>
      </trkpt>
      <trkpt lat="45.41237" lon="5.91619">
        <ele>1694.870310389</ele>
        <time>2015-11-05T15:57:59Z</time>
      </trkpt>
      <trkpt lat="45.41235" lon="5.91617">
        <ele>1694.870310389</ele>
        <time>2015-11-05T15:58:03Z</time>
      </trkpt>
      <trkpt lat="45.41226" lon="5.91608">
        <ele>1693.036346724</ele>
        <time>2015-11-05T15:58:13Z</time>
      </trkpt>
      <trkpt lat="45.41223" lon="5.91608">
        <ele>1693.036346724</ele>
        <time>2015-11-05T15:58:18Z</time>
      </trkpt>
      <trkpt lat="45.41223" lon="5.91609">
        <ele>1693.036346724</ele>
        <time>2015-11-05T15:58:29Z</time>
      </trkpt>
      <trkpt lat="45.41223" lon="5.91609">
        <ele>1693.036346724</ele>
        <time>2015-11-05T15:58:34Z</time>
      </trkpt>
      <trkpt lat="45.41223" lon="5.9161">
        <ele>1693.036346724</ele>
        <time>2015-11-05T15:58:44Z</time>
      </trkpt>
      <trkpt lat="45.4122" lon="5.91612">
        <ele>1693.036346724</ele>
        <time>2015-11-05T15:58:48Z</time>
      </trkpt>
      <trkpt lat="45.41215" lon="5.91616">
        <ele>1690.900158096</ele>
        <time>2015-11-05T15:58:59Z</time>
      </trkpt>
      <trkpt lat="45.41214" lon="5.91617">
        <ele>1690.900158096</ele>
        <time>2015-11-05T15:59:03Z</time>
      </trkpt>
      <trkpt lat="45.4121" lon="5.9162">
        <ele>1690.900158096</ele>
        <time>2015-11-05T15:59:14Z</time>
      </trkpt>
      <trkpt lat="45.41208" lon="5.91623">
        <ele>1690.900158096</ele>
        <time>2015-11-05T15:59:18Z</time>
      </trkpt>
      <trkpt lat="45.41201" lon="5.91638">
        <ele>1688.917194893</ele>
        <time>2015-11-05T15:59:29Z</time>
      </trkpt>
      <trkpt lat="45.41202" lon="5.91638">
        <ele>1688.917194893</ele>
        <time>2015-11-05T15:59:33Z</time>
      </trkpt>
      <trkpt lat="45.41197" lon="5.91641">
        <ele>1688.917194893</ele>
        <time>2015-11-05T15:59:44Z</time>
      </trkpt>
      <trkpt lat="45.41194" lon="5.91637">
        <ele>1687.07664961</ele>
        <time>2015-11-05T15:59:48Z</time>
      </trkpt>
      <trkpt lat="45.41187" lon="5.91628">
        <ele>1685.800408013</ele>
        <time>2015-11-05T15:59:58Z</time>
      </trkpt>
      <trkpt lat="45.41183" lon="5.91624">
        <ele>1685.800408013</ele>
        <time>2015-11-05T16:00:04Z</time>
      </trkpt>
      <trkpt lat="45.4118" lon="5.91617">
        <ele>1684.613083536</ele>
        <time>2015-11-05T16:00:13Z</time>
      </trkpt>
      <trkpt lat="45.41181" lon="5.9161">
        <ele>1684.613083536</ele>
        <time>2015-11-05T16:00:18Z</time>
      </trkpt>
      <trkpt lat="45.41182" lon="5.91599">
        <ele>1683.073935744</ele>
        <time>2015-11-05T16:00:34Z</time>
      </trkpt>
      <trkpt lat="45.41184" lon="5.91594">
        <ele>1683.073935744</ele>
        <time>2015-11-05T16:00:37Z</time>
      </trkpt>
      <trkpt lat="45.41187" lon="5.91591">
        <ele>1683.073935744</ele>
        <time>2015-11-05T16:00:48Z</time>
      </trkpt>
      <trkpt lat="45.41187" lon="5.91589">
        <ele>1683.073935744</ele>
        <time>2015-11-05T16:00:53Z</time>
      </trkpt>
      <trkpt lat="45.41189" lon="5.91579">
        <ele>1681.352011522</ele>
        <time>2015-11-05T16:01:04Z</time>
      </trkpt>
      <trkpt lat="45.4119" lon="5.91578">
        <ele>1681.352011522</ele>
        <time>2015-11-05T16:01:09Z</time>
      </trkpt>
      <trkpt lat="45.41192" lon="5.91567">
        <ele>1679.027990678</ele>
        <time>2015-11-05T16:01:19Z</time>
      </trkpt>
      <trkpt lat="45.41191" lon="5.91564">
        <ele>1679.027990678</ele>
        <time>2015-11-05T16:01:23Z</time>
      </trkpt>
      <trkpt lat="45.41191" lon="5.91553">
        <ele>1677.300253692</ele>
        <time>2015-11-05T16:01:34Z</time>
      </trkpt>
      <trkpt lat="45.41191" lon="5.91549">
        <ele>1677.300253692</ele>
        <time>2015-11-05T16:01:38Z</time>
      </trkpt>
      <trkpt lat="45.41187" lon="5.91536">
        <ele>1675.115794807</ele>
        <time>2015-11-05T16:01:48Z</time>
      </trkpt>
      <trkpt lat="45.41188" lon="5.91534">
        <ele>1675.115794807</ele>
        <time>2015-11-05T16:01:54Z</time>
      </trkpt>
      <trkpt lat="45.41187" lon="5.91523">
        <ele>1672.653117616</ele>
        <time>2015-11-05T16:02:03Z</time>
      </trkpt>
      <trkpt lat="45.41189" lon="5.91519">
        <ele>1672.653117616</ele>
        <time>2015-11-05T16:02:08Z</time>
      </trkpt>
      <trkpt lat="45.4119" lon="5.91515">
        <ele>1672.653117616</ele>
        <time>2015-11-05T16:02:18Z</time>
      </trkpt>
      <trkpt lat="45.41192" lon="5.91508">
        <ele>1670.078377243</ele>
        <time>2015-11-05T16:02:24Z</time>
      </trkpt>
      <trkpt lat="45.41189" lon="5.91495">
        <ele>1667.545818998</ele>
        <time>2015-11-05T16:02:34Z</time>
      </trkpt>
      <trkpt lat="45.41189" lon="5.91492">
        <ele>1667.545818998</ele>
        <time>2015-11-05T16:02:38Z</time>
      </trkpt>
      <trkpt lat="45.41183" lon="5.91469">
        <ele>1664.90999458</ele>
        <time>2015-11-05T16:02:54Z</time>
      </trkpt>
      <trkpt lat="45.41185" lon="5.91463">
        <ele>1664.90999458</ele>
        <time>2015-11-05T16:02:58Z</time>
      </trkpt>
      <trkpt lat="45.41184" lon="5.91451">
        <ele>1662.036403402</ele>
        <time>2015-11-05T16:03:09Z</time>
      </trkpt>
      <trkpt lat="45.41184" lon="5.91445">
        <ele>1662.036403402</ele>
        <time>2015-11-05T16:03:13Z</time>
      </trkpt>
      <trkpt lat="45.41183" lon="5.91435">
        <ele>1659.66572901</ele>
        <time>2015-11-05T16:03:24Z</time>
      </trkpt>
      <trkpt lat="45.4118" lon="5.91428">
        <ele>1659.66572901</ele>
        <time>2015-11-05T16:03:29Z</time>
      </trkpt>
      <trkpt lat="45.41177" lon="5.91417">
        <ele>1657.185799786</ele>
        <time>2015-11-05T16:03:37Z</time>
      </trkpt>
      <trkpt lat="45.41176" lon="5.91411">
        <ele>1657.185799786</ele>
        <time>2015-11-05T16:03:43Z</time>
      </trkpt>
      <trkpt lat="45.41175" lon="5.91397">
        <ele>1654.17379414</ele>
        <time>2015-11-05T16:03:54Z</time>
      </trkpt>
      <trkpt lat="45.41176" lon="5.91391">
        <ele>1654.17379414</ele>
        <time>2015-11-05T16:03:58Z</time>
      </trkpt>
      <trkpt lat="45.41176" lon="5.91381">
        <ele>1650.959957818</ele>
        <time>2015-11-05T16:04:08Z</time>
      </trkpt>
      <trkpt lat="45.41175" lon="5.91374">
        <ele>1650.959957818</ele>
        <time>2015-11-05T16:04:13Z</time>
      </trkpt>
      <trkpt lat="45.41174" lon="5.91368">
        <ele>1648.427243179</ele>
        <time>2015-11-05T16:04:24Z</time>
      </trkpt>
      <trkpt lat="45.41172" lon="5.91366">
        <ele>1648.427243179</ele>
        <time>2015-11-05T16:04:28Z</time>
      </trkpt>
      <trkpt lat="45.41165" lon="5.91353">
        <ele>1646.238893776</ele>
        <time>2015-11-05T16:04:38Z</time>
      </trkpt>
      <trkpt lat="45.41165" lon="5.91345">
        <ele>1646.238893776</ele>
        <time>2015-11-05T16:04:44Z</time>
      </trkpt>
      <trkpt lat="45.4116" lon="5.91325">
        <ele>1643.937764256</ele>
        <time>2015-11-05T16:04:58Z</time>
      </trkpt>
      <trkpt lat="45.41155" lon="5.91322">
        <ele>1643.937764256</ele>
        <time>2015-11-05T16:05:14Z</time>
      </trkpt>
      <trkpt lat="45.41155" lon="5.91321">
        <ele>1643.937764256</ele>
        <time>2015-11-05T16:05:18Z</time>
      </trkpt>
      <trkpt lat="45.41151" lon="5.91308">
        <ele>1642.397559369</ele>
        <time>2015-11-05T16:05:28Z</time>
      </trkpt>
      <trkpt lat="45.41147" lon="5.91303">
        <ele>1642.397559369</ele>
        <time>2015-11-05T16:05:33Z</time>
      </trkpt>
      <trkpt lat="45.4114" lon="5.91295">
        <ele>1640.552176967</ele>
        <time>2015-11-05T16:05:44Z</time>
      </trkpt>
      <trkpt lat="45.41138" lon="5.91294">
        <ele>1640.552176967</ele>
        <time>2015-11-05T16:05:48Z</time>
      </trkpt>
      <trkpt lat="45.4113" lon="5.9129">
        <ele>1638.999868756</ele>
        <time>2015-11-05T16:05:59Z</time>
      </trkpt>
      <trkpt lat="45.41127" lon="5.91284">
        <ele>1638.999868756</ele>
        <time>2015-11-05T16:06:03Z</time>
      </trkpt>
      <trkpt lat="45.41122" lon="5.9128">
        <ele>1637.861749768</ele>
        <time>2015-11-05T16:06:14Z</time>
      </trkpt>
      <trkpt lat="45.41121" lon="5.91281">
        <ele>1637.861749768</ele>
        <time>2015-11-05T16:06:18Z</time>
      </trkpt>
      <trkpt lat="45.4112" lon="5.91282">
        <ele>1637.861749768</ele>
        <time>2015-11-05T16:06:29Z</time>
      </trkpt>
      <trkpt lat="45.41119" lon="5.91281">
        <ele>1637.861749768</ele>
        <time>2015-11-05T16:06:33Z</time>
      </trkpt>
      <trkpt lat="45.41118" lon="5.91282">
        <ele>1637.861749768</ele>
        <time>2015-11-05T16:06:43Z</time>
      </trkpt>
      <trkpt lat="45.41112" lon="5.91282">
        <ele>1637.248850918</ele>
        <time>2015-11-05T16:06:47Z</time>
      </trkpt>
      <trkpt lat="45.41103" lon="5.91279">
        <ele>1637.118447753</ele>
        <time>2015-11-05T16:06:59Z</time>
      </trkpt>
      <trkpt lat="45.411" lon="5.91283">
        <ele>1637.118447753</ele>
        <time>2015-11-05T16:07:03Z</time>
      </trkpt>
      <trkpt lat="45.41093" lon="5.9129">
        <ele>1637.429599832</ele>
        <time>2015-11-05T16:07:14Z</time>
      </trkpt>
      <trkpt lat="45.41088" lon="5.91287">
        <ele>1637.429599832</ele>
        <time>2015-11-05T16:07:18Z</time>
      </trkpt>
      <trkpt lat="45.41076" lon="5.91284">
        <ele>1637.710816704</ele>
        <time>2015-11-05T16:07:29Z</time>
      </trkpt>
      <trkpt lat="45.41074" lon="5.91281">
        <ele>1637.710816704</ele>
        <time>2015-11-05T16:07:33Z</time>
      </trkpt>
      <trkpt lat="45.41066" lon="5.91262">
        <ele>1638.101803872</ele>
        <time>2015-11-05T16:07:48Z</time>
      </trkpt>
      <trkpt lat="45.41063" lon="5.91258">
        <ele>1638.101803872</ele>
        <time>2015-11-05T16:07:54Z</time>
      </trkpt>
      <trkpt lat="45.41062" lon="5.91243">
        <ele>1638.731745929</ele>
        <time>2015-11-05T16:08:04Z</time>
      </trkpt>
      <trkpt lat="45.41061" lon="5.91237">
        <ele>1638.731745929</ele>
        <time>2015-11-05T16:08:08Z</time>
      </trkpt>
      <trkpt lat="45.41057" lon="5.91227">
        <ele>1639.431512186</ele>
        <time>2015-11-05T16:08:19Z</time>
      </trkpt>
      <trkpt lat="45.41052" lon="5.91221">
        <ele>1639.431512186</ele>
        <time>2015-11-05T16:08:23Z</time>
      </trkpt>
      <trkpt lat="45.41045" lon="5.9121">
        <ele>1640.044284121</ele>
        <time>2015-11-05T16:08:34Z</time>
      </trkpt>
      <trkpt lat="45.41045" lon="5.91206">
        <ele>1640.044284121</ele>
        <time>2015-11-05T16:08:38Z</time>
      </trkpt>
      <trkpt lat="45.41037" lon="5.91201">
        <ele>1640.713328996</ele>
        <time>2015-11-05T16:08:49Z</time>
      </trkpt>
      <trkpt lat="45.41033" lon="5.91196">
        <ele>1640.713328996</ele>
        <time>2015-11-05T16:08:54Z</time>
      </trkpt>
      <trkpt lat="45.41028" lon="5.91188">
        <ele>1641.283123658</ele>
        <time>2015-11-05T16:09:04Z</time>
      </trkpt>
      <trkpt lat="45.41027" lon="5.91188">
        <ele>1641.283123658</ele>
        <time>2015-11-05T16:09:08Z</time>
      </trkpt>
      <trkpt lat="45.41023" lon="5.91184">
        <ele>1641.283123658</ele>
        <time>2015-11-05T16:09:23Z</time>
      </trkpt>
      <trkpt lat="45.41023" lon="5.91184">
        <ele>1641.283123658</ele>
        <time>2015-11-05T16:09:39Z</time>
      </trkpt>
      <trkpt lat="45.41023" lon="5.91184">
        <ele>1641.283123658</ele>
        <time>2015-11-05T16:09:44Z</time>
      </trkpt>
      <trkpt lat="45.41023" lon="5.91184">
        <ele>1641.283123658</ele>
        <time>2015-11-05T16:09:53Z</time>
      </trkpt>
      <trkpt lat="45.41023" lon="5.91184">
        <ele>1641.283123658</ele>
        <time>2015-11-05T16:09:57Z</time>
      </trkpt>
      <trkpt lat="45.41024" lon="5.9118">
        <ele>1641.754086071</ele>
        <time>2015-11-05T16:10:07Z</time>
      </trkpt>
      <trkpt lat="45.41026" lon="5.91171">
        <ele>1641.754086071</ele>
        <time>2015-11-05T16:10:13Z</time>
      </trkpt>
      <trkpt lat="45.41025" lon="5.91164">
        <ele>1642.271129954</ele>
        <time>2015-11-05T16:10:24Z</time>
      </trkpt>
      <trkpt lat="45.41024" lon="5.91163">
        <ele>1642.271129954</ele>
        <time>2015-11-05T16:10:28Z</time>
      </trkpt>
      <trkpt lat="45.41024" lon="5.91163">
        <ele>1642.271129954</ele>
        <time>2015-11-05T16:10:39Z</time>
      </trkpt>
      <trkpt lat="45.41024" lon="5.91163">
        <ele>1642.271129954</ele>
        <time>2015-11-05T16:10:43Z</time>
      </trkpt>
      <trkpt lat="45.41019" lon="5.91162">
        <ele>1642.271129954</ele>
        <time>2015-11-05T16:10:54Z</time>
      </trkpt>
      <trkpt lat="45.41017" lon="5.91167">
        <ele>1642.392096785</ele>
        <time>2015-11-05T16:10:58Z</time>
      </trkpt>
      <trkpt lat="45.41015" lon="5.91171">
        <ele>1642.392096785</ele>
        <time>2015-11-05T16:11:09Z</time>
      </trkpt>
      <trkpt lat="45.41011" lon="5.91176">
        <ele>1642.429129563</ele>
        <time>2015-11-05T16:11:14Z</time>
      </trkpt>
      <trkpt lat="45.41009" lon="5.91179">
        <ele>1642.429129563</ele>
        <time>2015-11-05T16:11:29Z</time>
      </trkpt>
      <trkpt lat="45.41006" lon="5.91183">
        <ele>1642.429129563</ele>
        <time>2015-11-05T16:11:33Z</time>
      </trkpt>
      <trkpt lat="45.41006" lon="5.91189">
        <ele>1640.798387643</ele>
        <time>2015-11-05T16:11:43Z</time>
      </trkpt>
      <trkpt lat="45.41005" lon="5.91194">
        <ele>1640.798387643</ele>
        <time>2015-11-05T16:11:49Z</time>
      </trkpt>
      <trkpt lat="45.41002" lon="5.91202">
        <ele>1638.775322638</ele>
        <time>2015-11-05T16:11:58Z</time>
      </trkpt>
      <trkpt lat="45.41003" lon="5.91206">
        <ele>1638.775322638</ele>
        <time>2015-11-05T16:12:04Z</time>
      </trkpt>
      <trkpt lat="45.41002" lon="5.91205">
        <ele>1638.775322638</ele>
        <time>2015-11-05T16:12:14Z</time>
      </trkpt>
      <trkpt lat="45.41002" lon="5.91205">
        <ele>1638.775322638</ele>
        <time>2015-11-05T16:12:18Z</time>
      </trkpt>
      <trkpt lat="45.41002" lon="5.91205">
        <ele>1638.775322638</ele>
        <time>2015-11-05T16:12:29Z</time>
      </trkpt>
      <trkpt lat="45.41" lon="5.9121">
        <ele>1638.775322638</ele>
        <time>2015-11-05T16:12:33Z</time>
      </trkpt>
      <trkpt lat="45.40992" lon="5.91217">
        <ele>1635.669491904</ele>
        <time>2015-11-05T16:12:44Z</time>
      </trkpt>
      <trkpt lat="45.40992" lon="5.91217">
        <ele>1635.669491904</ele>
        <time>2015-11-05T16:12:48Z</time>
      </trkpt>
      <trkpt lat="45.40989" lon="5.91217">
        <ele>1635.669491904</ele>
        <time>2015-11-05T16:12:59Z</time>
      </trkpt>
      <trkpt lat="45.40988" lon="5.91217">
        <ele>1635.669491904</ele>
        <time>2015-11-05T16:13:02Z</time>
      </trkpt>
      <trkpt lat="45.40984" lon="5.91222">
        <ele>1633.006007639</ele>
        <time>2015-11-05T16:13:19Z</time>
      </trkpt>
      <trkpt lat="45.40983" lon="5.91223">
        <ele>1633.006007639</ele>
        <time>2015-11-05T16:13:23Z</time>
      </trkpt>
      <trkpt lat="45.40982" lon="5.91223">
        <ele>1633.006007639</ele>
        <time>2015-11-05T16:13:34Z</time>
      </trkpt>
      <trkpt lat="45.40978" lon="5.91227">
        <ele>1633.006007639</ele>
        <time>2015-11-05T16:13:38Z</time>
      </trkpt>
      <trkpt lat="45.40976" lon="5.9123">
        <ele>1630.179263101</ele>
        <time>2015-11-05T16:13:49Z</time>
      </trkpt>
      <trkpt lat="45.40975" lon="5.91231">
        <ele>1630.179263101</ele>
        <time>2015-11-05T16:13:54Z</time>
      </trkpt>
      <trkpt lat="45.40971" lon="5.91236">
        <ele>1630.179263101</ele>
        <time>2015-11-05T16:14:03Z</time>
      </trkpt>
      <trkpt lat="45.40971" lon="5.91237">
        <ele>1630.179263101</ele>
        <time>2015-11-05T16:14:09Z</time>
      </trkpt>
      <trkpt lat="45.40971" lon="5.91238">
        <ele>1630.179263101</ele>
        <time>2015-11-05T16:14:18Z</time>
      </trkpt>
      <trkpt lat="45.40974" lon="5.91241">
        <ele>1626.484577388</ele>
        <time>2015-11-05T16:14:24Z</time>
      </trkpt>
      <trkpt lat="45.40974" lon="5.91242">
        <ele>1626.484577388</ele>
        <time>2015-11-05T16:14:34Z</time>
      </trkpt>
      <trkpt lat="45.40974" lon="5.91242">
        <ele>1626.484577388</ele>
        <time>2015-11-05T16:14:38Z</time>
      </trkpt>
      <trkpt lat="45.40969" lon="5.91245">
        <ele>1626.484577388</ele>
        <time>2015-11-05T16:14:49Z</time>
      </trkpt>
      <trkpt lat="45.40966" lon="5.9125">
        <ele>1622.85676286</ele>
        <time>2015-11-05T16:14:54Z</time>
      </trkpt>
      <trkpt lat="45.40963" lon="5.91253">
        <ele>1622.85676286</ele>
        <time>2015-11-05T16:15:03Z</time>
      </trkpt>
      <trkpt lat="45.4096" lon="5.91255">
        <ele>1622.85676286</ele>
        <time>2015-11-05T16:15:09Z</time>
      </trkpt>
      <trkpt lat="45.40954" lon="5.91252">
        <ele>1619.58537829</ele>
        <time>2015-11-05T16:15:23Z</time>
      </trkpt>
      <trkpt lat="45.40955" lon="5.91249">
        <ele>1619.58537829</ele>
        <time>2015-11-05T16:15:28Z</time>
      </trkpt>
      <trkpt lat="45.40952" lon="5.91246">
        <ele>1619.58537829</ele>
        <time>2015-11-05T16:15:39Z</time>
      </trkpt>
      <trkpt lat="45.40949" lon="5.91246">
        <ele>1619.58537829</ele>
        <time>2015-11-05T16:15:43Z</time>
      </trkpt>
      <trkpt lat="45.40943" lon="5.9124">
        <ele>1616.217184552</ele>
        <time>2015-11-05T16:15:54Z</time>
      </trkpt>
      <trkpt lat="45.40941" lon="5.91236">
        <ele>1616.217184552</ele>
        <time>2015-11-05T16:15:58Z</time>
      </trkpt>
      <trkpt lat="45.40938" lon="5.91227">
        <ele>1612.044293948</ele>
        <time>2015-11-05T16:16:09Z</time>
      </trkpt>
      <trkpt lat="45.40938" lon="5.91226">
        <ele>1612.044293948</ele>
        <time>2015-11-05T16:16:12Z</time>
      </trkpt>
      <trkpt lat="45.40937" lon="5.91227">
        <ele>1612.044293948</ele>
        <time>2015-11-05T16:16:23Z</time>
      </trkpt>
      <trkpt lat="45.40937" lon="5.91227">
        <ele>1612.044293948</ele>
        <time>2015-11-05T16:16:29Z</time>
      </trkpt>
      <trkpt lat="45.40936" lon="5.91227">
        <ele>1612.044293948</ele>
        <time>2015-11-05T16:16:39Z</time>
      </trkpt>
      <trkpt lat="45.4093" lon="5.91228">
        <ele>1607.998287738</ele>
        <time>2015-11-05T16:16:43Z</time>
      </trkpt>
      <trkpt lat="45.40924" lon="5.91222">
        <ele>1607.998287738</ele>
        <time>2015-11-05T16:16:53Z</time>
      </trkpt>
      <trkpt lat="45.40919" lon="5.91217">
        <ele>1604.077259286</ele>
        <time>2015-11-05T16:16:59Z</time>
      </trkpt>
      <trkpt lat="45.40917" lon="5.9121">
        <ele>1604.077259286</ele>
        <time>2015-11-05T16:17:08Z</time>
      </trkpt>
      <trkpt lat="45.40917" lon="5.91208">
        <ele>1604.077259286</ele>
        <time>2015-11-05T16:17:14Z</time>
      </trkpt>
      <trkpt lat="45.40915" lon="5.91206">
        <ele>1599.846706867</ele>
        <time>2015-11-05T16:17:29Z</time>
      </trkpt>
      <trkpt lat="45.40912" lon="5.91204">
        <ele>1599.846706867</ele>
        <time>2015-11-05T16:17:33Z</time>
      </trkpt>
      <trkpt lat="45.40903" lon="5.912">
        <ele>1595.625401222</ele>
        <time>2015-11-05T16:17:44Z</time>
      </trkpt>
      <trkpt lat="45.409" lon="5.91198">
        <ele>1595.625401222</ele>
        <time>2015-11-05T16:17:48Z</time>
      </trkpt>
      <trkpt lat="45.40896" lon="5.91198">
        <ele>1595.625401222</ele>
        <time>2015-11-05T16:17:59Z</time>
      </trkpt>
      <trkpt lat="45.40898" lon="5.91197">
        <ele>1595.625401222</ele>
        <time>2015-11-05T16:18:03Z</time>
      </trkpt>
      <trkpt lat="45.40896" lon="5.91197">
        <ele>1591.420360819</ele>
        <time>2015-11-05T16:18:14Z</time>
      </trkpt>
      <trkpt lat="45.40894" lon="5.91194">
        <ele>1591.420360819</ele>
        <time>2015-11-05T16:18:19Z</time>
      </trkpt>
      <trkpt lat="45.40891" lon="5.91188">
        <ele>1591.420360819</ele>
        <time>2015-11-05T16:18:28Z</time>
      </trkpt>
      <trkpt lat="45.4089" lon="5.91186">
        <ele>1586.661493803</ele>
        <time>2015-11-05T16:18:34Z</time>
      </trkpt>
      <trkpt lat="45.4089" lon="5.91185">
        <ele>1586.661493803</ele>
        <time>2015-11-05T16:18:44Z</time>
      </trkpt>
      <trkpt lat="45.40888" lon="5.91183">
        <ele>1586.661493803</ele>
        <time>2015-11-05T16:18:49Z</time>
      </trkpt>
      <trkpt lat="45.40887" lon="5.91182">
        <ele>1586.661493803</ele>
        <time>2015-11-05T16:18:59Z</time>
      </trkpt>
      <trkpt lat="45.40887" lon="5.91182">
        <ele>1586.661493803</ele>
        <time>2015-11-05T16:19:03Z</time>
      </trkpt>
      <trkpt lat="45.40885" lon="5.9118">
        <ele>1586.661493803</ele>
        <time>2015-11-05T16:19:14Z</time>
      </trkpt>
      <trkpt lat="45.40884" lon="5.91179">
        <ele>1586.661493803</ele>
        <time>2015-11-05T16:19:17Z</time>
      </trkpt>
      <trkpt lat="45.40884" lon="5.91179">
        <ele>1586.661493803</ele>
        <time>2015-11-05T16:19:29Z</time>
      </trkpt>
      <trkpt lat="45.40883" lon="5.91179">
        <ele>1586.661493803</ele>
        <time>2015-11-05T16:19:33Z</time>
      </trkpt>
      <trkpt lat="45.40875" lon="5.91181">
        <ele>1581.830797517</ele>
        <time>2015-11-05T16:19:48Z</time>
      </trkpt>
      <trkpt lat="45.40871" lon="5.91181">
        <ele>1581.830797517</ele>
        <time>2015-11-05T16:19:53Z</time>
      </trkpt>
      <trkpt lat="45.40868" lon="5.91182">
        <ele>1581.830797517</ele>
        <time>2015-11-05T16:20:03Z</time>
      </trkpt>
      <trkpt lat="45.40865" lon="5.91182">
        <ele>1577.663149505</ele>
        <time>2015-11-05T16:20:08Z</time>
      </trkpt>
      <trkpt lat="45.40862" lon="5.91181">
        <ele>1577.663149505</ele>
        <time>2015-11-05T16:20:19Z</time>
      </trkpt>
      <trkpt lat="45.40862" lon="5.91181">
        <ele>1577.663149505</ele>
        <time>2015-11-05T16:20:23Z</time>
      </trkpt>
      <trkpt lat="45.40858" lon="5.91183">
        <ele>1577.663149505</ele>
        <time>2015-11-05T16:20:34Z</time>
      </trkpt>
      <trkpt lat="45.40856" lon="5.91183">
        <ele>1573.108098592</ele>
        <time>2015-11-05T16:20:38Z</time>
      </trkpt>
      <trkpt lat="45.40849" lon="5.91179">
        <ele>1573.108098592</ele>
        <time>2015-11-05T16:20:48Z</time>
      </trkpt>
      <trkpt lat="45.40847" lon="5.91174">
        <ele>1568.778505039</ele>
        <time>2015-11-05T16:20:54Z</time>
      </trkpt>
      <trkpt lat="45.40845" lon="5.91175">
        <ele>1568.778505039</ele>
        <time>2015-11-05T16:21:03Z</time>
      </trkpt>
      <trkpt lat="45.40845" lon="5.91175">
        <ele>1568.778505039</ele>
        <time>2015-11-05T16:21:09Z</time>
      </trkpt>
      <trkpt lat="45.40845" lon="5.91175">
        <ele>1568.778505039</ele>
        <time>2015-11-05T16:21:19Z</time>
      </trkpt>
      <trkpt lat="45.40845" lon="5.91175">
        <ele>1568.778505039</ele>
        <time>2015-11-05T16:21:23Z</time>
      </trkpt>
      <trkpt lat="45.40836" lon="5.91184">
        <ele>1564.088512112</ele>
        <time>2015-11-05T16:21:39Z</time>
      </trkpt>
      <trkpt lat="45.40833" lon="5.91185">
        <ele>1564.088512112</ele>
        <time>2015-11-05T16:21:43Z</time>
      </trkpt>
      <trkpt lat="45.40832" lon="5.91191">
        <ele>1564.088512112</ele>
        <time>2015-11-05T16:21:49Z</time>
      </trkpt>
      <trkpt lat="45.40835" lon="5.91193">
        <ele>1559.93723892</ele>
        <time>2015-11-05T16:21:53Z</time>
      </trkpt>
      <trkpt lat="45.40834" lon="5.912">
        <ele>1559.93723892</ele>
        <time>2015-11-05T16:21:59Z</time>
      </trkpt>
      <trkpt lat="45.40835" lon="5.91209">
        <ele>1554.994384544</ele>
        <time>2015-11-05T16:22:09Z</time>
      </trkpt>
      <trkpt lat="45.40835" lon="5.9121">
        <ele>1554.994384544</ele>
        <time>2015-11-05T16:22:13Z</time>
      </trkpt>
      <trkpt lat="45.40837" lon="5.91222">
        <ele>1550.04694757</ele>
        <time>2015-11-05T16:22:22Z</time>
      </trkpt>
      <trkpt lat="45.40831" lon="5.91231">
        <ele>1550.04694757</ele>
        <time>2015-11-05T16:22:28Z</time>
      </trkpt>
      <trkpt lat="45.40838" lon="5.91236">
        <ele>1544.959251273</ele>
        <time>2015-11-05T16:22:39Z</time>
      </trkpt>
      <trkpt lat="45.40838" lon="5.91236">
        <ele>1544.959251273</ele>
        <time>2015-11-05T16:22:44Z</time>
      </trkpt>
      <trkpt lat="45.40843" lon="5.91244">
        <ele>1544.959251273</ele>
        <time>2015-11-05T16:22:54Z</time>
      </trkpt>
      <trkpt lat="45.40846" lon="5.9125">
        <ele>1540.038096279</ele>
        <time>2015-11-05T16:22:59Z</time>
      </trkpt>
      <trkpt lat="45.40849" lon="5.91264">
        <ele>1535.567055497</ele>
        <time>2015-11-05T16:23:08Z</time>
      </trkpt>
      <trkpt lat="45.40849" lon="5.91269">
        <ele>1535.567055497</ele>
        <time>2015-11-05T16:23:14Z</time>
      </trkpt>
      <trkpt lat="45.40846" lon="5.91277">
        <ele>1532.095604061</ele>
        <time>2015-11-05T16:23:24Z</time>
      </trkpt>
      <trkpt lat="45.40846" lon="5.91282">
        <ele>1532.095604061</ele>
        <time>2015-11-05T16:23:28Z</time>
      </trkpt>
      <trkpt lat="45.40842" lon="5.9129">
        <ele>1528.112265469</ele>
        <time>2015-11-05T16:23:39Z</time>
      </trkpt>
      <trkpt lat="45.40842" lon="5.91294">
        <ele>1528.112265469</ele>
        <time>2015-11-05T16:23:43Z</time>
      </trkpt>
      <trkpt lat="45.40842" lon="5.91304">
        <ele>1523.803029112</ele>
        <time>2015-11-05T16:23:54Z</time>
      </trkpt>
      <trkpt lat="45.40845" lon="5.9131">
        <ele>1523.803029112</ele>
        <time>2015-11-05T16:23:58Z</time>
      </trkpt>
      <trkpt lat="45.40843" lon="5.91314">
        <ele>1519.19680274</ele>
        <time>2015-11-05T16:24:09Z</time>
      </trkpt>
      <trkpt lat="45.40842" lon="5.91315">
        <ele>1519.19680274</ele>
        <time>2015-11-05T16:24:13Z</time>
      </trkpt>
      <trkpt lat="45.40822" lon="5.91316">
        <ele>1515.617986716</ele>
        <time>2015-11-05T16:24:29Z</time>
      </trkpt>
      <trkpt lat="45.40817" lon="5.91313">
        <ele>1515.617986716</ele>
        <time>2015-11-05T16:24:33Z</time>
      </trkpt>
      <trkpt lat="45.40809" lon="5.91307">
        <ele>1512.705374675</ele>
        <time>2015-11-05T16:24:42Z</time>
      </trkpt>
      <trkpt lat="45.40808" lon="5.91297">
        <ele>1512.705374675</ele>
        <time>2015-11-05T16:24:47Z</time>
      </trkpt>
      <trkpt lat="45.40805" lon="5.91293">
        <ele>1509.97811013</ele>
        <time>2015-11-05T16:24:52Z</time>
      </trkpt>
      <trkpt lat="45.40804" lon="5.91296">
        <ele>1509.97811013</ele>
        <time>2015-11-05T16:24:58Z</time>
      </trkpt>
      <trkpt lat="45.40802" lon="5.91299">
        <ele>1509.97811013</ele>
        <time>2015-11-05T16:25:03Z</time>
      </trkpt>
      <trkpt lat="45.40798" lon="5.91298">
        <ele>1507.56639247</ele>
        <time>2015-11-05T16:25:13Z</time>
      </trkpt>
      <trkpt lat="45.40798" lon="5.91297">
        <ele>1507.56639247</ele>
        <time>2015-11-05T16:25:19Z</time>
      </trkpt>
      <trkpt lat="45.40797" lon="5.91296">
        <ele>1507.56639247</ele>
        <time>2015-11-05T16:25:27Z</time>
      </trkpt>
      <trkpt lat="45.40796" lon="5.91297">
        <ele>1507.56639247</ele>
        <time>2015-11-05T16:25:32Z</time>
      </trkpt>
      <trkpt lat="45.40793" lon="5.91295">
        <ele>1507.56639247</ele>
        <time>2015-11-05T16:25:37Z</time>
      </trkpt>
      <trkpt lat="45.40789" lon="5.91294">
        <ele>1506.022129249</ele>
        <time>2015-11-05T16:25:42Z</time>
      </trkpt>
      <trkpt lat="45.40784" lon="5.91295">
        <ele>1506.022129249</ele>
        <time>2015-11-05T16:25:47Z</time>
      </trkpt>
      <trkpt lat="45.40784" lon="5.91294">
        <ele>1506.022129249</ele>
        <time>2015-11-05T16:25:52Z</time>
      </trkpt>
      <trkpt lat="45.40786" lon="5.91293">
        <ele>1506.022129249</ele>
        <time>2015-11-05T16:25:57Z</time>
      </trkpt>
      <trkpt lat="45.40788" lon="5.91292">
        <ele>1504.268871671</ele>
        <time>2015-11-05T16:26:09Z</time>
      </trkpt>
      <trkpt lat="45.40788" lon="5.91292">
        <ele>1504.268871671</ele>
        <time>2015-11-05T16:26:14Z</time>
      </trkpt>
      <trkpt lat="45.40783" lon="5.91291">
        <ele>1504.268871671</ele>
        <time>2015-11-05T16:26:24Z</time>
      </trkpt>
      <trkpt lat="45.40778" lon="5.91295">
        <ele>1502.030250223</ele>
        <time>2015-11-05T16:26:28Z</time>
      </trkpt>
      <trkpt lat="45.4077" lon="5.91303">
        <ele>1499.483772899</ele>
        <time>2015-11-05T16:26:39Z</time>
      </trkpt>
      <trkpt lat="45.40766" lon="5.91302">
        <ele>1499.483772899</ele>
        <time>2015-11-05T16:26:43Z</time>
      </trkpt>
      <trkpt lat="45.40755" lon="5.91296">
        <ele>1496.938780248</ele>
        <time>2015-11-05T16:26:53Z</time>
      </trkpt>
      <trkpt lat="45.40752" lon="5.9129">
        <ele>1496.938780248</ele>
        <time>2015-11-05T16:26:58Z</time>
      </trkpt>
      <trkpt lat="45.40741" lon="5.9128">
        <ele>1494.105350949</ele>
        <time>2015-11-05T16:27:08Z</time>
      </trkpt>
      <trkpt lat="45.40737" lon="5.91274">
        <ele>1494.105350949</ele>
        <time>2015-11-05T16:27:14Z</time>
      </trkpt>
      <trkpt lat="45.40736" lon="5.91267">
        <ele>1492.012594136</ele>
        <time>2015-11-05T16:27:24Z</time>
      </trkpt>
      <trkpt lat="45.40736" lon="5.9127">
        <ele>1492.012594136</ele>
        <time>2015-11-05T16:27:28Z</time>
      </trkpt>
      <trkpt lat="45.40734" lon="5.91269">
        <ele>1492.012594136</ele>
        <time>2015-11-05T16:27:39Z</time>
      </trkpt>
      <trkpt lat="45.40734" lon="5.91269">
        <ele>1492.012594136</ele>
        <time>2015-11-05T16:27:43Z</time>
      </trkpt>
      <trkpt lat="45.40727" lon="5.91267">
        <ele>1489.88254436</ele>
        <time>2015-11-05T16:27:52Z</time>
      </trkpt>
      <trkpt lat="45.40726" lon="5.91265">
        <ele>1489.88254436</ele>
        <time>2015-11-05T16:27:57Z</time>
      </trkpt>
      <trkpt lat="45.40725" lon="5.91259">
        <ele>1489.88254436</ele>
        <time>2015-11-05T16:28:12Z</time>
      </trkpt>
      <trkpt lat="45.40721" lon="5.91257">
        <ele>1486.994435165</ele>
        <time>2015-11-05T16:28:18Z</time>
      </trkpt>
      <trkpt lat="45.40718" lon="5.91254">
        <ele>1486.994435165</ele>
        <time>2015-11-05T16:28:23Z</time>
      </trkpt>
      <trkpt lat="45.40712" lon="5.91247">
        <ele>1483.691306556</ele>
        <time>2015-11-05T16:28:34Z</time>
      </trkpt>
      <trkpt lat="45.4071" lon="5.91246">
        <ele>1483.691306556</ele>
        <time>2015-11-05T16:28:38Z</time>
      </trkpt>
      <trkpt lat="45.40709" lon="5.91241">
        <ele>1483.691306556</ele>
        <time>2015-11-05T16:28:48Z</time>
      </trkpt>
      <trkpt lat="45.40704" lon="5.91237">
        <ele>1480.43623656</ele>
        <time>2015-11-05T16:28:53Z</time>
      </trkpt>
      <trkpt lat="45.40697" lon="5.91226">
        <ele>1477.225784321</ele>
        <time>2015-11-05T16:29:03Z</time>
      </trkpt>
      <trkpt lat="45.40694" lon="5.91218">
        <ele>1477.225784321</ele>
        <time>2015-11-05T16:29:08Z</time>
      </trkpt>
      <trkpt lat="45.4069" lon="5.9121">
        <ele>1474.633051996</ele>
        <time>2015-11-05T16:29:18Z</time>
      </trkpt>
      <trkpt lat="45.40688" lon="5.91202">
        <ele>1474.633051996</ele>
        <time>2015-11-05T16:29:23Z</time>
      </trkpt>
      <trkpt lat="45.40679" lon="5.91196">
        <ele>1472.466728873</ele>
        <time>2015-11-05T16:29:34Z</time>
      </trkpt>
      <trkpt lat="45.40677" lon="5.91195">
        <ele>1472.466728873</ele>
        <time>2015-11-05T16:29:38Z</time>
      </trkpt>
      <trkpt lat="45.40673" lon="5.91179">
        <ele>1470.836567036</ele>
        <time>2015-11-05T16:29:49Z</time>
      </trkpt>
      <trkpt lat="45.40672" lon="5.91177">
        <ele>1470.836567036</ele>
        <time>2015-11-05T16:29:53Z</time>
      </trkpt>
      <trkpt lat="45.40665" lon="5.91164">
        <ele>1469.84274621</ele>
        <time>2015-11-05T16:30:08Z</time>
      </trkpt>
      <trkpt lat="45.40662" lon="5.91157">
        <ele>1469.84274621</ele>
        <time>2015-11-05T16:30:13Z</time>
      </trkpt>
      <trkpt lat="45.40658" lon="5.9114">
        <ele>1468.567531046</ele>
        <time>2015-11-05T16:30:23Z</time>
      </trkpt>
      <trkpt lat="45.40654" lon="5.91135">
        <ele>1468.567531046</ele>
        <time>2015-11-05T16:30:28Z</time>
      </trkpt>
      <trkpt lat="45.40653" lon="5.91123">
        <ele>1466.88196921</ele>
        <time>2015-11-05T16:30:39Z</time>
      </trkpt>
      <trkpt lat="45.40654" lon="5.91119">
        <ele>1466.88196921</ele>
        <time>2015-11-05T16:30:44Z</time>
      </trkpt>
      <trkpt lat="45.40651" lon="5.9111">
        <ele>1464.95598954</ele>
        <time>2015-11-05T16:30:54Z</time>
      </trkpt>
      <trkpt lat="45.40648" lon="5.91107">
        <ele>1464.95598954</ele>
        <time>2015-11-05T16:30:58Z</time>
      </trkpt>
      <trkpt lat="45.40646" lon="5.91103">
        <ele>1464.95598954</ele>
        <time>2015-11-05T16:31:03Z</time>
      </trkpt>
      <trkpt lat="45.40642" lon="5.911">
        <ele>1462.947758675</ele>
        <time>2015-11-05T16:31:12Z</time>
      </trkpt>
      <trkpt lat="45.40641" lon="5.91092">
        <ele>1462.947758675</ele>
        <time>2015-11-05T16:31:18Z</time>
      </trkpt>
      <trkpt lat="45.40641" lon="5.91089">
        <ele>1462.947758675</ele>
        <time>2015-11-05T16:31:28Z</time>
      </trkpt>
      <trkpt lat="45.40636" lon="5.91089">
        <ele>1461.004110004</ele>
        <time>2015-11-05T16:31:34Z</time>
      </trkpt>
      <trkpt lat="45.40639" lon="5.91087">
        <ele>1461.004110004</ele>
        <time>2015-11-05T16:31:44Z</time>
      </trkpt>
      <trkpt lat="45.40639" lon="5.91088">
        <ele>1461.004110004</ele>
        <time>2015-11-05T16:31:48Z</time>
      </trkpt>
      <trkpt lat="45.40635" lon="5.91093">
        <ele>1461.004110004</ele>
        <time>2015-11-05T16:31:58Z</time>
      </trkpt>
      <trkpt lat="45.4063" lon="5.91089">
        <ele>1459.116859888</ele>
        <time>2015-11-05T16:32:03Z</time>
      </trkpt>
      <trkpt lat="45.40622" lon="5.91085">
        <ele>1459.116859888</ele>
        <time>2015-11-05T16:32:13Z</time>
      </trkpt>
      <trkpt lat="45.40619" lon="5.91082">
        <ele>1457.998892194</ele>
        <time>2015-11-05T16:32:17Z</time>
      </trkpt>
      <trkpt lat="45.40617" lon="5.91081">
        <ele>1457.998892194</ele>
        <time>2015-11-05T16:32:27Z</time>
      </trkpt>
      <trkpt lat="45.40613" lon="5.91076">
        <ele>1457.998892194</ele>
        <time>2015-11-05T16:32:33Z</time>
      </trkpt>
      <trkpt lat="45.40603" lon="5.91061">
        <ele>1457.588086343</ele>
        <time>2015-11-05T16:32:42Z</time>
      </trkpt>
      <trkpt lat="45.40598" lon="5.91057">
        <ele>1457.588086343</ele>
        <time>2015-11-05T16:32:47Z</time>
      </trkpt>
      <trkpt lat="45.406" lon="5.91052">
        <ele>1456.816210582</ele>
        <time>2015-11-05T16:32:57Z</time>
      </trkpt>
      <trkpt lat="45.40601" lon="5.91052">
        <ele>1456.816210582</ele>
        <time>2015-11-05T16:33:03Z</time>
      </trkpt>
      <trkpt lat="45.40596" lon="5.91041">
        <ele>1455.55928286</ele>
        <time>2015-11-05T16:33:13Z</time>
      </trkpt>
      <trkpt lat="45.40591" lon="5.91036">
        <ele>1455.55928286</ele>
        <time>2015-11-05T16:33:18Z</time>
      </trkpt>
      <trkpt lat="45.40589" lon="5.91034">
        <ele>1455.55928286</ele>
        <time>2015-11-05T16:33:33Z</time>
      </trkpt>
      <trkpt lat="45.40589" lon="5.91035">
        <ele>1455.55928286</ele>
        <time>2015-11-05T16:33:48Z</time>
      </trkpt>
      <trkpt lat="45.40589" lon="5.91035">
        <ele>1454.568565698</ele>
        <time>2015-11-05T16:33:53Z</time>
      </trkpt>
      <trkpt lat="45.40589" lon="5.91035">
        <ele>1454.568565698</ele>
        <time>2015-11-05T16:34:03Z</time>
      </trkpt>
      <trkpt lat="45.40589" lon="5.91035">
        <ele>1454.568565698</ele>
        <time>2015-11-05T16:34:08Z</time>
      </trkpt>
      <trkpt lat="45.40589" lon="5.91035">
        <ele>1454.568565698</ele>
        <time>2015-11-05T16:34:18Z</time>
      </trkpt>
      <trkpt lat="45.40589" lon="5.91035">
        <ele>1454.568565698</ele>
        <time>2015-11-05T16:34:22Z</time>
      </trkpt>
      <trkpt lat="45.40588" lon="5.91032">
        <ele>1454.568565698</ele>
        <time>2015-11-05T16:34:32Z</time>
      </trkpt>
      <trkpt lat="45.40585" lon="5.91028">
        <ele>1454.568565698</ele>
        <time>2015-11-05T16:34:37Z</time>
      </trkpt>
      <trkpt lat="45.40577" lon="5.91022">
        <ele>1454.107173659</ele>
        <time>2015-11-05T16:34:52Z</time>
      </trkpt>
      <trkpt lat="45.40576" lon="5.9102">
        <ele>1454.107173659</ele>
        <time>2015-11-05T16:34:57Z</time>
      </trkpt>
      <trkpt lat="45.40578" lon="5.91018">
        <ele>1454.107173659</ele>
        <time>2015-11-05T16:35:07Z</time>
      </trkpt>
      <trkpt lat="45.40578" lon="5.91018">
        <ele>1454.107173659</ele>
        <time>2015-11-05T16:35:12Z</time>
      </trkpt>
      <trkpt lat="45.40578" lon="5.91018">
        <ele>1454.107173659</ele>
        <time>2015-11-05T16:35:22Z</time>
      </trkpt>
      <trkpt lat="45.40578" lon="5.91018">
        <ele>1454.107173659</ele>
        <time>2015-11-05T16:35:27Z</time>
      </trkpt>
      <trkpt lat="45.40578" lon="5.91017">
        <ele>1454.107173659</ele>
        <time>2015-11-05T16:35:37Z</time>
      </trkpt>
      <trkpt lat="45.40578" lon="5.91017">
        <ele>1454.107173659</ele>
        <time>2015-11-05T16:35:42Z</time>
      </trkpt>
      <trkpt lat="45.40578" lon="5.91017">
        <ele>1454.107173659</ele>
        <time>2015-11-05T16:35:52Z</time>
      </trkpt>
      <trkpt lat="45.40578" lon="5.91017">
        <ele>1454.107173659</ele>
        <time>2015-11-05T16:35:57Z</time>
      </trkpt>
      <trkpt lat="45.40578" lon="5.91017">
        <ele>1454.107173659</ele>
        <time>2015-11-05T16:36:07Z</time>
      </trkpt>
      <trkpt lat="45.40578" lon="5.91017">
        <ele>1454.107173659</ele>
        <time>2015-11-05T16:36:12Z</time>
      </trkpt>
      <trkpt lat="45.40578" lon="5.91017">
        <ele>1454.107173659</ele>
        <time>2015-11-05T16:36:22Z</time>
      </trkpt>
      <trkpt lat="45.40578" lon="5.91017">
        <ele>1454.107173659</ele>
        <time>2015-11-05T16:36:27Z</time>
      </trkpt>
      <trkpt lat="45.40578" lon="5.91017">
        <ele>1454.107173659</ele>
        <time>2015-11-05T16:36:37Z</time>
      </trkpt>
      <trkpt lat="45.40578" lon="5.91017">
        <ele>1454.107173659</ele>
        <time>2015-11-05T16:36:42Z</time>
      </trkpt>
      <trkpt lat="45.40578" lon="5.91017">
        <ele>1454.107173659</ele>
        <time>2015-11-05T16:36:52Z</time>
      </trkpt>
      <trkpt lat="45.40578" lon="5.91017">
        <ele>1454.107173659</ele>
        <time>2015-11-05T16:36:57Z</time>
      </trkpt>
      <trkpt lat="45.40566" lon="5.91021">
        <ele>1453.408758287</ele>
        <time>2015-11-05T16:37:08Z</time>
      </trkpt>
      <trkpt lat="45.40561" lon="5.91018">
        <ele>1453.408758287</ele>
        <time>2015-11-05T16:37:12Z</time>
      </trkpt>
      <trkpt lat="45.4055" lon="5.91009">
        <ele>1452.484623562</ele>
        <time>2015-11-05T16:37:23Z</time>
      </trkpt>
      <trkpt lat="45.40548" lon="5.91006">
        <ele>1452.484623562</ele>
        <time>2015-11-05T16:37:28Z</time>
      </trkpt>
      <trkpt lat="45.4054" lon="5.9099">
        <ele>1451.201908145</ele>
        <time>2015-11-05T16:37:42Z</time>
      </trkpt>
      <trkpt lat="45.40536" lon="5.90983">
        <ele>1451.201908145</ele>
        <time>2015-11-05T16:37:47Z</time>
      </trkpt>
      <trkpt lat="45.40527" lon="5.90972">
        <ele>1449.58277535</ele>
        <time>2015-11-05T16:37:59Z</time>
      </trkpt>
      <trkpt lat="45.40523" lon="5.90967">
        <ele>1449.58277535</ele>
        <time>2015-11-05T16:38:03Z</time>
      </trkpt>
      <trkpt lat="45.40516" lon="5.90955">
        <ele>1448.51352159</ele>
        <time>2015-11-05T16:38:13Z</time>
      </trkpt>
      <trkpt lat="45.40511" lon="5.90949">
        <ele>1448.51352159</ele>
        <time>2015-11-05T16:38:18Z</time>
      </trkpt>
      <trkpt lat="45.40504" lon="5.90938">
        <ele>1447.516945144</ele>
        <time>2015-11-05T16:38:29Z</time>
      </trkpt>
      <trkpt lat="45.40503" lon="5.90933">
        <ele>1447.516945144</ele>
        <time>2015-11-05T16:38:33Z</time>
      </trkpt>
      <trkpt lat="45.40498" lon="5.90921">
        <ele>1446.294958696</ele>
        <time>2015-11-05T16:38:44Z</time>
      </trkpt>
      <trkpt lat="45.40497" lon="5.90916">
        <ele>1446.294958696</ele>
        <time>2015-11-05T16:38:48Z</time>
      </trkpt>
      <trkpt lat="45.40492" lon="5.90902">
        <ele>1444.86037913</ele>
        <time>2015-11-05T16:38:58Z</time>
      </trkpt>
      <trkpt lat="45.40491" lon="5.909">
        <ele>1444.86037913</ele>
        <time>2015-11-05T16:39:03Z</time>
      </trkpt>
      <trkpt lat="45.40486" lon="5.90886">
        <ele>1444.09049827</ele>
        <time>2015-11-05T16:39:14Z</time>
      </trkpt>
      <trkpt lat="45.40483" lon="5.90881">
        <ele>1444.09049827</ele>
        <time>2015-11-05T16:39:18Z</time>
      </trkpt>
      <trkpt lat="45.40474" lon="5.90869">
        <ele>1443.211228429</ele>
        <time>2015-11-05T16:39:29Z</time>
      </trkpt>
      <trkpt lat="45.40471" lon="5.90863">
        <ele>1443.211228429</ele>
        <time>2015-11-05T16:39:33Z</time>
      </trkpt>
      <trkpt lat="45.40461" lon="5.90852">
        <ele>1442.802807732</ele>
        <time>2015-11-05T16:39:44Z</time>
      </trkpt>
      <trkpt lat="45.40457" lon="5.9085">
        <ele>1442.802807732</ele>
        <time>2015-11-05T16:39:48Z</time>
      </trkpt>
      <trkpt lat="45.4045" lon="5.90842">
        <ele>1442.969353378</ele>
        <time>2015-11-05T16:39:58Z</time>
      </trkpt>
      <trkpt lat="45.4045" lon="5.90835">
        <ele>1442.969353378</ele>
        <time>2015-11-05T16:40:04Z</time>
      </trkpt>
      <trkpt lat="45.4045" lon="5.90824">
        <ele>1443.085327403</ele>
        <time>2015-11-05T16:40:17Z</time>
      </trkpt>
      <trkpt lat="45.40449" lon="5.90824">
        <ele>1443.085327403</ele>
        <time>2015-11-05T16:40:24Z</time>
      </trkpt>
      <trkpt lat="45.40448" lon="5.90818">
        <ele>1443.085327403</ele>
        <time>2015-11-05T16:40:33Z</time>
      </trkpt>
      <trkpt lat="45.4045" lon="5.90813">
        <ele>1443.085327403</ele>
        <time>2015-11-05T16:40:38Z</time>
      </trkpt>
      <trkpt lat="45.40451" lon="5.90813">
        <ele>1442.571451943</ele>
        <time>2015-11-05T16:40:49Z</time>
      </trkpt>
      <trkpt lat="45.40451" lon="5.90813">
        <ele>1442.571451943</ele>
        <time>2015-11-05T16:40:52Z</time>
      </trkpt>
      <trkpt lat="45.40447" lon="5.90803">
        <ele>1442.571451943</ele>
        <time>2015-11-05T16:41:04Z</time>
      </trkpt>
      <trkpt lat="45.40443" lon="5.90801">
        <ele>1441.901718504</ele>
        <time>2015-11-05T16:41:08Z</time>
      </trkpt>
      <trkpt lat="45.4044" lon="5.90798">
        <ele>1441.901718504</ele>
        <time>2015-11-05T16:41:14Z</time>
      </trkpt>
      <trkpt lat="45.40437" lon="5.90793">
        <ele>1441.901718504</ele>
        <time>2015-11-05T16:41:24Z</time>
      </trkpt>
      <trkpt lat="45.40435" lon="5.9079">
        <ele>1441.804133503</ele>
        <time>2015-11-05T16:41:28Z</time>
      </trkpt>
      <trkpt lat="45.40433" lon="5.90777">
        <ele>1441.654795229</ele>
        <time>2015-11-05T16:41:39Z</time>
      </trkpt>
      <trkpt lat="45.4043" lon="5.90775">
        <ele>1441.654795229</ele>
        <time>2015-11-05T16:41:43Z</time>
      </trkpt>
      <trkpt lat="45.40428" lon="5.90769">
        <ele>1441.654795229</ele>
        <time>2015-11-05T16:41:53Z</time>
      </trkpt>
      <trkpt lat="45.40429" lon="5.90766">
        <ele>1441.308289211</ele>
        <time>2015-11-05T16:41:58Z</time>
      </trkpt>
      <trkpt lat="45.40429" lon="5.90762">
        <ele>1441.308289211</ele>
        <time>2015-11-05T16:42:09Z</time>
      </trkpt>
      <trkpt lat="45.40429" lon="5.90759">
        <ele>1441.308289211</ele>
        <time>2015-11-05T16:42:13Z</time>
      </trkpt>
      <trkpt lat="45.40429" lon="5.90757">
        <ele>1441.308289211</ele>
        <time>2015-11-05T16:42:23Z</time>
      </trkpt>
      <trkpt lat="45.40425" lon="5.90752">
        <ele>1440.342390586</ele>
        <time>2015-11-05T16:42:29Z</time>
      </trkpt>
      <trkpt lat="45.40419" lon="5.90744">
        <ele>1440.342390586</ele>
        <time>2015-11-05T16:42:39Z</time>
      </trkpt>
      <trkpt lat="45.40416" lon="5.9074">
        <ele>1439.088359135</ele>
        <time>2015-11-05T16:42:43Z</time>
      </trkpt>
      <trkpt lat="45.40415" lon="5.90736">
        <ele>1439.088359135</ele>
        <time>2015-11-05T16:42:54Z</time>
      </trkpt>
      <trkpt lat="45.40415" lon="5.90734">
        <ele>1439.088359135</ele>
        <time>2015-11-05T16:42:58Z</time>
      </trkpt>
      <trkpt lat="45.40415" lon="5.90734">
        <ele>1439.088359135</ele>
        <time>2015-11-05T16:43:03Z</time>
      </trkpt>
      <trkpt lat="45.40414" lon="5.90733">
        <ele>1439.088359135</ele>
        <time>2015-11-05T16:43:09Z</time>
      </trkpt>
      <trkpt lat="45.40415" lon="5.90731">
        <ele>1439.088359135</ele>
        <time>2015-11-05T16:43:13Z</time>
      </trkpt>
      <trkpt lat="45.40415" lon="5.9073">
        <ele>1439.088359135</ele>
        <time>2015-11-05T16:43:19Z</time>
      </trkpt>
      <trkpt lat="45.40416" lon="5.90726">
        <ele>1437.854099247</ele>
        <time>2015-11-05T16:43:28Z</time>
      </trkpt>
      <trkpt lat="45.40414" lon="5.90723">
        <ele>1437.854099247</ele>
        <time>2015-11-05T16:43:33Z</time>
      </trkpt>
      <trkpt lat="45.40414" lon="5.90721">
        <ele>1437.854099247</ele>
        <time>2015-11-05T16:43:43Z</time>
      </trkpt>
      <trkpt lat="45.40414" lon="5.90721">
        <ele>1437.854099247</ele>
        <time>2015-11-05T16:43:48Z</time>
      </trkpt>
      <trkpt lat="45.40409" lon="5.90714">
        <ele>1436.492671466</ele>
        <time>2015-11-05T16:43:58Z</time>
      </trkpt>
      <trkpt lat="45.40409" lon="5.90712">
        <ele>1436.492671466</ele>
        <time>2015-11-05T16:44:02Z</time>
      </trkpt>
      <trkpt lat="45.40408" lon="5.90703">
        <ele>1436.492671466</ele>
        <time>2015-11-05T16:44:14Z</time>
      </trkpt>
      <trkpt lat="45.40409" lon="5.90703">
        <ele>1436.492671466</ele>
        <time>2015-11-05T16:44:18Z</time>
      </trkpt>
      <trkpt lat="45.40409" lon="5.90703">
        <ele>1436.492671466</ele>
        <time>2015-11-05T16:44:29Z</time>
      </trkpt>
      <trkpt lat="45.40409" lon="5.90698">
        <ele>1435.300776181</ele>
        <time>2015-11-05T16:44:33Z</time>
      </trkpt>
      <trkpt lat="45.40409" lon="5.90694">
        <ele>1435.300776181</ele>
        <time>2015-11-05T16:44:44Z</time>
      </trkpt>
      <trkpt lat="45.4041" lon="5.90692">
        <ele>1435.300776181</ele>
        <time>2015-11-05T16:44:48Z</time>
      </trkpt>
      <trkpt lat="45.40408" lon="5.90684">
        <ele>1432.823653712</ele>
        <time>2015-11-05T16:44:59Z</time>
      </trkpt>
      <trkpt lat="45.40408" lon="5.90681">
        <ele>1432.823653712</ele>
        <time>2015-11-05T16:45:03Z</time>
      </trkpt>
      <trkpt lat="45.40404" lon="5.90666">
        <ele>1430.455261126</ele>
        <time>2015-11-05T16:45:19Z</time>
      </trkpt>
      <trkpt lat="45.40403" lon="5.90665">
        <ele>1430.455261126</ele>
        <time>2015-11-05T16:45:23Z</time>
      </trkpt>
      <trkpt lat="45.40404" lon="5.90665">
        <ele>1430.455261126</ele>
        <time>2015-11-05T16:45:34Z</time>
      </trkpt>
      <trkpt lat="45.40404" lon="5.90662">
        <ele>1430.455261126</ele>
        <time>2015-11-05T16:45:38Z</time>
      </trkpt>
      <trkpt lat="45.404" lon="5.90661">
        <ele>1428.189970779</ele>
        <time>2015-11-05T16:45:48Z</time>
      </trkpt>
      <trkpt lat="45.40399" lon="5.9066">
        <ele>1428.189970779</ele>
        <time>2015-11-05T16:45:53Z</time>
      </trkpt>
      <trkpt lat="45.40394" lon="5.90655">
        <ele>1428.189970779</ele>
        <time>2015-11-05T16:46:04Z</time>
      </trkpt>
      <trkpt lat="45.40394" lon="5.90654">
        <ele>1428.189970779</ele>
        <time>2015-11-05T16:46:08Z</time>
      </trkpt>
      <trkpt lat="45.40393" lon="5.90647">
        <ele>1425.013604928</ele>
        <time>2015-11-05T16:46:19Z</time>
      </trkpt>
      <trkpt lat="45.4039" lon="5.90645">
        <ele>1425.013604928</ele>
        <time>2015-11-05T16:46:23Z</time>
      </trkpt>
      <trkpt lat="45.40392" lon="5.90634">
        <ele>1422.006685277</ele>
        <time>2015-11-05T16:46:33Z</time>
      </trkpt>
      <trkpt lat="45.40392" lon="5.90632">
        <ele>1422.006685277</ele>
        <time>2015-11-05T16:46:39Z</time>
      </trkpt>
      <trkpt lat="45.40391" lon="5.90627">
        <ele>1422.006685277</ele>
        <time>2015-11-05T16:46:49Z</time>
      </trkpt>
      <trkpt lat="45.40389" lon="5.90625">
        <ele>1422.006685277</ele>
        <time>2015-11-05T16:46:53Z</time>
      </trkpt>
      <trkpt lat="45.40384" lon="5.90617">
        <ele>1418.008283137</ele>
        <time>2015-11-05T16:47:09Z</time>
      </trkpt>
      <trkpt lat="45.40383" lon="5.90615">
        <ele>1418.008283137</ele>
        <time>2015-11-05T16:47:13Z</time>
      </trkpt>
      <trkpt lat="45.40381" lon="5.90611">
        <ele>1418.008283137</ele>
        <time>2015-11-05T16:47:23Z</time>
      </trkpt>
      <trkpt lat="45.40381" lon="5.90611">
        <ele>1418.008283137</ele>
        <time>2015-11-05T16:47:29Z</time>
      </trkpt>
      <trkpt lat="45.40379" lon="5.90608">
        <ele>1418.008283137</ele>
        <time>2015-11-05T16:47:39Z</time>
      </trkpt>
      <trkpt lat="45.40378" lon="5.90608">
        <ele>1413.386689044</ele>
        <time>2015-11-05T16:47:43Z</time>
      </trkpt>
      <trkpt lat="45.40374" lon="5.906">
        <ele>1413.386689044</ele>
        <time>2015-11-05T16:47:53Z</time>
      </trkpt>
      <trkpt lat="45.40369" lon="5.90595">
        <ele>1409.061353414</ele>
        <time>2015-11-05T16:47:58Z</time>
      </trkpt>
      <trkpt lat="45.40371" lon="5.90592">
        <ele>1409.061353414</ele>
        <time>2015-11-05T16:48:09Z</time>
      </trkpt>
      <trkpt lat="45.40367" lon="5.90593">
        <ele>1409.061353414</ele>
        <time>2015-11-05T16:48:13Z</time>
      </trkpt>
      <trkpt lat="45.40368" lon="5.90594">
        <ele>1409.061353414</ele>
        <time>2015-11-05T16:48:24Z</time>
      </trkpt>
      <trkpt lat="45.40369" lon="5.90592">
        <ele>1404.442237967</ele>
        <time>2015-11-05T16:48:28Z</time>
      </trkpt>
      <trkpt lat="45.40363" lon="5.90584">
        <ele>1404.442237967</ele>
        <time>2015-11-05T16:48:39Z</time>
      </trkpt>
      <trkpt lat="45.40359" lon="5.90577">
        <ele>1399.415776065</ele>
        <time>2015-11-05T16:48:43Z</time>
      </trkpt>
      <trkpt lat="45.40358" lon="5.90574">
        <ele>1399.415776065</ele>
        <time>2015-11-05T16:48:53Z</time>
      </trkpt>
      <trkpt lat="45.40358" lon="5.90573">
        <ele>1399.415776065</ele>
        <time>2015-11-05T16:48:59Z</time>
      </trkpt>
      <trkpt lat="45.40352" lon="5.90572">
        <ele>1393.589607232</ele>
        <time>2015-11-05T16:49:09Z</time>
      </trkpt>
      <trkpt lat="45.40351" lon="5.9057">
        <ele>1393.589607232</ele>
        <time>2015-11-05T16:49:14Z</time>
      </trkpt>
      <trkpt lat="45.40359" lon="5.90564">
        <ele>1387.899354159</ele>
        <time>2015-11-05T16:49:24Z</time>
      </trkpt>
      <trkpt lat="45.40357" lon="5.90564">
        <ele>1387.899354159</ele>
        <time>2015-11-05T16:49:29Z</time>
      </trkpt>
      <trkpt lat="45.40353" lon="5.90553">
        <ele>1383.643753694</ele>
        <time>2015-11-05T16:49:39Z</time>
      </trkpt>
      <trkpt lat="45.40352" lon="5.90553">
        <ele>1383.643753694</ele>
        <time>2015-11-05T16:49:43Z</time>
      </trkpt>
      <trkpt lat="45.40351" lon="5.90552">
        <ele>1383.643753694</ele>
        <time>2015-11-05T16:49:48Z</time>
      </trkpt>
      <trkpt lat="45.4035" lon="5.90551">
        <ele>1383.643753694</ele>
        <time>2015-11-05T16:49:58Z</time>
      </trkpt>
      <trkpt lat="45.4035" lon="5.90551">
        <ele>1383.643753694</ele>
        <time>2015-11-05T16:50:02Z</time>
      </trkpt>
      <trkpt lat="45.40346" lon="5.90543">
        <ele>1378.995648472</ele>
        <time>2015-11-05T16:50:14Z</time>
      </trkpt>
      <trkpt lat="45.40344" lon="5.90544">
        <ele>1378.995648472</ele>
        <time>2015-11-05T16:50:18Z</time>
      </trkpt>
      <trkpt lat="45.40344" lon="5.90542">
        <ele>1378.995648472</ele>
        <time>2015-11-05T16:50:29Z</time>
      </trkpt>
      <trkpt lat="45.40342" lon="5.9054">
        <ele>1378.995648472</ele>
        <time>2015-11-05T16:50:33Z</time>
      </trkpt>
      <trkpt lat="45.40341" lon="5.9054">
        <ele>1378.995648472</ele>
        <time>2015-11-05T16:50:44Z</time>
      </trkpt>
      <trkpt lat="45.4034" lon="5.90539">
        <ele>1378.995648472</ele>
        <time>2015-11-05T16:50:48Z</time>
      </trkpt>
      <trkpt lat="45.40337" lon="5.90539">
        <ele>1373.848276303</ele>
        <time>2015-11-05T16:50:59Z</time>
      </trkpt>
      <trkpt lat="45.40336" lon="5.90539">
        <ele>1373.848276303</ele>
        <time>2015-11-05T16:51:03Z</time>
      </trkpt>
      <trkpt lat="45.40336" lon="5.90539">
        <ele>1373.848276303</ele>
        <time>2015-11-05T16:51:13Z</time>
      </trkpt>
      <trkpt lat="45.40333" lon="5.90536">
        <ele>1373.848276303</ele>
        <time>2015-11-05T16:51:18Z</time>
      </trkpt>
      <trkpt lat="45.40329" lon="5.90523">
        <ele>1368.536284387</ele>
        <time>2015-11-05T16:51:28Z</time>
      </trkpt>
      <trkpt lat="45.40329" lon="5.90522">
        <ele>1368.536284387</ele>
        <time>2015-11-05T16:51:33Z</time>
      </trkpt>
      <trkpt lat="45.40334" lon="5.90523">
        <ele>1368.536284387</ele>
        <time>2015-11-05T16:51:43Z</time>
      </trkpt>
      <trkpt lat="45.40337" lon="5.90519">
        <ele>1362.7935709</ele>
        <time>2015-11-05T16:51:49Z</time>
      </trkpt>
      <trkpt lat="45.40339" lon="5.90508">
        <ele>1362.7935709</ele>
        <time>2015-11-05T16:52:04Z</time>
      </trkpt>
      <trkpt lat="45.40344" lon="5.90513">
        <ele>1356.518700589</ele>
        <time>2015-11-05T16:52:14Z</time>
      </trkpt>
      <trkpt lat="45.40345" lon="5.90513">
        <ele>1356.518700589</ele>
        <time>2015-11-05T16:52:18Z</time>
      </trkpt>
      <trkpt lat="45.40345" lon="5.90512">
        <ele>1356.518700589</ele>
        <time>2015-11-05T16:52:24Z</time>
      </trkpt>
      <trkpt lat="45.40348" lon="5.90507">
        <ele>1356.518700589</ele>
        <time>2015-11-05T16:52:34Z</time>
      </trkpt>
      <trkpt lat="45.40348" lon="5.90508">
        <ele>1356.518700589</ele>
        <time>2015-11-05T16:52:38Z</time>
      </trkpt>
      <trkpt lat="45.40348" lon="5.90508">
        <ele>1356.518700589</ele>
        <time>2015-11-05T16:52:49Z</time>
      </trkpt>
      <trkpt lat="45.40353" lon="5.90502">
        <ele>1351.92474537</ele>
        <time>2015-11-05T16:52:53Z</time>
      </trkpt>
      <trkpt lat="45.40354" lon="5.90504">
        <ele>1351.92474537</ele>
        <time>2015-11-05T16:53:04Z</time>
      </trkpt>
      <trkpt lat="45.40357" lon="5.905">
        <ele>1351.92474537</ele>
        <time>2015-11-05T16:53:08Z</time>
      </trkpt>
      <trkpt lat="45.40358" lon="5.90507">
        <ele>1347.166259961</ele>
        <time>2015-11-05T16:53:18Z</time>
      </trkpt>
      <trkpt lat="45.40358" lon="5.90507">
        <ele>1347.166259961</ele>
        <time>2015-11-05T16:53:22Z</time>
      </trkpt>
      <trkpt lat="45.4036" lon="5.90505">
        <ele>1347.166259961</ele>
        <time>2015-11-05T16:53:38Z</time>
      </trkpt>
      <trkpt lat="45.40361" lon="5.90504">
        <ele>1347.166259961</ele>
        <time>2015-11-05T16:53:43Z</time>
      </trkpt>
      <trkpt lat="45.4036" lon="5.90501">
        <ele>1347.166259961</ele>
        <time>2015-11-05T16:53:53Z</time>
      </trkpt>
      <trkpt lat="45.4036" lon="5.90501">
        <ele>1347.166259961</ele>
        <time>2015-11-05T16:53:58Z</time>
      </trkpt>
      <trkpt lat="45.40357" lon="5.90497">
        <ele>1341.542363115</ele>
        <time>2015-11-05T16:54:08Z</time>
      </trkpt>
      <trkpt lat="45.40353" lon="5.90491">
        <ele>1341.542363115</ele>
        <time>2015-11-05T16:54:13Z</time>
      </trkpt>
      <trkpt lat="45.40354" lon="5.90484">
        <ele>1336.27928344</ele>
        <time>2015-11-05T16:54:23Z</time>
      </trkpt>
      <trkpt lat="45.40356" lon="5.90481">
        <ele>1336.27928344</ele>
        <time>2015-11-05T16:54:28Z</time>
      </trkpt>
      <trkpt lat="45.4036" lon="5.90478">
        <ele>1336.27928344</ele>
        <time>2015-11-05T16:54:39Z</time>
      </trkpt>
      <trkpt lat="45.4036" lon="5.90473">
        <ele>1330.926680652</ele>
        <time>2015-11-05T16:54:43Z</time>
      </trkpt>
      <trkpt lat="45.40366" lon="5.90467">
        <ele>1330.926680652</ele>
        <time>2015-11-05T16:54:54Z</time>
      </trkpt>
      <trkpt lat="45.40366" lon="5.90467">
        <ele>1330.926680652</ele>
        <time>2015-11-05T16:54:58Z</time>
      </trkpt>
      <trkpt lat="45.40365" lon="5.90469">
        <ele>1330.926680652</ele>
        <time>2015-11-05T16:55:08Z</time>
      </trkpt>
      <trkpt lat="45.40366" lon="5.90469">
        <ele>1325.787841192</ele>
        <time>2015-11-05T16:55:13Z</time>
      </trkpt>
      <trkpt lat="45.40366" lon="5.90469">
        <ele>1325.787841192</ele>
        <time>2015-11-05T16:55:24Z</time>
      </trkpt>
      <trkpt lat="45.40366" lon="5.90469">
        <ele>1325.787841192</ele>
        <time>2015-11-05T16:55:28Z</time>
      </trkpt>
      <trkpt lat="45.40361" lon="5.90465">
        <ele>1325.787841192</ele>
        <time>2015-11-05T16:55:39Z</time>
      </trkpt>
      <trkpt lat="45.40361" lon="5.90465">
        <ele>1325.787841192</ele>
        <time>2015-11-05T16:55:43Z</time>
      </trkpt>
      <trkpt lat="45.40363" lon="5.90461">
        <ele>1319.845903477</ele>
        <time>2015-11-05T16:55:59Z</time>
      </trkpt>
      <trkpt lat="45.40363" lon="5.90454">
        <ele>1319.845903477</ele>
        <time>2015-11-05T16:56:03Z</time>
      </trkpt>
      <trkpt lat="45.40363" lon="5.90452">
        <ele>1319.845903477</ele>
        <time>2015-11-05T16:56:14Z</time>
      </trkpt>
      <trkpt lat="45.40363" lon="5.90452">
        <ele>1319.845903477</ele>
        <time>2015-11-05T16:56:18Z</time>
      </trkpt>
      <trkpt lat="45.40363" lon="5.90452">
        <ele>1319.845903477</ele>
        <time>2015-11-05T16:56:27Z</time>
      </trkpt>
      <trkpt lat="45.40363" lon="5.90451">
        <ele>1319.845903477</ele>
        <time>2015-11-05T16:56:34Z</time>
      </trkpt>
      <trkpt lat="45.40362" lon="5.9044">
        <ele>1314.754685125</ele>
        <time>2015-11-05T16:56:43Z</time>
      </trkpt>
      <trkpt lat="45.40361" lon="5.90438">
        <ele>1314.754685125</ele>
        <time>2015-11-05T16:56:49Z</time>
      </trkpt>
      <trkpt lat="45.40361" lon="5.90435">
        <ele>1314.754685125</ele>
        <time>2015-11-05T16:56:59Z</time>
      </trkpt>
      <trkpt lat="45.40361" lon="5.90435">
        <ele>1314.754685125</ele>
        <time>2015-11-05T16:57:03Z</time>
      </trkpt>
      <trkpt lat="45.40361" lon="5.90435">
        <ele>1314.754685125</ele>
        <time>2015-11-05T16:57:13Z</time>
      </trkpt>
      <trkpt lat="45.40359" lon="5.90434">
        <ele>1314.754685125</ele>
        <time>2015-11-05T16:57:18Z</time>
      </trkpt>
      <trkpt lat="45.40354" lon="5.90432">
        <ele>1308.729294302</ele>
        <time>2015-11-05T16:57:29Z</time>
      </trkpt>
      <trkpt lat="45.40353" lon="5.90433">
        <ele>1308.729294302</ele>
        <time>2015-11-05T16:57:33Z</time>
      </trkpt>
      <trkpt lat="45.40353" lon="5.90432">
        <ele>1308.729294302</ele>
        <time>2015-11-05T16:57:43Z</time>
      </trkpt>
      <trkpt lat="45.40353" lon="5.90432">
        <ele>1308.729294302</ele>
        <time>2015-11-05T16:57:48Z</time>
      </trkpt>
      <trkpt lat="45.40341" lon="5.9042">
        <ele>1302.568184417</ele>
        <time>2015-11-05T16:58:03Z</time>
      </trkpt>
      <trkpt lat="45.40342" lon="5.90416">
        <ele>1302.568184417</ele>
        <time>2015-11-05T16:58:08Z</time>
      </trkpt>
      <trkpt lat="45.40343" lon="5.90414">
        <ele>1302.568184417</ele>
        <time>2015-11-05T16:58:19Z</time>
      </trkpt>
      <trkpt lat="45.40343" lon="5.90414">
        <ele>1302.568184417</ele>
        <time>2015-11-05T16:58:23Z</time>
      </trkpt>
      <trkpt lat="45.40339" lon="5.90407">
        <ele>1297.011249442</ele>
        <time>2015-11-05T16:58:33Z</time>
      </trkpt>
      <trkpt lat="45.40338" lon="5.90405">
        <ele>1297.011249442</ele>
        <time>2015-11-05T16:58:38Z</time>
      </trkpt>
      <trkpt lat="45.40338" lon="5.90406">
        <ele>1297.011249442</ele>
        <time>2015-11-05T16:58:48Z</time>
      </trkpt>
      <trkpt lat="45.40338" lon="5.90405">
        <ele>1297.011249442</ele>
        <time>2015-11-05T16:58:53Z</time>
      </trkpt>
      <trkpt lat="45.40338" lon="5.90405">
        <ele>1297.011249442</ele>
        <time>2015-11-05T16:59:03Z</time>
      </trkpt>
      <trkpt lat="45.40338" lon="5.90405">
        <ele>1297.011249442</ele>
        <time>2015-11-05T16:59:08Z</time>
      </trkpt>
      <trkpt lat="45.40338" lon="5.90405">
        <ele>1297.011249442</ele>
        <time>2015-11-05T16:59:23Z</time>
      </trkpt>
      <trkpt lat="45.40338" lon="5.90405">
        <ele>1297.011249442</ele>
        <time>2015-11-05T16:59:28Z</time>
      </trkpt>
      <trkpt lat="45.40338" lon="5.90405">
        <ele>1297.011249442</ele>
        <time>2015-11-05T16:59:38Z</time>
      </trkpt>
      <trkpt lat="45.40338" lon="5.90405">
        <ele>1297.011249442</ele>
        <time>2015-11-05T16:59:42Z</time>
      </trkpt>
      <trkpt lat="45.40338" lon="5.90389">
        <ele>1291.300935163</ele>
        <time>2015-11-05T16:59:53Z</time>
      </trkpt>
      <trkpt lat="45.40338" lon="5.90388">
        <ele>1291.300935163</ele>
        <time>2015-11-05T16:59:59Z</time>
      </trkpt>
      <trkpt lat="45.40341" lon="5.90375">
        <ele>1286.032476353</ele>
        <time>2015-11-05T17:00:08Z</time>
      </trkpt>
      <trkpt lat="45.40341" lon="5.90372">
        <ele>1286.032476353</ele>
        <time>2015-11-05T17:00:13Z</time>
      </trkpt>
      <trkpt lat="45.4034" lon="5.90367">
        <ele>1286.032476353</ele>
        <time>2015-11-05T17:00:23Z</time>
      </trkpt>
      <trkpt lat="45.40341" lon="5.90367">
        <ele>1286.032476353</ele>
        <time>2015-11-05T17:00:28Z</time>
      </trkpt>
      <trkpt lat="45.40344" lon="5.90358">
        <ele>1281.46763077</ele>
        <time>2015-11-05T17:00:38Z</time>
      </trkpt>
      <trkpt lat="45.40346" lon="5.90359">
        <ele>1281.46763077</ele>
        <time>2015-11-05T17:00:43Z</time>
      </trkpt>
      <trkpt lat="45.40347" lon="5.90354">
        <ele>1281.46763077</ele>
        <time>2015-11-05T17:00:53Z</time>
      </trkpt>
      <trkpt lat="45.40347" lon="5.90354">
        <ele>1281.46763077</ele>
        <time>2015-11-05T17:00:58Z</time>
      </trkpt>
      <trkpt lat="45.40347" lon="5.90354">
        <ele>1281.46763077</ele>
        <time>2015-11-05T17:01:08Z</time>
      </trkpt>
      <trkpt lat="45.40353" lon="5.90348">
        <ele>1276.549667929</ele>
        <time>2015-11-05T17:01:13Z</time>
      </trkpt>
      <trkpt lat="45.40353" lon="5.90338">
        <ele>1276.549667929</ele>
        <time>2015-11-05T17:01:23Z</time>
      </trkpt>
      <trkpt lat="45.40353" lon="5.90338">
        <ele>1276.549667929</ele>
        <time>2015-11-05T17:01:28Z</time>
      </trkpt>
      <trkpt lat="45.40353" lon="5.90338">
        <ele>1276.549667929</ele>
        <time>2015-11-05T17:01:38Z</time>
      </trkpt>
      <trkpt lat="45.40353" lon="5.90338">
        <ele>1276.549667929</ele>
        <time>2015-11-05T17:01:43Z</time>
      </trkpt>
      <trkpt lat="45.40349" lon="5.90329">
        <ele>1272.173641932</ele>
        <time>2015-11-05T17:01:54Z</time>
      </trkpt>
      <trkpt lat="45.40348" lon="5.90324">
        <ele>1272.173641932</ele>
        <time>2015-11-05T17:01:59Z</time>
      </trkpt>
      <trkpt lat="45.40351" lon="5.90315">
        <ele>1266.717176388</ele>
        <time>2015-11-05T17:02:08Z</time>
      </trkpt>
      <trkpt lat="45.4035" lon="5.90312">
        <ele>1266.717176388</ele>
        <time>2015-11-05T17:02:13Z</time>
      </trkpt>
      <trkpt lat="45.40346" lon="5.90294">
        <ele>1261.994400457</ele>
        <time>2015-11-05T17:02:29Z</time>
      </trkpt>
      <trkpt lat="45.40344" lon="5.90295">
        <ele>1261.994400457</ele>
        <time>2015-11-05T17:02:33Z</time>
      </trkpt>
      <trkpt lat="45.40345" lon="5.90297">
        <ele>1261.994400457</ele>
        <time>2015-11-05T17:02:43Z</time>
      </trkpt>
      <trkpt lat="45.40346" lon="5.90298">
        <ele>1261.994400457</ele>
        <time>2015-11-05T17:02:47Z</time>
      </trkpt>
      <trkpt lat="45.4035" lon="5.90295">
        <ele>1257.089866496</ele>
        <time>2015-11-05T17:02:58Z</time>
      </trkpt>
      <trkpt lat="45.40351" lon="5.90294">
        <ele>1257.089866496</ele>
        <time>2015-11-05T17:03:03Z</time>
      </trkpt>
      <trkpt lat="45.40351" lon="5.90294">
        <ele>1257.089866496</ele>
        <time>2015-11-05T17:03:13Z</time>
      </trkpt>
      <trkpt lat="45.40351" lon="5.90294">
        <ele>1257.089866496</ele>
        <time>2015-11-05T17:03:18Z</time>
      </trkpt>
      <trkpt lat="45.40332" lon="5.90303">
        <ele>1251.876195843</ele>
        <time>2015-11-05T17:03:28Z</time>
      </trkpt>
      <trkpt lat="45.40323" lon="5.90302">
        <ele>1247.24477553</ele>
        <time>2015-11-05T17:03:33Z</time>
      </trkpt>
      <trkpt lat="45.40318" lon="5.90297">
        <ele>1247.24477553</ele>
        <time>2015-11-05T17:03:43Z</time>
      </trkpt>
      <trkpt lat="45.40314" lon="5.90293">
        <ele>1242.722650274</ele>
        <time>2015-11-05T17:03:49Z</time>
      </trkpt>
      <trkpt lat="45.40311" lon="5.90279">
        <ele>1237.871082621</ele>
        <time>2015-11-05T17:03:59Z</time>
      </trkpt>
      <trkpt lat="45.40314" lon="5.90274">
        <ele>1237.871082621</ele>
        <time>2015-11-05T17:04:03Z</time>
      </trkpt>
      <trkpt lat="45.40321" lon="5.90259">
        <ele>1232.71661267</ele>
        <time>2015-11-05T17:04:13Z</time>
      </trkpt>
      <trkpt lat="45.40319" lon="5.90254">
        <ele>1232.71661267</ele>
        <time>2015-11-05T17:04:18Z</time>
      </trkpt>
      <trkpt lat="45.40319" lon="5.90249">
        <ele>1232.71661267</ele>
        <time>2015-11-05T17:04:29Z</time>
      </trkpt>
      <trkpt lat="45.40317" lon="5.90246">
        <ele>1229.446150798</ele>
        <time>2015-11-05T17:04:33Z</time>
      </trkpt>
      <trkpt lat="45.40317" lon="5.90246">
        <ele>1229.446150798</ele>
        <time>2015-11-05T17:04:44Z</time>
      </trkpt>
      <trkpt lat="45.40317" lon="5.90246">
        <ele>1229.446150798</ele>
        <time>2015-11-05T17:04:48Z</time>
      </trkpt>
      <trkpt lat="45.40317" lon="5.90246">
        <ele>1229.446150798</ele>
        <time>2015-11-05T17:04:59Z</time>
      </trkpt>
      <trkpt lat="45.40317" lon="5.90245">
        <ele>1229.446150798</ele>
        <time>2015-11-05T17:05:03Z</time>
      </trkpt>
      <trkpt lat="45.40318" lon="5.90239">
        <ele>1229.446150798</ele>
        <time>2015-11-05T17:05:14Z</time>
      </trkpt>
      <trkpt lat="45.40316" lon="5.90235">
        <ele>1229.446150798</ele>
        <time>2015-11-05T17:05:18Z</time>
      </trkpt>
      <trkpt lat="45.40313" lon="5.90221">
        <ele>1225.4689304</ele>
        <time>2015-11-05T17:05:33Z</time>
      </trkpt>
      <trkpt lat="45.40313" lon="5.90218">
        <ele>1225.4689304</ele>
        <time>2015-11-05T17:05:38Z</time>
      </trkpt>
      <trkpt lat="45.40312" lon="5.90216">
        <ele>1225.4689304</ele>
        <time>2015-11-05T17:05:47Z</time>
      </trkpt>
      <trkpt lat="45.40313" lon="5.90207">
        <ele>1221.124423505</ele>
        <time>2015-11-05T17:05:54Z</time>
      </trkpt>
      <trkpt lat="45.40315" lon="5.90194">
        <ele>1216.728036441</ele>
        <time>2015-11-05T17:06:04Z</time>
      </trkpt>
      <trkpt lat="45.40312" lon="5.90187">
        <ele>1216.728036441</ele>
        <time>2015-11-05T17:06:08Z</time>
      </trkpt>
      <trkpt lat="45.40316" lon="5.90182">
        <ele>1212.716118225</ele>
        <time>2015-11-05T17:06:17Z</time>
      </trkpt>
      <trkpt lat="45.40316" lon="5.9018">
        <ele>1212.716118225</ele>
        <time>2015-11-05T17:06:22Z</time>
      </trkpt>
      <trkpt lat="45.40312" lon="5.90171">
        <ele>1212.716118225</ele>
        <time>2015-11-05T17:06:33Z</time>
      </trkpt>
      <trkpt lat="45.40315" lon="5.90177">
        <ele>1209.779977387</ele>
        <time>2015-11-05T17:06:44Z</time>
      </trkpt>
      <trkpt lat="45.40315" lon="5.90177">
        <ele>1209.779977387</ele>
        <time>2015-11-05T17:06:48Z</time>
      </trkpt>
      <trkpt lat="45.40315" lon="5.90177">
        <ele>1209.779977387</ele>
        <time>2015-11-05T17:07:03Z</time>
      </trkpt>
      <trkpt lat="45.40316" lon="5.90174">
        <ele>1209.779977387</ele>
        <time>2015-11-05T17:07:08Z</time>
      </trkpt>
      <trkpt lat="45.40323" lon="5.9016">
        <ele>1206.395337935</ele>
        <time>2015-11-05T17:07:19Z</time>
      </trkpt>
      <trkpt lat="45.40323" lon="5.90155">
        <ele>1206.395337935</ele>
        <time>2015-11-05T17:07:23Z</time>
      </trkpt>
      <trkpt lat="45.40329" lon="5.9015">
        <ele>1203.600945149</ele>
        <time>2015-11-05T17:07:34Z</time>
      </trkpt>
      <trkpt lat="45.40331" lon="5.90144">
        <ele>1203.600945149</ele>
        <time>2015-11-05T17:07:38Z</time>
      </trkpt>
      <trkpt lat="45.40327" lon="5.90139">
        <ele>1201.492836359</ele>
        <time>2015-11-05T17:07:49Z</time>
      </trkpt>
      <trkpt lat="45.40327" lon="5.90138">
        <ele>1201.492836359</ele>
        <time>2015-11-05T17:07:53Z</time>
      </trkpt>
      <trkpt lat="45.40326" lon="5.90132">
        <ele>1201.492836359</ele>
        <time>2015-11-05T17:08:04Z</time>
      </trkpt>
      <trkpt lat="45.40326" lon="5.90128">
        <ele>1201.492836359</ele>
        <time>2015-11-05T17:08:08Z</time>
      </trkpt>
      <trkpt lat="45.40325" lon="5.9011">
        <ele>1198.572786136</ele>
        <time>2015-11-05T17:08:19Z</time>
      </trkpt>
      <trkpt lat="45.40325" lon="5.90108">
        <ele>1198.572786136</ele>
        <time>2015-11-05T17:08:23Z</time>
      </trkpt>
      <trkpt lat="45.40327" lon="5.90095">
        <ele>1195.184198111</ele>
        <time>2015-11-05T17:08:33Z</time>
      </trkpt>
      <trkpt lat="45.40327" lon="5.90092">
        <ele>1195.184198111</ele>
        <time>2015-11-05T17:08:38Z</time>
      </trkpt>
      <trkpt lat="45.40326" lon="5.90077">
        <ele>1192.655319314</ele>
        <time>2015-11-05T17:08:54Z</time>
      </trkpt>
      <trkpt lat="45.40328" lon="5.90071">
        <ele>1192.655319314</ele>
        <time>2015-11-05T17:08:58Z</time>
      </trkpt>
      <trkpt lat="45.40327" lon="5.90065">
        <ele>1192.655319314</ele>
        <time>2015-11-05T17:09:08Z</time>
      </trkpt>
      <trkpt lat="45.40327" lon="5.90064">
        <ele>1190.485073159</ele>
        <time>2015-11-05T17:09:13Z</time>
      </trkpt>
      <trkpt lat="45.40328" lon="5.90065">
        <ele>1190.485073159</ele>
        <time>2015-11-05T17:09:23Z</time>
      </trkpt>
      <trkpt lat="45.40327" lon="5.90063">
        <ele>1190.485073159</ele>
        <time>2015-11-05T17:09:29Z</time>
      </trkpt>
      <trkpt lat="45.40325" lon="5.90059">
        <ele>1190.485073159</ele>
        <time>2015-11-05T17:09:38Z</time>
      </trkpt>
      <trkpt lat="45.40327" lon="5.90056">
        <ele>1190.485073159</ele>
        <time>2015-11-05T17:09:44Z</time>
      </trkpt>
      <trkpt lat="45.4033" lon="5.90051">
        <ele>1188.208196168</ele>
        <time>2015-11-05T17:09:54Z</time>
      </trkpt>
      <trkpt lat="45.40329" lon="5.90047">
        <ele>1188.208196168</ele>
        <time>2015-11-05T17:09:58Z</time>
      </trkpt>
      <trkpt lat="45.40333" lon="5.9005">
        <ele>1188.208196168</ele>
        <time>2015-11-05T17:10:09Z</time>
      </trkpt>
      <trkpt lat="45.40333" lon="5.90049">
        <ele>1188.208196168</ele>
        <time>2015-11-05T17:10:13Z</time>
      </trkpt>
      <trkpt lat="45.40333" lon="5.90042">
        <ele>1185.105705029</ele>
        <time>2015-11-05T17:10:23Z</time>
      </trkpt>
      <trkpt lat="45.40332" lon="5.90033">
        <ele>1185.105705029</ele>
        <time>2015-11-05T17:10:28Z</time>
      </trkpt>
      <trkpt lat="45.40334" lon="5.90019">
        <ele>1182.243122752</ele>
        <time>2015-11-05T17:10:43Z</time>
      </trkpt>
      <trkpt lat="45.40334" lon="5.90017">
        <ele>1182.243122752</ele>
        <time>2015-11-05T17:10:49Z</time>
      </trkpt>
      <trkpt lat="45.40334" lon="5.90012">
        <ele>1182.243122752</ele>
        <time>2015-11-05T17:10:58Z</time>
      </trkpt>
      <trkpt lat="45.40333" lon="5.90011">
        <ele>1182.243122752</ele>
        <time>2015-11-05T17:11:04Z</time>
      </trkpt>
      <trkpt lat="45.40334" lon="5.90006">
        <ele>1179.598301398</ele>
        <time>2015-11-05T17:11:14Z</time>
      </trkpt>
      <trkpt lat="45.40334" lon="5.90005">
        <ele>1179.598301398</ele>
        <time>2015-11-05T17:11:18Z</time>
      </trkpt>
      <trkpt lat="45.40334" lon="5.90005">
        <ele>1179.598301398</ele>
        <time>2015-11-05T17:11:28Z</time>
      </trkpt>
      <trkpt lat="45.40334" lon="5.90005">
        <ele>1179.598301398</ele>
        <time>2015-11-05T17:11:33Z</time>
      </trkpt>
      <trkpt lat="45.40338" lon="5.89998">
        <ele>1179.598301398</ele>
        <time>2015-11-05T17:11:42Z</time>
      </trkpt>
      <trkpt lat="45.40338" lon="5.89998">
        <ele>1179.598301398</ele>
        <time>2015-11-05T17:11:47Z</time>
      </trkpt>
      <trkpt lat="45.40338" lon="5.89997">
        <ele>1179.598301398</ele>
        <time>2015-11-05T17:11:52Z</time>
      </trkpt>
      <trkpt lat="45.40338" lon="5.89997">
        <ele>1179.598301398</ele>
        <time>2015-11-05T17:11:57Z</time>
      </trkpt>
      <trkpt lat="45.40338" lon="5.89997">
        <ele>1179.598301398</ele>
        <time>2015-11-05T17:12:02Z</time>
      </trkpt>
      <trkpt lat="45.40338" lon="5.89994">
        <ele>1176.573727359</ele>
        <time>2015-11-05T17:12:12Z</time>
      </trkpt>
      <trkpt lat="45.40339" lon="5.89983">
        <ele>1176.573727359</ele>
        <time>2015-11-05T17:12:17Z</time>
      </trkpt>
      <trkpt lat="45.40343" lon="5.89968">
        <ele>1173.193360631</ele>
        <time>2015-11-05T17:12:29Z</time>
      </trkpt>
      <trkpt lat="45.40344" lon="5.89967">
        <ele>1173.193360631</ele>
        <time>2015-11-05T17:12:32Z</time>
      </trkpt>
      <trkpt lat="45.40346" lon="5.89957">
        <ele>1173.193360631</ele>
        <time>2015-11-05T17:12:43Z</time>
      </trkpt>
      <trkpt lat="45.40346" lon="5.89954">
        <ele>1167.895250083</ele>
        <time>2015-11-05T17:12:48Z</time>
      </trkpt>
      <trkpt lat="45.40348" lon="5.89947">
        <ele>1167.895250083</ele>
        <time>2015-11-05T17:12:58Z</time>
      </trkpt>
      <trkpt lat="45.4035" lon="5.89943">
        <ele>1167.895250083</ele>
        <time>2015-11-05T17:13:03Z</time>
      </trkpt>
      <trkpt lat="45.40351" lon="5.89936">
        <ele>1163.560973649</ele>
        <time>2015-11-05T17:13:12Z</time>
      </trkpt>
      <trkpt lat="45.40352" lon="5.89935">
        <ele>1163.560973649</ele>
        <time>2015-11-05T17:13:18Z</time>
      </trkpt>
      <trkpt lat="45.40359" lon="5.89925">
        <ele>1159.687352142</ele>
        <time>2015-11-05T17:13:29Z</time>
      </trkpt>
      <trkpt lat="45.40364" lon="5.89919">
        <ele>1159.687352142</ele>
        <time>2015-11-05T17:13:32Z</time>
      </trkpt>
      <trkpt lat="45.40366" lon="5.899">
        <ele>1155.662832803</ele>
        <time>2015-11-05T17:13:43Z</time>
      </trkpt>
      <trkpt lat="45.40369" lon="5.89889">
        <ele>1155.662832803</ele>
        <time>2015-11-05T17:13:48Z</time>
      </trkpt>
      <trkpt lat="45.40372" lon="5.89877">
        <ele>1153.22705398</ele>
        <time>2015-11-05T17:13:58Z</time>
      </trkpt>
      <trkpt lat="45.40377" lon="5.89872">
        <ele>1153.22705398</ele>
        <time>2015-11-05T17:14:04Z</time>
      </trkpt>
      <trkpt lat="45.4038" lon="5.89859">
        <ele>1150.528802888</ele>
        <time>2015-11-05T17:14:18Z</time>
      </trkpt>
      <trkpt lat="45.40381" lon="5.89847">
        <ele>1150.528802888</ele>
        <time>2015-11-05T17:14:32Z</time>
      </trkpt>
      <trkpt lat="45.40381" lon="5.89841">
        <ele>1147.150662579</ele>
        <time>2015-11-05T17:14:38Z</time>
      </trkpt>
      <trkpt lat="45.40386" lon="5.89824">
        <ele>1143.284304931</ele>
        <time>2015-11-05T17:14:49Z</time>
      </trkpt>
      <trkpt lat="45.40387" lon="5.89817">
        <ele>1143.284304931</ele>
        <time>2015-11-05T17:14:52Z</time>
      </trkpt>
      <trkpt lat="45.40387" lon="5.89806">
        <ele>1140.11754709</ele>
        <time>2015-11-05T17:15:02Z</time>
      </trkpt>
      <trkpt lat="45.40389" lon="5.89794">
        <ele>1140.11754709</ele>
        <time>2015-11-05T17:15:08Z</time>
      </trkpt>
      <trkpt lat="45.40396" lon="5.89782">
        <ele>1137.163844052</ele>
        <time>2015-11-05T17:15:17Z</time>
      </trkpt>
      <trkpt lat="45.40398" lon="5.89776">
        <ele>1137.163844052</ele>
        <time>2015-11-05T17:15:22Z</time>
      </trkpt>
      <trkpt lat="45.404" lon="5.89764">
        <ele>1134.836543576</ele>
        <time>2015-11-05T17:15:32Z</time>
      </trkpt>
      <trkpt lat="45.40402" lon="5.89757">
        <ele>1134.836543576</ele>
        <time>2015-11-05T17:15:37Z</time>
      </trkpt>
      <trkpt lat="45.40407" lon="5.89743">
        <ele>1133.228737042</ele>
        <time>2015-11-05T17:15:47Z</time>
      </trkpt>
      <trkpt lat="45.40408" lon="5.89733">
        <ele>1133.228737042</ele>
        <time>2015-11-05T17:15:52Z</time>
      </trkpt>
      <trkpt lat="45.40415" lon="5.89712">
        <ele>1131.12775343</ele>
        <time>2015-11-05T17:16:09Z</time>
      </trkpt>
      <trkpt lat="45.40419" lon="5.89707">
        <ele>1131.12775343</ele>
        <time>2015-11-05T17:16:13Z</time>
      </trkpt>
      <trkpt lat="45.40423" lon="5.89692">
        <ele>1128.276156889</ele>
        <time>2015-11-05T17:16:23Z</time>
      </trkpt>
      <trkpt lat="45.40423" lon="5.89684">
        <ele>1128.276156889</ele>
        <time>2015-11-05T17:16:28Z</time>
      </trkpt>
      <trkpt lat="45.40425" lon="5.89678">
        <ele>1126.022861796</ele>
        <time>2015-11-05T17:16:37Z</time>
      </trkpt>
      <trkpt lat="45.40427" lon="5.89671">
        <ele>1126.022861796</ele>
        <time>2015-11-05T17:16:43Z</time>
      </trkpt>
      <trkpt lat="45.40436" lon="5.89659">
        <ele>1123.310351171</ele>
        <time>2015-11-05T17:16:54Z</time>
      </trkpt>
      <trkpt lat="45.40436" lon="5.89657">
        <ele>1123.310351171</ele>
        <time>2015-11-05T17:16:58Z</time>
      </trkpt>
      <trkpt lat="45.40438" lon="5.89636">
        <ele>1120.457200501</ele>
        <time>2015-11-05T17:17:09Z</time>
      </trkpt>
      <trkpt lat="45.4044" lon="5.89629">
        <ele>1120.457200501</ele>
        <time>2015-11-05T17:17:13Z</time>
      </trkpt>
      <trkpt lat="45.40441" lon="5.89609">
        <ele>1118.479655395</ele>
        <time>2015-11-05T17:17:22Z</time>
      </trkpt>
      <trkpt lat="45.40441" lon="5.89595">
        <ele>1116.73175516</ele>
        <time>2015-11-05T17:17:27Z</time>
      </trkpt>
      <trkpt lat="45.40447" lon="5.89589">
        <ele>1116.73175516</ele>
        <time>2015-11-05T17:17:38Z</time>
      </trkpt>
      <trkpt lat="45.4045" lon="5.89587">
        <ele>1115.767367234</ele>
        <time>2015-11-05T17:17:43Z</time>
      </trkpt>
      <trkpt lat="45.40454" lon="5.8958">
        <ele>1115.767367234</ele>
        <time>2015-11-05T17:17:53Z</time>
      </trkpt>
      <trkpt lat="45.40458" lon="5.89578">
        <ele>1114.944724068</ele>
        <time>2015-11-05T17:17:58Z</time>
      </trkpt>
      <trkpt lat="45.40469" lon="5.8957">
        <ele>1114.24539872</ele>
        <time>2015-11-05T17:18:08Z</time>
      </trkpt>
      <trkpt lat="45.40471" lon="5.89565">
        <ele>1114.24539872</ele>
        <time>2015-11-05T17:18:13Z</time>
      </trkpt>
      <trkpt lat="45.4048" lon="5.89569">
        <ele>1113.508022096</ele>
        <time>2015-11-05T17:18:23Z</time>
      </trkpt>
      <trkpt lat="45.40486" lon="5.89569">
        <ele>1113.508022096</ele>
        <time>2015-11-05T17:18:27Z</time>
      </trkpt>
      <trkpt lat="45.40497" lon="5.89557">
        <ele>1112.439247294</ele>
        <time>2015-11-05T17:18:38Z</time>
      </trkpt>
      <trkpt lat="45.40499" lon="5.89552">
        <ele>1112.439247294</ele>
        <time>2015-11-05T17:18:42Z</time>
      </trkpt>
      <trkpt lat="45.40507" lon="5.8954">
        <ele>1112.785947246</ele>
        <time>2015-11-05T17:18:53Z</time>
      </trkpt>
      <trkpt lat="45.40509" lon="5.89538">
        <ele>1112.785947246</ele>
        <time>2015-11-05T17:18:58Z</time>
      </trkpt>
      <trkpt lat="45.4051" lon="5.89534">
        <ele>1112.785947246</ele>
        <time>2015-11-05T17:19:02Z</time>
      </trkpt>
      <trkpt lat="45.4052" lon="5.89525">
        <ele>1112.416005003</ele>
        <time>2015-11-05T17:19:14Z</time>
      </trkpt>
      <trkpt lat="45.40525" lon="5.89522">
        <ele>1112.416005003</ele>
        <time>2015-11-05T17:19:18Z</time>
      </trkpt>
      <trkpt lat="45.40534" lon="5.89525">
        <ele>1111.51781078</ele>
        <time>2015-11-05T17:19:27Z</time>
      </trkpt>
      <trkpt lat="45.40536" lon="5.89516">
        <ele>1111.51781078</ele>
        <time>2015-11-05T17:19:34Z</time>
      </trkpt>
      <trkpt lat="45.4054" lon="5.89508">
        <ele>1110.988167871</ele>
        <time>2015-11-05T17:19:42Z</time>
      </trkpt>
      <trkpt lat="45.40545" lon="5.89503">
        <ele>1110.988167871</ele>
        <time>2015-11-05T17:19:48Z</time>
      </trkpt>
      <trkpt lat="45.40558" lon="5.89498">
        <ele>1110.936634118</ele>
        <time>2015-11-05T17:19:59Z</time>
      </trkpt>
      <trkpt lat="45.40563" lon="5.89493">
        <ele>1110.936634118</ele>
        <time>2015-11-05T17:20:02Z</time>
      </trkpt>
      <trkpt lat="45.40572" lon="5.89492">
        <ele>1110.598940088</ele>
        <time>2015-11-05T17:20:14Z</time>
      </trkpt>
      <trkpt lat="45.40576" lon="5.89504">
        <ele>1109.988551822</ele>
        <time>2015-11-05T17:20:18Z</time>
      </trkpt>
      <trkpt lat="45.40587" lon="5.89508">
        <ele>1109.407172099</ele>
        <time>2015-11-05T17:20:28Z</time>
      </trkpt>
      <trkpt lat="45.40592" lon="5.89511">
        <ele>1109.407172099</ele>
        <time>2015-11-05T17:20:33Z</time>
      </trkpt>
      <trkpt lat="45.406" lon="5.89515">
        <ele>1108.558055931</ele>
        <time>2015-11-05T17:20:42Z</time>
      </trkpt>
      <trkpt lat="45.40603" lon="5.8951">
        <ele>1108.558055931</ele>
        <time>2015-11-05T17:20:48Z</time>
      </trkpt>
      <trkpt lat="45.4062" lon="5.89516">
        <ele>1108.176028682</ele>
        <time>2015-11-05T17:20:58Z</time>
      </trkpt>
      <trkpt lat="45.40625" lon="5.89515">
        <ele>1108.176028682</ele>
        <time>2015-11-05T17:21:02Z</time>
      </trkpt>
      <trkpt lat="45.40636" lon="5.89526">
        <ele>1107.355644503</ele>
        <time>2015-11-05T17:21:14Z</time>
      </trkpt>
      <trkpt lat="45.40638" lon="5.89525">
        <ele>1107.355644503</ele>
        <time>2015-11-05T17:21:18Z</time>
      </trkpt>
      <trkpt lat="45.40645" lon="5.89535">
        <ele>1106.268218854</ele>
        <time>2015-11-05T17:21:34Z</time>
      </trkpt>
      <trkpt lat="45.4065" lon="5.89538">
        <ele>1106.268218854</ele>
        <time>2015-11-05T17:21:38Z</time>
      </trkpt>
      <trkpt lat="45.40661" lon="5.89537">
        <ele>1104.208799638</ele>
        <time>2015-11-05T17:21:47Z</time>
      </trkpt>
      <trkpt lat="45.40667" lon="5.89541">
        <ele>1104.208799638</ele>
        <time>2015-11-05T17:21:53Z</time>
      </trkpt>
      <trkpt lat="45.40679" lon="5.89534">
        <ele>1103.697622979</ele>
        <time>2015-11-05T17:22:03Z</time>
      </trkpt>
      <trkpt lat="45.40684" lon="5.8954">
        <ele>1103.697622979</ele>
        <time>2015-11-05T17:22:07Z</time>
      </trkpt>
      <trkpt lat="45.407" lon="5.89544">
        <ele>1102.310001111</ele>
        <time>2015-11-05T17:22:18Z</time>
      </trkpt>
      <trkpt lat="45.40705" lon="5.89538">
        <ele>1102.310001111</ele>
        <time>2015-11-05T17:22:23Z</time>
      </trkpt>
      <trkpt lat="45.40708" lon="5.89538">
        <ele>1101.404816134</ele>
        <time>2015-11-05T17:22:32Z</time>
      </trkpt>
      <trkpt lat="45.40715" lon="5.89539">
        <ele>1101.404816134</ele>
        <time>2015-11-05T17:22:38Z</time>
      </trkpt>
      <trkpt lat="45.40725" lon="5.89543">
        <ele>1100.654760838</ele>
        <time>2015-11-05T17:22:47Z</time>
      </trkpt>
      <trkpt lat="45.40729" lon="5.89538">
        <ele>1100.654760838</ele>
        <time>2015-11-05T17:22:52Z</time>
      </trkpt>
      <trkpt lat="45.40742" lon="5.89524">
        <ele>1100.332786716</ele>
        <time>2015-11-05T17:23:08Z</time>
      </trkpt>
      <trkpt lat="45.40753" lon="5.89517">
        <ele>1099.249682151</ele>
        <time>2015-11-05T17:23:23Z</time>
      </trkpt>
      <trkpt lat="45.40778" lon="5.89525">
        <ele>1096.882367738</ele>
        <time>2015-11-05T17:23:38Z</time>
      </trkpt>
      <trkpt lat="45.4078" lon="5.89517">
        <ele>1096.882367738</ele>
        <time>2015-11-05T17:23:43Z</time>
      </trkpt>
      <trkpt lat="45.4079" lon="5.89512">
        <ele>1095.632201567</ele>
        <time>2015-11-05T17:23:53Z</time>
      </trkpt>
      <trkpt lat="45.40791" lon="5.89511">
        <ele>1095.632201567</ele>
        <time>2015-11-05T17:23:58Z</time>
      </trkpt>
      <trkpt lat="45.40802" lon="5.89512">
        <ele>1094.406625923</ele>
        <time>2015-11-05T17:24:08Z</time>
      </trkpt>
      <trkpt lat="45.40807" lon="5.89512">
        <ele>1094.406625923</ele>
        <time>2015-11-05T17:24:12Z</time>
      </trkpt>
      <trkpt lat="45.40817" lon="5.89502">
        <ele>1093.0581066</ele>
        <time>2015-11-05T17:24:22Z</time>
      </trkpt>
      <trkpt lat="45.4082" lon="5.89492">
        <ele>1093.0581066</ele>
        <time>2015-11-05T17:24:28Z</time>
      </trkpt>
      <trkpt lat="45.40823" lon="5.89485">
        <ele>1092.603339978</ele>
        <time>2015-11-05T17:24:38Z</time>
      </trkpt>
      <trkpt lat="45.40827" lon="5.89479">
        <ele>1092.603339978</ele>
        <time>2015-11-05T17:24:43Z</time>
      </trkpt>
      <trkpt lat="45.40833" lon="5.89473">
        <ele>1092.829094127</ele>
        <time>2015-11-05T17:24:53Z</time>
      </trkpt>
      <trkpt lat="45.40836" lon="5.8947">
        <ele>1092.829094127</ele>
        <time>2015-11-05T17:24:57Z</time>
      </trkpt>
      <trkpt lat="45.40846" lon="5.89453">
        <ele>1092.383153625</ele>
        <time>2015-11-05T17:25:07Z</time>
      </trkpt>
      <trkpt lat="45.40848" lon="5.89446">
        <ele>1092.383153625</ele>
        <time>2015-11-05T17:25:12Z</time>
      </trkpt>
      <trkpt lat="45.40852" lon="5.8943">
        <ele>1091.744003708</ele>
        <time>2015-11-05T17:25:22Z</time>
      </trkpt>
      <trkpt lat="45.40851" lon="5.89425">
        <ele>1091.744003708</ele>
        <time>2015-11-05T17:25:28Z</time>
      </trkpt>
      <trkpt lat="45.40853" lon="5.89407">
        <ele>1091.067448374</ele>
        <time>2015-11-05T17:25:42Z</time>
      </trkpt>
      <trkpt lat="45.40854" lon="5.89402">
        <ele>1091.067448374</ele>
        <time>2015-11-05T17:25:48Z</time>
      </trkpt>
      <trkpt lat="45.40862" lon="5.8939">
        <ele>1089.489317589</ele>
        <time>2015-11-05T17:25:58Z</time>
      </trkpt>
      <trkpt lat="45.40864" lon="5.89371">
        <ele>1087.36447818</ele>
        <time>2015-11-05T17:26:13Z</time>
      </trkpt>
      <trkpt lat="45.40863" lon="5.89368">
        <ele>1087.36447818</ele>
        <time>2015-11-05T17:26:18Z</time>
      </trkpt>
      <trkpt lat="45.40861" lon="5.89358">
        <ele>1085.743945667</ele>
        <time>2015-11-05T17:26:28Z</time>
      </trkpt>
      <trkpt lat="45.4086" lon="5.89349">
        <ele>1085.743945667</ele>
        <time>2015-11-05T17:26:33Z</time>
      </trkpt>
      <trkpt lat="45.40862" lon="5.89337">
        <ele>1084.879675438</ele>
        <time>2015-11-05T17:26:44Z</time>
      </trkpt>
      <trkpt lat="45.40862" lon="5.89334">
        <ele>1084.879675438</ele>
        <time>2015-11-05T17:26:48Z</time>
      </trkpt>
      <trkpt lat="45.40866" lon="5.8932">
        <ele>1084.714879207</ele>
        <time>2015-11-05T17:26:58Z</time>
      </trkpt>
      <trkpt lat="45.40868" lon="5.89312">
        <ele>1084.714879207</ele>
        <time>2015-11-05T17:27:03Z</time>
      </trkpt>
      <trkpt lat="45.4087" lon="5.89296">
        <ele>1085.195082296</ele>
        <time>2015-11-05T17:27:13Z</time>
      </trkpt>
      <trkpt lat="45.40871" lon="5.8929">
        <ele>1085.195082296</ele>
        <time>2015-11-05T17:27:18Z</time>
      </trkpt>
      <trkpt lat="45.40876" lon="5.89278">
        <ele>1085.83577329</ele>
        <time>2015-11-05T17:27:29Z</time>
      </trkpt>
      <trkpt lat="45.40878" lon="5.89274">
        <ele>1085.83577329</ele>
        <time>2015-11-05T17:27:33Z</time>
      </trkpt>
      <trkpt lat="45.40884" lon="5.89262">
        <ele>1086.331801832</ele>
        <time>2015-11-05T17:27:48Z</time>
      </trkpt>
      <trkpt lat="45.40884" lon="5.8926">
        <ele>1086.331801832</ele>
        <time>2015-11-05T17:27:53Z</time>
      </trkpt>
      <trkpt lat="45.40888" lon="5.89258">
        <ele>1086.331801832</ele>
        <time>2015-11-05T17:28:02Z</time>
      </trkpt>
      <trkpt lat="45.4089" lon="5.89255">
        <ele>1086.331801832</ele>
        <time>2015-11-05T17:28:07Z</time>
      </trkpt>
      <trkpt lat="45.40895" lon="5.89257">
        <ele>1085.96861818</ele>
        <time>2015-11-05T17:28:17Z</time>
      </trkpt>
      <trkpt lat="45.40901" lon="5.89255">
        <ele>1085.96861818</ele>
        <time>2015-11-05T17:28:22Z</time>
      </trkpt>
      <trkpt lat="45.40911" lon="5.89248">
        <ele>1086.104245718</ele>
        <time>2015-11-05T17:28:33Z</time>
      </trkpt>
      <trkpt lat="45.40911" lon="5.89247">
        <ele>1086.104245718</ele>
        <time>2015-11-05T17:28:38Z</time>
      </trkpt>
      <trkpt lat="45.4092" lon="5.8924">
        <ele>1086.554555954</ele>
        <time>2015-11-05T17:28:48Z</time>
      </trkpt>
      <trkpt lat="45.40924" lon="5.89237">
        <ele>1086.554555954</ele>
        <time>2015-11-05T17:28:53Z</time>
      </trkpt>
      <trkpt lat="45.40929" lon="5.89233">
        <ele>1087.436406994</ele>
        <time>2015-11-05T17:29:03Z</time>
      </trkpt>
      <trkpt lat="45.40932" lon="5.89227">
        <ele>1087.436406994</ele>
        <time>2015-11-05T17:29:08Z</time>
      </trkpt>
      <trkpt lat="45.40944" lon="5.89214">
        <ele>1087.127649908</ele>
        <time>2015-11-05T17:29:18Z</time>
      </trkpt>
      <trkpt lat="45.40947" lon="5.89207">
        <ele>1087.127649908</ele>
        <time>2015-11-05T17:29:23Z</time>
      </trkpt>
      <trkpt lat="45.40957" lon="5.89199">
        <ele>1086.578650155</ele>
        <time>2015-11-05T17:29:33Z</time>
      </trkpt>
      <trkpt lat="45.40957" lon="5.89196">
        <ele>1086.578650155</ele>
        <time>2015-11-05T17:29:38Z</time>
      </trkpt>
      <trkpt lat="45.40965" lon="5.89185">
        <ele>1086.814867502</ele>
        <time>2015-11-05T17:29:48Z</time>
      </trkpt>
      <trkpt lat="45.40967" lon="5.8918">
        <ele>1086.814867502</ele>
        <time>2015-11-05T17:29:53Z</time>
      </trkpt>
      <trkpt lat="45.40979" lon="5.89169">
        <ele>1087.775573272</ele>
        <time>2015-11-05T17:30:08Z</time>
      </trkpt>
      <trkpt lat="45.40986" lon="5.89168">
        <ele>1087.775573272</ele>
        <time>2015-11-05T17:30:23Z</time>
      </trkpt>
      <trkpt lat="45.40994" lon="5.89163">
        <ele>1087.240919373</ele>
        <time>2015-11-05T17:30:28Z</time>
      </trkpt>
      <trkpt lat="45.41001" lon="5.89153">
        <ele>1087.625886332</ele>
        <time>2015-11-05T17:30:37Z</time>
      </trkpt>
      <trkpt lat="45.41004" lon="5.89149">
        <ele>1087.625886332</ele>
        <time>2015-11-05T17:30:43Z</time>
      </trkpt>
      <trkpt lat="45.41009" lon="5.89139">
        <ele>1089.003924603</ele>
        <time>2015-11-05T17:30:53Z</time>
      </trkpt>
      <trkpt lat="45.41012" lon="5.89137">
        <ele>1089.003924603</ele>
        <time>2015-11-05T17:30:58Z</time>
      </trkpt>
      <trkpt lat="45.41015" lon="5.89124">
        <ele>1091.008093261</ele>
        <time>2015-11-05T17:31:08Z</time>
      </trkpt>
      <trkpt lat="45.41019" lon="5.89117">
        <ele>1091.008093261</ele>
        <time>2015-11-05T17:31:13Z</time>
      </trkpt>
      <trkpt lat="45.41025" lon="5.89107">
        <ele>1091.999776891</ele>
        <time>2015-11-05T17:31:23Z</time>
      </trkpt>
      <trkpt lat="45.41026" lon="5.89104">
        <ele>1091.999776891</ele>
        <time>2015-11-05T17:31:28Z</time>
      </trkpt>
      <trkpt lat="45.41028" lon="5.89085">
        <ele>1092.62537233</ele>
        <time>2015-11-05T17:31:39Z</time>
      </trkpt>
      <trkpt lat="45.41028" lon="5.89079">
        <ele>1092.62537233</ele>
        <time>2015-11-05T17:31:43Z</time>
      </trkpt>
      <trkpt lat="45.41029" lon="5.89075">
        <ele>1092.62537233</ele>
        <time>2015-11-05T17:31:48Z</time>
      </trkpt>
      <trkpt lat="45.41027" lon="5.89065">
        <ele>1094.637848601</ele>
        <time>2015-11-05T17:31:58Z</time>
      </trkpt>
      <trkpt lat="45.41027" lon="5.89057">
        <ele>1094.637848601</ele>
        <time>2015-11-05T17:32:02Z</time>
      </trkpt>
      <trkpt lat="45.41029" lon="5.8904">
        <ele>1096.19898914</ele>
        <time>2015-11-05T17:32:13Z</time>
      </trkpt>
      <trkpt lat="45.4103" lon="5.89035">
        <ele>1096.19898914</ele>
        <time>2015-11-05T17:32:18Z</time>
      </trkpt>
      <trkpt lat="45.41033" lon="5.89017">
        <ele>1097.624583596</ele>
        <time>2015-11-05T17:32:29Z</time>
      </trkpt>
      <trkpt lat="45.41033" lon="5.89016">
        <ele>1097.624583596</ele>
        <time>2015-11-05T17:32:33Z</time>
      </trkpt>
      <trkpt lat="45.41035" lon="5.89001">
        <ele>1099.063647166</ele>
        <time>2015-11-05T17:32:43Z</time>
      </trkpt>
      <trkpt lat="45.41036" lon="5.88996">
        <ele>1099.063647166</ele>
        <time>2015-11-05T17:32:48Z</time>
      </trkpt>
      <trkpt lat="45.41037" lon="5.88986">
        <ele>1101.374926876</ele>
        <time>2015-11-05T17:32:58Z</time>
      </trkpt>
      <trkpt lat="45.4104" lon="5.8898">
        <ele>1101.374926876</ele>
        <time>2015-11-05T17:33:03Z</time>
      </trkpt>
      <trkpt lat="45.41041" lon="5.88969">
        <ele>1103.334248804</ele>
        <time>2015-11-05T17:33:12Z</time>
      </trkpt>
      <trkpt lat="45.41042" lon="5.88963">
        <ele>1103.334248804</ele>
        <time>2015-11-05T17:33:18Z</time>
      </trkpt>
      <trkpt lat="45.41047" lon="5.88949">
        <ele>1104.673189846</ele>
        <time>2015-11-05T17:33:28Z</time>
      </trkpt>
      <trkpt lat="45.41047" lon="5.88944">
        <ele>1104.673189846</ele>
        <time>2015-11-05T17:33:33Z</time>
      </trkpt>
      <trkpt lat="45.4105" lon="5.88935">
        <ele>1105.433179648</ele>
        <time>2015-11-05T17:33:43Z</time>
      </trkpt>
      <trkpt lat="45.4105" lon="5.8893">
        <ele>1105.433179648</ele>
        <time>2015-11-05T17:33:48Z</time>
      </trkpt>
      <trkpt lat="45.41052" lon="5.88915">
        <ele>1105.654399722</ele>
        <time>2015-11-05T17:33:58Z</time>
      </trkpt>
      <trkpt lat="45.41054" lon="5.88915">
        <ele>1105.654399722</ele>
        <time>2015-11-05T17:34:03Z</time>
      </trkpt>
      <trkpt lat="45.41055" lon="5.88909">
        <ele>1105.654399722</ele>
        <time>2015-11-05T17:34:07Z</time>
      </trkpt>
      <trkpt lat="45.41058" lon="5.88907">
        <ele>1105.80809097</ele>
        <time>2015-11-05T17:34:13Z</time>
      </trkpt>
      <trkpt lat="45.41059" lon="5.889">
        <ele>1105.80809097</ele>
        <time>2015-11-05T17:34:18Z</time>
      </trkpt>
      <trkpt lat="45.41061" lon="5.88897">
        <ele>1105.80809097</ele>
        <time>2015-11-05T17:34:23Z</time>
      </trkpt>
      <trkpt lat="45.41064" lon="5.88892">
        <ele>1105.898890981</ele>
        <time>2015-11-05T17:34:33Z</time>
      </trkpt>
      <trkpt lat="45.41075" lon="5.88881">
        <ele>1105.066752027</ele>
        <time>2015-11-05T17:34:48Z</time>
      </trkpt>
      <trkpt lat="45.41076" lon="5.88875">
        <ele>1105.066752027</ele>
        <time>2015-11-05T17:34:53Z</time>
      </trkpt>
      <trkpt lat="45.4108" lon="5.88874">
        <ele>1105.066752027</ele>
        <time>2015-11-05T17:35:03Z</time>
      </trkpt>
      <trkpt lat="45.4108" lon="5.88874">
        <ele>1105.066752027</ele>
        <time>2015-11-05T17:35:08Z</time>
      </trkpt>
      <trkpt lat="45.41082" lon="5.88871">
        <ele>1104.10274896</ele>
        <time>2015-11-05T17:35:18Z</time>
      </trkpt>
      <trkpt lat="45.41084" lon="5.88869">
        <ele>1104.10274896</ele>
        <time>2015-11-05T17:35:23Z</time>
      </trkpt>
      <trkpt lat="45.41102" lon="5.88861">
        <ele>1101.146326701</ele>
        <time>2015-11-05T17:35:38Z</time>
      </trkpt>
      <trkpt lat="45.4111" lon="5.8885">
        <ele>1098.082064035</ele>
        <time>2015-11-05T17:35:52Z</time>
      </trkpt>
      <trkpt lat="45.41112" lon="5.88848">
        <ele>1098.082064035</ele>
        <time>2015-11-05T17:35:57Z</time>
      </trkpt>
      <trkpt lat="45.41118" lon="5.88834">
        <ele>1095.791799443</ele>
        <time>2015-11-05T17:36:07Z</time>
      </trkpt>
      <trkpt lat="45.41123" lon="5.88832">
        <ele>1095.791799443</ele>
        <time>2015-11-05T17:36:12Z</time>
      </trkpt>
      <trkpt lat="45.41131" lon="5.88829">
        <ele>1092.640566228</ele>
        <time>2015-11-05T17:36:22Z</time>
      </trkpt>
      <trkpt lat="45.41132" lon="5.88823">
        <ele>1092.640566228</ele>
        <time>2015-11-05T17:36:27Z</time>
      </trkpt>
      <trkpt lat="45.41133" lon="5.8882">
        <ele>1092.640566228</ele>
        <time>2015-11-05T17:36:37Z</time>
      </trkpt>
      <trkpt lat="45.41134" lon="5.88812">
        <ele>1089.133478338</ele>
        <time>2015-11-05T17:36:43Z</time>
      </trkpt>
      <trkpt lat="45.41139" lon="5.88801">
        <ele>1089.133478338</ele>
        <time>2015-11-05T17:36:54Z</time>
      </trkpt>
      <trkpt lat="45.41141" lon="5.88802">
        <ele>1085.739519648</ele>
        <time>2015-11-05T17:36:58Z</time>
      </trkpt>
      <trkpt lat="45.41147" lon="5.88794">
        <ele>1085.739519648</ele>
        <time>2015-11-05T17:37:08Z</time>
      </trkpt>
      <trkpt lat="45.41149" lon="5.88788">
        <ele>1082.028187521</ele>
        <time>2015-11-05T17:37:13Z</time>
      </trkpt>
      <trkpt lat="45.41159" lon="5.88786">
        <ele>1078.033748575</ele>
        <time>2015-11-05T17:37:23Z</time>
      </trkpt>
      <trkpt lat="45.41163" lon="5.88782">
        <ele>1078.033748575</ele>
        <time>2015-11-05T17:37:28Z</time>
      </trkpt>
      <trkpt lat="45.41167" lon="5.88779">
        <ele>1078.033748575</ele>
        <time>2015-11-05T17:37:38Z</time>
      </trkpt>
      <trkpt lat="45.41168" lon="5.88773">
        <ele>1073.500417024</ele>
        <time>2015-11-05T17:37:44Z</time>
      </trkpt>
      <trkpt lat="45.41172" lon="5.88769">
        <ele>1073.500417024</ele>
        <time>2015-11-05T17:37:53Z</time>
      </trkpt>
      <trkpt lat="45.41173" lon="5.88764">
        <ele>1073.500417024</ele>
        <time>2015-11-05T17:37:58Z</time>
      </trkpt>
      <trkpt lat="45.41177" lon="5.88752">
        <ele>1068.192572961</ele>
        <time>2015-11-05T17:38:13Z</time>
      </trkpt>
      <trkpt lat="45.41181" lon="5.88737">
        <ele>1063.4791366</ele>
        <time>2015-11-05T17:38:27Z</time>
      </trkpt>
      <trkpt lat="45.41185" lon="5.88727">
        <ele>1063.4791366</ele>
        <time>2015-11-05T17:38:33Z</time>
      </trkpt>
      <trkpt lat="45.41193" lon="5.88721">
        <ele>1058.464940819</ele>
        <time>2015-11-05T17:38:42Z</time>
      </trkpt>
      <trkpt lat="45.41202" lon="5.88712">
        <ele>1053.618202138</ele>
        <time>2015-11-05T17:38:58Z</time>
      </trkpt>
      <trkpt lat="45.41204" lon="5.88711">
        <ele>1053.618202138</ele>
        <time>2015-11-05T17:39:02Z</time>
      </trkpt>
      <trkpt lat="45.41215" lon="5.88699">
        <ele>1048.363250184</ele>
        <time>2015-11-05T17:39:15Z</time>
      </trkpt>
      <trkpt lat="45.41216" lon="5.88699">
        <ele>1048.363250184</ele>
        <time>2015-11-05T17:39:18Z</time>
      </trkpt>
      <trkpt lat="45.41219" lon="5.88697">
        <ele>1048.363250184</ele>
        <time>2015-11-05T17:39:22Z</time>
      </trkpt>
      <trkpt lat="45.41224" lon="5.88686">
        <ele>1043.896917102</ele>
        <time>2015-11-05T17:39:32Z</time>
      </trkpt>
      <trkpt lat="45.41227" lon="5.88681">
        <ele>1043.896917102</ele>
        <time>2015-11-05T17:39:37Z</time>
      </trkpt>
    </trkseg>
  </trk>
</gpx>